<?xml version="1.0" encoding="utf-8"?>
<gpx xmlns:xsi="http://www.w3.org/2001/XMLSchema-instance" xmlns:xsd="http://www.w3.org/2001/XMLSchema" version="1.1" creator="Shapelink.com" xmlns="http://www.topografix.com/GPX/1/1" xmlns:gpxtpx="http://www.garmin.com/xmlschemas/TrackPointExtension/v1">
  <metadata>
    <name>Löpning 10.63 km, 2018-01-07</name>
    <desc></desc>
    <author><name>Bengt-Åke Forslund</name></author> 
    <time>2018-01-07T11:47:44Z</time>
  </metadata>
  <trk>
    <name>Löpning 10.63 km, 2018-01-07</name>
    <trkseg>
      <trkpt lat="62.641650372958" lon="17.899151572863">
        <ele>24.2</ele>
        <time>2018-01-07T11:47:44Z</time>
      </trkpt>
      <trkpt lat="62.641676692124" lon="17.898968931262">
        <ele>25.4</ele>
        <time>2018-01-07T11:49:11Z</time>
      </trkpt>
      <trkpt lat="62.641684738748" lon="17.898939846069">
        <ele>25.2</ele>
        <time>2018-01-07T11:49:12Z</time>
      </trkpt>
      <trkpt lat="62.641696892503" lon="17.898881424226">
        <ele>25.2</ele>
        <time>2018-01-07T11:49:13Z</time>
      </trkpt>
      <trkpt lat="62.641700412901" lon="17.898836329604">
        <ele>25</ele>
        <time>2018-01-07T11:49:14Z</time>
      </trkpt>
      <trkpt lat="62.641706866964" lon="17.89877044787">
        <ele>25</ele>
        <time>2018-01-07T11:49:15Z</time>
      </trkpt>
      <trkpt lat="62.641706112593" lon="17.898710852561">
        <ele>25</ele>
        <time>2018-01-07T11:49:16Z</time>
      </trkpt>
      <trkpt lat="62.641710303543" lon="17.898641869524">
        <ele>25</ele>
        <time>2018-01-07T11:49:17Z</time>
      </trkpt>
      <trkpt lat="62.641716254692" lon="17.898560984189">
        <ele>25</ele>
        <time>2018-01-07T11:49:18Z</time>
      </trkpt>
      <trkpt lat="62.641721116194" lon="17.898493174618">
        <ele>24.8</ele>
        <time>2018-01-07T11:49:19Z</time>
      </trkpt>
      <trkpt lat="62.64172648061" lon="17.898405919039">
        <ele>24.8</ele>
        <time>2018-01-07T11:49:20Z</time>
      </trkpt>
      <trkpt lat="62.641733521406" lon="17.898328554102">
        <ele>24.8</ele>
        <time>2018-01-07T11:49:21Z</time>
      </trkpt>
      <trkpt lat="62.641740813659" lon="17.898248926052">
        <ele>24.6</ele>
        <time>2018-01-07T11:49:22Z</time>
      </trkpt>
      <trkpt lat="62.641749530835" lon="17.898152869478">
        <ele>24.6</ele>
        <time>2018-01-07T11:49:23Z</time>
      </trkpt>
      <trkpt lat="62.641758499468" lon="17.898052202859">
        <ele>24.2</ele>
        <time>2018-01-07T11:49:24Z</time>
      </trkpt>
      <trkpt lat="62.641767803377" lon="17.897952542068">
        <ele>23.8</ele>
        <time>2018-01-07T11:49:25Z</time>
      </trkpt>
      <trkpt lat="62.641774676535" lon="17.897854390019">
        <ele>23.6</ele>
        <time>2018-01-07T11:49:26Z</time>
      </trkpt>
      <trkpt lat="62.641771910508" lon="17.897760093644">
        <ele>23.2</ele>
        <time>2018-01-07T11:49:27Z</time>
      </trkpt>
      <trkpt lat="62.641753637966" lon="17.897675352635">
        <ele>22.8</ele>
        <time>2018-01-07T11:49:28Z</time>
      </trkpt>
      <trkpt lat="62.641724301316" lon="17.897622043751">
        <ele>22.2</ele>
        <time>2018-01-07T11:49:29Z</time>
      </trkpt>
      <trkpt lat="62.641695551399" lon="17.897593293834">
        <ele>22</ele>
        <time>2018-01-07T11:49:30Z</time>
      </trkpt>
      <trkpt lat="62.641663700179" lon="17.897591785092">
        <ele>21.8</ele>
        <time>2018-01-07T11:49:31Z</time>
      </trkpt>
      <trkpt lat="62.641645679094" lon="17.897608129797">
        <ele>22</ele>
        <time>2018-01-07T11:49:32Z</time>
      </trkpt>
      <trkpt lat="62.641621036308" lon="17.897633694592">
        <ele>22</ele>
        <time>2018-01-07T11:49:33Z</time>
      </trkpt>
      <trkpt lat="62.641596225884" lon="17.897671916056">
        <ele>22.2</ele>
        <time>2018-01-07T11:49:34Z</time>
      </trkpt>
      <trkpt lat="62.641575271134" lon="17.897696642661">
        <ele>22.4</ele>
        <time>2018-01-07T11:49:35Z</time>
      </trkpt>
      <trkpt lat="62.641545599208" lon="17.897731343727">
        <ele>22.6</ele>
        <time>2018-01-07T11:49:36Z</time>
      </trkpt>
      <trkpt lat="62.641523470992" lon="17.897763362585">
        <ele>22.6</ele>
        <time>2018-01-07T11:49:37Z</time>
      </trkpt>
      <trkpt lat="62.641506707192" lon="17.897789514113">
        <ele>22.6</ele>
        <time>2018-01-07T11:49:38Z</time>
      </trkpt>
      <trkpt lat="62.641480304207" lon="17.89781910222">
        <ele>22.6</ele>
        <time>2018-01-07T11:49:39Z</time>
      </trkpt>
      <trkpt lat="62.641461864027" lon="17.897840308427">
        <ele>22.6</ele>
        <time>2018-01-07T11:49:40Z</time>
      </trkpt>
      <trkpt lat="62.641444094399" lon="17.897853719467">
        <ele>22.6</ele>
        <time>2018-01-07T11:49:41Z</time>
      </trkpt>
      <trkpt lat="62.641430096626" lon="17.897871572914">
        <ele>22.8</ele>
        <time>2018-01-07T11:49:42Z</time>
      </trkpt>
      <trkpt lat="62.641410818256" lon="17.897895042234">
        <ele>23</ele>
        <time>2018-01-07T11:49:43Z</time>
      </trkpt>
      <trkpt lat="62.641394808827" lon="17.89791046493">
        <ele>23</ele>
        <time>2018-01-07T11:49:44Z</time>
      </trkpt>
      <trkpt lat="62.64137779357" lon="17.897923289237">
        <ele>23.2</ele>
        <time>2018-01-07T11:49:45Z</time>
      </trkpt>
      <trkpt lat="62.641362538512" lon="17.897937203191">
        <ele>23.4</ele>
        <time>2018-01-07T11:49:46Z</time>
      </trkpt>
      <trkpt lat="62.641346277626" lon="17.897953464077">
        <ele>23.4</ele>
        <time>2018-01-07T11:49:47Z</time>
      </trkpt>
      <trkpt lat="62.64132750217" lon="17.897970144058">
        <ele>23.6</ele>
        <time>2018-01-07T11:49:48Z</time>
      </trkpt>
      <trkpt lat="62.641308307619" lon="17.897983974193">
        <ele>23.8</ele>
        <time>2018-01-07T11:49:49Z</time>
      </trkpt>
      <trkpt lat="62.641288610154" lon="17.897999983622">
        <ele>23.8</ele>
        <time>2018-01-07T11:49:50Z</time>
      </trkpt>
      <trkpt lat="62.64126799068" lon="17.898009958083">
        <ele>24</ele>
        <time>2018-01-07T11:49:51Z</time>
      </trkpt>
      <trkpt lat="62.641252232708" lon="17.898020519277">
        <ele>24.2</ele>
        <time>2018-01-07T11:49:52Z</time>
      </trkpt>
      <trkpt lat="62.641229517759" lon="17.898035941973">
        <ele>24.4</ele>
        <time>2018-01-07T11:49:53Z</time>
      </trkpt>
      <trkpt lat="62.641202444222" lon="17.898052286678">
        <ele>24.6</ele>
        <time>2018-01-07T11:49:54Z</time>
      </trkpt>
      <trkpt lat="62.641181824748" lon="17.898064524252">
        <ele>24.6</ele>
        <time>2018-01-07T11:49:55Z</time>
      </trkpt>
      <trkpt lat="62.641161875826" lon="17.89807977931">
        <ele>24.8</ele>
        <time>2018-01-07T11:49:56Z</time>
      </trkpt>
      <trkpt lat="62.64113807123" lon="17.898083467346">
        <ele>25</ele>
        <time>2018-01-07T11:49:57Z</time>
      </trkpt>
      <trkpt lat="62.641113093168" lon="17.89808397026">
        <ele>25</ele>
        <time>2018-01-07T11:49:58Z</time>
      </trkpt>
      <trkpt lat="62.641089288572" lon="17.898077935292">
        <ele>25.2</ele>
        <time>2018-01-07T11:49:59Z</time>
      </trkpt>
      <trkpt lat="62.641072021858" lon="17.898066535908">
        <ele>25.2</ele>
        <time>2018-01-07T11:50:00Z</time>
      </trkpt>
      <trkpt lat="62.641054755144" lon="17.898052286678">
        <ele>25.2</ele>
        <time>2018-01-07T11:50:01Z</time>
      </trkpt>
      <trkpt lat="62.641040086819" lon="17.898032589213">
        <ele>25.2</ele>
        <time>2018-01-07T11:50:02Z</time>
      </trkpt>
      <trkpt lat="62.641025083218" lon="17.89800350402">
        <ele>25.6</ele>
        <time>2018-01-07T11:50:03Z</time>
      </trkpt>
      <trkpt lat="62.641011420721" lon="17.897976765759">
        <ele>25.6</ele>
        <time>2018-01-07T11:50:04Z</time>
      </trkpt>
      <trkpt lat="62.641001194803" lon="17.897943321978">
        <ele>25.8</ele>
        <time>2018-01-07T11:50:05Z</time>
      </trkpt>
      <trkpt lat="62.640992812903" lon="17.897913650052">
        <ele>26</ele>
        <time>2018-01-07T11:50:06Z</time>
      </trkpt>
      <trkpt lat="62.64098552065" lon="17.897885067773">
        <ele>26.2</ele>
        <time>2018-01-07T11:50:07Z</time>
      </trkpt>
      <trkpt lat="62.640978144578" lon="17.897853048915">
        <ele>26.2</ele>
        <time>2018-01-07T11:50:08Z</time>
      </trkpt>
      <trkpt lat="62.640970349411" lon="17.897806864646">
        <ele>26.4</ele>
        <time>2018-01-07T11:50:09Z</time>
      </trkpt>
      <trkpt lat="62.640962218968" lon="17.897761686205">
        <ele>26.6</ele>
        <time>2018-01-07T11:50:10Z</time>
      </trkpt>
      <trkpt lat="62.640955597267" lon="17.897718184144">
        <ele>26.8</ele>
        <time>2018-01-07T11:50:11Z</time>
      </trkpt>
      <trkpt lat="62.640949394661" lon="17.897682728707">
        <ele>27</ele>
        <time>2018-01-07T11:50:12Z</time>
      </trkpt>
      <trkpt lat="62.640941683313" lon="17.897643752872">
        <ele>27.2</ele>
        <time>2018-01-07T11:50:13Z</time>
      </trkpt>
      <trkpt lat="62.640931625033" lon="17.89761290748">
        <ele>27.4</ele>
        <time>2018-01-07T11:50:14Z</time>
      </trkpt>
      <trkpt lat="62.640924081323" lon="17.897582648821">
        <ele>27.8</ele>
        <time>2018-01-07T11:50:15Z</time>
      </trkpt>
      <trkpt lat="62.64091846545" lon="17.897545517004">
        <ele>27.8</ele>
        <time>2018-01-07T11:50:16Z</time>
      </trkpt>
      <trkpt lat="62.64091259812" lon="17.897507127902">
        <ele>28</ele>
        <time>2018-01-07T11:50:17Z</time>
      </trkpt>
      <trkpt lat="62.64090673079" lon="17.897468906438">
        <ele>28.2</ele>
        <time>2018-01-07T11:50:18Z</time>
      </trkpt>
      <trkpt lat="62.64090170165" lon="17.897433870096">
        <ele>28.4</ele>
        <time>2018-01-07T11:50:19Z</time>
      </trkpt>
      <trkpt lat="62.640894325578" lon="17.897400677772">
        <ele>28.4</ele>
        <time>2018-01-07T11:50:20Z</time>
      </trkpt>
      <trkpt lat="62.640885608402" lon="17.897364467964">
        <ele>28.6</ele>
        <time>2018-01-07T11:50:21Z</time>
      </trkpt>
      <trkpt lat="62.640877561778" lon="17.897323145197">
        <ele>28.8</ele>
        <time>2018-01-07T11:50:22Z</time>
      </trkpt>
      <trkpt lat="62.640867922593" lon="17.897268830485">
        <ele>29</ele>
        <time>2018-01-07T11:50:23Z</time>
      </trkpt>
      <trkpt lat="62.640860295064" lon="17.897219544913">
        <ele>29</ele>
        <time>2018-01-07T11:50:24Z</time>
      </trkpt>
      <trkpt lat="62.640852835173" lon="17.89718040144">
        <ele>29.2</ele>
        <time>2018-01-07T11:50:25Z</time>
      </trkpt>
      <trkpt lat="62.640845123825" lon="17.89714352108">
        <ele>29.4</ele>
        <time>2018-01-07T11:50:26Z</time>
      </trkpt>
      <trkpt lat="62.640837915391" lon="17.897110580213">
        <ele>29.4</ele>
        <time>2018-01-07T11:50:27Z</time>
      </trkpt>
      <trkpt lat="62.640829114396" lon="17.897066826695">
        <ele>29.6</ele>
        <time>2018-01-07T11:50:28Z</time>
      </trkpt>
      <trkpt lat="62.640819475211" lon="17.897028353774">
        <ele>29.8</ele>
        <time>2018-01-07T11:50:29Z</time>
      </trkpt>
      <trkpt lat="62.640813524062" lon="17.896993317432">
        <ele>29.8</ele>
        <time>2018-01-07T11:50:30Z</time>
      </trkpt>
      <trkpt lat="62.640805142162" lon="17.896951407932">
        <ele>30</ele>
        <time>2018-01-07T11:50:31Z</time>
      </trkpt>
      <trkpt lat="62.640797346995" lon="17.896920981635">
        <ele>30.2</ele>
        <time>2018-01-07T11:50:32Z</time>
      </trkpt>
      <trkpt lat="62.640788126905" lon="17.896887370216">
        <ele>30.4</ele>
        <time>2018-01-07T11:50:33Z</time>
      </trkpt>
      <trkpt lat="62.640781505204" lon="17.896854848444">
        <ele>30.6</ele>
        <time>2018-01-07T11:50:34Z</time>
      </trkpt>
      <trkpt lat="62.640773626218" lon="17.896819644464">
        <ele>30.8</ele>
        <time>2018-01-07T11:50:35Z</time>
      </trkpt>
      <trkpt lat="62.64076507668" lon="17.896788379977">
        <ele>31</ele>
        <time>2018-01-07T11:50:36Z</time>
      </trkpt>
      <trkpt lat="62.640757197694" lon="17.896760216793">
        <ele>31.2</ele>
        <time>2018-01-07T11:50:37Z</time>
      </trkpt>
      <trkpt lat="62.640745965948" lon="17.896730209591">
        <ele>31.4</ele>
        <time>2018-01-07T11:50:38Z</time>
      </trkpt>
      <trkpt lat="62.640735572392" lon="17.896697268724">
        <ele>31.6</ele>
        <time>2018-01-07T11:50:39Z</time>
      </trkpt>
      <trkpt lat="62.640729202148" lon="17.89666240002">
        <ele>31.8</ele>
        <time>2018-01-07T11:50:40Z</time>
      </trkpt>
      <trkpt lat="62.640721658438" lon="17.896630464981">
        <ele>32.2</ele>
        <time>2018-01-07T11:50:41Z</time>
      </trkpt>
      <trkpt lat="62.640715372013" lon="17.896604648729">
        <ele>32.4</ele>
        <time>2018-01-07T11:50:42Z</time>
      </trkpt>
      <trkpt lat="62.640709169407" lon="17.896576485545">
        <ele>32.6</ele>
        <time>2018-01-07T11:50:43Z</time>
      </trkpt>
      <trkpt lat="62.640701709516" lon="17.896551088388">
        <ele>32.8</ele>
        <time>2018-01-07T11:50:44Z</time>
      </trkpt>
      <trkpt lat="62.640694752539" lon="17.896526277964">
        <ele>33</ele>
        <time>2018-01-07T11:50:45Z</time>
      </trkpt>
      <trkpt lat="62.640687460286" lon="17.896506329042">
        <ele>33.2</ele>
        <time>2018-01-07T11:50:46Z</time>
      </trkpt>
      <trkpt lat="62.640676312359" lon="17.896470119234">
        <ele>33.2</ele>
        <time>2018-01-07T11:50:47Z</time>
      </trkpt>
      <trkpt lat="62.640668852468" lon="17.896443716249">
        <ele>33.4</ele>
        <time>2018-01-07T11:50:48Z</time>
      </trkpt>
      <trkpt lat="62.640654267962" lon="17.896373811203">
        <ele>33.4</ele>
        <time>2018-01-07T11:50:50Z</time>
      </trkpt>
      <trkpt lat="62.640633648488" lon="17.896291249488">
        <ele>33.6</ele>
        <time>2018-01-07T11:50:52Z</time>
      </trkpt>
      <trkpt lat="62.640624512217" lon="17.896255374956">
        <ele>33.8</ele>
        <time>2018-01-07T11:50:53Z</time>
      </trkpt>
      <trkpt lat="62.640615124489" lon="17.896210699429">
        <ele>34</ele>
        <time>2018-01-07T11:50:54Z</time>
      </trkpt>
      <trkpt lat="62.640605904399" lon="17.896165185712">
        <ele>34.4</ele>
        <time>2018-01-07T11:50:55Z</time>
      </trkpt>
      <trkpt lat="62.640598779784" lon="17.896119839633">
        <ele>34.6</ele>
        <time>2018-01-07T11:50:56Z</time>
      </trkpt>
      <trkpt lat="62.640591906626" lon="17.896084551834">
        <ele>34.8</ele>
        <time>2018-01-07T11:50:57Z</time>
      </trkpt>
      <trkpt lat="62.640586793667" lon="17.896048090569">
        <ele>35</ele>
        <time>2018-01-07T11:50:58Z</time>
      </trkpt>
      <trkpt lat="62.640580088147" lon="17.89601364096">
        <ele>35</ele>
        <time>2018-01-07T11:50:59Z</time>
      </trkpt>
      <trkpt lat="62.640571287152" lon="17.895976425324">
        <ele>35.4</ele>
        <time>2018-01-07T11:51:00Z</time>
      </trkpt>
      <trkpt lat="62.64056391108" lon="17.895933593815">
        <ele>35.4</ele>
        <time>2018-01-07T11:51:01Z</time>
      </trkpt>
      <trkpt lat="62.640560390682" lon="17.89589880893">
        <ele>35.6</ele>
        <time>2018-01-07T11:51:02Z</time>
      </trkpt>
      <trkpt lat="62.640555696818" lon="17.895860000733">
        <ele>35.8</ele>
        <time>2018-01-07T11:51:03Z</time>
      </trkpt>
      <trkpt lat="62.640553601343" lon="17.895824293839">
        <ele>36</ele>
        <time>2018-01-07T11:51:04Z</time>
      </trkpt>
      <trkpt lat="62.640549494212" lon="17.895784731271">
        <ele>36.2</ele>
        <time>2018-01-07T11:51:05Z</time>
      </trkpt>
      <trkpt lat="62.640545387081" lon="17.895751371309">
        <ele>36.4</ele>
        <time>2018-01-07T11:51:06Z</time>
      </trkpt>
      <trkpt lat="62.640541866683" lon="17.895707953067">
        <ele>36.4</ele>
        <time>2018-01-07T11:51:07Z</time>
      </trkpt>
      <trkpt lat="62.640537089" lon="17.895652800165">
        <ele>36.6</ele>
        <time>2018-01-07T11:51:08Z</time>
      </trkpt>
      <trkpt lat="62.640535244982" lon="17.89561801528">
        <ele>36.8</ele>
        <time>2018-01-07T11:51:09Z</time>
      </trkpt>
      <trkpt lat="62.640532730412" lon="17.895588259535">
        <ele>36.8</ele>
        <time>2018-01-07T11:51:10Z</time>
      </trkpt>
      <trkpt lat="62.640527198358" lon="17.89552581438">
        <ele>37</ele>
        <time>2018-01-07T11:51:11Z</time>
      </trkpt>
      <trkpt lat="62.640524767607" lon="17.895505278725">
        <ele>37</ele>
        <time>2018-01-07T11:51:12Z</time>
      </trkpt>
      <trkpt lat="62.640520828114" lon="17.895438558801">
        <ele>37</ele>
        <time>2018-01-07T11:51:13Z</time>
      </trkpt>
      <trkpt lat="62.640518145906" lon="17.895414083653">
        <ele>37.2</ele>
        <time>2018-01-07T11:51:14Z</time>
      </trkpt>
      <trkpt lat="62.64051361968" lon="17.895351135584">
        <ele>37.2</ele>
        <time>2018-01-07T11:51:15Z</time>
      </trkpt>
      <trkpt lat="62.640510853653" lon="17.895329007368">
        <ele>37.4</ele>
        <time>2018-01-07T11:51:16Z</time>
      </trkpt>
      <trkpt lat="62.640506495065" lon="17.895252229164">
        <ele>37.4</ele>
        <time>2018-01-07T11:51:17Z</time>
      </trkpt>
      <trkpt lat="62.640498448441" lon="17.89520394942">
        <ele>37.6</ele>
        <time>2018-01-07T11:51:18Z</time>
      </trkpt>
      <trkpt lat="62.640494089853" lon="17.895130859252">
        <ele>37.6</ele>
        <time>2018-01-07T11:51:19Z</time>
      </trkpt>
      <trkpt lat="62.640486378505" lon="17.895069503744">
        <ele>37.6</ele>
        <time>2018-01-07T11:51:20Z</time>
      </trkpt>
      <trkpt lat="62.640484199211" lon="17.895017452145">
        <ele>37.6</ele>
        <time>2018-01-07T11:51:21Z</time>
      </trkpt>
      <trkpt lat="62.640480259718" lon="17.894964813813">
        <ele>37.6</ele>
        <time>2018-01-07T11:51:22Z</time>
      </trkpt>
      <trkpt lat="62.640475565854" lon="17.894918629544">
        <ele>37.6</ele>
        <time>2018-01-07T11:51:23Z</time>
      </trkpt>
      <trkpt lat="62.640472380732" lon="17.894853921276">
        <ele>37.6</ele>
        <time>2018-01-07T11:51:24Z</time>
      </trkpt>
      <trkpt lat="62.640469111791" lon="17.894803713695">
        <ele>37.6</ele>
        <time>2018-01-07T11:51:25Z</time>
      </trkpt>
      <trkpt lat="62.640468944153" lon="17.894763564394">
        <ele>37.6</ele>
        <time>2018-01-07T11:51:26Z</time>
      </trkpt>
      <trkpt lat="62.640466932497" lon="17.894703633809">
        <ele>37.6</ele>
        <time>2018-01-07T11:51:27Z</time>
      </trkpt>
      <trkpt lat="62.640464250289" lon="17.894670525304">
        <ele>37.6</ele>
        <time>2018-01-07T11:51:28Z</time>
      </trkpt>
      <trkpt lat="62.640464501746" lon="17.894603386285">
        <ele>37.6</ele>
        <time>2018-01-07T11:51:29Z</time>
      </trkpt>
      <trkpt lat="62.640463831194" lon="17.894554855084">
        <ele>37.6</ele>
        <time>2018-01-07T11:51:30Z</time>
      </trkpt>
      <trkpt lat="62.640460897529" lon="17.894513867593">
        <ele>37.6</ele>
        <time>2018-01-07T11:51:31Z</time>
      </trkpt>
      <trkpt lat="62.640460226977" lon="17.894464917297">
        <ele>37.6</ele>
        <time>2018-01-07T11:51:32Z</time>
      </trkpt>
      <trkpt lat="62.640455952208" lon="17.894413452431">
        <ele>37.6</ele>
        <time>2018-01-07T11:51:33Z</time>
      </trkpt>
      <trkpt lat="62.640453353819" lon="17.894375398605">
        <ele>37.6</ele>
        <time>2018-01-07T11:51:34Z</time>
      </trkpt>
      <trkpt lat="62.64044991724" lon="17.894336590408">
        <ele>37.8</ele>
        <time>2018-01-07T11:51:35Z</time>
      </trkpt>
      <trkpt lat="62.640445558652" lon="17.894295435279">
        <ele>37.8</ele>
        <time>2018-01-07T11:51:36Z</time>
      </trkpt>
      <trkpt lat="62.640438350218" lon="17.894248664277">
        <ele>38</ele>
        <time>2018-01-07T11:51:37Z</time>
      </trkpt>
      <trkpt lat="62.640430806508" lon="17.894204407845">
        <ele>38</ele>
        <time>2018-01-07T11:51:38Z</time>
      </trkpt>
      <trkpt lat="62.640425777368" lon="17.894170628788">
        <ele>38.2</ele>
        <time>2018-01-07T11:51:39Z</time>
      </trkpt>
      <trkpt lat="62.640417730744" lon="17.89411933156">
        <ele>38.2</ele>
        <time>2018-01-07T11:51:40Z</time>
      </trkpt>
      <trkpt lat="62.640408762111" lon="17.894082199743">
        <ele>38.2</ele>
        <time>2018-01-07T11:51:41Z</time>
      </trkpt>
      <trkpt lat="62.640400547849" lon="17.894047331039">
        <ele>38.4</ele>
        <time>2018-01-07T11:51:42Z</time>
      </trkpt>
      <trkpt lat="62.640386382438" lon="17.89398857392">
        <ele>38.4</ele>
        <time>2018-01-07T11:51:43Z</time>
      </trkpt>
      <trkpt lat="62.640377665262" lon="17.89396342822">
        <ele>38.4</ele>
        <time>2018-01-07T11:51:44Z</time>
      </trkpt>
      <trkpt lat="62.640364505679" lon="17.893921183444">
        <ele>38.4</ele>
        <time>2018-01-07T11:51:45Z</time>
      </trkpt>
      <trkpt lat="62.640347155146" lon="17.893879693039">
        <ele>38.6</ele>
        <time>2018-01-07T11:51:46Z</time>
      </trkpt>
      <trkpt lat="62.640335336667" lon="17.89384524343">
        <ele>38.6</ele>
        <time>2018-01-07T11:51:47Z</time>
      </trkpt>
      <trkpt lat="62.640324943111" lon="17.89380417212">
        <ele>38.8</ele>
        <time>2018-01-07T11:51:48Z</time>
      </trkpt>
      <trkpt lat="62.640315220107" lon="17.893763939">
        <ele>38.8</ele>
        <time>2018-01-07T11:51:49Z</time>
      </trkpt>
      <trkpt lat="62.640302898714" lon="17.893724795527">
        <ele>38.8</ele>
        <time>2018-01-07T11:51:50Z</time>
      </trkpt>
      <trkpt lat="62.640293510986" lon="17.893680790552">
        <ele>38.8</ele>
        <time>2018-01-07T11:51:51Z</time>
      </trkpt>
      <trkpt lat="62.640284961448" lon="17.893649274608">
        <ele>39</ele>
        <time>2018-01-07T11:51:52Z</time>
      </trkpt>
      <trkpt lat="62.64027976467" lon="17.893610131135">
        <ele>39</ele>
        <time>2018-01-07T11:51:53Z</time>
      </trkpt>
      <trkpt lat="62.64027557372" lon="17.893579201924">
        <ele>39.2</ele>
        <time>2018-01-07T11:51:54Z</time>
      </trkpt>
      <trkpt lat="62.640271466589" lon="17.893547518342">
        <ele>39.6</ele>
        <time>2018-01-07T11:51:55Z</time>
      </trkpt>
      <trkpt lat="62.640265850716" lon="17.89351080562">
        <ele>39.8</ele>
        <time>2018-01-07T11:51:56Z</time>
      </trkpt>
      <trkpt lat="62.640263503784" lon="17.89348146897">
        <ele>40.2</ele>
        <time>2018-01-07T11:51:57Z</time>
      </trkpt>
      <trkpt lat="62.640263503784" lon="17.893451042673">
        <ele>40.4</ele>
        <time>2018-01-07T11:51:58Z</time>
      </trkpt>
      <trkpt lat="62.640261156852" lon="17.893417934168">
        <ele>40.6</ele>
        <time>2018-01-07T11:51:59Z</time>
      </trkpt>
      <trkpt lat="62.640261240671" lon="17.89338507712">
        <ele>40.6</ele>
        <time>2018-01-07T11:52:00Z</time>
      </trkpt>
      <trkpt lat="62.640263503784" lon="17.893349705502">
        <ele>40.8</ele>
        <time>2018-01-07T11:52:01Z</time>
      </trkpt>
      <trkpt lat="62.640263922879" lon="17.893314082427">
        <ele>41</ele>
        <time>2018-01-07T11:52:02Z</time>
      </trkpt>
      <trkpt lat="62.640272723874" lon="17.893264796855">
        <ele>41.4</ele>
        <time>2018-01-07T11:52:03Z</time>
      </trkpt>
      <trkpt lat="62.640272723874" lon="17.893224312278">
        <ele>41.4</ele>
        <time>2018-01-07T11:52:04Z</time>
      </trkpt>
      <trkpt lat="62.640276831005" lon="17.893180223484">
        <ele>41.6</ele>
        <time>2018-01-07T11:52:05Z</time>
      </trkpt>
      <trkpt lat="62.640276076634" lon="17.893147282617">
        <ele>41.8</ele>
        <time>2018-01-07T11:52:06Z</time>
      </trkpt>
      <trkpt lat="62.640277753014" lon="17.893114928483">
        <ele>42</ele>
        <time>2018-01-07T11:52:07Z</time>
      </trkpt>
      <trkpt lat="62.640278004471" lon="17.893073018983">
        <ele>42.2</ele>
        <time>2018-01-07T11:52:08Z</time>
      </trkpt>
      <trkpt lat="62.640280183765" lon="17.893043598514">
        <ele>42.4</ele>
        <time>2018-01-07T11:52:09Z</time>
      </trkpt>
      <trkpt lat="62.640284542353" lon="17.893009232724">
        <ele>42.4</ele>
        <time>2018-01-07T11:52:10Z</time>
      </trkpt>
      <trkpt lat="62.640285296724" lon="17.892969083423">
        <ele>42.8</ele>
        <time>2018-01-07T11:52:11Z</time>
      </trkpt>
      <trkpt lat="62.640282195421" lon="17.892939579135">
        <ele>43</ele>
        <time>2018-01-07T11:52:12Z</time>
      </trkpt>
      <trkpt lat="62.640280099946" lon="17.892902950232">
        <ele>43.4</ele>
        <time>2018-01-07T11:52:13Z</time>
      </trkpt>
      <trkpt lat="62.640275322263" lon="17.892867578614">
        <ele>43.6</ele>
        <time>2018-01-07T11:52:14Z</time>
      </trkpt>
      <trkpt lat="62.640273142969" lon="17.892836230308">
        <ele>43.8</ele>
        <time>2018-01-07T11:52:15Z</time>
      </trkpt>
      <trkpt lat="62.640271131313" lon="17.892814856463">
        <ele>44</ele>
        <time>2018-01-07T11:52:16Z</time>
      </trkpt>
      <trkpt lat="62.640268616743" lon="17.89276984566">
        <ele>44.2</ele>
        <time>2018-01-07T11:52:17Z</time>
      </trkpt>
      <trkpt lat="62.640258223187" lon="17.892717123509">
        <ele>44.4</ele>
        <time>2018-01-07T11:52:18Z</time>
      </trkpt>
      <trkpt lat="62.640256043893" lon="17.892677225665">
        <ele>44.6</ele>
        <time>2018-01-07T11:52:19Z</time>
      </trkpt>
      <trkpt lat="62.640250679477" lon="17.892620731659">
        <ele>44.8</ele>
        <time>2018-01-07T11:52:20Z</time>
      </trkpt>
      <trkpt lat="62.640239699188" lon="17.892563902377">
        <ele>45</ele>
        <time>2018-01-07T11:52:21Z</time>
      </trkpt>
      <trkpt lat="62.640232993668" lon="17.892544204912">
        <ele>45</ele>
        <time>2018-01-07T11:52:22Z</time>
      </trkpt>
      <trkpt lat="62.640230060003" lon="17.892494835521">
        <ele>45.2</ele>
        <time>2018-01-07T11:52:23Z</time>
      </trkpt>
      <trkpt lat="62.640224611768" lon="17.892461727016">
        <ele>45.4</ele>
        <time>2018-01-07T11:52:24Z</time>
      </trkpt>
      <trkpt lat="62.640218995895" lon="17.892420907163">
        <ele>45.6</ele>
        <time>2018-01-07T11:52:25Z</time>
      </trkpt>
      <trkpt lat="62.640210111081" lon="17.892372124505">
        <ele>45.8</ele>
        <time>2018-01-07T11:52:26Z</time>
      </trkpt>
      <trkpt lat="62.640204830484" lon="17.892326275512">
        <ele>45.8</ele>
        <time>2018-01-07T11:52:27Z</time>
      </trkpt>
      <trkpt lat="62.640201310086" lon="17.892298112328">
        <ele>46.2</ele>
        <time>2018-01-07T11:52:28Z</time>
      </trkpt>
      <trkpt lat="62.640198963154" lon="17.892224854522">
        <ele>46.2</ele>
        <time>2018-01-07T11:52:29Z</time>
      </trkpt>
      <trkpt lat="62.640196113308" lon="17.89218562723">
        <ele>46.4</ele>
        <time>2018-01-07T11:52:30Z</time>
      </trkpt>
      <trkpt lat="62.640196616222" lon="17.892137598943">
        <ele>46.4</ele>
        <time>2018-01-07T11:52:31Z</time>
      </trkpt>
      <trkpt lat="62.640199968982" lon="17.892074567055">
        <ele>46.6</ele>
        <time>2018-01-07T11:52:32Z</time>
      </trkpt>
      <trkpt lat="62.640204076113" lon="17.892032573736">
        <ele>46.6</ele>
        <time>2018-01-07T11:52:33Z</time>
      </trkpt>
      <trkpt lat="62.640215056402" lon="17.891984293992">
        <ele>46.6</ele>
        <time>2018-01-07T11:52:34Z</time>
      </trkpt>
      <trkpt lat="62.640234418591" lon="17.891910365634">
        <ele>46.6</ele>
        <time>2018-01-07T11:52:35Z</time>
      </trkpt>
      <trkpt lat="62.640255792436" lon="17.891855128913">
        <ele>46.8</ele>
        <time>2018-01-07T11:52:36Z</time>
      </trkpt>
      <trkpt lat="62.640291331692" lon="17.891812297404">
        <ele>46.8</ele>
        <time>2018-01-07T11:52:37Z</time>
      </trkpt>
      <trkpt lat="62.640330978079" lon="17.89176737042">
        <ele>46.8</ele>
        <time>2018-01-07T11:52:38Z</time>
      </trkpt>
      <trkpt lat="62.640359308901" lon="17.891750019887">
        <ele>46.8</ele>
        <time>2018-01-07T11:52:39Z</time>
      </trkpt>
      <trkpt lat="62.640395853985" lon="17.891739207236">
        <ele>46.6</ele>
        <time>2018-01-07T11:52:40Z</time>
      </trkpt>
      <trkpt lat="62.640432231431" lon="17.891731998802">
        <ele>46.4</ele>
        <time>2018-01-07T11:52:41Z</time>
      </trkpt>
      <trkpt lat="62.640478331881" lon="17.891735351562">
        <ele>46.2</ele>
        <time>2018-01-07T11:52:42Z</time>
      </trkpt>
      <trkpt lat="62.6405454709" lon="17.89173468101">
        <ele>46.2</ele>
        <time>2018-01-07T11:52:43Z</time>
      </trkpt>
      <trkpt lat="62.640623757846" lon="17.89173468101">
        <ele>45.8</ele>
        <time>2018-01-07T11:52:44Z</time>
      </trkpt>
      <trkpt lat="62.640687041191" lon="17.891760161986">
        <ele>45.2</ele>
        <time>2018-01-07T11:52:45Z</time>
      </trkpt>
      <trkpt lat="62.640755102219" lon="17.891814225241">
        <ele>44</ele>
        <time>2018-01-07T11:52:46Z</time>
      </trkpt>
      <trkpt lat="62.640814865166" lon="17.89189728987">
        <ele>43.2</ele>
        <time>2018-01-07T11:52:47Z</time>
      </trkpt>
      <trkpt lat="62.640871694448" lon="17.892001560706">
        <ele>42</ele>
        <time>2018-01-07T11:52:48Z</time>
      </trkpt>
      <trkpt lat="62.640920225649" lon="17.892092420502">
        <ele>40.8</ele>
        <time>2018-01-07T11:52:49Z</time>
      </trkpt>
      <trkpt lat="62.640971019963" lon="17.892174311665">
        <ele>39.8</ele>
        <time>2018-01-07T11:52:50Z</time>
      </trkpt>
      <trkpt lat="62.641019551164" lon="17.892227955825">
        <ele>39.4</ele>
        <time>2018-01-07T11:52:51Z</time>
      </trkpt>
      <trkpt lat="62.641061963578" lon="17.89225100605">
        <ele>39</ele>
        <time>2018-01-07T11:52:52Z</time>
      </trkpt>
      <trkpt lat="62.641123319086" lon="17.892258465941">
        <ele>38.8</ele>
        <time>2018-01-07T11:52:53Z</time>
      </trkpt>
      <trkpt lat="62.641164725672" lon="17.892249078213">
        <ele>39</ele>
        <time>2018-01-07T11:52:54Z</time>
      </trkpt>
      <trkpt lat="62.641200013471" lon="17.892242205055">
        <ele>39.6</ele>
        <time>2018-01-07T11:52:55Z</time>
      </trkpt>
      <trkpt lat="62.64123194851" lon="17.892217226993">
        <ele>40</ele>
        <time>2018-01-07T11:52:56Z</time>
      </trkpt>
      <trkpt lat="62.641268912689" lon="17.892185040497">
        <ele>40.2</ele>
        <time>2018-01-07T11:52:57Z</time>
      </trkpt>
      <trkpt lat="62.641310570732" lon="17.892145310291">
        <ele>40.6</ele>
        <time>2018-01-07T11:52:58Z</time>
      </trkpt>
      <trkpt lat="62.641359018114" lon="17.892113626709">
        <ele>40.6</ele>
        <time>2018-01-07T11:52:59Z</time>
      </trkpt>
      <trkpt lat="62.641395982293" lon="17.892082362222">
        <ele>40.2</ele>
        <time>2018-01-07T11:53:00Z</time>
      </trkpt>
      <trkpt lat="62.641433868481" lon="17.892062329481">
        <ele>40</ele>
        <time>2018-01-07T11:53:01Z</time>
      </trkpt>
      <trkpt lat="62.641464294778" lon="17.892047577337">
        <ele>39.8</ele>
        <time>2018-01-07T11:53:02Z</time>
      </trkpt>
      <trkpt lat="62.641506120459" lon="17.892028298967">
        <ele>39.6</ele>
        <time>2018-01-07T11:53:03Z</time>
      </trkpt>
      <trkpt lat="62.641551382719" lon="17.892008350045">
        <ele>39.4</ele>
        <time>2018-01-07T11:53:04Z</time>
      </trkpt>
      <trkpt lat="62.641603182861" lon="17.891986305648">
        <ele>39.4</ele>
        <time>2018-01-07T11:53:05Z</time>
      </trkpt>
      <trkpt lat="62.641658251944" lon="17.891973900436">
        <ele>39</ele>
        <time>2018-01-07T11:53:06Z</time>
      </trkpt>
      <trkpt lat="62.641703346566" lon="17.891963674518">
        <ele>38.8</ele>
        <time>2018-01-07T11:53:07Z</time>
      </trkpt>
      <trkpt lat="62.641753721785" lon="17.891951604582">
        <ele>38</ele>
        <time>2018-01-07T11:53:08Z</time>
      </trkpt>
      <trkpt lat="62.641798145855" lon="17.891926710339">
        <ele>37</ele>
        <time>2018-01-07T11:53:09Z</time>
      </trkpt>
      <trkpt lat="62.641832260188" lon="17.891908689254">
        <ele>36.2</ele>
        <time>2018-01-07T11:53:10Z</time>
      </trkpt>
      <trkpt lat="62.641901243225" lon="17.891878095319">
        <ele>35</ele>
        <time>2018-01-07T11:53:11Z</time>
      </trkpt>
      <trkpt lat="62.64196117381" lon="17.891846830832">
        <ele>34</ele>
        <time>2018-01-07T11:53:12Z</time>
      </trkpt>
      <trkpt lat="62.642027223182" lon="17.891815063431">
        <ele>33</ele>
        <time>2018-01-07T11:53:13Z</time>
      </trkpt>
      <trkpt lat="62.642092602002" lon="17.891782374021">
        <ele>32</ele>
        <time>2018-01-07T11:53:14Z</time>
      </trkpt>
      <trkpt lat="62.64215814846" lon="17.891732417897">
        <ele>31.2</ele>
        <time>2018-01-07T11:53:15Z</time>
      </trkpt>
      <trkpt lat="62.64222939461" lon="17.891670894751">
        <ele>30</ele>
        <time>2018-01-07T11:53:16Z</time>
      </trkpt>
      <trkpt lat="62.642302736235" lon="17.891597050212">
        <ele>28.8</ele>
        <time>2018-01-07T11:53:17Z</time>
      </trkpt>
      <trkpt lat="62.642376329317" lon="17.891506609511">
        <ele>28</ele>
        <time>2018-01-07T11:53:18Z</time>
      </trkpt>
      <trkpt lat="62.642430057296" lon="17.891418012828">
        <ele>27.2</ele>
        <time>2018-01-07T11:53:19Z</time>
      </trkpt>
      <trkpt lat="62.642465177457" lon="17.891330002878">
        <ele>26.8</ele>
        <time>2018-01-07T11:53:20Z</time>
      </trkpt>
      <trkpt lat="62.642494011193" lon="17.891233862485">
        <ele>26.4</ele>
        <time>2018-01-07T11:53:21Z</time>
      </trkpt>
      <trkpt lat="62.642506248767" lon="17.891172674615">
        <ele>26.6</ele>
        <time>2018-01-07T11:53:22Z</time>
      </trkpt>
      <trkpt lat="62.642512199916" lon="17.891086089588">
        <ele>26.8</ele>
        <time>2018-01-07T11:53:23Z</time>
      </trkpt>
      <trkpt lat="62.642511445545" lon="17.891012831782">
        <ele>26.8</ele>
        <time>2018-01-07T11:53:24Z</time>
      </trkpt>
      <trkpt lat="62.642497028677" lon="17.890973855947">
        <ele>27</ele>
        <time>2018-01-07T11:53:25Z</time>
      </trkpt>
      <trkpt lat="62.642481941257" lon="17.890889534033">
        <ele>27.2</ele>
        <time>2018-01-07T11:53:26Z</time>
      </trkpt>
      <trkpt lat="62.642458471937" lon="17.890832201837">
        <ele>27.4</ele>
        <time>2018-01-07T11:53:27Z</time>
      </trkpt>
      <trkpt lat="62.642422513586" lon="17.890776965116">
        <ele>27.6</ele>
        <time>2018-01-07T11:53:28Z</time>
      </trkpt>
      <trkpt lat="62.642378089516" lon="17.890751567959">
        <ele>27.4</ele>
        <time>2018-01-07T11:53:29Z</time>
      </trkpt>
      <trkpt lat="62.642324193899" lon="17.890722063671">
        <ele>27.4</ele>
        <time>2018-01-07T11:53:30Z</time>
      </trkpt>
      <trkpt lat="62.642271555567" lon="17.89069951636">
        <ele>27.2</ele>
        <time>2018-01-07T11:53:31Z</time>
      </trkpt>
      <trkpt lat="62.642219587787" lon="17.890672610461">
        <ele>26.6</ele>
        <time>2018-01-07T11:53:32Z</time>
      </trkpt>
      <trkpt lat="62.642205170919" lon="17.890662384543">
        <ele>26.2</ele>
        <time>2018-01-07T11:53:33Z</time>
      </trkpt>
      <trkpt lat="62.642143647773" lon="17.890655176109">
        <ele>25.8</ele>
        <time>2018-01-07T11:53:34Z</time>
      </trkpt>
      <trkpt lat="62.642116490417" lon="17.890640340146">
        <ele>25.4</ele>
        <time>2018-01-07T11:53:35Z</time>
      </trkpt>
      <trkpt lat="62.642093188735" lon="17.890623911622">
        <ele>25.4</ele>
        <time>2018-01-07T11:53:36Z</time>
      </trkpt>
      <trkpt lat="62.642075335288" lon="17.890609494754">
        <ele>25.8</ele>
        <time>2018-01-07T11:53:37Z</time>
      </trkpt>
      <trkpt lat="62.64205588928" lon="17.89059641899">
        <ele>26</ele>
        <time>2018-01-07T11:53:38Z</time>
      </trkpt>
      <trkpt lat="62.642038119652" lon="17.890580996294">
        <ele>26.6</ele>
        <time>2018-01-07T11:53:39Z</time>
      </trkpt>
      <trkpt lat="62.64202990539" lon="17.890577224439">
        <ele>26.6</ele>
        <time>2018-01-07T11:53:40Z</time>
      </trkpt>
      <trkpt lat="62.642008531545" lon="17.89056037682">
        <ele>27</ele>
        <time>2018-01-07T11:53:41Z</time>
      </trkpt>
      <trkpt lat="62.64199386322" lon="17.89055115673">
        <ele>27.2</ele>
        <time>2018-01-07T11:53:42Z</time>
      </trkpt>
      <trkpt lat="62.641978859619" lon="17.890538835337">
        <ele>27.6</ele>
        <time>2018-01-07T11:53:43Z</time>
      </trkpt>
      <trkpt lat="62.641965867674" lon="17.890528609419">
        <ele>27.8</ele>
        <time>2018-01-07T11:53:44Z</time>
      </trkpt>
      <trkpt lat="62.641944745286" lon="17.890515030741">
        <ele>28</ele>
        <time>2018-01-07T11:53:45Z</time>
      </trkpt>
      <trkpt lat="62.641932172436" lon="17.890498015484">
        <ele>28.2</ele>
        <time>2018-01-07T11:53:46Z</time>
      </trkpt>
      <trkpt lat="62.64191758793" lon="17.890485945548">
        <ele>28.4</ele>
        <time>2018-01-07T11:53:47Z</time>
      </trkpt>
      <trkpt lat="62.641901578501" lon="17.890473959431">
        <ele>28.6</ele>
        <time>2018-01-07T11:53:48Z</time>
      </trkpt>
      <trkpt lat="62.641889173289" lon="17.890460045477">
        <ele>28.8</ele>
        <time>2018-01-07T11:53:49Z</time>
      </trkpt>
      <trkpt lat="62.641875510792" lon="17.890446466799">
        <ele>29</ele>
        <time>2018-01-07T11:53:50Z</time>
      </trkpt>
      <trkpt lat="62.641860255734" lon="17.890434983596">
        <ele>29.4</ele>
        <time>2018-01-07T11:53:51Z</time>
      </trkpt>
      <trkpt lat="62.641848437255" lon="17.890424841497">
        <ele>29.8</ele>
        <time>2018-01-07T11:53:52Z</time>
      </trkpt>
      <trkpt lat="62.641830835265" lon="17.890410927543">
        <ele>30.4</ele>
        <time>2018-01-07T11:53:53Z</time>
      </trkpt>
      <trkpt lat="62.641817508044" lon="17.890394331381">
        <ele>31</ele>
        <time>2018-01-07T11:53:54Z</time>
      </trkpt>
      <trkpt lat="62.641805102832" lon="17.890382177626">
        <ele>31.4</ele>
        <time>2018-01-07T11:53:55Z</time>
      </trkpt>
      <trkpt lat="62.641792781439" lon="17.890375053011">
        <ele>31.8</ele>
        <time>2018-01-07T11:53:56Z</time>
      </trkpt>
      <trkpt lat="62.641779454218" lon="17.890363569808">
        <ele>32</ele>
        <time>2018-01-07T11:53:57Z</time>
      </trkpt>
      <trkpt lat="62.641765456445" lon="17.890346303094">
        <ele>32.2</ele>
        <time>2018-01-07T11:53:58Z</time>
      </trkpt>
      <trkpt lat="62.641750201387" lon="17.890328617285">
        <ele>32.4</ele>
        <time>2018-01-07T11:53:59Z</time>
      </trkpt>
      <trkpt lat="62.641735281605" lon="17.890309674191">
        <ele>32.6</ele>
        <time>2018-01-07T11:54:00Z</time>
      </trkpt>
      <trkpt lat="62.641718433986" lon="17.890287545975">
        <ele>32.6</ele>
        <time>2018-01-07T11:54:01Z</time>
      </trkpt>
      <trkpt lat="62.641705693498" lon="17.890263992836">
        <ele>32.8</ele>
        <time>2018-01-07T11:54:02Z</time>
      </trkpt>
      <trkpt lat="62.641691695725" lon="17.890239266231">
        <ele>32.8</ele>
        <time>2018-01-07T11:54:03Z</time>
      </trkpt>
      <trkpt lat="62.641677278857" lon="17.89021085159">
        <ele>33</ele>
        <time>2018-01-07T11:54:04Z</time>
      </trkpt>
      <trkpt lat="62.641662191437" lon="17.890170869927">
        <ele>33</ele>
        <time>2018-01-07T11:54:05Z</time>
      </trkpt>
      <trkpt lat="62.641648277483" lon="17.890132983739">
        <ele>33.2</ele>
        <time>2018-01-07T11:54:06Z</time>
      </trkpt>
      <trkpt lat="62.641636459004" lon="17.890097947397">
        <ele>33.4</ele>
        <time>2018-01-07T11:54:07Z</time>
      </trkpt>
      <trkpt lat="62.641625813991" lon="17.890051679309">
        <ele>33.6</ele>
        <time>2018-01-07T11:54:08Z</time>
      </trkpt>
      <trkpt lat="62.641612738227" lon="17.89000549504">
        <ele>33.6</ele>
        <time>2018-01-07T11:54:09Z</time>
      </trkpt>
      <trkpt lat="62.641599243368" lon="17.889954030174">
        <ele>33.8</ele>
        <time>2018-01-07T11:54:10Z</time>
      </trkpt>
      <trkpt lat="62.641589688002" lon="17.889910276656">
        <ele>33.8</ele>
        <time>2018-01-07T11:54:11Z</time>
      </trkpt>
      <trkpt lat="62.641580719369" lon="17.889860404351">
        <ele>33.8</ele>
        <time>2018-01-07T11:54:12Z</time>
      </trkpt>
      <trkpt lat="62.641571164003" lon="17.889800809042">
        <ele>34</ele>
        <time>2018-01-07T11:54:13Z</time>
      </trkpt>
      <trkpt lat="62.641564458483" lon="17.88974230338">
        <ele>34</ele>
        <time>2018-01-07T11:54:14Z</time>
      </trkpt>
      <trkpt lat="62.641559429343" lon="17.889669799945">
        <ele>33.6</ele>
        <time>2018-01-07T11:54:15Z</time>
      </trkpt>
      <trkpt lat="62.641556076583" lon="17.889611461921">
        <ele>33.4</ele>
        <time>2018-01-07T11:54:16Z</time>
      </trkpt>
      <trkpt lat="62.641552556185" lon="17.889503922144">
        <ele>33</ele>
        <time>2018-01-07T11:54:17Z</time>
      </trkpt>
      <trkpt lat="62.641554400203" lon="17.889398813118">
        <ele>32.2</ele>
        <time>2018-01-07T11:54:18Z</time>
      </trkpt>
      <trkpt lat="62.641558758791" lon="17.889292027712">
        <ele>31</ele>
        <time>2018-01-07T11:54:19Z</time>
      </trkpt>
      <trkpt lat="62.641567811243" lon="17.8891790397">
        <ele>30</ele>
        <time>2018-01-07T11:54:20Z</time>
      </trkpt>
      <trkpt lat="62.641581809016" lon="17.8890449293">
        <ele>28.6</ele>
        <time>2018-01-07T11:54:21Z</time>
      </trkpt>
      <trkpt lat="62.64159907573" lon="17.888923475569">
        <ele>27.8</ele>
        <time>2018-01-07T11:54:22Z</time>
      </trkpt>
      <trkpt lat="62.641628328561" lon="17.888736223923">
        <ele>26.2</ele>
        <time>2018-01-07T11:54:23Z</time>
      </trkpt>
      <trkpt lat="62.641659509229" lon="17.888575626719">
        <ele>24.4</ele>
        <time>2018-01-07T11:54:24Z</time>
      </trkpt>
      <trkpt lat="62.64169630577" lon="17.88842299232">
        <ele>22.4</ele>
        <time>2018-01-07T11:54:25Z</time>
      </trkpt>
      <trkpt lat="62.641735784519" lon="17.888298018191">
        <ele>20.6</ele>
        <time>2018-01-07T11:54:26Z</time>
      </trkpt>
      <trkpt lat="62.641769395938" lon="17.88820841568">
        <ele>19.4</ele>
        <time>2018-01-07T11:54:27Z</time>
      </trkpt>
      <trkpt lat="62.641796218018" lon="17.888116466237">
        <ele>18.8</ele>
        <time>2018-01-07T11:54:28Z</time>
      </trkpt>
      <trkpt lat="62.641832176369" lon="17.88801730836">
        <ele>18.6</ele>
        <time>2018-01-07T11:54:29Z</time>
      </trkpt>
      <trkpt lat="62.641858579354" lon="17.887940949251">
        <ele>18.2</ele>
        <time>2018-01-07T11:54:30Z</time>
      </trkpt>
      <trkpt lat="62.641879785561" lon="17.887883700874">
        <ele>18.4</ele>
        <time>2018-01-07T11:54:31Z</time>
      </trkpt>
      <trkpt lat="62.641904931261" lon="17.887819830796">
        <ele>18.6</ele>
        <time>2018-01-07T11:54:32Z</time>
      </trkpt>
      <trkpt lat="62.641929657866" lon="17.887761408953">
        <ele>19.4</ele>
        <time>2018-01-07T11:54:33Z</time>
      </trkpt>
      <trkpt lat="62.641941727802" lon="17.887721343471">
        <ele>19.8</ele>
        <time>2018-01-07T11:54:34Z</time>
      </trkpt>
      <trkpt lat="62.641966622045" lon="17.887672728451">
        <ele>19.6</ele>
        <time>2018-01-07T11:54:35Z</time>
      </trkpt>
      <trkpt lat="62.641985900415" lon="17.887637440652">
        <ele>19.8</ele>
        <time>2018-01-07T11:54:36Z</time>
      </trkpt>
      <trkpt lat="62.642000987835" lon="17.887615144798">
        <ele>20.2</ele>
        <time>2018-01-07T11:54:37Z</time>
      </trkpt>
      <trkpt lat="62.642018003092" lon="17.88758228775">
        <ele>20.2</ele>
        <time>2018-01-07T11:54:38Z</time>
      </trkpt>
      <trkpt lat="62.642042897335" lon="17.887542976639">
        <ele>20.4</ele>
        <time>2018-01-07T11:54:39Z</time>
      </trkpt>
      <trkpt lat="62.642072736899" lon="17.88750685065">
        <ele>20.4</ele>
        <time>2018-01-07T11:54:40Z</time>
      </trkpt>
      <trkpt lat="62.642104420481" lon="17.887483968063">
        <ele>20.8</ele>
        <time>2018-01-07T11:54:41Z</time>
      </trkpt>
      <trkpt lat="62.642125961964" lon="17.887448931721">
        <ele>20.8</ele>
        <time>2018-01-07T11:54:42Z</time>
      </trkpt>
      <trkpt lat="62.642150940026" lon="17.887421103813">
        <ele>21</ele>
        <time>2018-01-07T11:54:43Z</time>
      </trkpt>
      <trkpt lat="62.642177175373" lon="17.887410039705">
        <ele>21</ele>
        <time>2018-01-07T11:54:44Z</time>
      </trkpt>
      <trkpt lat="62.642194777363" lon="17.887379361951">
        <ele>21</ele>
        <time>2018-01-07T11:54:45Z</time>
      </trkpt>
      <trkpt lat="62.642209110412" lon="17.887348851835">
        <ele>21</ele>
        <time>2018-01-07T11:54:46Z</time>
      </trkpt>
      <trkpt lat="62.642221264167" lon="17.887325382515">
        <ele>21</ele>
        <time>2018-01-07T11:54:47Z</time>
      </trkpt>
      <trkpt lat="62.642225706574" lon="17.887293447476">
        <ele>21</ele>
        <time>2018-01-07T11:54:48Z</time>
      </trkpt>
      <trkpt lat="62.642240626356" lon="17.887247766121">
        <ele>21</ele>
        <time>2018-01-07T11:54:49Z</time>
      </trkpt>
      <trkpt lat="62.642245068763" lon="17.887212226865">
        <ele>21</ele>
        <time>2018-01-07T11:54:50Z</time>
      </trkpt>
      <trkpt lat="62.642249846446" lon="17.887179453636">
        <ele>21.2</ele>
        <time>2018-01-07T11:54:51Z</time>
      </trkpt>
      <trkpt lat="62.642251355188" lon="17.88714978171">
        <ele>21.2</ele>
        <time>2018-01-07T11:54:52Z</time>
      </trkpt>
      <trkpt lat="62.642252361016" lon="17.887111308789">
        <ele>21.4</ele>
        <time>2018-01-07T11:54:53Z</time>
      </trkpt>
      <trkpt lat="62.642253283025" lon="17.887076691542">
        <ele>21.8</ele>
        <time>2018-01-07T11:54:54Z</time>
      </trkpt>
      <trkpt lat="62.642254121215" lon="17.887041319924">
        <ele>22.2</ele>
        <time>2018-01-07T11:54:55Z</time>
      </trkpt>
      <trkpt lat="62.642252528654" lon="17.886994381284">
        <ele>22.6</ele>
        <time>2018-01-07T11:54:56Z</time>
      </trkpt>
      <trkpt lat="62.642252528654" lon="17.886952555603">
        <ele>22.8</ele>
        <time>2018-01-07T11:54:57Z</time>
      </trkpt>
      <trkpt lat="62.642251606645" lon="17.886910227008">
        <ele>22.8</ele>
        <time>2018-01-07T11:54:58Z</time>
      </trkpt>
      <trkpt lat="62.642248337704" lon="17.886862617816">
        <ele>22.8</ele>
        <time>2018-01-07T11:54:59Z</time>
      </trkpt>
      <trkpt lat="62.642243811478" lon="17.8868237258">
        <ele>22.8</ele>
        <time>2018-01-07T11:55:00Z</time>
      </trkpt>
      <trkpt lat="62.642238447062" lon="17.886783157404">
        <ele>23</ele>
        <time>2018-01-07T11:55:01Z</time>
      </trkpt>
      <trkpt lat="62.642234842845" lon="17.886744852121">
        <ele>23.2</ele>
        <time>2018-01-07T11:55:02Z</time>
      </trkpt>
      <trkpt lat="62.642228975515" lon="17.886703780811">
        <ele>23.2</ele>
        <time>2018-01-07T11:55:03Z</time>
      </trkpt>
      <trkpt lat="62.64222604185" lon="17.88666866065">
        <ele>23.4</ele>
        <time>2018-01-07T11:55:04Z</time>
      </trkpt>
      <trkpt lat="62.642220006882" lon="17.886634127222">
        <ele>23.4</ele>
        <time>2018-01-07T11:55:05Z</time>
      </trkpt>
      <trkpt lat="62.642212714629" lon="17.886600515803">
        <ele>23.4</ele>
        <time>2018-01-07T11:55:06Z</time>
      </trkpt>
      <trkpt lat="62.642208104584" lon="17.886575118646">
        <ele>23.6</ele>
        <time>2018-01-07T11:55:07Z</time>
      </trkpt>
      <trkpt lat="62.642201231426" lon="17.886539411752">
        <ele>23.6</ele>
        <time>2018-01-07T11:55:08Z</time>
      </trkpt>
      <trkpt lat="62.642193687716" lon="17.886510829473">
        <ele>23.8</ele>
        <time>2018-01-07T11:55:09Z</time>
      </trkpt>
      <trkpt lat="62.642184299988" lon="17.88648090609">
        <ele>23.8</ele>
        <time>2018-01-07T11:55:10Z</time>
      </trkpt>
      <trkpt lat="62.642174996079" lon="17.886448300499">
        <ele>24</ele>
        <time>2018-01-07T11:55:11Z</time>
      </trkpt>
      <trkpt lat="62.642166278903" lon="17.886419550582">
        <ele>24.4</ele>
        <time>2018-01-07T11:55:12Z</time>
      </trkpt>
      <trkpt lat="62.6421547957" lon="17.886394153425">
        <ele>24.6</ele>
        <time>2018-01-07T11:55:13Z</time>
      </trkpt>
      <trkpt lat="62.642144653601" lon="17.886368085716">
        <ele>24.8</ele>
        <time>2018-01-07T11:55:14Z</time>
      </trkpt>
      <trkpt lat="62.642134427683" lon="17.886347550061">
        <ele>25.2</ele>
        <time>2018-01-07T11:55:15Z</time>
      </trkpt>
      <trkpt lat="62.642123531213" lon="17.886327098225">
        <ele>25.4</ele>
        <time>2018-01-07T11:55:16Z</time>
      </trkpt>
      <trkpt lat="62.642115484589" lon="17.886308155131">
        <ele>25.8</ele>
        <time>2018-01-07T11:55:17Z</time>
      </trkpt>
      <trkpt lat="62.642103582291" lon="17.886279824309">
        <ele>26.2</ele>
        <time>2018-01-07T11:55:18Z</time>
      </trkpt>
      <trkpt lat="62.642095368029" lon="17.88625291841">
        <ele>26.6</ele>
        <time>2018-01-07T11:55:19Z</time>
      </trkpt>
      <trkpt lat="62.642085477387" lon="17.886225509597">
        <ele>27</ele>
        <time>2018-01-07T11:55:20Z</time>
      </trkpt>
      <trkpt lat="62.642075335288" lon="17.886203381381">
        <ele>27.4</ele>
        <time>2018-01-07T11:55:21Z</time>
      </trkpt>
      <trkpt lat="62.642066199017" lon="17.886177313672">
        <ele>27.4</ele>
        <time>2018-01-07T11:55:22Z</time>
      </trkpt>
      <trkpt lat="62.642052368882" lon="17.886148647574">
        <ele>27.8</ele>
        <time>2018-01-07T11:55:23Z</time>
      </trkpt>
      <trkpt lat="62.642038538747" lon="17.886117047811">
        <ele>28</ele>
        <time>2018-01-07T11:55:24Z</time>
      </trkpt>
      <trkpt lat="62.642025882078" lon="17.886092488844">
        <ele>28.6</ele>
        <time>2018-01-07T11:55:25Z</time>
      </trkpt>
      <trkpt lat="62.642014063599" lon="17.886064074203">
        <ele>28.8</ele>
        <time>2018-01-07T11:55:26Z</time>
      </trkpt>
      <trkpt lat="62.642001993663" lon="17.886046975127">
        <ele>29</ele>
        <time>2018-01-07T11:55:27Z</time>
      </trkpt>
      <trkpt lat="62.641987241519" lon="17.886017135563">
        <ele>29.2</ele>
        <time>2018-01-07T11:55:28Z</time>
      </trkpt>
      <trkpt lat="62.641969220434" lon="17.885981009574">
        <ele>29.2</ele>
        <time>2018-01-07T11:55:29Z</time>
      </trkpt>
      <trkpt lat="62.641955725575" lon="17.885962820851">
        <ele>29.2</ele>
        <time>2018-01-07T11:55:30Z</time>
      </trkpt>
      <trkpt lat="62.641940889612" lon="17.885933316563">
        <ele>29.2</ele>
        <time>2018-01-07T11:55:31Z</time>
      </trkpt>
      <trkpt lat="62.641921359785" lon="17.885899118411">
        <ele>29.4</ele>
        <time>2018-01-07T11:55:32Z</time>
      </trkpt>
      <trkpt lat="62.641906523822" lon="17.885877660747">
        <ele>29.4</ele>
        <time>2018-01-07T11:55:33Z</time>
      </trkpt>
      <trkpt lat="62.641889005651" lon="17.885839774559">
        <ele>29.4</ele>
        <time>2018-01-07T11:55:34Z</time>
      </trkpt>
      <trkpt lat="62.641872996222" lon="17.885813120117">
        <ele>29.4</ele>
        <time>2018-01-07T11:55:35Z</time>
      </trkpt>
      <trkpt lat="62.64185137092" lon="17.885774814834">
        <ele>29.6</ele>
        <time>2018-01-07T11:55:36Z</time>
      </trkpt>
      <trkpt lat="62.641833517473" lon="17.885743550347">
        <ele>29.6</ele>
        <time>2018-01-07T11:55:37Z</time>
      </trkpt>
      <trkpt lat="62.641813317094" lon="17.885707340539">
        <ele>29.8</ele>
        <time>2018-01-07T11:55:38Z</time>
      </trkpt>
      <trkpt lat="62.641790937421" lon="17.885660569537">
        <ele>29.8</ele>
        <time>2018-01-07T11:55:39Z</time>
      </trkpt>
      <trkpt lat="62.641769144481" lon="17.885620587874">
        <ele>30</ele>
        <time>2018-01-07T11:55:40Z</time>
      </trkpt>
      <trkpt lat="62.641752715957" lon="17.885596867097">
        <ele>30</ele>
        <time>2018-01-07T11:55:41Z</time>
      </trkpt>
      <trkpt lat="62.641732934673" lon="17.885560154375">
        <ele>30.2</ele>
        <time>2018-01-07T11:55:42Z</time>
      </trkpt>
      <trkpt lat="62.641712734294" lon="17.885522268187">
        <ele>30.2</ele>
        <time>2018-01-07T11:55:43Z</time>
      </trkpt>
      <trkpt lat="62.641695216123" lon="17.885489159682">
        <ele>30.2</ele>
        <time>2018-01-07T11:55:44Z</time>
      </trkpt>
      <trkpt lat="62.641679709608" lon="17.885462840516">
        <ele>30.2</ele>
        <time>2018-01-07T11:55:45Z</time>
      </trkpt>
      <trkpt lat="62.641666717663" lon="17.885438952101">
        <ele>30.4</ele>
        <time>2018-01-07T11:55:46Z</time>
      </trkpt>
      <trkpt lat="62.641652552252" lon="17.885411962383">
        <ele>30.4</ele>
        <time>2018-01-07T11:55:47Z</time>
      </trkpt>
      <trkpt lat="62.641639727945" lon="17.885384805027">
        <ele>30.4</ele>
        <time>2018-01-07T11:55:48Z</time>
      </trkpt>
      <trkpt lat="62.641625730172" lon="17.885356977119">
        <ele>30.8</ele>
        <time>2018-01-07T11:55:49Z</time>
      </trkpt>
      <trkpt lat="62.641611564761" lon="17.885330657953">
        <ele>31</ele>
        <time>2018-01-07T11:55:50Z</time>
      </trkpt>
      <trkpt lat="62.64159991392" lon="17.885303668235">
        <ele>31.2</ele>
        <time>2018-01-07T11:55:51Z</time>
      </trkpt>
      <trkpt lat="62.641587927803" lon="17.885284557503">
        <ele>31.2</ele>
        <time>2018-01-07T11:55:52Z</time>
      </trkpt>
      <trkpt lat="62.641570158175" lon="17.885255639948">
        <ele>31.4</ele>
        <time>2018-01-07T11:55:53Z</time>
      </trkpt>
      <trkpt lat="62.641555825126" lon="17.885232505904">
        <ele>31.6</ele>
        <time>2018-01-07T11:55:54Z</time>
      </trkpt>
      <trkpt lat="62.641539731878" lon="17.885210126231">
        <ele>31.8</ele>
        <time>2018-01-07T11:55:55Z</time>
      </trkpt>
      <trkpt lat="62.64152531501" lon="17.885188668567">
        <ele>32</ele>
        <time>2018-01-07T11:55:56Z</time>
      </trkpt>
      <trkpt lat="62.641512825979" lon="17.885170228387">
        <ele>32.2</ele>
        <time>2018-01-07T11:55:57Z</time>
      </trkpt>
      <trkpt lat="62.641499163482" lon="17.885148938361">
        <ele>32.6</ele>
        <time>2018-01-07T11:55:58Z</time>
      </trkpt>
      <trkpt lat="62.641483321691" lon="17.885127061602">
        <ele>32.8</ele>
        <time>2018-01-07T11:55:59Z</time>
      </trkpt>
      <trkpt lat="62.641470162108" lon="17.885104095196">
        <ele>33</ele>
        <time>2018-01-07T11:56:00Z</time>
      </trkpt>
      <trkpt lat="62.641455074688" lon="17.885078195125">
        <ele>33.4</ele>
        <time>2018-01-07T11:56:01Z</time>
      </trkpt>
      <trkpt lat="62.641441831286" lon="17.885053971434">
        <ele>33.8</ele>
        <time>2018-01-07T11:56:02Z</time>
      </trkpt>
      <trkpt lat="62.641426660047" lon="17.885027652268">
        <ele>34</ele>
        <time>2018-01-07T11:56:03Z</time>
      </trkpt>
      <trkpt lat="62.641414087197" lon="17.885001165464">
        <ele>34.2</ele>
        <time>2018-01-07T11:56:04Z</time>
      </trkpt>
      <trkpt lat="62.641398999777" lon="17.884977863782">
        <ele>34.4</ele>
        <time>2018-01-07T11:56:05Z</time>
      </trkpt>
      <trkpt lat="62.641385085823" lon="17.884955903204">
        <ele>34.4</ele>
        <time>2018-01-07T11:56:06Z</time>
      </trkpt>
      <trkpt lat="62.641368657299" lon="17.884922040328">
        <ele>34.4</ele>
        <time>2018-01-07T11:56:07Z</time>
      </trkpt>
      <trkpt lat="62.641350049481" lon="17.884891949307">
        <ele>34.6</ele>
        <time>2018-01-07T11:56:08Z</time>
      </trkpt>
      <trkpt lat="62.641336889898" lon="17.88487493405">
        <ele>34.4</ele>
        <time>2018-01-07T11:56:09Z</time>
      </trkpt>
      <trkpt lat="62.641317024795" lon="17.884834952387">
        <ele>34.6</ele>
        <time>2018-01-07T11:56:10Z</time>
      </trkpt>
      <trkpt lat="62.641299590443" lon="17.88480201152">
        <ele>34.8</ele>
        <time>2018-01-07T11:56:11Z</time>
      </trkpt>
      <trkpt lat="62.641286682317" lon="17.884785163901">
        <ele>34.6</ele>
        <time>2018-01-07T11:56:12Z</time>
      </trkpt>
      <trkpt lat="62.641268912689" lon="17.884758090364">
        <ele>34.8</ele>
        <time>2018-01-07T11:56:13Z</time>
      </trkpt>
      <trkpt lat="62.641253573812" lon="17.88473495632">
        <ele>34.8</ele>
        <time>2018-01-07T11:56:14Z</time>
      </trkpt>
      <trkpt lat="62.641236642374" lon="17.884707631326">
        <ele>35</ele>
        <time>2018-01-07T11:56:15Z</time>
      </trkpt>
      <trkpt lat="62.641224572438" lon="17.884682569445">
        <ele>35</ele>
        <time>2018-01-07T11:56:16Z</time>
      </trkpt>
      <trkpt lat="62.641211245217" lon="17.884654825356">
        <ele>35.2</ele>
        <time>2018-01-07T11:56:17Z</time>
      </trkpt>
      <trkpt lat="62.641195822521" lon="17.884626075439">
        <ele>35.4</ele>
        <time>2018-01-07T11:56:18Z</time>
      </trkpt>
      <trkpt lat="62.641183501128" lon="17.884598582807">
        <ele>35.4</ele>
        <time>2018-01-07T11:56:19Z</time>
      </trkpt>
      <trkpt lat="62.641167156423" lon="17.884571844546">
        <ele>35.8</ele>
        <time>2018-01-07T11:56:20Z</time>
      </trkpt>
      <trkpt lat="62.641153577745" lon="17.884543765181">
        <ele>36</ele>
        <time>2018-01-07T11:56:21Z</time>
      </trkpt>
      <trkpt lat="62.64114142399" lon="17.884518535662">
        <ele>36.2</ele>
        <time>2018-01-07T11:56:22Z</time>
      </trkpt>
      <trkpt lat="62.641126085113" lon="17.884492467953">
        <ele>36.6</ele>
        <time>2018-01-07T11:56:23Z</time>
      </trkpt>
      <trkpt lat="62.641113093168" lon="17.884457934525">
        <ele>37</ele>
        <time>2018-01-07T11:56:24Z</time>
      </trkpt>
      <trkpt lat="62.641095407359" lon="17.88442231145">
        <ele>37</ele>
        <time>2018-01-07T11:56:25Z</time>
      </trkpt>
      <trkpt lat="62.6410819125" lon="17.884391466058">
        <ele>37.2</ele>
        <time>2018-01-07T11:56:26Z</time>
      </trkpt>
      <trkpt lat="62.641073279143" lon="17.884372774421">
        <ele>37.4</ele>
        <time>2018-01-07T11:56:27Z</time>
      </trkpt>
      <trkpt lat="62.641059113732" lon="17.884321225736">
        <ele>37.6</ele>
        <time>2018-01-07T11:56:28Z</time>
      </trkpt>
      <trkpt lat="62.641043271941" lon="17.884277975132">
        <ele>37.6</ele>
        <time>2018-01-07T11:56:29Z</time>
      </trkpt>
      <trkpt lat="62.641033465118" lon="17.884251739785">
        <ele>37.6</ele>
        <time>2018-01-07T11:56:30Z</time>
      </trkpt>
      <trkpt lat="62.641017958603" lon="17.884202957127">
        <ele>37.8</ele>
        <time>2018-01-07T11:56:31Z</time>
      </trkpt>
      <trkpt lat="62.641006307762" lon="17.88416498712">
        <ele>37.8</ele>
        <time>2018-01-07T11:56:32Z</time>
      </trkpt>
      <trkpt lat="62.64099474074" lon="17.884137159212">
        <ele>37.8</ele>
        <time>2018-01-07T11:56:33Z</time>
      </trkpt>
      <trkpt lat="62.640983089899" lon="17.884097764282">
        <ele>37.8</ele>
        <time>2018-01-07T11:56:34Z</time>
      </trkpt>
      <trkpt lat="62.64096959504" lon="17.884054010764">
        <ele>38</ele>
        <time>2018-01-07T11:56:35Z</time>
      </trkpt>
      <trkpt lat="62.640959955855" lon="17.884030625263">
        <ele>38</ele>
        <time>2018-01-07T11:56:36Z</time>
      </trkpt>
      <trkpt lat="62.640950065213" lon="17.883987626116">
        <ele>38.2</ele>
        <time>2018-01-07T11:56:37Z</time>
      </trkpt>
      <trkpt lat="62.640935815983" lon="17.883935490698">
        <ele>38.2</ele>
        <time>2018-01-07T11:56:38Z</time>
      </trkpt>
      <trkpt lat="62.640926260617" lon="17.883904812944">
        <ele>38.2</ele>
        <time>2018-01-07T11:56:39Z</time>
      </trkpt>
      <trkpt lat="62.640915196509" lon="17.883868938412">
        <ele>38.4</ele>
        <time>2018-01-07T11:56:40Z</time>
      </trkpt>
      <trkpt lat="62.640902707478" lon="17.883823340876">
        <ele>38.6</ele>
        <time>2018-01-07T11:56:41Z</time>
      </trkpt>
      <trkpt lat="62.640895079949" lon="17.883786376697">
        <ele>38.8</ele>
        <time>2018-01-07T11:56:42Z</time>
      </trkpt>
      <trkpt lat="62.640890637542" lon="17.883740276247">
        <ele>39</ele>
        <time>2018-01-07T11:56:43Z</time>
      </trkpt>
      <trkpt lat="62.640887955334" lon="17.883705072267">
        <ele>39.2</ele>
        <time>2018-01-07T11:56:44Z</time>
      </trkpt>
      <trkpt lat="62.640886195135" lon="17.883671963762">
        <ele>39.4</ele>
        <time>2018-01-07T11:56:45Z</time>
      </trkpt>
      <trkpt lat="62.640885021669" lon="17.883639609628">
        <ele>39.6</ele>
        <time>2018-01-07T11:56:46Z</time>
      </trkpt>
      <trkpt lat="62.640883177651" lon="17.883612284634">
        <ele>39.8</ele>
        <time>2018-01-07T11:56:47Z</time>
      </trkpt>
      <trkpt lat="62.64088242328" lon="17.883579259948">
        <ele>40</ele>
        <time>2018-01-07T11:56:48Z</time>
      </trkpt>
      <trkpt lat="62.640877813235" lon="17.88354221195">
        <ele>40.2</ele>
        <time>2018-01-07T11:56:49Z</time>
      </trkpt>
      <trkpt lat="62.640873035552" lon="17.883511701834">
        <ele>40.4</ele>
        <time>2018-01-07T11:56:50Z</time>
      </trkpt>
      <trkpt lat="62.640867922593" lon="17.88347264218">
        <ele>40.6</ele>
        <time>2018-01-07T11:56:51Z</time>
      </trkpt>
      <trkpt lat="62.640859875969" lon="17.883442718797">
        <ele>40.8</ele>
        <time>2018-01-07T11:56:52Z</time>
      </trkpt>
      <trkpt lat="62.640861133254" lon="17.883391924483">
        <ele>41</ele>
        <time>2018-01-07T11:56:53Z</time>
      </trkpt>
      <trkpt lat="62.640863228729" lon="17.883349512069">
        <ele>41.2</ele>
        <time>2018-01-07T11:56:54Z</time>
      </trkpt>
      <trkpt lat="62.640859205417" lon="17.883312464071">
        <ele>41.4</ele>
        <time>2018-01-07T11:56:55Z</time>
      </trkpt>
      <trkpt lat="62.640856104114" lon="17.883270135476">
        <ele>41.6</ele>
        <time>2018-01-07T11:56:56Z</time>
      </trkpt>
      <trkpt lat="62.640851242612" lon="17.88323543441">
        <ele>41.8</ele>
        <time>2018-01-07T11:56:57Z</time>
      </trkpt>
      <trkpt lat="62.640847051662" lon="17.883195955661">
        <ele>41.8</ele>
        <time>2018-01-07T11:56:58Z</time>
      </trkpt>
      <trkpt lat="62.640843615083" lon="17.883165780821">
        <ele>41.8</ele>
        <time>2018-01-07T11:56:59Z</time>
      </trkpt>
      <trkpt lat="62.640839424133" lon="17.883127810814">
        <ele>42</ele>
        <time>2018-01-07T11:57:00Z</time>
      </trkpt>
      <trkpt lat="62.640839591771" lon="17.883093445024">
        <ele>42.2</ele>
        <time>2018-01-07T11:57:01Z</time>
      </trkpt>
      <trkpt lat="62.640837496296" lon="17.883064024555">
        <ele>42.4</ele>
        <time>2018-01-07T11:57:02Z</time>
      </trkpt>
      <trkpt lat="62.640834143536" lon="17.883026976557">
        <ele>42.6</ele>
        <time>2018-01-07T11:57:03Z</time>
      </trkpt>
      <trkpt lat="62.640831209871" lon="17.882990180016">
        <ele>43</ele>
        <time>2018-01-07T11:57:04Z</time>
      </trkpt>
      <trkpt lat="62.640832048061" lon="17.882951958552">
        <ele>43.4</ele>
        <time>2018-01-07T11:57:05Z</time>
      </trkpt>
      <trkpt lat="62.640831126052" lon="17.882916586934">
        <ele>43.6</ele>
        <time>2018-01-07T11:57:06Z</time>
      </trkpt>
      <trkpt lat="62.640836825744" lon="17.8828842328">
        <ele>44</ele>
        <time>2018-01-07T11:57:07Z</time>
      </trkpt>
      <trkpt lat="62.640841519608" lon="17.882839389635">
        <ele>44.2</ele>
        <time>2018-01-07T11:57:08Z</time>
      </trkpt>
      <trkpt lat="62.640849147137" lon="17.882799240334">
        <ele>44.4</ele>
        <time>2018-01-07T11:57:09Z</time>
      </trkpt>
      <trkpt lat="62.640856020295" lon="17.882755067721">
        <ele>44.6</ele>
        <time>2018-01-07T11:57:10Z</time>
      </trkpt>
      <trkpt lat="62.640869431335" lon="17.882694382765">
        <ele>44.8</ele>
        <time>2018-01-07T11:57:11Z</time>
      </trkpt>
      <trkpt lat="62.64087404138" lon="17.882647611763">
        <ele>44.8</ele>
        <time>2018-01-07T11:57:12Z</time>
      </trkpt>
      <trkpt lat="62.640889547895" lon="17.88257158793">
        <ele>45</ele>
        <time>2018-01-07T11:57:13Z</time>
      </trkpt>
      <trkpt lat="62.64090002527" lon="17.882507382576">
        <ele>45</ele>
        <time>2018-01-07T11:57:14Z</time>
      </trkpt>
      <trkpt lat="62.640904970591" lon="17.882450218018">
        <ele>45</ele>
        <time>2018-01-07T11:57:15Z</time>
      </trkpt>
      <trkpt lat="62.640909077722" lon="17.882388191958">
        <ele>45</ele>
        <time>2018-01-07T11:57:16Z</time>
      </trkpt>
      <trkpt lat="62.640907149885" lon="17.882335385988">
        <ele>45</ele>
        <time>2018-01-07T11:57:17Z</time>
      </trkpt>
      <trkpt lat="62.64090673079" lon="17.882275203946">
        <ele>45</ele>
        <time>2018-01-07T11:57:18Z</time>
      </trkpt>
      <trkpt lat="62.640900528184" lon="17.882226421288">
        <ele>44.8</ele>
        <time>2018-01-07T11:57:19Z</time>
      </trkpt>
      <trkpt lat="62.640898432709" lon="17.882183925055">
        <ele>44.8</ele>
        <time>2018-01-07T11:57:20Z</time>
      </trkpt>
      <trkpt lat="62.640891978646" lon="17.882152157654">
        <ele>44.8</ele>
        <time>2018-01-07T11:57:21Z</time>
      </trkpt>
      <trkpt lat="62.640886698049" lon="17.882120474072">
        <ele>45</ele>
        <time>2018-01-07T11:57:22Z</time>
      </trkpt>
      <trkpt lat="62.640879154339" lon="17.882079402762">
        <ele>45.2</ele>
        <time>2018-01-07T11:57:23Z</time>
      </trkpt>
      <trkpt lat="62.640873035552" lon="17.882041600393">
        <ele>45.2</ele>
        <time>2018-01-07T11:57:24Z</time>
      </trkpt>
      <trkpt lat="62.640866246213" lon="17.882007821336">
        <ele>45.4</ele>
        <time>2018-01-07T11:57:25Z</time>
      </trkpt>
      <trkpt lat="62.640864066919" lon="17.881964403094">
        <ele>45.6</ele>
        <time>2018-01-07T11:57:26Z</time>
      </trkpt>
      <trkpt lat="62.640857529037" lon="17.881937748652">
        <ele>45.8</ele>
        <time>2018-01-07T11:57:27Z</time>
      </trkpt>
      <trkpt lat="62.640851242612" lon="17.881904891604">
        <ele>46</ele>
        <time>2018-01-07T11:57:28Z</time>
      </trkpt>
      <trkpt lat="62.640840932875" lon="17.881875638773">
        <ele>46.2</ele>
        <time>2018-01-07T11:57:29Z</time>
      </trkpt>
      <trkpt lat="62.640831545147" lon="17.881850912168">
        <ele>46.4</ele>
        <time>2018-01-07T11:57:30Z</time>
      </trkpt>
      <trkpt lat="62.640826767464" lon="17.881809086487">
        <ele>46.6</ele>
        <time>2018-01-07T11:57:31Z</time>
      </trkpt>
      <trkpt lat="62.640822744152" lon="17.881785030434">
        <ele>46.8</ele>
        <time>2018-01-07T11:57:32Z</time>
      </trkpt>
      <trkpt lat="62.640806399447" lon="17.881752173386">
        <ele>47.2</ele>
        <time>2018-01-07T11:57:33Z</time>
      </trkpt>
      <trkpt lat="62.640802711411" lon="17.881708168411">
        <ele>47.2</ele>
        <time>2018-01-07T11:57:34Z</time>
      </trkpt>
      <trkpt lat="62.640795335339" lon="17.881662487056">
        <ele>47.4</ele>
        <time>2018-01-07T11:57:35Z</time>
      </trkpt>
      <trkpt lat="62.640783935955" lon="17.88161940409">
        <ele>47.6</ele>
        <time>2018-01-07T11:57:36Z</time>
      </trkpt>
      <trkpt lat="62.640774464408" lon="17.881590821811">
        <ele>47.6</ele>
        <time>2018-01-07T11:57:37Z</time>
      </trkpt>
      <trkpt lat="62.640764573766" lon="17.881548577035">
        <ele>47.6</ele>
        <time>2018-01-07T11:57:38Z</time>
      </trkpt>
      <trkpt lat="62.640753761115" lon="17.881508176277">
        <ele>47.8</ele>
        <time>2018-01-07T11:57:39Z</time>
      </trkpt>
      <trkpt lat="62.640741774998" lon="17.881475905962">
        <ele>48</ele>
        <time>2018-01-07T11:57:40Z</time>
      </trkpt>
      <trkpt lat="62.640733560736" lon="17.881437935955">
        <ele>48.2</ele>
        <time>2018-01-07T11:57:41Z</time>
      </trkpt>
      <trkpt lat="62.640718640954" lon="17.881388398926">
        <ele>48.2</ele>
        <time>2018-01-07T11:57:42Z</time>
      </trkpt>
      <trkpt lat="62.64070640338" lon="17.881350428919">
        <ele>48.4</ele>
        <time>2018-01-07T11:57:43Z</time>
      </trkpt>
      <trkpt lat="62.640690729227" lon="17.881318326242">
        <ele>48.6</ele>
        <time>2018-01-07T11:57:44Z</time>
      </trkpt>
      <trkpt lat="62.640675222712" lon="17.881275494733">
        <ele>48.8</ele>
        <time>2018-01-07T11:57:45Z</time>
      </trkpt>
      <trkpt lat="62.640666002622" lon="17.881233669052">
        <ele>48.8</ele>
        <time>2018-01-07T11:57:46Z</time>
      </trkpt>
      <trkpt lat="62.640655106152" lon="17.881204835316">
        <ele>49</ele>
        <time>2018-01-07T11:57:47Z</time>
      </trkpt>
      <trkpt lat="62.640646221338" lon="17.88115504683">
        <ele>49.2</ele>
        <time>2018-01-07T11:57:48Z</time>
      </trkpt>
      <trkpt lat="62.640639851094" lon="17.881104168697">
        <ele>49.4</ele>
        <time>2018-01-07T11:57:49Z</time>
      </trkpt>
      <trkpt lat="62.640632223565" lon="17.881075921694">
        <ele>49.4</ele>
        <time>2018-01-07T11:57:50Z</time>
      </trkpt>
      <trkpt lat="62.640629038443" lon="17.881031162348">
        <ele>49.6</ele>
        <time>2018-01-07T11:57:51Z</time>
      </trkpt>
      <trkpt lat="62.640627362063" lon="17.880985648631">
        <ele>49.8</ele>
        <time>2018-01-07T11:57:52Z</time>
      </trkpt>
      <trkpt lat="62.640628200253" lon="17.880921862372">
        <ele>50</ele>
        <time>2018-01-07T11:57:53Z</time>
      </trkpt>
      <trkpt lat="62.640631133918" lon="17.880872409162">
        <ele>50</ele>
        <time>2018-01-07T11:57:54Z</time>
      </trkpt>
      <trkpt lat="62.640633899945" lon="17.88083150549">
        <ele>50.2</ele>
        <time>2018-01-07T11:57:55Z</time>
      </trkpt>
      <trkpt lat="62.640640940741" lon="17.880777777511">
        <ele>50.4</ele>
        <time>2018-01-07T11:57:56Z</time>
      </trkpt>
      <trkpt lat="62.640646975709" lon="17.880725306817">
        <ele>50.6</ele>
        <time>2018-01-07T11:57:57Z</time>
      </trkpt>
      <trkpt lat="62.640656195799" lon="17.880677446168">
        <ele>50.6</ele>
        <time>2018-01-07T11:57:58Z</time>
      </trkpt>
      <trkpt lat="62.64066533207" lon="17.880630507528">
        <ele>50.8</ele>
        <time>2018-01-07T11:57:59Z</time>
      </trkpt>
      <trkpt lat="62.640674719798" lon="17.880588178933">
        <ele>50.8</ele>
        <time>2018-01-07T11:58:00Z</time>
      </trkpt>
      <trkpt lat="62.640691148322" lon="17.880541994664">
        <ele>51</ele>
        <time>2018-01-07T11:58:01Z</time>
      </trkpt>
      <trkpt lat="62.640705900466" lon="17.880495810395">
        <ele>51</ele>
        <time>2018-01-07T11:58:02Z</time>
      </trkpt>
      <trkpt lat="62.640717383669" lon="17.8804450999">
        <ele>51.2</ele>
        <time>2018-01-07T11:58:03Z</time>
      </trkpt>
      <trkpt lat="62.640727441949" lon="17.880418445458">
        <ele>51.2</ele>
        <time>2018-01-07T11:58:04Z</time>
      </trkpt>
      <trkpt lat="62.640743870473" lon="17.880375278673">
        <ele>51.4</ele>
        <time>2018-01-07T11:58:05Z</time>
      </trkpt>
      <trkpt lat="62.640759628445" lon="17.8803277533">
        <ele>51.6</ele>
        <time>2018-01-07T11:58:06Z</time>
      </trkpt>
      <trkpt lat="62.640771111648" lon="17.880292716958">
        <ele>51.8</ele>
        <time>2018-01-07T11:58:07Z</time>
      </trkpt>
      <trkpt lat="62.640783097765" lon="17.880254327856">
        <ele>52</ele>
        <time>2018-01-07T11:58:08Z</time>
      </trkpt>
      <trkpt lat="62.640800783574" lon="17.880204120275">
        <ele>52.2</ele>
        <time>2018-01-07T11:58:09Z</time>
      </trkpt>
      <trkpt lat="62.640810925673" lon="17.880172604331">
        <ele>52.4</ele>
        <time>2018-01-07T11:58:10Z</time>
      </trkpt>
      <trkpt lat="62.640824420532" lon="17.880131030107">
        <ele>52.6</ele>
        <time>2018-01-07T11:58:11Z</time>
      </trkpt>
      <trkpt lat="62.640840262323" lon="17.880081241621">
        <ele>52.6</ele>
        <time>2018-01-07T11:58:12Z</time>
      </trkpt>
      <trkpt lat="62.640853002811" lon="17.880041259958">
        <ele>52.4</ele>
        <time>2018-01-07T11:58:13Z</time>
      </trkpt>
      <trkpt lat="62.640865324204" lon="17.880002787037">
        <ele>52.6</ele>
        <time>2018-01-07T11:58:14Z</time>
      </trkpt>
      <trkpt lat="62.640883932022" lon="17.879948807601">
        <ele>52.6</ele>
        <time>2018-01-07T11:58:15Z</time>
      </trkpt>
      <trkpt lat="62.640892649198" lon="17.87991955477">
        <ele>52.6</ele>
        <time>2018-01-07T11:58:16Z</time>
      </trkpt>
      <trkpt lat="62.640907736618" lon="17.879878148184">
        <ele>52.6</ele>
        <time>2018-01-07T11:58:17Z</time>
      </trkpt>
      <trkpt lat="62.6409226564" lon="17.879832131553">
        <ele>52.8</ele>
        <time>2018-01-07T11:58:18Z</time>
      </trkpt>
      <trkpt lat="62.640933804327" lon="17.879796592297">
        <ele>52.8</ele>
        <time>2018-01-07T11:58:19Z</time>
      </trkpt>
      <trkpt lat="62.64094444934" lon="17.879759209023">
        <ele>53</ele>
        <time>2018-01-07T11:58:20Z</time>
      </trkpt>
      <trkpt lat="62.640962386606" lon="17.879707911795">
        <ele>53</ele>
        <time>2018-01-07T11:58:21Z</time>
      </trkpt>
      <trkpt lat="62.640970936144" lon="17.879667511037">
        <ele>53.2</ele>
        <time>2018-01-07T11:58:22Z</time>
      </trkpt>
      <trkpt lat="62.64097965332" lon="17.879633061428">
        <ele>53.2</ele>
        <time>2018-01-07T11:58:23Z</time>
      </trkpt>
      <trkpt lat="62.640997506767" lon="17.879568520798">
        <ele>53.2</ele>
        <time>2018-01-07T11:58:24Z</time>
      </trkpt>
      <trkpt lat="62.641005553391" lon="17.879535747569">
        <ele>53.2</ele>
        <time>2018-01-07T11:58:25Z</time>
      </trkpt>
      <trkpt lat="62.641013432377" lon="17.879499873037">
        <ele>53.4</ele>
        <time>2018-01-07T11:58:26Z</time>
      </trkpt>
      <trkpt lat="62.64102659196" lon="17.879452347664">
        <ele>53.4</ele>
        <time>2018-01-07T11:58:27Z</time>
      </trkpt>
      <trkpt lat="62.641037991344" lon="17.879408426508">
        <ele>53.8</ele>
        <time>2018-01-07T11:58:28Z</time>
      </trkpt>
      <trkpt lat="62.641043942493" lon="17.879378586944">
        <ele>53.8</ele>
        <time>2018-01-07T11:58:29Z</time>
      </trkpt>
      <trkpt lat="62.641056012429" lon="17.879330810114">
        <ele>54.2</ele>
        <time>2018-01-07T11:58:30Z</time>
      </trkpt>
      <trkpt lat="62.64106933965" lon="17.879280518714">
        <ele>54.2</ele>
        <time>2018-01-07T11:58:31Z</time>
      </trkpt>
      <trkpt lat="62.641082499233" lon="17.879235507911">
        <ele>54.4</ele>
        <time>2018-01-07T11:58:32Z</time>
      </trkpt>
      <trkpt lat="62.641095826454" lon="17.879187479624">
        <ele>54.6</ele>
        <time>2018-01-07T11:58:33Z</time>
      </trkpt>
      <trkpt lat="62.641105884734" lon="17.879143307011">
        <ele>54.8</ele>
        <time>2018-01-07T11:58:34Z</time>
      </trkpt>
      <trkpt lat="62.641116697385" lon="17.879097793294">
        <ele>55</ele>
        <time>2018-01-07T11:58:35Z</time>
      </trkpt>
      <trkpt lat="62.641126588027" lon="17.879066025893">
        <ele>55.2</ele>
        <time>2018-01-07T11:58:36Z</time>
      </trkpt>
      <trkpt lat="62.641132539176" lon="17.879036856881">
        <ele>55.6</ele>
        <time>2018-01-07T11:58:37Z</time>
      </trkpt>
      <trkpt lat="62.6411489677" lon="17.878981368703">
        <ele>55.6</ele>
        <time>2018-01-07T11:58:38Z</time>
      </trkpt>
      <trkpt lat="62.641160618541" lon="17.878943231058">
        <ele>55.8</ele>
        <time>2018-01-07T11:58:39Z</time>
      </trkpt>
      <trkpt lat="62.641173023753" lon="17.878899561359">
        <ele>55.8</ele>
        <time>2018-01-07T11:58:40Z</time>
      </trkpt>
      <trkpt lat="62.641198085634" lon="17.878821274413">
        <ele>56.2</ele>
        <time>2018-01-07T11:58:42Z</time>
      </trkpt>
      <trkpt lat="62.641206970448" lon="17.878791602487">
        <ele>56.4</ele>
        <time>2018-01-07T11:58:43Z</time>
      </trkpt>
      <trkpt lat="62.64122021385" lon="17.878749106254">
        <ele>56.4</ele>
        <time>2018-01-07T11:58:44Z</time>
      </trkpt>
      <trkpt lat="62.641232870519" lon="17.878701329424">
        <ele>56.6</ele>
        <time>2018-01-07T11:58:45Z</time>
      </trkpt>
      <trkpt lat="62.641243180256" lon="17.878670903127">
        <ele>56.8</ele>
        <time>2018-01-07T11:58:46Z</time>
      </trkpt>
      <trkpt lat="62.641251394518" lon="17.878640393011">
        <ele>56.8</ele>
        <time>2018-01-07T11:58:47Z</time>
      </trkpt>
      <trkpt lat="62.641264470282" lon="17.878601165719">
        <ele>57</ele>
        <time>2018-01-07T11:58:48Z</time>
      </trkpt>
      <trkpt lat="62.641276707856" lon="17.878563028074">
        <ele>57.2</ele>
        <time>2018-01-07T11:58:49Z</time>
      </trkpt>
      <trkpt lat="62.641286263222" lon="17.878532517958">
        <ele>57.4</ele>
        <time>2018-01-07T11:58:50Z</time>
      </trkpt>
      <trkpt lat="62.641300260995" lon="17.878497313978">
        <ele>57.6</ele>
        <time>2018-01-07T11:58:51Z</time>
      </trkpt>
      <trkpt lat="62.641315096958" lon="17.878459343971">
        <ele>57.6</ele>
        <time>2018-01-07T11:58:52Z</time>
      </trkpt>
      <trkpt lat="62.641325993428" lon="17.878422295973">
        <ele>57.8</ele>
        <time>2018-01-07T11:58:53Z</time>
      </trkpt>
      <trkpt lat="62.641344685065" lon="17.878377871903">
        <ele>58</ele>
        <time>2018-01-07T11:58:54Z</time>
      </trkpt>
      <trkpt lat="62.641356084449" lon="17.878337974059">
        <ele>58.2</ele>
        <time>2018-01-07T11:58:55Z</time>
      </trkpt>
      <trkpt lat="62.641364801625" lon="17.878308050676">
        <ele>58.2</ele>
        <time>2018-01-07T11:58:56Z</time>
      </trkpt>
      <trkpt lat="62.641390450239" lon="17.878239570553">
        <ele>58.4</ele>
        <time>2018-01-07T11:58:58Z</time>
      </trkpt>
      <trkpt lat="62.641404448012" lon="17.878209730989">
        <ele>58.4</ele>
        <time>2018-01-07T11:58:59Z</time>
      </trkpt>
      <trkpt lat="62.641421547088" lon="17.878170084602">
        <ele>58.6</ele>
        <time>2018-01-07T11:59:00Z</time>
      </trkpt>
      <trkpt lat="62.641437388879" lon="17.878130102939">
        <ele>58.6</ele>
        <time>2018-01-07T11:59:01Z</time>
      </trkpt>
      <trkpt lat="62.6414507161" lon="17.878096826796">
        <ele>58.6</ele>
        <time>2018-01-07T11:59:02Z</time>
      </trkpt>
      <trkpt lat="62.641467563719" lon="17.878057599504">
        <ele>58.6</ele>
        <time>2018-01-07T11:59:03Z</time>
      </trkpt>
      <trkpt lat="62.641481393854" lon="17.878024071904">
        <ele>58.8</ele>
        <time>2018-01-07T11:59:04Z</time>
      </trkpt>
      <trkpt lat="62.641494469618" lon="17.877991801589">
        <ele>58.8</ele>
        <time>2018-01-07T11:59:05Z</time>
      </trkpt>
      <trkpt lat="62.641505785183" lon="17.877957603437">
        <ele>58.8</ele>
        <time>2018-01-07T11:59:06Z</time>
      </trkpt>
      <trkpt lat="62.641518274214" lon="17.877925249303">
        <ele>59</ele>
        <time>2018-01-07T11:59:07Z</time>
      </trkpt>
      <trkpt lat="62.64153621148" lon="17.877885686735">
        <ele>59</ele>
        <time>2018-01-07T11:59:08Z</time>
      </trkpt>
      <trkpt lat="62.641551131262" lon="17.877845453615">
        <ele>59.2</ele>
        <time>2018-01-07T11:59:09Z</time>
      </trkpt>
      <trkpt lat="62.641563787931" lon="17.87780899235">
        <ele>59.4</ele>
        <time>2018-01-07T11:59:10Z</time>
      </trkpt>
      <trkpt lat="62.641577869523" lon="17.877770687067">
        <ele>59.6</ele>
        <time>2018-01-07T11:59:11Z</time>
      </trkpt>
      <trkpt lat="62.641589185088" lon="17.877736405096">
        <ele>59.8</ele>
        <time>2018-01-07T11:59:12Z</time>
      </trkpt>
      <trkpt lat="62.641603434318" lon="17.877696507252">
        <ele>60</ele>
        <time>2018-01-07T11:59:13Z</time>
      </trkpt>
      <trkpt lat="62.641616258625" lon="17.877660548901">
        <ele>60.2</ele>
        <time>2018-01-07T11:59:14Z</time>
      </trkpt>
      <trkpt lat="62.641630424036" lon="17.877620651057">
        <ele>60.4</ele>
        <time>2018-01-07T11:59:15Z</time>
      </trkpt>
      <trkpt lat="62.641642913067" lon="17.877587877828">
        <ele>60.8</ele>
        <time>2018-01-07T11:59:16Z</time>
      </trkpt>
      <trkpt lat="62.641655988831" lon="17.877554014952">
        <ele>60.8</ele>
        <time>2018-01-07T11:59:17Z</time>
      </trkpt>
      <trkpt lat="62.6416686455" lon="17.877518559515">
        <ele>61</ele>
        <time>2018-01-07T11:59:18Z</time>
      </trkpt>
      <trkpt lat="62.641680212522" lon="17.877487295028">
        <ele>61.2</ele>
        <time>2018-01-07T11:59:19Z</time>
      </trkpt>
      <trkpt lat="62.641691108992" lon="17.877456617274">
        <ele>61.6</ele>
        <time>2018-01-07T11:59:20Z</time>
      </trkpt>
      <trkpt lat="62.64170133491" lon="17.87742258676">
        <ele>61.6</ele>
        <time>2018-01-07T11:59:21Z</time>
      </trkpt>
      <trkpt lat="62.64171139319" lon="17.877386209314">
        <ele>61.8</ele>
        <time>2018-01-07T11:59:22Z</time>
      </trkpt>
      <trkpt lat="62.641725977696" lon="17.877353184628">
        <ele>62</ele>
        <time>2018-01-07T11:59:23Z</time>
      </trkpt>
      <trkpt lat="62.641741065116" lon="17.877314711707">
        <ele>62.2</ele>
        <time>2018-01-07T11:59:24Z</time>
      </trkpt>
      <trkpt lat="62.641754392337" lon="17.877278501899">
        <ele>62.4</ele>
        <time>2018-01-07T11:59:25Z</time>
      </trkpt>
      <trkpt lat="62.641765456445" lon="17.877245393394">
        <ele>62.4</ele>
        <time>2018-01-07T11:59:26Z</time>
      </trkpt>
      <trkpt lat="62.641777526381" lon="17.877211698156">
        <ele>62.4</ele>
        <time>2018-01-07T11:59:27Z</time>
      </trkpt>
      <trkpt lat="62.641792446163" lon="17.877178170556">
        <ele>62.6</ele>
        <time>2018-01-07T11:59:28Z</time>
      </trkpt>
      <trkpt lat="62.641803677909" lon="17.877149504458">
        <ele>62.6</ele>
        <time>2018-01-07T11:59:29Z</time>
      </trkpt>
      <trkpt lat="62.641815999302" lon="17.87711580922">
        <ele>62.8</ele>
        <time>2018-01-07T11:59:30Z</time>
      </trkpt>
      <trkpt lat="62.641831673455" lon="17.877077084842">
        <ele>63</ele>
        <time>2018-01-07T11:59:31Z</time>
      </trkpt>
      <trkpt lat="62.641845168314" lon="17.877039701568">
        <ele>63</ele>
        <time>2018-01-07T11:59:32Z</time>
      </trkpt>
      <trkpt lat="62.641857322069" lon="17.877000306638">
        <ele>63.2</ele>
        <time>2018-01-07T11:59:33Z</time>
      </trkpt>
      <trkpt lat="62.641869140548" lon="17.876968874513">
        <ele>63.6</ele>
        <time>2018-01-07T11:59:34Z</time>
      </trkpt>
      <trkpt lat="62.641882803045" lon="17.876937693845">
        <ele>63.8</ele>
        <time>2018-01-07T11:59:35Z</time>
      </trkpt>
      <trkpt lat="62.641899650664" lon="17.876907854281">
        <ele>64</ele>
        <time>2018-01-07T11:59:36Z</time>
      </trkpt>
      <trkpt lat="62.64192094069" lon="17.876870554826">
        <ele>64.4</ele>
        <time>2018-01-07T11:59:37Z</time>
      </trkpt>
      <trkpt lat="62.641941643983" lon="17.876829818792">
        <ele>64.6</ele>
        <time>2018-01-07T11:59:38Z</time>
      </trkpt>
      <trkpt lat="62.641957066679" lon="17.876794950088">
        <ele>64.8</ele>
        <time>2018-01-07T11:59:39Z</time>
      </trkpt>
      <trkpt lat="62.641972573194" lon="17.8767570639">
        <ele>64.8</ele>
        <time>2018-01-07T11:59:40Z</time>
      </trkpt>
      <trkpt lat="62.641986570967" lon="17.876718758617">
        <ele>65</ele>
        <time>2018-01-07T11:59:41Z</time>
      </trkpt>
      <trkpt lat="62.642000149645" lon="17.876680201877">
        <ele>65.2</ele>
        <time>2018-01-07T11:59:42Z</time>
      </trkpt>
      <trkpt lat="62.642016913445" lon="17.876637035092">
        <ele>65.2</ele>
        <time>2018-01-07T11:59:43Z</time>
      </trkpt>
      <trkpt lat="62.6420290672" lon="17.876605686786">
        <ele>65.2</ele>
        <time>2018-01-07T11:59:44Z</time>
      </trkpt>
      <trkpt lat="62.642045747181" lon="17.876562268544">
        <ele>65.2</ele>
        <time>2018-01-07T11:59:45Z</time>
      </trkpt>
      <trkpt lat="62.642057817117" lon="17.876524298537">
        <ele>65.4</ele>
        <time>2018-01-07T11:59:46Z</time>
      </trkpt>
      <trkpt lat="62.642069132682" lon="17.876487334358">
        <ele>65.4</ele>
        <time>2018-01-07T11:59:47Z</time>
      </trkpt>
      <trkpt lat="62.642083465731" lon="17.876444251392">
        <ele>65.6</ele>
        <time>2018-01-07T11:59:48Z</time>
      </trkpt>
      <trkpt lat="62.642098301694" lon="17.876399492046">
        <ele>65.6</ele>
        <time>2018-01-07T11:59:49Z</time>
      </trkpt>
      <trkpt lat="62.642111545096" lon="17.876356744356">
        <ele>65.6</ele>
        <time>2018-01-07T11:59:50Z</time>
      </trkpt>
      <trkpt lat="62.642124369403" lon="17.876316008322">
        <ele>65.8</ele>
        <time>2018-01-07T11:59:51Z</time>
      </trkpt>
      <trkpt lat="62.642138618633" lon="17.876276194297">
        <ele>65.8</ele>
        <time>2018-01-07T11:59:52Z</time>
      </trkpt>
      <trkpt lat="62.642157561727" lon="17.876247192923">
        <ele>66</ele>
        <time>2018-01-07T11:59:53Z</time>
      </trkpt>
      <trkpt lat="62.6421715595" lon="17.876214671151">
        <ele>66</ele>
        <time>2018-01-07T11:59:54Z</time>
      </trkpt>
      <trkpt lat="62.642185138178" lon="17.87618541832">
        <ele>66.4</ele>
        <time>2018-01-07T11:59:55Z</time>
      </trkpt>
      <trkpt lat="62.642203829815" lon="17.876149459969">
        <ele>66.6</ele>
        <time>2018-01-07T11:59:56Z</time>
      </trkpt>
      <trkpt lat="62.64222101271" lon="17.876116100007">
        <ele>66.8</ele>
        <time>2018-01-07T11:59:57Z</time>
      </trkpt>
      <trkpt lat="62.642238363243" lon="17.876082991502">
        <ele>67</ele>
        <time>2018-01-07T11:59:58Z</time>
      </trkpt>
      <trkpt lat="62.64226292221" lon="17.876043345115">
        <ele>67.2</ele>
        <time>2018-01-07T11:59:59Z</time>
      </trkpt>
      <trkpt lat="62.642282284399" lon="17.876007889678">
        <ele>67.4</ele>
        <time>2018-01-07T12:00:00Z</time>
      </trkpt>
      <trkpt lat="62.642297204181" lon="17.87597587082">
        <ele>67.6</ele>
        <time>2018-01-07T12:00:01Z</time>
      </trkpt>
      <trkpt lat="62.642315476723" lon="17.875942091763">
        <ele>67.6</ele>
        <time>2018-01-07T12:00:02Z</time>
      </trkpt>
      <trkpt lat="62.642336096197" lon="17.875908061249">
        <ele>67.8</ele>
        <time>2018-01-07T12:00:03Z</time>
      </trkpt>
      <trkpt lat="62.642353782006" lon="17.875880568617">
        <ele>67.8</ele>
        <time>2018-01-07T12:00:04Z</time>
      </trkpt>
      <trkpt lat="62.642374317661" lon="17.875849639406">
        <ele>67.8</ele>
        <time>2018-01-07T12:00:05Z</time>
      </trkpt>
      <trkpt lat="62.642390913823" lon="17.875827175914">
        <ele>67.8</ele>
        <time>2018-01-07T12:00:06Z</time>
      </trkpt>
      <trkpt lat="62.642410359831" lon="17.875798845092">
        <ele>67.8</ele>
        <time>2018-01-07T12:00:07Z</time>
      </trkpt>
      <trkpt lat="62.642432739504" lon="17.875762802922">
        <ele>67.6</ele>
        <time>2018-01-07T12:00:08Z</time>
      </trkpt>
      <trkpt lat="62.642452520788" lon="17.875732041349">
        <ele>67.8</ele>
        <time>2018-01-07T12:00:09Z</time>
      </trkpt>
      <trkpt lat="62.64247666066" lon="17.875697340283">
        <ele>67.8</ele>
        <time>2018-01-07T12:00:10Z</time>
      </trkpt>
      <trkpt lat="62.642507757509" lon="17.875641600648">
        <ele>68</ele>
        <time>2018-01-07T12:00:11Z</time>
      </trkpt>
      <trkpt lat="62.642533406123" lon="17.87558192152">
        <ele>68</ele>
        <time>2018-01-07T12:00:12Z</time>
      </trkpt>
      <trkpt lat="62.642567017542" lon="17.875517883804">
        <ele>68.2</ele>
        <time>2018-01-07T12:00:13Z</time>
      </trkpt>
      <trkpt lat="62.642604987549" lon="17.875465245472">
        <ele>68.2</ele>
        <time>2018-01-07T12:00:14Z</time>
      </trkpt>
      <trkpt lat="62.642644550117" lon="17.875415289348">
        <ele>67.8</ele>
        <time>2018-01-07T12:00:15Z</time>
      </trkpt>
      <trkpt lat="62.642680257011" lon="17.875363405387">
        <ele>67.2</ele>
        <time>2018-01-07T12:00:16Z</time>
      </trkpt>
      <trkpt lat="62.64271805938" lon="17.875310515598">
        <ele>66.8</ele>
        <time>2018-01-07T12:00:17Z</time>
      </trkpt>
      <trkpt lat="62.642756029387" lon="17.875254440687">
        <ele>66.4</ele>
        <time>2018-01-07T12:00:18Z</time>
      </trkpt>
      <trkpt lat="62.642790646634" lon="17.87520473602">
        <ele>66.4</ele>
        <time>2018-01-07T12:00:19Z</time>
      </trkpt>
      <trkpt lat="62.642824844786" lon="17.875153941706">
        <ele>66.4</ele>
        <time>2018-01-07T12:00:20Z</time>
      </trkpt>
      <trkpt lat="62.642857785653" lon="17.875107589799">
        <ele>66.6</ele>
        <time>2018-01-07T12:00:21Z</time>
      </trkpt>
      <trkpt lat="62.642890642701" lon="17.875059980607">
        <ele>66.6</ele>
        <time>2018-01-07T12:00:22Z</time>
      </trkpt>
      <trkpt lat="62.642944538318" lon="17.874990746113">
        <ele>66.4</ele>
        <time>2018-01-07T12:00:23Z</time>
      </trkpt>
      <trkpt lat="62.642991896053" lon="17.874920505791">
        <ele>66.2</ele>
        <time>2018-01-07T12:00:24Z</time>
      </trkpt>
      <trkpt lat="62.643042103634" lon="17.874847331804">
        <ele>65.8</ele>
        <time>2018-01-07T12:00:25Z</time>
      </trkpt>
      <trkpt lat="62.643093819957" lon="17.874770721238">
        <ele>65.2</ele>
        <time>2018-01-07T12:00:26Z</time>
      </trkpt>
      <trkpt lat="62.643142099701" lon="17.874699475088">
        <ele>64.6</ele>
        <time>2018-01-07T12:00:27Z</time>
      </trkpt>
      <trkpt lat="62.643192810196" lon="17.874624373264">
        <ele>64</ele>
        <time>2018-01-07T12:00:28Z</time>
      </trkpt>
      <trkpt lat="62.643243101596" lon="17.874547427422">
        <ele>63.4</ele>
        <time>2018-01-07T12:00:29Z</time>
      </trkpt>
      <trkpt lat="62.643287693304" lon="17.874476181272">
        <ele>62.8</ele>
        <time>2018-01-07T12:00:30Z</time>
      </trkpt>
      <trkpt lat="62.64332742351" lon="17.874412897927">
        <ele>62.4</ele>
        <time>2018-01-07T12:00:31Z</time>
      </trkpt>
      <trkpt lat="62.643362459852" lon="17.874358415577">
        <ele>62</ele>
        <time>2018-01-07T12:00:32Z</time>
      </trkpt>
      <trkpt lat="62.643397915289" lon="17.874305274331">
        <ele>61.6</ele>
        <time>2018-01-07T12:00:33Z</time>
      </trkpt>
      <trkpt lat="62.643429012138" lon="17.874257916596">
        <ele>61.2</ele>
        <time>2018-01-07T12:00:34Z</time>
      </trkpt>
      <trkpt lat="62.643459103159" lon="17.874210810318">
        <ele>61.4</ele>
        <time>2018-01-07T12:00:35Z</time>
      </trkpt>
      <trkpt lat="62.643486847248" lon="17.874168397904">
        <ele>61.8</ele>
        <time>2018-01-07T12:00:36Z</time>
      </trkpt>
      <trkpt lat="62.643517944097" lon="17.874123219463">
        <ele>62.2</ele>
        <time>2018-01-07T12:00:37Z</time>
      </trkpt>
      <trkpt lat="62.643542586883" lon="17.874080974687">
        <ele>62.6</ele>
        <time>2018-01-07T12:00:38Z</time>
      </trkpt>
      <trkpt lat="62.643563541633" lon="17.874040741567">
        <ele>63</ele>
        <time>2018-01-07T12:00:39Z</time>
      </trkpt>
      <trkpt lat="62.643586172763" lon="17.873997910058">
        <ele>63</ele>
        <time>2018-01-07T12:00:40Z</time>
      </trkpt>
      <trkpt lat="62.643607714246" lon="17.873959940051">
        <ele>63</ele>
        <time>2018-01-07T12:00:41Z</time>
      </trkpt>
      <trkpt lat="62.643626741159" lon="17.873929346116">
        <ele>63</ele>
        <time>2018-01-07T12:00:42Z</time>
      </trkpt>
      <trkpt lat="62.643647276814" lon="17.873889364453">
        <ele>63</ele>
        <time>2018-01-07T12:00:43Z</time>
      </trkpt>
      <trkpt lat="62.64366521408" lon="17.873854076654">
        <ele>63.2</ele>
        <time>2018-01-07T12:00:44Z</time>
      </trkpt>
      <trkpt lat="62.643687426115" lon="17.873819040312">
        <ele>63</ele>
        <time>2018-01-07T12:00:45Z</time>
      </trkpt>
      <trkpt lat="62.643710560159" lon="17.873780483572">
        <ele>63.2</ele>
        <time>2018-01-07T12:00:46Z</time>
      </trkpt>
      <trkpt lat="62.643731347271" lon="17.87374125628">
        <ele>63.2</ele>
        <time>2018-01-07T12:00:47Z</time>
      </trkpt>
      <trkpt lat="62.64375238584" lon="17.873702531902">
        <ele>63.4</ele>
        <time>2018-01-07T12:00:48Z</time>
      </trkpt>
      <trkpt lat="62.643773927323" lon="17.873658191651">
        <ele>63.4</ele>
        <time>2018-01-07T12:00:49Z</time>
      </trkpt>
      <trkpt lat="62.643790355847" lon="17.873615695418">
        <ele>63.4</ele>
        <time>2018-01-07T12:00:50Z</time>
      </trkpt>
      <trkpt lat="62.64380100086" lon="17.873581413447">
        <ele>63.6</ele>
        <time>2018-01-07T12:00:51Z</time>
      </trkpt>
      <trkpt lat="62.643811645873" lon="17.873544113992">
        <ele>63.8</ele>
        <time>2018-01-07T12:00:52Z</time>
      </trkpt>
      <trkpt lat="62.643835953383" lon="17.873485021597">
        <ele>63.8</ele>
        <time>2018-01-07T12:00:53Z</time>
      </trkpt>
      <trkpt lat="62.643846766034" lon="17.873444285563">
        <ele>64</ele>
        <time>2018-01-07T12:00:54Z</time>
      </trkpt>
      <trkpt lat="62.643860177074" lon="17.873400615864">
        <ele>64</ele>
        <time>2018-01-07T12:00:55Z</time>
      </trkpt>
      <trkpt lat="62.643879371625" lon="17.87334898336">
        <ele>64.2</ele>
        <time>2018-01-07T12:00:56Z</time>
      </trkpt>
      <trkpt lat="62.643896303063" lon="17.873301709444">
        <ele>64.4</ele>
        <time>2018-01-07T12:00:57Z</time>
      </trkpt>
      <trkpt lat="62.643911390483" lon="17.873257033917">
        <ele>64.6</ele>
        <time>2018-01-07T12:00:58Z</time>
      </trkpt>
      <trkpt lat="62.643930249758" lon="17.873199617902">
        <ele>64.6</ele>
        <time>2018-01-07T12:00:59Z</time>
      </trkpt>
      <trkpt lat="62.643947265015" lon="17.873144632638">
        <ele>64.6</ele>
        <time>2018-01-07T12:01:00Z</time>
      </trkpt>
      <trkpt lat="62.643958412942" lon="17.873104734794">
        <ele>64.8</ele>
        <time>2018-01-07T12:01:01Z</time>
      </trkpt>
      <trkpt lat="62.643969728507" lon="17.873064669312">
        <ele>64.8</ele>
        <time>2018-01-07T12:01:02Z</time>
      </trkpt>
      <trkpt lat="62.64398288809" lon="17.873015551378">
        <ele>64.8</ele>
        <time>2018-01-07T12:01:03Z</time>
      </trkpt>
      <trkpt lat="62.643992862551" lon="17.872971546403">
        <ele>65</ele>
        <time>2018-01-07T12:01:04Z</time>
      </trkpt>
      <trkpt lat="62.644004429573" lon="17.872922596107">
        <ele>65</ele>
        <time>2018-01-07T12:01:05Z</time>
      </trkpt>
      <trkpt lat="62.644013565844" lon="17.872875657467">
        <ele>65.2</ele>
        <time>2018-01-07T12:01:06Z</time>
      </trkpt>
      <trkpt lat="62.644022450658" lon="17.872827880637">
        <ele>65.2</ele>
        <time>2018-01-07T12:01:07Z</time>
      </trkpt>
      <trkpt lat="62.644030162006" lon="17.872781444911">
        <ele>65.4</ele>
        <time>2018-01-07T12:01:08Z</time>
      </trkpt>
      <trkpt lat="62.644036448431" lon="17.872741798524">
        <ele>65.6</ele>
        <time>2018-01-07T12:01:09Z</time>
      </trkpt>
      <trkpt lat="62.644041477571" lon="17.872702571232">
        <ele>65.8</ele>
        <time>2018-01-07T12:01:10Z</time>
      </trkpt>
      <trkpt lat="62.644046506711" lon="17.872651944556">
        <ele>65.8</ele>
        <time>2018-01-07T12:01:11Z</time>
      </trkpt>
      <trkpt lat="62.644051452032" lon="17.872603748631">
        <ele>66</ele>
        <time>2018-01-07T12:01:12Z</time>
      </trkpt>
      <trkpt lat="62.644057151724" lon="17.872551445575">
        <ele>66.2</ele>
        <time>2018-01-07T12:01:13Z</time>
      </trkpt>
      <trkpt lat="62.644060253027" lon="17.872500902718">
        <ele>66.4</ele>
        <time>2018-01-07T12:01:14Z</time>
      </trkpt>
      <trkpt lat="62.644061510312" lon="17.872447426196">
        <ele>66.6</ele>
        <time>2018-01-07T12:01:15Z</time>
      </trkpt>
      <trkpt lat="62.644061929407" lon="17.872409288551">
        <ele>66.8</ele>
        <time>2018-01-07T12:01:16Z</time>
      </trkpt>
      <trkpt lat="62.644061007398" lon="17.872353046002">
        <ele>66.8</ele>
        <time>2018-01-07T12:01:17Z</time>
      </trkpt>
      <trkpt lat="62.644058660466" lon="17.872289008286">
        <ele>67.2</ele>
        <time>2018-01-07T12:01:18Z</time>
      </trkpt>
      <trkpt lat="62.644056732629" lon="17.872230418805">
        <ele>67.2</ele>
        <time>2018-01-07T12:01:19Z</time>
      </trkpt>
      <trkpt lat="62.644049691833" lon="17.872170739677">
        <ele>67.4</ele>
        <time>2018-01-07T12:01:20Z</time>
      </trkpt>
      <trkpt lat="62.644045417064" lon="17.872114748585">
        <ele>67.6</ele>
        <time>2018-01-07T12:01:21Z</time>
      </trkpt>
      <trkpt lat="62.644044159779" lon="17.872050878507">
        <ele>67.6</ele>
        <time>2018-01-07T12:01:22Z</time>
      </trkpt>
      <trkpt lat="62.644038460087" lon="17.871986254058">
        <ele>67.6</ele>
        <time>2018-01-07T12:01:23Z</time>
      </trkpt>
      <trkpt lat="62.644035023508" lon="17.871924144179">
        <ele>67.8</ele>
        <time>2018-01-07T12:01:24Z</time>
      </trkpt>
      <trkpt lat="62.644022953572" lon="17.87187376896">
        <ele>67.8</ele>
        <time>2018-01-07T12:01:25Z</time>
      </trkpt>
      <trkpt lat="62.644014236396" lon="17.871805624113">
        <ele>67.8</ele>
        <time>2018-01-07T12:01:26Z</time>
      </trkpt>
      <trkpt lat="62.644005770677" lon="17.871742676044">
        <ele>67.6</ele>
        <time>2018-01-07T12:01:27Z</time>
      </trkpt>
      <trkpt lat="62.643995628578" lon="17.871683080735">
        <ele>67.6</ele>
        <time>2018-01-07T12:01:28Z</time>
      </trkpt>
      <trkpt lat="62.643982804271" lon="17.871620132666">
        <ele>67.6</ele>
        <time>2018-01-07T12:01:29Z</time>
      </trkpt>
      <trkpt lat="62.643972159258" lon="17.871566823782">
        <ele>67.6</ele>
        <time>2018-01-07T12:01:30Z</time>
      </trkpt>
      <trkpt lat="62.643959837865" lon="17.87150664174">
        <ele>67.6</ele>
        <time>2018-01-07T12:01:31Z</time>
      </trkpt>
      <trkpt lat="62.643948606119" lon="17.871453751951">
        <ele>67.6</ele>
        <time>2018-01-07T12:01:32Z</time>
      </trkpt>
      <trkpt lat="62.643936620002" lon="17.871396503574">
        <ele>67.6</ele>
        <time>2018-01-07T12:01:33Z</time>
      </trkpt>
      <trkpt lat="62.643924466247" lon="17.871342188862">
        <ele>67.6</ele>
        <time>2018-01-07T12:01:34Z</time>
      </trkpt>
      <trkpt lat="62.643912396311" lon="17.871289718168">
        <ele>67.8</ele>
        <time>2018-01-07T12:01:35Z</time>
      </trkpt>
      <trkpt lat="62.643899991099" lon="17.87123506818">
        <ele>67.6</ele>
        <time>2018-01-07T12:01:36Z</time>
      </trkpt>
      <trkpt lat="62.64388649624" lon="17.871180250554">
        <ele>67.6</ele>
        <time>2018-01-07T12:01:37Z</time>
      </trkpt>
      <trkpt lat="62.643873504295" lon="17.871123421272">
        <ele>67.6</ele>
        <time>2018-01-07T12:01:38Z</time>
      </trkpt>
      <trkpt lat="62.643863613653" lon="17.871064831791">
        <ele>67.6</ele>
        <time>2018-01-07T12:01:39Z</time>
      </trkpt>
      <trkpt lat="62.643853974468" lon="17.871012277278">
        <ele>67.6</ele>
        <time>2018-01-07T12:01:40Z</time>
      </trkpt>
      <trkpt lat="62.643841904532" lon="17.870951508503">
        <ele>67.6</ele>
        <time>2018-01-07T12:01:41Z</time>
      </trkpt>
      <trkpt lat="62.643832432985" lon="17.870903899311">
        <ele>67.6</ele>
        <time>2018-01-07T12:01:42Z</time>
      </trkpt>
      <trkpt lat="62.643826062741" lon="17.870830390048">
        <ele>67.6</ele>
        <time>2018-01-07T12:01:43Z</time>
      </trkpt>
      <trkpt lat="62.643818351393" lon="17.870763334848">
        <ele>67.8</ele>
        <time>2018-01-07T12:01:44Z</time>
      </trkpt>
      <trkpt lat="62.643806113819" lon="17.870700554417">
        <ele>67.8</ele>
        <time>2018-01-07T12:01:45Z</time>
      </trkpt>
      <trkpt lat="62.643796893729" lon="17.87065336432">
        <ele>67.8</ele>
        <time>2018-01-07T12:01:46Z</time>
      </trkpt>
      <trkpt lat="62.643787925096" lon="17.870598965789">
        <ele>67.8</ele>
        <time>2018-01-07T12:01:47Z</time>
      </trkpt>
      <trkpt lat="62.643774346418" lon="17.870538113195">
        <ele>67.8</ele>
        <time>2018-01-07T12:01:48Z</time>
      </trkpt>
      <trkpt lat="62.643764371957" lon="17.8704790208">
        <ele>67.6</ele>
        <time>2018-01-07T12:01:49Z</time>
      </trkpt>
      <trkpt lat="62.643757163523" lon="17.870417413835">
        <ele>67.6</ele>
        <time>2018-01-07T12:01:50Z</time>
      </trkpt>
      <trkpt lat="62.643751212374" lon="17.870365194598">
        <ele>67.6</ele>
        <time>2018-01-07T12:01:51Z</time>
      </trkpt>
      <trkpt lat="62.643746267053" lon="17.870314819379">
        <ele>67.6</ele>
        <time>2018-01-07T12:01:52Z</time>
      </trkpt>
      <trkpt lat="62.643742662836" lon="17.870236700071">
        <ele>67.6</ele>
        <time>2018-01-07T12:01:53Z</time>
      </trkpt>
      <trkpt lat="62.643741237913" lon="17.870170483061">
        <ele>67.6</ele>
        <time>2018-01-07T12:01:54Z</time>
      </trkpt>
      <trkpt lat="62.64373646023" lon="17.870105020422">
        <ele>67.4</ele>
        <time>2018-01-07T12:01:55Z</time>
      </trkpt>
      <trkpt lat="62.643733694203" lon="17.87004567657">
        <ele>67.4</ele>
        <time>2018-01-07T12:01:56Z</time>
      </trkpt>
      <trkpt lat="62.643733861841" lon="17.869982309406">
        <ele>67.4</ele>
        <time>2018-01-07T12:01:57Z</time>
      </trkpt>
      <trkpt lat="62.64373394566" lon="17.869920450984">
        <ele>67.4</ele>
        <time>2018-01-07T12:01:58Z</time>
      </trkpt>
      <trkpt lat="62.64373478385" lon="17.869854904526">
        <ele>67.6</ele>
        <time>2018-01-07T12:01:59Z</time>
      </trkpt>
      <trkpt lat="62.643736041135" lon="17.869800338357">
        <ele>67.6</ele>
        <time>2018-01-07T12:02:00Z</time>
      </trkpt>
      <trkpt lat="62.643739896809" lon="17.869743844351">
        <ele>67.6</ele>
        <time>2018-01-07T12:02:01Z</time>
      </trkpt>
      <trkpt lat="62.64374568032" lon="17.869681315377">
        <ele>67.6</ele>
        <time>2018-01-07T12:02:02Z</time>
      </trkpt>
      <trkpt lat="62.643751882926" lon="17.869623815543">
        <ele>67.6</ele>
        <time>2018-01-07T12:02:03Z</time>
      </trkpt>
      <trkpt lat="62.643758923722" lon="17.869567992089">
        <ele>67.6</ele>
        <time>2018-01-07T12:02:04Z</time>
      </trkpt>
      <trkpt lat="62.643761773568" lon="17.869505379296">
        <ele>67.8</ele>
        <time>2018-01-07T12:02:05Z</time>
      </trkpt>
      <trkpt lat="62.643766802708" lon="17.869446873634">
        <ele>67.8</ele>
        <time>2018-01-07T12:02:06Z</time>
      </trkpt>
      <trkpt lat="62.643768479088" lon="17.869375711303">
        <ele>67.8</ele>
        <time>2018-01-07T12:02:07Z</time>
      </trkpt>
      <trkpt lat="62.643768562907" lon="17.869313852881">
        <ele>68</ele>
        <time>2018-01-07T12:02:08Z</time>
      </trkpt>
      <trkpt lat="62.643772250943" lon="17.86925023426">
        <ele>67.8</ele>
        <time>2018-01-07T12:02:09Z</time>
      </trkpt>
      <trkpt lat="62.643775603703" lon="17.869189800761">
        <ele>67.8</ele>
        <time>2018-01-07T12:02:10Z</time>
      </trkpt>
      <trkpt lat="62.64377753154" lon="17.869136156601">
        <ele>67.8</ele>
        <time>2018-01-07T12:02:11Z</time>
      </trkpt>
      <trkpt lat="62.643778956463" lon="17.86908511083">
        <ele>67.8</ele>
        <time>2018-01-07T12:02:12Z</time>
      </trkpt>
      <trkpt lat="62.643778453549" lon="17.869024844969">
        <ele>67.8</ele>
        <time>2018-01-07T12:02:13Z</time>
      </trkpt>
      <trkpt lat="62.643774849332" lon="17.86898368984">
        <ele>67.8</ele>
        <time>2018-01-07T12:02:14Z</time>
      </trkpt>
      <trkpt lat="62.643770323106" lon="17.868934991001">
        <ele>67.8</ele>
        <time>2018-01-07T12:02:15Z</time>
      </trkpt>
      <trkpt lat="62.64376495869" lon="17.868880005737">
        <ele>67.8</ele>
        <time>2018-01-07T12:02:16Z</time>
      </trkpt>
      <trkpt lat="62.643759594274" lon="17.868823511731">
        <ele>68</ele>
        <time>2018-01-07T12:02:17Z</time>
      </trkpt>
      <trkpt lat="62.643754146039" lon="17.868757210902">
        <ele>68</ele>
        <time>2018-01-07T12:02:18Z</time>
      </trkpt>
      <trkpt lat="62.643744590673" lon="17.86869954343">
        <ele>68.2</ele>
        <time>2018-01-07T12:02:19Z</time>
      </trkpt>
      <trkpt lat="62.643733610384" lon="17.868622094674">
        <ele>68.2</ele>
        <time>2018-01-07T12:02:20Z</time>
      </trkpt>
      <trkpt lat="62.643726318131" lon="17.868539700597">
        <ele>68.2</ele>
        <time>2018-01-07T12:02:21Z</time>
      </trkpt>
      <trkpt lat="62.643720199344" lon="17.868458899081">
        <ele>68.2</ele>
        <time>2018-01-07T12:02:22Z</time>
      </trkpt>
      <trkpt lat="62.643710392521" lon="17.868387233836">
        <ele>68</ele>
        <time>2018-01-07T12:02:23Z</time>
      </trkpt>
      <trkpt lat="62.643704357553" lon="17.868321855016">
        <ele>67.8</ele>
        <time>2018-01-07T12:02:24Z</time>
      </trkpt>
      <trkpt lat="62.643700669517" lon="17.868249183943">
        <ele>67.4</ele>
        <time>2018-01-07T12:02:25Z</time>
      </trkpt>
      <trkpt lat="62.643699076956" lon="17.868172489558">
        <ele>67.4</ele>
        <time>2018-01-07T12:02:26Z</time>
      </trkpt>
      <trkpt lat="62.643694383092" lon="17.868099986123">
        <ele>67.4</ele>
        <time>2018-01-07T12:02:27Z</time>
      </trkpt>
      <trkpt lat="62.643686336468" lon="17.868032176552">
        <ele>67.6</ele>
        <time>2018-01-07T12:02:28Z</time>
      </trkpt>
      <trkpt lat="62.643673176885" lon="17.8679728327">
        <ele>67.6</ele>
        <time>2018-01-07T12:02:29Z</time>
      </trkpt>
      <trkpt lat="62.643660017302" lon="17.867902927654">
        <ele>67.4</ele>
        <time>2018-01-07T12:02:30Z</time>
      </trkpt>
      <trkpt lat="62.643651048669" lon="17.867831932961">
        <ele>67.6</ele>
        <time>2018-01-07T12:02:31Z</time>
      </trkpt>
      <trkpt lat="62.643640822751" lon="17.867763788114">
        <ele>67.4</ele>
        <time>2018-01-07T12:02:32Z</time>
      </trkpt>
      <trkpt lat="62.643626573521" lon="17.867684998254">
        <ele>67.4</ele>
        <time>2018-01-07T12:02:33Z</time>
      </trkpt>
      <trkpt lat="62.643606959875" lon="17.867628252791">
        <ele>67.2</ele>
        <time>2018-01-07T12:02:34Z</time>
      </trkpt>
      <trkpt lat="62.643580640709" lon="17.867562203419">
        <ele>67.4</ele>
        <time>2018-01-07T12:02:35Z</time>
      </trkpt>
      <trkpt lat="62.643562871081" lon="17.867498165703">
        <ele>67.2</ele>
        <time>2018-01-07T12:02:36Z</time>
      </trkpt>
      <trkpt lat="62.643554070086" lon="17.867437061652">
        <ele>67.2</ele>
        <time>2018-01-07T12:02:37Z</time>
      </trkpt>
      <trkpt lat="62.643554908276" lon="17.86736179219">
        <ele>67</ele>
        <time>2018-01-07T12:02:38Z</time>
      </trkpt>
      <trkpt lat="62.643560943244" lon="17.867285181624">
        <ele>67</ele>
        <time>2018-01-07T12:02:39Z</time>
      </trkpt>
      <trkpt lat="62.643574773379" lon="17.867202284633">
        <ele>67</ele>
        <time>2018-01-07T12:02:40Z</time>
      </trkpt>
      <trkpt lat="62.643601595459" lon="17.867110502828">
        <ele>67</ele>
        <time>2018-01-07T12:02:41Z</time>
      </trkpt>
      <trkpt lat="62.643633698136" lon="17.867025510362">
        <ele>66.6</ele>
        <time>2018-01-07T12:02:42Z</time>
      </trkpt>
      <trkpt lat="62.643673009247" lon="17.866939260611">
        <ele>66.4</ele>
        <time>2018-01-07T12:02:43Z</time>
      </trkpt>
      <trkpt lat="62.6437138291" lon="17.86686139276">
        <ele>66</ele>
        <time>2018-01-07T12:02:44Z</time>
      </trkpt>
      <trkpt lat="62.643754146039" lon="17.866791906809">
        <ele>65.2</ele>
        <time>2018-01-07T12:02:45Z</time>
      </trkpt>
      <trkpt lat="62.643780632843" lon="17.866725103066">
        <ele>64.6</ele>
        <time>2018-01-07T12:02:46Z</time>
      </trkpt>
      <trkpt lat="62.643806449095" lon="17.866667351775">
        <ele>63.8</ele>
        <time>2018-01-07T12:02:47Z</time>
      </trkpt>
      <trkpt lat="62.6438311757" lon="17.866620077859">
        <ele>63.8</ele>
        <time>2018-01-07T12:02:48Z</time>
      </trkpt>
      <trkpt lat="62.643844419102" lon="17.866586550259">
        <ele>64</ele>
        <time>2018-01-07T12:02:49Z</time>
      </trkpt>
      <trkpt lat="62.64385380683" lon="17.86655796798">
        <ele>64.2</ele>
        <time>2018-01-07T12:02:50Z</time>
      </trkpt>
      <trkpt lat="62.643865122395" lon="17.866521841991">
        <ele>64.4</ele>
        <time>2018-01-07T12:02:51Z</time>
      </trkpt>
      <trkpt lat="62.643877024693" lon="17.86648756002">
        <ele>64.6</ele>
        <time>2018-01-07T12:02:52Z</time>
      </trkpt>
      <trkpt lat="62.643889429905" lon="17.86646241432">
        <ele>65</ele>
        <time>2018-01-07T12:02:53Z</time>
      </trkpt>
      <trkpt lat="62.643899572004" lon="17.866439280276">
        <ele>65.2</ele>
        <time>2018-01-07T12:02:54Z</time>
      </trkpt>
      <trkpt lat="62.643911893397" lon="17.866414134576">
        <ele>65.6</ele>
        <time>2018-01-07T12:02:55Z</time>
      </trkpt>
      <trkpt lat="62.643924885342" lon="17.866393263645">
        <ele>66</ele>
        <time>2018-01-07T12:02:56Z</time>
      </trkpt>
      <trkpt lat="62.643938044925" lon="17.866372895628">
        <ele>66.2</ele>
        <time>2018-01-07T12:02:57Z</time>
      </trkpt>
      <trkpt lat="62.643950701594" lon="17.866355293638">
        <ele>66.4</ele>
        <time>2018-01-07T12:02:58Z</time>
      </trkpt>
      <trkpt lat="62.643962184797" lon="17.866334003612">
        <ele>66.6</ele>
        <time>2018-01-07T12:02:59Z</time>
      </trkpt>
      <trkpt lat="62.643972745991" lon="17.866311623939">
        <ele>67</ele>
        <time>2018-01-07T12:03:00Z</time>
      </trkpt>
      <trkpt lat="62.64398121171" lon="17.866290753008">
        <ele>67.2</ele>
        <time>2018-01-07T12:03:01Z</time>
      </trkpt>
      <trkpt lat="62.643988168687" lon="17.866268038059">
        <ele>67.4</ele>
        <time>2018-01-07T12:03:02Z</time>
      </trkpt>
      <trkpt lat="62.643997304958" lon="17.866238198495">
        <ele>67.6</ele>
        <time>2018-01-07T12:03:03Z</time>
      </trkpt>
      <trkpt lat="62.644007866152" lon="17.866211460234">
        <ele>68</ele>
        <time>2018-01-07T12:03:04Z</time>
      </trkpt>
      <trkpt lat="62.644019097898" lon="17.866182542679">
        <ele>68.4</ele>
        <time>2018-01-07T12:03:05Z</time>
      </trkpt>
      <trkpt lat="62.644027731255" lon="17.866153038391">
        <ele>68.6</ele>
        <time>2018-01-07T12:03:06Z</time>
      </trkpt>
      <trkpt lat="62.644036113155" lon="17.86612210918">
        <ele>68.8</ele>
        <time>2018-01-07T12:03:07Z</time>
      </trkpt>
      <trkpt lat="62.644044578874" lon="17.866092185797">
        <ele>69.2</ele>
        <time>2018-01-07T12:03:08Z</time>
      </trkpt>
      <trkpt lat="62.644055894439" lon="17.866061508043">
        <ele>69.4</ele>
        <time>2018-01-07T12:03:09Z</time>
      </trkpt>
      <trkpt lat="62.64406419252" lon="17.866033344859">
        <ele>69.6</ele>
        <time>2018-01-07T12:03:10Z</time>
      </trkpt>
      <trkpt lat="62.644075340447" lon="17.865998140879">
        <ele>69.8</ele>
        <time>2018-01-07T12:03:11Z</time>
      </trkpt>
      <trkpt lat="62.644085901641" lon="17.865962517804">
        <ele>70</ele>
        <time>2018-01-07T12:03:12Z</time>
      </trkpt>
      <trkpt lat="62.644094702636" lon="17.865917674639">
        <ele>70.2</ele>
        <time>2018-01-07T12:03:13Z</time>
      </trkpt>
      <trkpt lat="62.644102497803" lon="17.865874256397">
        <ele>70.6</ele>
        <time>2018-01-07T12:03:14Z</time>
      </trkpt>
      <trkpt lat="62.644112556083" lon="17.865826898662">
        <ele>70.6</ele>
        <time>2018-01-07T12:03:15Z</time>
      </trkpt>
      <trkpt lat="62.644123787829" lon="17.865783983334">
        <ele>70.8</ele>
        <time>2018-01-07T12:03:16Z</time>
      </trkpt>
      <trkpt lat="62.644134265204" lon="17.865743163481">
        <ele>70.8</ele>
        <time>2018-01-07T12:03:17Z</time>
      </trkpt>
      <trkpt lat="62.644145413131" lon="17.865706450759">
        <ele>70.8</ele>
        <time>2018-01-07T12:03:18Z</time>
      </trkpt>
      <trkpt lat="62.644159075628" lon="17.865665882363">
        <ele>70.8</ele>
        <time>2018-01-07T12:03:19Z</time>
      </trkpt>
      <trkpt lat="62.644175504152" lon="17.865629337279">
        <ele>70.8</ele>
        <time>2018-01-07T12:03:20Z</time>
      </trkpt>
      <trkpt lat="62.644186652079" lon="17.865596480231">
        <ele>70.8</ele>
        <time>2018-01-07T12:03:21Z</time>
      </trkpt>
      <trkpt lat="62.644201236585" lon="17.865558594043">
        <ele>71</ele>
        <time>2018-01-07T12:03:22Z</time>
      </trkpt>
      <trkpt lat="62.644222023697" lon="17.865512242136">
        <ele>71</ele>
        <time>2018-01-07T12:03:23Z</time>
      </trkpt>
      <trkpt lat="62.644239206592" lon="17.865475277957">
        <ele>71</ele>
        <time>2018-01-07T12:03:24Z</time>
      </trkpt>
      <trkpt lat="62.64426284355" lon="17.865437894683">
        <ele>71.2</ele>
        <time>2018-01-07T12:03:25Z</time>
      </trkpt>
      <trkpt lat="62.644284133576" lon="17.865405121454">
        <ele>71.4</ele>
        <time>2018-01-07T12:03:26Z</time>
      </trkpt>
      <trkpt lat="62.644300645919" lon="17.865377461184">
        <ele>71.4</ele>
        <time>2018-01-07T12:03:27Z</time>
      </trkpt>
      <trkpt lat="62.644317912633" lon="17.865344855593">
        <ele>71.4</ele>
        <time>2018-01-07T12:03:28Z</time>
      </trkpt>
      <trkpt lat="62.644337526279" lon="17.865303365188">
        <ele>71.4</ele>
        <time>2018-01-07T12:03:29Z</time>
      </trkpt>
      <trkpt lat="62.644354122441" lon="17.865263215887">
        <ele>71.4</ele>
        <time>2018-01-07T12:03:30Z</time>
      </trkpt>
      <trkpt lat="62.644374574277" lon="17.865214433229">
        <ele>71.4</ele>
        <time>2018-01-07T12:03:31Z</time>
      </trkpt>
      <trkpt lat="62.644391840991" lon="17.865176127946">
        <ele>71.6</ele>
        <time>2018-01-07T12:03:32Z</time>
      </trkpt>
      <trkpt lat="62.644404413841" lon="17.865128183478">
        <ele>71.6</ele>
        <time>2018-01-07T12:03:33Z</time>
      </trkpt>
      <trkpt lat="62.644412376646" lon="17.865075377508">
        <ele>71.8</ele>
        <time>2018-01-07T12:03:34Z</time>
      </trkpt>
      <trkpt lat="62.644417992519" lon="17.865016955665">
        <ele>72</ele>
        <time>2018-01-07T12:03:35Z</time>
      </trkpt>
      <trkpt lat="62.644419082166" lon="17.864967502455">
        <ele>72</ele>
        <time>2018-01-07T12:03:36Z</time>
      </trkpt>
      <trkpt lat="62.644416819053" lon="17.864917043417">
        <ele>72.2</ele>
        <time>2018-01-07T12:03:37Z</time>
      </trkpt>
      <trkpt lat="62.644409023886" lon="17.864872032614">
        <ele>72.4</ele>
        <time>2018-01-07T12:03:38Z</time>
      </trkpt>
      <trkpt lat="62.644401061081" lon="17.86481956192">
        <ele>72.4</ele>
        <time>2018-01-07T12:03:39Z</time>
      </trkpt>
      <trkpt lat="62.644388236774" lon="17.864775724583">
        <ele>72.6</ele>
        <time>2018-01-07T12:03:40Z</time>
      </trkpt>
      <trkpt lat="62.644374825734" lon="17.864718895301">
        <ele>72.8</ele>
        <time>2018-01-07T12:03:41Z</time>
      </trkpt>
      <trkpt lat="62.644363510169" lon="17.864675057964">
        <ele>72.6</ele>
        <time>2018-01-07T12:03:42Z</time>
      </trkpt>
      <trkpt lat="62.644351272595" lon="17.86462258727">
        <ele>72.6</ele>
        <time>2018-01-07T12:03:43Z</time>
      </trkpt>
      <trkpt lat="62.644341801048" lon="17.864564500703">
        <ele>72.6</ele>
        <time>2018-01-07T12:03:44Z</time>
      </trkpt>
      <trkpt lat="62.644338364469" lon="17.864515801864">
        <ele>72.6</ele>
        <time>2018-01-07T12:03:45Z</time>
      </trkpt>
      <trkpt lat="62.644340879039" lon="17.864453943442">
        <ele>72.4</ele>
        <time>2018-01-07T12:03:46Z</time>
      </trkpt>
      <trkpt lat="62.644342052505" lon="17.864409351734">
        <ele>72.2</ele>
        <time>2018-01-07T12:03:47Z</time>
      </trkpt>
      <trkpt lat="62.644351021138" lon="17.864364843845">
        <ele>72</ele>
        <time>2018-01-07T12:03:48Z</time>
      </trkpt>
      <trkpt lat="62.644362504341" lon="17.864311954056">
        <ele>72</ele>
        <time>2018-01-07T12:03:49Z</time>
      </trkpt>
      <trkpt lat="62.644380860702" lon="17.864293010962">
        <ele>72</ele>
        <time>2018-01-07T12:03:50Z</time>
      </trkpt>
      <trkpt lat="62.644393852647" lon="17.864262500846">
        <ele>72.2</ele>
        <time>2018-01-07T12:03:51Z</time>
      </trkpt>
      <trkpt lat="62.644409610619" lon="17.864238025698">
        <ele>72.2</ele>
        <time>2018-01-07T12:03:52Z</time>
      </trkpt>
      <trkpt lat="62.644418998347" lon="17.864225117572">
        <ele>72.4</ele>
        <time>2018-01-07T12:03:53Z</time>
      </trkpt>
      <trkpt lat="62.6444346725" lon="17.864197289664">
        <ele>72.6</ele>
        <time>2018-01-07T12:03:54Z</time>
      </trkpt>
      <trkpt lat="62.644448167359" lon="17.864185806461">
        <ele>72.8</ele>
        <time>2018-01-07T12:03:55Z</time>
      </trkpt>
      <trkpt lat="62.644460237295" lon="17.864175748181">
        <ele>73</ele>
        <time>2018-01-07T12:03:56Z</time>
      </trkpt>
      <trkpt lat="62.644470295575" lon="17.864163342969">
        <ele>73.2</ele>
        <time>2018-01-07T12:03:57Z</time>
      </trkpt>
      <trkpt lat="62.644478090742" lon="17.86415487725">
        <ele>73.4</ele>
        <time>2018-01-07T12:03:58Z</time>
      </trkpt>
      <trkpt lat="62.644488819574" lon="17.864148087911">
        <ele>73.6</ele>
        <time>2018-01-07T12:03:59Z</time>
      </trkpt>
      <trkpt lat="62.64450005132" lon="17.864142052943">
        <ele>73.8</ele>
        <time>2018-01-07T12:04:00Z</time>
      </trkpt>
      <trkpt lat="62.644515474016" lon="17.864133000491">
        <ele>74</ele>
        <time>2018-01-07T12:04:01Z</time>
      </trkpt>
      <trkpt lat="62.644524442649" lon="17.864121768745">
        <ele>74.2</ele>
        <time>2018-01-07T12:04:02Z</time>
      </trkpt>
      <trkpt lat="62.644534584748" lon="17.864111542827">
        <ele>74.4</ele>
        <time>2018-01-07T12:04:03Z</time>
      </trkpt>
      <trkpt lat="62.644545062123" lon="17.864101652185">
        <ele>74.6</ele>
        <time>2018-01-07T12:04:04Z</time>
      </trkpt>
      <trkpt lat="62.644557132059" lon="17.864095952493">
        <ele>75</ele>
        <time>2018-01-07T12:04:05Z</time>
      </trkpt>
      <trkpt lat="62.644572303298" lon="17.864086816222">
        <ele>75.2</ele>
        <time>2018-01-07T12:04:06Z</time>
      </trkpt>
      <trkpt lat="62.64458219394" lon="17.864077512313">
        <ele>75.4</ele>
        <time>2018-01-07T12:04:07Z</time>
      </trkpt>
      <trkpt lat="62.644592419858" lon="17.864070722974">
        <ele>75.6</ele>
        <time>2018-01-07T12:04:08Z</time>
      </trkpt>
      <trkpt lat="62.644601891405" lon="17.864061670522">
        <ele>76</ele>
        <time>2018-01-07T12:04:09Z</time>
      </trkpt>
      <trkpt lat="62.644612284961" lon="17.864052450432">
        <ele>76.2</ele>
        <time>2018-01-07T12:04:10Z</time>
      </trkpt>
      <trkpt lat="62.64462326525" lon="17.864047169835">
        <ele>76.4</ele>
        <time>2018-01-07T12:04:11Z</time>
      </trkpt>
      <trkpt lat="62.644631982426" lon="17.864044906722">
        <ele>76.6</ele>
        <time>2018-01-07T12:04:12Z</time>
      </trkpt>
      <trkpt lat="62.644643549448" lon="17.864041302505">
        <ele>76.8</ele>
        <time>2018-01-07T12:04:13Z</time>
      </trkpt>
      <trkpt lat="62.644654529737" lon="17.864036357184">
        <ele>77</ele>
        <time>2018-01-07T12:04:14Z</time>
      </trkpt>
      <trkpt lat="62.644667605501" lon="17.864020850669">
        <ele>77.2</ele>
        <time>2018-01-07T12:04:15Z</time>
      </trkpt>
      <trkpt lat="62.644680848903" lon="17.864014815701">
        <ele>77.6</ele>
        <time>2018-01-07T12:04:16Z</time>
      </trkpt>
      <trkpt lat="62.644693924667" lon="17.864005260335">
        <ele>77.8</ele>
        <time>2018-01-07T12:04:17Z</time>
      </trkpt>
      <trkpt lat="62.644708509173" lon="17.863995956426">
        <ele>78.2</ele>
        <time>2018-01-07T12:04:18Z</time>
      </trkpt>
      <trkpt lat="62.644719908557" lon="17.863985646689">
        <ele>78.4</ele>
        <time>2018-01-07T12:04:19Z</time>
      </trkpt>
      <trkpt lat="62.644732481407" lon="17.863978438255">
        <ele>78.8</ele>
        <time>2018-01-07T12:04:20Z</time>
      </trkpt>
      <trkpt lat="62.644745054257" lon="17.863969888717">
        <ele>79</ele>
        <time>2018-01-07T12:04:21Z</time>
      </trkpt>
      <trkpt lat="62.644755531632" lon="17.863960500989">
        <ele>79.2</ele>
        <time>2018-01-07T12:04:22Z</time>
      </trkpt>
      <trkpt lat="62.644769529405" lon="17.863955471849">
        <ele>79.4</ele>
        <time>2018-01-07T12:04:23Z</time>
      </trkpt>
      <trkpt lat="62.644782772807" lon="17.863947257587">
        <ele>79.6</ele>
        <time>2018-01-07T12:04:24Z</time>
      </trkpt>
      <trkpt lat="62.644789645965" lon="17.863941474076">
        <ele>79.8</ele>
        <time>2018-01-07T12:04:25Z</time>
      </trkpt>
      <trkpt lat="62.644803140824" lon="17.863926973389">
        <ele>80</ele>
        <time>2018-01-07T12:04:26Z</time>
      </trkpt>
      <trkpt lat="62.644816300407" lon="17.863918842946">
        <ele>80.2</ele>
        <time>2018-01-07T12:04:27Z</time>
      </trkpt>
      <trkpt lat="62.644826861601" lon="17.863912472702">
        <ele>80.2</ele>
        <time>2018-01-07T12:04:28Z</time>
      </trkpt>
      <trkpt lat="62.644845469419" lon="17.863907778838">
        <ele>80.4</ele>
        <time>2018-01-07T12:04:29Z</time>
      </trkpt>
      <trkpt lat="62.644857790812" lon="17.863904761354">
        <ele>80.6</ele>
        <time>2018-01-07T12:04:30Z</time>
      </trkpt>
      <trkpt lat="62.644871704766" lon="17.863899648395">
        <ele>81</ele>
        <time>2018-01-07T12:04:31Z</time>
      </trkpt>
      <trkpt lat="62.644884193797" lon="17.86389000921">
        <ele>81</ele>
        <time>2018-01-07T12:04:32Z</time>
      </trkpt>
      <trkpt lat="62.644894922629" lon="17.863875424704">
        <ele>81.2</ele>
        <time>2018-01-07T12:04:33Z</time>
      </trkpt>
      <trkpt lat="62.644901795787" lon="17.863867964813">
        <ele>81.4</ele>
        <time>2018-01-07T12:04:34Z</time>
      </trkpt>
      <trkpt lat="62.644920906519" lon="17.863853799402">
        <ele>81.6</ele>
        <time>2018-01-07T12:04:35Z</time>
      </trkpt>
      <trkpt lat="62.644936329215" lon="17.863843573484">
        <ele>81.6</ele>
        <time>2018-01-07T12:04:36Z</time>
      </trkpt>
      <trkpt lat="62.644951165178" lon="17.863840220724">
        <ele>81.8</ele>
        <time>2018-01-07T12:04:37Z</time>
      </trkpt>
      <trkpt lat="62.644966671693" lon="17.86383133591">
        <ele>82.2</ele>
        <time>2018-01-07T12:04:38Z</time>
      </trkpt>
      <trkpt lat="62.644980920923" lon="17.863818511603">
        <ele>82.4</ele>
        <time>2018-01-07T12:04:39Z</time>
      </trkpt>
      <trkpt lat="62.64499709799" lon="17.863807950409">
        <ele>82.8</ele>
        <time>2018-01-07T12:04:40Z</time>
      </trkpt>
      <trkpt lat="62.645010173754" lon="17.863801915441">
        <ele>83</ele>
        <time>2018-01-07T12:04:41Z</time>
      </trkpt>
      <trkpt lat="62.645021992233" lon="17.863792862989">
        <ele>83.4</ele>
        <time>2018-01-07T12:04:42Z</time>
      </trkpt>
      <trkpt lat="62.64503397835" lon="17.863781212148">
        <ele>83.6</ele>
        <time>2018-01-07T12:04:43Z</time>
      </trkpt>
      <trkpt lat="62.645044623363" lon="17.863771572963">
        <ele>83.8</ele>
        <time>2018-01-07T12:04:44Z</time>
      </trkpt>
      <trkpt lat="62.64505577129" lon="17.863760508855">
        <ele>84</ele>
        <time>2018-01-07T12:04:45Z</time>
      </trkpt>
      <trkpt lat="62.645065159018" lon="17.863752378412">
        <ele>84.2</ele>
        <time>2018-01-07T12:04:46Z</time>
      </trkpt>
      <trkpt lat="62.645072283633" lon="17.863742320132">
        <ele>84.4</ele>
        <time>2018-01-07T12:04:47Z</time>
      </trkpt>
      <trkpt lat="62.64508259337" lon="17.863731339843">
        <ele>84.6</ele>
        <time>2018-01-07T12:04:48Z</time>
      </trkpt>
      <trkpt lat="62.645093406021" lon="17.863726143065">
        <ele>84.8</ele>
        <time>2018-01-07T12:04:49Z</time>
      </trkpt>
      <trkpt lat="62.645110588916" lon="17.863718096441">
        <ele>85.2</ele>
        <time>2018-01-07T12:04:50Z</time>
      </trkpt>
      <trkpt lat="62.645123580861" lon="17.863709630722">
        <ele>85.6</ele>
        <time>2018-01-07T12:04:51Z</time>
      </trkpt>
      <trkpt lat="62.645135902254" lon="17.863706697057">
        <ele>85.8</ele>
        <time>2018-01-07T12:04:52Z</time>
      </trkpt>
      <trkpt lat="62.6451555159" lon="17.863704685401">
        <ele>86</ele>
        <time>2018-01-07T12:04:53Z</time>
      </trkpt>
      <trkpt lat="62.645167334379" lon="17.863696135863">
        <ele>86.2</ele>
        <time>2018-01-07T12:04:54Z</time>
      </trkpt>
      <trkpt lat="62.645186780387" lon="17.863683982108">
        <ele>86.4</ele>
        <time>2018-01-07T12:04:55Z</time>
      </trkpt>
      <trkpt lat="62.645207735137" lon="17.863676773674">
        <ele>86.4</ele>
        <time>2018-01-07T12:04:56Z</time>
      </trkpt>
      <trkpt lat="62.645225001851" lon="17.863671744534">
        <ele>86.8</ele>
        <time>2018-01-07T12:04:57Z</time>
      </trkpt>
      <trkpt lat="62.645242100927" lon="17.863669732878">
        <ele>86.8</ele>
        <time>2018-01-07T12:04:58Z</time>
      </trkpt>
      <trkpt lat="62.645263726229" lon="17.863664200824">
        <ele>87</ele>
        <time>2018-01-07T12:04:59Z</time>
      </trkpt>
      <trkpt lat="62.64528208259" lon="17.863655651286">
        <ele>87.4</ele>
        <time>2018-01-07T12:05:00Z</time>
      </trkpt>
      <trkpt lat="62.645298511114" lon="17.863650622146">
        <ele>87.6</ele>
        <time>2018-01-07T12:05:01Z</time>
      </trkpt>
      <trkpt lat="62.645316280742" lon="17.863639055124">
        <ele>87.8</ele>
        <time>2018-01-07T12:05:02Z</time>
      </trkpt>
      <trkpt lat="62.645334720922" lon="17.863621536953">
        <ele>88</ele>
        <time>2018-01-07T12:05:03Z</time>
      </trkpt>
      <trkpt lat="62.645349221609" lon="17.863613490329">
        <ele>88.2</ele>
        <time>2018-01-07T12:05:04Z</time>
      </trkpt>
      <trkpt lat="62.645367661789" lon="17.863592032665">
        <ele>88.4</ele>
        <time>2018-01-07T12:05:05Z</time>
      </trkpt>
      <trkpt lat="62.645381911019" lon="17.863573089571">
        <ele>88.6</ele>
        <time>2018-01-07T12:05:06Z</time>
      </trkpt>
      <trkpt lat="62.645399010095" lon="17.863539561971">
        <ele>88.8</ele>
        <time>2018-01-07T12:05:07Z</time>
      </trkpt>
      <trkpt lat="62.645417198818" lon="17.863510476778">
        <ele>89.2</ele>
        <time>2018-01-07T12:05:08Z</time>
      </trkpt>
      <trkpt lat="62.645430945134" lon="17.863473931694">
        <ele>89.4</ele>
        <time>2018-01-07T12:05:09Z</time>
      </trkpt>
      <trkpt lat="62.64544133869" lon="17.863440236456">
        <ele>89.4</ele>
        <time>2018-01-07T12:05:10Z</time>
      </trkpt>
      <trkpt lat="62.645447038382" lon="17.863400925345">
        <ele>89.6</ele>
        <time>2018-01-07T12:05:11Z</time>
      </trkpt>
      <trkpt lat="62.645455755558" lon="17.863361865691">
        <ele>89.8</ele>
        <time>2018-01-07T12:05:12Z</time>
      </trkpt>
      <trkpt lat="62.645462041983" lon="17.863294559034">
        <ele>89.8</ele>
        <time>2018-01-07T12:05:13Z</time>
      </trkpt>
      <trkpt lat="62.645467993132" lon="17.863238567942">
        <ele>90</ele>
        <time>2018-01-07T12:05:14Z</time>
      </trkpt>
      <trkpt lat="62.645473944281" lon="17.863178888814">
        <ele>90</ele>
        <time>2018-01-07T12:05:15Z</time>
      </trkpt>
      <trkpt lat="62.64547738086" lon="17.863135973486">
        <ele>90</ele>
        <time>2018-01-07T12:05:16Z</time>
      </trkpt>
      <trkpt lat="62.645480314525" lon="17.863065481707">
        <ele>90.2</ele>
        <time>2018-01-07T12:05:17Z</time>
      </trkpt>
      <trkpt lat="62.645491881547" lon="17.862983590544">
        <ele>90.2</ele>
        <time>2018-01-07T12:05:18Z</time>
      </trkpt>
      <trkpt lat="62.645500766361" lon="17.862939250293">
        <ele>90.2</ele>
        <time>2018-01-07T12:05:19Z</time>
      </trkpt>
      <trkpt lat="62.645519541817" lon="17.862870518713">
        <ele>90.2</ele>
        <time>2018-01-07T12:05:20Z</time>
      </trkpt>
      <trkpt lat="62.645537227626" lon="17.862823244797">
        <ele>90.2</ele>
        <time>2018-01-07T12:05:21Z</time>
      </trkpt>
      <trkpt lat="62.645553488512" lon="17.862788292274">
        <ele>90</ele>
        <time>2018-01-07T12:05:22Z</time>
      </trkpt>
      <trkpt lat="62.645576538737" lon="17.862749986991">
        <ele>90</ele>
        <time>2018-01-07T12:05:23Z</time>
      </trkpt>
      <trkpt lat="62.64559640384" lon="17.862716207934">
        <ele>90</ele>
        <time>2018-01-07T12:05:24Z</time>
      </trkpt>
      <trkpt lat="62.645616688038" lon="17.862680081945">
        <ele>90</ele>
        <time>2018-01-07T12:05:25Z</time>
      </trkpt>
      <trkpt lat="62.645633200381" lon="17.862646889621">
        <ele>90.2</ele>
        <time>2018-01-07T12:05:26Z</time>
      </trkpt>
      <trkpt lat="62.645648287801" lon="17.862614954582">
        <ele>90.4</ele>
        <time>2018-01-07T12:05:27Z</time>
      </trkpt>
      <trkpt lat="62.645660357737" lon="17.862582265172">
        <ele>90.6</ele>
        <time>2018-01-07T12:05:28Z</time>
      </trkpt>
      <trkpt lat="62.64567770827" lon="17.862540690948">
        <ele>90.8</ele>
        <time>2018-01-07T12:05:29Z</time>
      </trkpt>
      <trkpt lat="62.64568944293" lon="17.86250112838">
        <ele>91.2</ele>
        <time>2018-01-07T12:05:30Z</time>
      </trkpt>
      <trkpt lat="62.645698998296" lon="17.862453938283">
        <ele>91.4</ele>
        <time>2018-01-07T12:05:31Z</time>
      </trkpt>
      <trkpt lat="62.645703524522" lon="17.862401216132">
        <ele>91.4</ele>
        <time>2018-01-07T12:05:32Z</time>
      </trkpt>
      <trkpt lat="62.645705955273" lon="17.862353187845">
        <ele>91.6</ele>
        <time>2018-01-07T12:05:33Z</time>
      </trkpt>
      <trkpt lat="62.645709475671" lon="17.862298454038">
        <ele>91.6</ele>
        <time>2018-01-07T12:05:34Z</time>
      </trkpt>
      <trkpt lat="62.645711403508" lon="17.862218155436">
        <ele>91.8</ele>
        <time>2018-01-07T12:05:35Z</time>
      </trkpt>
      <trkpt lat="62.645716181191" lon="17.862163086353">
        <ele>91.8</ele>
        <time>2018-01-07T12:05:36Z</time>
      </trkpt>
      <trkpt lat="62.645719366313" lon="17.862119416654">
        <ele>91.8</ele>
        <time>2018-01-07T12:05:37Z</time>
      </trkpt>
      <trkpt lat="62.645733196448" lon="17.862061833001">
        <ele>92</ele>
        <time>2018-01-07T12:05:38Z</time>
      </trkpt>
      <trkpt lat="62.645756079035" lon="17.862035513835">
        <ele>92.4</ele>
        <time>2018-01-07T12:05:39Z</time>
      </trkpt>
      <trkpt lat="62.645780638002" lon="17.862017744207">
        <ele>92.4</ele>
        <time>2018-01-07T12:05:40Z</time>
      </trkpt>
      <trkpt lat="62.645814165602" lon="17.862007602108">
        <ele>92.6</ele>
        <time>2018-01-07T12:05:41Z</time>
      </trkpt>
      <trkpt lat="62.645833946886" lon="17.862007015375">
        <ele>92.8</ele>
        <time>2018-01-07T12:05:42Z</time>
      </trkpt>
      <trkpt lat="62.645856745654" lon="17.862013469438">
        <ele>93</ele>
        <time>2018-01-07T12:05:43Z</time>
      </trkpt>
      <trkpt lat="62.645882478087" lon="17.862008440298">
        <ele>93.4</ele>
        <time>2018-01-07T12:05:44Z</time>
      </trkpt>
      <trkpt lat="62.64590401957" lon="17.862000812769">
        <ele>93.4</ele>
        <time>2018-01-07T12:05:45Z</time>
      </trkpt>
      <trkpt lat="62.64592245975" lon="17.861993520516">
        <ele>93.6</ele>
        <time>2018-01-07T12:05:46Z</time>
      </trkpt>
      <trkpt lat="62.645951880219" lon="17.861945827505">
        <ele>93.8</ele>
        <time>2018-01-07T12:05:47Z</time>
      </trkpt>
      <trkpt lat="62.645980462498" lon="17.861921184719">
        <ele>94</ele>
        <time>2018-01-07T12:05:48Z</time>
      </trkpt>
      <trkpt lat="62.645999237954" lon="17.861883549988">
        <ele>93.8</ele>
        <time>2018-01-07T12:05:49Z</time>
      </trkpt>
      <trkpt lat="62.646010302062" lon="17.861851112035">
        <ele>94</ele>
        <time>2018-01-07T12:05:50Z</time>
      </trkpt>
      <trkpt lat="62.646028239328" lon="17.861814566951">
        <ele>94.2</ele>
        <time>2018-01-07T12:05:51Z</time>
      </trkpt>
      <trkpt lat="62.646039973988" lon="17.861776261668">
        <ele>94.2</ele>
        <time>2018-01-07T12:05:52Z</time>
      </trkpt>
      <trkpt lat="62.646054307037" lon="17.86172999358">
        <ele>94.2</ele>
        <time>2018-01-07T12:05:53Z</time>
      </trkpt>
      <trkpt lat="62.646075597063" lon="17.86167718761">
        <ele>94.4</ele>
        <time>2018-01-07T12:05:54Z</time>
      </trkpt>
      <trkpt lat="62.64609931784" lon="17.861618179034">
        <ele>94.4</ele>
        <time>2018-01-07T12:05:55Z</time>
      </trkpt>
      <trkpt lat="62.646112896518" lon="17.861573922602">
        <ele>94.4</ele>
        <time>2018-01-07T12:05:56Z</time>
      </trkpt>
      <trkpt lat="62.646127900119" lon="17.861527319238">
        <ele>94.2</ele>
        <time>2018-01-07T12:05:57Z</time>
      </trkpt>
      <trkpt lat="62.646146340299" lon="17.86148356572">
        <ele>94.2</ele>
        <time>2018-01-07T12:05:58Z</time>
      </trkpt>
      <trkpt lat="62.646163355556" lon="17.861426065886">
        <ele>94</ele>
        <time>2018-01-07T12:05:59Z</time>
      </trkpt>
      <trkpt lat="62.646175425492" lon="17.86138717387">
        <ele>94</ele>
        <time>2018-01-07T12:06:00Z</time>
      </trkpt>
      <trkpt lat="62.646189926179" lon="17.86134945532">
        <ele>94.2</ele>
        <time>2018-01-07T12:06:01Z</time>
      </trkpt>
      <trkpt lat="62.646211216205" lon="17.861309306019">
        <ele>94.4</ele>
        <time>2018-01-07T12:06:02Z</time>
      </trkpt>
      <trkpt lat="62.646231919498" lon="17.861269575813">
        <ele>94.6</ele>
        <time>2018-01-07T12:06:03Z</time>
      </trkpt>
      <trkpt lat="62.646245749633" lon="17.861235629118">
        <ele>94.8</ele>
        <time>2018-01-07T12:06:04Z</time>
      </trkpt>
      <trkpt lat="62.646269721867" lon="17.861185253899">
        <ele>95</ele>
        <time>2018-01-07T12:06:05Z</time>
      </trkpt>
      <trkpt lat="62.646297717413" lon="17.861137560888">
        <ele>95.4</ele>
        <time>2018-01-07T12:06:06Z</time>
      </trkpt>
      <trkpt lat="62.646338788723" lon="17.861089700239">
        <ele>95.6</ele>
        <time>2018-01-07T12:06:07Z</time>
      </trkpt>
      <trkpt lat="62.646385559725" lon="17.861036558993">
        <ele>95.4</ele>
        <time>2018-01-07T12:06:08Z</time>
      </trkpt>
      <trkpt lat="62.646429061786" lon="17.860991380552">
        <ele>94.8</ele>
        <time>2018-01-07T12:06:09Z</time>
      </trkpt>
      <trkpt lat="62.646465103956" lon="17.860948884319">
        <ele>94.2</ele>
        <time>2018-01-07T12:06:10Z</time>
      </trkpt>
      <trkpt lat="62.646502822506" lon="17.860909824665">
        <ele>93.6</ele>
        <time>2018-01-07T12:06:11Z</time>
      </trkpt>
      <trkpt lat="62.646530315138" lon="17.860881577662">
        <ele>93</ele>
        <time>2018-01-07T12:06:12Z</time>
      </trkpt>
      <trkpt lat="62.646569290973" lon="17.860841595999">
        <ele>92.8</ele>
        <time>2018-01-07T12:06:13Z</time>
      </trkpt>
      <trkpt lat="62.646604327315" lon="17.860785269631">
        <ele>93</ele>
        <time>2018-01-07T12:06:14Z</time>
      </trkpt>
      <trkpt lat="62.646644476616" lon="17.860744533597">
        <ele>93.2</ele>
        <time>2018-01-07T12:06:15Z</time>
      </trkpt>
      <trkpt lat="62.646681440795" lon="17.860705222486">
        <ele>93.4</ele>
        <time>2018-01-07T12:06:16Z</time>
      </trkpt>
      <trkpt lat="62.646704826296" lon="17.860665240823">
        <ele>93.6</ele>
        <time>2018-01-07T12:06:17Z</time>
      </trkpt>
      <trkpt lat="62.646744472683" lon="17.860618888916">
        <ele>93.8</ele>
        <time>2018-01-07T12:06:18Z</time>
      </trkpt>
      <trkpt lat="62.646772971143" lon="17.860578069063">
        <ele>93.6</ele>
        <time>2018-01-07T12:06:19Z</time>
      </trkpt>
      <trkpt lat="62.646803313621" lon="17.860546804576">
        <ele>93.4</ele>
        <time>2018-01-07T12:06:20Z</time>
      </trkpt>
      <trkpt lat="62.646831812081" lon="17.860505649447">
        <ele>93.4</ele>
        <time>2018-01-07T12:06:21Z</time>
      </trkpt>
      <trkpt lat="62.646850838994" lon="17.860483688869">
        <ele>93.4</ele>
        <time>2018-01-07T12:06:22Z</time>
      </trkpt>
      <trkpt lat="62.646887384078" lon="17.860444713034">
        <ele>93.4</ele>
        <time>2018-01-07T12:06:23Z</time>
      </trkpt>
      <trkpt lat="62.646911859226" lon="17.860412191262">
        <ele>93.4</ele>
        <time>2018-01-07T12:06:24Z</time>
      </trkpt>
      <trkpt lat="62.64693080232" lon="17.860392912892">
        <ele>93.6</ele>
        <time>2018-01-07T12:06:25Z</time>
      </trkpt>
      <trkpt lat="62.646957875857" lon="17.86036961121">
        <ele>93.6</ele>
        <time>2018-01-07T12:06:26Z</time>
      </trkpt>
      <trkpt lat="62.646980171711" lon="17.860340106922">
        <ele>93.8</ele>
        <time>2018-01-07T12:06:27Z</time>
      </trkpt>
      <trkpt lat="62.646998276615" lon="17.860326695882">
        <ele>93.8</ele>
        <time>2018-01-07T12:06:28Z</time>
      </trkpt>
      <trkpt lat="62.647036246622" lon="17.86028914497">
        <ele>94</ele>
        <time>2018-01-07T12:06:29Z</time>
      </trkpt>
      <trkpt lat="62.647056614639" lon="17.860228627652">
        <ele>94.2</ele>
        <time>2018-01-07T12:06:30Z</time>
      </trkpt>
      <trkpt lat="62.64709676394" lon="17.860181940469">
        <ele>94</ele>
        <time>2018-01-07T12:06:31Z</time>
      </trkpt>
      <trkpt lat="62.647118305423" lon="17.860130307965">
        <ele>94</ele>
        <time>2018-01-07T12:06:32Z</time>
      </trkpt>
      <trkpt lat="62.647144121675" lon="17.86009217032">
        <ele>94</ele>
        <time>2018-01-07T12:06:33Z</time>
      </trkpt>
      <trkpt lat="62.647165998434" lon="17.860053278304">
        <ele>94</ele>
        <time>2018-01-07T12:06:34Z</time>
      </trkpt>
      <trkpt lat="62.647183684243" lon="17.860005082379">
        <ele>94</ele>
        <time>2018-01-07T12:06:35Z</time>
      </trkpt>
      <trkpt lat="62.647199442215" lon="17.8599681182">
        <ele>93.8</ele>
        <time>2018-01-07T12:06:36Z</time>
      </trkpt>
      <trkpt lat="62.647217882395" lon="17.859924699958">
        <ele>93.8</ele>
        <time>2018-01-07T12:06:37Z</time>
      </trkpt>
      <trkpt lat="62.647232466901" lon="17.859876587852">
        <ele>94</ele>
        <time>2018-01-07T12:06:38Z</time>
      </trkpt>
      <trkpt lat="62.647255433307" lon="17.859823865701">
        <ele>93.8</ele>
        <time>2018-01-07T12:06:39Z</time>
      </trkpt>
      <trkpt lat="62.647276639514" lon="17.859764102754">
        <ele>94</ele>
        <time>2018-01-07T12:06:40Z</time>
      </trkpt>
      <trkpt lat="62.647292732762" lon="17.859708363119">
        <ele>94</ele>
        <time>2018-01-07T12:06:41Z</time>
      </trkpt>
      <trkpt lat="62.64731217877" lon="17.859651701475">
        <ele>94</ele>
        <time>2018-01-07T12:06:42Z</time>
      </trkpt>
      <trkpt lat="62.647319135747" lon="17.859570229407">
        <ele>94</ele>
        <time>2018-01-07T12:06:43Z</time>
      </trkpt>
      <trkpt lat="62.647339587583" lon="17.859507197519">
        <ele>94</ele>
        <time>2018-01-07T12:06:44Z</time>
      </trkpt>
      <trkpt lat="62.647356938116" lon="17.859429832582">
        <ele>93.8</ele>
        <time>2018-01-07T12:06:45Z</time>
      </trkpt>
      <trkpt lat="62.647366074387" lon="17.859371159282">
        <ele>93.8</ele>
        <time>2018-01-07T12:06:46Z</time>
      </trkpt>
      <trkpt lat="62.647379736884" lon="17.859283484608">
        <ele>93.8</ele>
        <time>2018-01-07T12:06:47Z</time>
      </trkpt>
      <trkpt lat="62.647380575074" lon="17.85920285073">
        <ele>93.6</ele>
        <time>2018-01-07T12:06:48Z</time>
      </trkpt>
      <trkpt lat="62.647396333046" lon="17.85911819354">
        <ele>93.8</ele>
        <time>2018-01-07T12:06:49Z</time>
      </trkpt>
      <trkpt lat="62.647406978059" lon="17.859043175535">
        <ele>93.6</ele>
        <time>2018-01-07T12:06:50Z</time>
      </trkpt>
      <trkpt lat="62.647417120158" lon="17.858967570797">
        <ele>93.4</ele>
        <time>2018-01-07T12:06:51Z</time>
      </trkpt>
      <trkpt lat="62.647423406583" lon="17.858896827561">
        <ele>93.4</ele>
        <time>2018-01-07T12:06:52Z</time>
      </trkpt>
      <trkpt lat="62.647433297225" lon="17.85881812152">
        <ele>93.2</ele>
        <time>2018-01-07T12:06:53Z</time>
      </trkpt>
      <trkpt lat="62.647437152899" lon="17.858734889253">
        <ele>93.2</ele>
        <time>2018-01-07T12:06:54Z</time>
      </trkpt>
      <trkpt lat="62.647440589478" lon="17.858656937583">
        <ele>93.2</ele>
        <time>2018-01-07T12:06:55Z</time>
      </trkpt>
      <trkpt lat="62.647442265858" lon="17.858588708917">
        <ele>93.2</ele>
        <time>2018-01-07T12:06:56Z</time>
      </trkpt>
      <trkpt lat="62.647438158727" lon="17.858525425572">
        <ele>92.8</ele>
        <time>2018-01-07T12:06:57Z</time>
      </trkpt>
      <trkpt lat="62.647439164555" lon="17.858463399512">
        <ele>92.8</ele>
        <time>2018-01-07T12:06:58Z</time>
      </trkpt>
      <trkpt lat="62.647437991089" lon="17.858379831969">
        <ele>92.6</ele>
        <time>2018-01-07T12:06:59Z</time>
      </trkpt>
      <trkpt lat="62.647442684953" lon="17.858315458977">
        <ele>92.4</ele>
        <time>2018-01-07T12:07:00Z</time>
      </trkpt>
      <trkpt lat="62.647449222835" lon="17.858243374637">
        <ele>92.6</ele>
        <time>2018-01-07T12:07:01Z</time>
      </trkpt>
      <trkpt lat="62.647456515088" lon="17.858177911998">
        <ele>92.4</ele>
        <time>2018-01-07T12:07:02Z</time>
      </trkpt>
      <trkpt lat="62.647462717694" lon="17.85811236554">
        <ele>92.6</ele>
        <time>2018-01-07T12:07:03Z</time>
      </trkpt>
      <trkpt lat="62.647473614164" lon="17.858034916784">
        <ele>92.6</ele>
        <time>2018-01-07T12:07:04Z</time>
      </trkpt>
      <trkpt lat="62.647465735178" lon="17.857955288734">
        <ele>92.8</ele>
        <time>2018-01-07T12:07:05Z</time>
      </trkpt>
      <trkpt lat="62.647475374363" lon="17.857877420883">
        <ele>93</ele>
        <time>2018-01-07T12:07:06Z</time>
      </trkpt>
      <trkpt lat="62.64748400772" lon="17.857804163077">
        <ele>92.6</ele>
        <time>2018-01-07T12:07:07Z</time>
      </trkpt>
      <trkpt lat="62.64749322781" lon="17.85773769461">
        <ele>92.6</ele>
        <time>2018-01-07T12:07:08Z</time>
      </trkpt>
      <trkpt lat="62.647499262778" lon="17.857666197003">
        <ele>92.6</ele>
        <time>2018-01-07T12:07:09Z</time>
      </trkpt>
      <trkpt lat="62.647499011321" lon="17.857597884518">
        <ele>92.4</ele>
        <time>2018-01-07T12:07:10Z</time>
      </trkpt>
      <trkpt lat="62.647512925275" lon="17.857522615056">
        <ele>92.2</ele>
        <time>2018-01-07T12:07:11Z</time>
      </trkpt>
      <trkpt lat="62.647524324659" lon="17.857462433014">
        <ele>92.2</ele>
        <time>2018-01-07T12:07:12Z</time>
      </trkpt>
      <trkpt lat="62.647527006867" lon="17.857404178809">
        <ele>92</ele>
        <time>2018-01-07T12:07:13Z</time>
      </trkpt>
      <trkpt lat="62.647542094287" lon="17.857332262107">
        <ele>92.2</ele>
        <time>2018-01-07T12:07:14Z</time>
      </trkpt>
      <trkpt lat="62.647553493671" lon="17.857257076464">
        <ele>92.2</ele>
        <time>2018-01-07T12:07:15Z</time>
      </trkpt>
      <trkpt lat="62.647562881399" lon="17.85720628215">
        <ele>92.2</ele>
        <time>2018-01-07T12:07:16Z</time>
      </trkpt>
      <trkpt lat="62.647575118973" lon="17.857150458696">
        <ele>92.4</ele>
        <time>2018-01-07T12:07:17Z</time>
      </trkpt>
      <trkpt lat="62.647588949108" lon="17.857094048509">
        <ele>92.2</ele>
        <time>2018-01-07T12:07:18Z</time>
      </trkpt>
      <trkpt lat="62.647599342664" lon="17.857045433489">
        <ele>92.2</ele>
        <time>2018-01-07T12:07:19Z</time>
      </trkpt>
      <trkpt lat="62.647609400944" lon="17.856999500677">
        <ele>92.2</ele>
        <time>2018-01-07T12:07:20Z</time>
      </trkpt>
      <trkpt lat="62.647617699025" lon="17.856941246472">
        <ele>92.4</ele>
        <time>2018-01-07T12:07:21Z</time>
      </trkpt>
      <trkpt lat="62.647620213595" lon="17.85690201918">
        <ele>92.6</ele>
        <time>2018-01-07T12:07:22Z</time>
      </trkpt>
      <trkpt lat="62.647626667658" lon="17.856854158531">
        <ele>92.6</ele>
        <time>2018-01-07T12:07:23Z</time>
      </trkpt>
      <trkpt lat="62.647629433685" lon="17.856796491059">
        <ele>92.8</ele>
        <time>2018-01-07T12:07:24Z</time>
      </trkpt>
      <trkpt lat="62.647631948255" lon="17.856739577958">
        <ele>93</ele>
        <time>2018-01-07T12:07:25Z</time>
      </trkpt>
      <trkpt lat="62.647635468653" lon="17.85669750082">
        <ele>93</ele>
        <time>2018-01-07T12:07:26Z</time>
      </trkpt>
      <trkpt lat="62.647636306843" lon="17.856634720389">
        <ele>93</ele>
        <time>2018-01-07T12:07:27Z</time>
      </trkpt>
      <trkpt lat="62.647633876092" lon="17.856579148392">
        <ele>93.2</ele>
        <time>2018-01-07T12:07:28Z</time>
      </trkpt>
      <trkpt lat="62.647638150861" lon="17.856512763744">
        <ele>93.2</ele>
        <time>2018-01-07T12:07:29Z</time>
      </trkpt>
      <trkpt lat="62.647643347639" lon="17.856441098499">
        <ele>93.4</ele>
        <time>2018-01-07T12:07:30Z</time>
      </trkpt>
      <trkpt lat="62.647647622408" lon="17.85637479767">
        <ele>93.4</ele>
        <time>2018-01-07T12:07:31Z</time>
      </trkpt>
      <trkpt lat="62.647655752851" lon="17.856308413022">
        <ele>93.4</ele>
        <time>2018-01-07T12:07:32Z</time>
      </trkpt>
      <trkpt lat="62.64767092409" lon="17.856209087507">
        <ele>93.4</ele>
        <time>2018-01-07T12:07:33Z</time>
      </trkpt>
      <trkpt lat="62.64769104065" lon="17.856117892435">
        <ele>93.4</ele>
        <time>2018-01-07T12:07:34Z</time>
      </trkpt>
      <trkpt lat="62.647714426151" lon="17.856026697363">
        <ele>92.8</ele>
        <time>2018-01-07T12:07:35Z</time>
      </trkpt>
      <trkpt lat="62.647739907127" lon="17.855937178671">
        <ele>92.2</ele>
        <time>2018-01-07T12:07:36Z</time>
      </trkpt>
      <trkpt lat="62.647767232121" lon="17.855866435435">
        <ele>91.6</ele>
        <time>2018-01-07T12:07:37Z</time>
      </trkpt>
      <trkpt lat="62.64780084354" lon="17.855779934227">
        <ele>90.8</ele>
        <time>2018-01-07T12:07:38Z</time>
      </trkpt>
      <trkpt lat="62.647838645909" lon="17.855687398051">
        <ele>90.2</ele>
        <time>2018-01-07T12:07:39Z</time>
      </trkpt>
      <trkpt lat="62.647872508785" lon="17.855610787485">
        <ele>89.8</ele>
        <time>2018-01-07T12:07:40Z</time>
      </trkpt>
      <trkpt lat="62.647923303099" lon="17.855533338729">
        <ele>89.4</ele>
        <time>2018-01-07T12:07:41Z</time>
      </trkpt>
      <trkpt lat="62.647976779621" lon="17.855467456995">
        <ele>89</ele>
        <time>2018-01-07T12:07:42Z</time>
      </trkpt>
      <trkpt lat="62.648037967491" lon="17.855428229703">
        <ele>88.6</ele>
        <time>2018-01-07T12:07:43Z</time>
      </trkpt>
      <trkpt lat="62.648102089026" lon="17.855427978246">
        <ele>87.8</ele>
        <time>2018-01-07T12:07:44Z</time>
      </trkpt>
      <trkpt lat="62.648157409566" lon="17.855440467277">
        <ele>87.2</ele>
        <time>2018-01-07T12:07:45Z</time>
      </trkpt>
      <trkpt lat="62.648209125889" lon="17.855440132001">
        <ele>86.8</ele>
        <time>2018-01-07T12:07:46Z</time>
      </trkpt>
      <trkpt lat="62.64825933347" lon="17.85543602487">
        <ele>86.4</ele>
        <time>2018-01-07T12:07:47Z</time>
      </trkpt>
      <trkpt lat="62.648309373413" lon="17.85543183392">
        <ele>86.2</ele>
        <time>2018-01-07T12:07:48Z</time>
      </trkpt>
      <trkpt lat="62.648347594877" lon="17.855409118971">
        <ele>86</ele>
        <time>2018-01-07T12:07:49Z</time>
      </trkpt>
      <trkpt lat="62.648390258748" lon="17.855378105941">
        <ele>86</ele>
        <time>2018-01-07T12:07:50Z</time>
      </trkpt>
      <trkpt lat="62.648418757208" lon="17.855338627192">
        <ele>86.2</ele>
        <time>2018-01-07T12:07:51Z</time>
      </trkpt>
      <trkpt lat="62.648449770238" lon="17.855322450125">
        <ele>86.4</ele>
        <time>2018-01-07T12:07:52Z</time>
      </trkpt>
      <trkpt lat="62.648489919539" lon="17.855293867846">
        <ele>86.6</ele>
        <time>2018-01-07T12:07:53Z</time>
      </trkpt>
      <trkpt lat="62.648516406343" lon="17.855262770997">
        <ele>87</ele>
        <time>2018-01-07T12:07:54Z</time>
      </trkpt>
      <trkpt lat="62.64854515626" lon="17.855229662492">
        <ele>87</ele>
        <time>2018-01-07T12:07:55Z</time>
      </trkpt>
      <trkpt lat="62.648582623353" lon="17.855213736882">
        <ele>87</ele>
        <time>2018-01-07T12:07:56Z</time>
      </trkpt>
      <trkpt lat="62.64861053508" lon="17.855170905373">
        <ele>87</ele>
        <time>2018-01-07T12:07:57Z</time>
      </trkpt>
      <trkpt lat="62.648639704092" lon="17.855161769102">
        <ele>87</ele>
        <time>2018-01-07T12:07:58Z</time>
      </trkpt>
      <trkpt lat="62.648668705466" lon="17.855122793267">
        <ele>87</ele>
        <time>2018-01-07T12:07:59Z</time>
      </trkpt>
      <trkpt lat="62.648685553085" lon="17.855085912907">
        <ele>87.2</ele>
        <time>2018-01-07T12:08:00Z</time>
      </trkpt>
      <trkpt lat="62.648709273862" lon="17.855045009235">
        <ele>87.4</ele>
        <time>2018-01-07T12:08:01Z</time>
      </trkpt>
      <trkpt lat="62.648727546404" lon="17.8549976515">
        <ele>87.6</ele>
        <time>2018-01-07T12:08:02Z</time>
      </trkpt>
      <trkpt lat="62.648738107598" lon="17.854943588245">
        <ele>87.6</ele>
        <time>2018-01-07T12:08:03Z</time>
      </trkpt>
      <trkpt lat="62.648752775923" lon="17.854870833353">
        <ele>87.8</ele>
        <time>2018-01-07T12:08:04Z</time>
      </trkpt>
      <trkpt lat="62.648759146167" lon="17.854760862825">
        <ele>87.8</ele>
        <time>2018-01-07T12:08:05Z</time>
      </trkpt>
      <trkpt lat="62.648760738728" lon="17.854634463773">
        <ele>87.6</ele>
        <time>2018-01-07T12:08:06Z</time>
      </trkpt>
      <trkpt lat="62.648763504755" lon="17.854510327834">
        <ele>86.8</ele>
        <time>2018-01-07T12:08:07Z</time>
      </trkpt>
      <trkpt lat="62.648780352374" lon="17.854385269886">
        <ele>86</ele>
        <time>2018-01-07T12:08:08Z</time>
      </trkpt>
      <trkpt lat="62.64881337706" lon="17.854299103954">
        <ele>86.6</ele>
        <time>2018-01-07T12:08:09Z</time>
      </trkpt>
      <trkpt lat="62.648855957112" lon="17.854265995449">
        <ele>86.4</ele>
        <time>2018-01-07T12:08:10Z</time>
      </trkpt>
      <trkpt lat="62.648904907408" lon="17.854274544987">
        <ele>86.4</ele>
        <time>2018-01-07T12:08:11Z</time>
      </trkpt>
      <trkpt lat="62.648941033397" lon="17.854323662921">
        <ele>86.8</ele>
        <time>2018-01-07T12:08:12Z</time>
      </trkpt>
      <trkpt lat="62.648983948725" lon="17.854366662068">
        <ele>86.8</ele>
        <time>2018-01-07T12:08:13Z</time>
      </trkpt>
      <trkpt lat="62.649018565972" lon="17.854441680073">
        <ele>86.8</ele>
        <time>2018-01-07T12:08:14Z</time>
      </trkpt>
      <trkpt lat="62.649050417192" lon="17.854519464105">
        <ele>87</ele>
        <time>2018-01-07T12:08:15Z</time>
      </trkpt>
      <trkpt lat="62.649076065806" lon="17.854592386635">
        <ele>87</ele>
        <time>2018-01-07T12:08:16Z</time>
      </trkpt>
      <trkpt lat="62.649109593406" lon="17.854688610847">
        <ele>86.6</ele>
        <time>2018-01-07T12:08:17Z</time>
      </trkpt>
      <trkpt lat="62.649138175685" lon="17.85476882563">
        <ele>86.8</ele>
        <time>2018-01-07T12:08:18Z</time>
      </trkpt>
      <trkpt lat="62.649167847611" lon="17.854847028757">
        <ele>87.4</ele>
        <time>2018-01-07T12:08:19Z</time>
      </trkpt>
      <trkpt lat="62.649202800134" lon="17.854919029278">
        <ele>87.4</ele>
        <time>2018-01-07T12:08:20Z</time>
      </trkpt>
      <trkpt lat="62.649237417381" lon="17.854989521057">
        <ele>87.2</ele>
        <time>2018-01-07T12:08:21Z</time>
      </trkpt>
      <trkpt lat="62.649271783171" lon="17.855037465525">
        <ele>87.2</ele>
        <time>2018-01-07T12:08:22Z</time>
      </trkpt>
      <trkpt lat="62.649313692671" lon="17.855078369197">
        <ele>87.2</ele>
        <time>2018-01-07T12:08:23Z</time>
      </trkpt>
      <trkpt lat="62.649360631311" lon="17.855081135224">
        <ele>87</ele>
        <time>2018-01-07T12:08:24Z</time>
      </trkpt>
      <trkpt lat="62.649409665426" lon="17.855063197958">
        <ele>87.2</ele>
        <time>2018-01-07T12:08:25Z</time>
      </trkpt>
      <trkpt lat="62.649454843867" lon="17.855030089453">
        <ele>86.6</ele>
        <time>2018-01-07T12:08:26Z</time>
      </trkpt>
      <trkpt lat="62.649496921005" lon="17.855001339536">
        <ele>86.6</ele>
        <time>2018-01-07T12:08:27Z</time>
      </trkpt>
      <trkpt lat="62.649513852443" lon="17.854987844677">
        <ele>86.4</ele>
        <time>2018-01-07T12:08:28Z</time>
      </trkpt>
      <trkpt lat="62.649596078882" lon="17.854919951287">
        <ele>86.2</ele>
        <time>2018-01-07T12:08:29Z</time>
      </trkpt>
      <trkpt lat="62.649657350571" lon="17.854878377063">
        <ele>86.2</ele>
        <time>2018-01-07T12:08:30Z</time>
      </trkpt>
      <trkpt lat="62.649720047183" lon="17.854847028757">
        <ele>85.8</ele>
        <time>2018-01-07T12:08:31Z</time>
      </trkpt>
      <trkpt lat="62.649785174546" lon="17.854835126459">
        <ele>85.4</ele>
        <time>2018-01-07T12:08:32Z</time>
      </trkpt>
      <trkpt lat="62.649852313565" lon="17.85482666074">
        <ele>85</ele>
        <time>2018-01-07T12:08:33Z</time>
      </trkpt>
      <trkpt lat="62.649915764548" lon="17.854816434822">
        <ele>84.4</ele>
        <time>2018-01-07T12:08:34Z</time>
      </trkpt>
      <trkpt lat="62.649977371513" lon="17.854801934135">
        <ele>84.2</ele>
        <time>2018-01-07T12:08:35Z</time>
      </trkpt>
      <trkpt lat="62.650049455853" lon="17.85477050201">
        <ele>83.2</ele>
        <time>2018-01-07T12:08:36Z</time>
      </trkpt>
      <trkpt lat="62.65010418966" lon="17.854699004403">
        <ele>82.8</ele>
        <time>2018-01-07T12:08:37Z</time>
      </trkpt>
      <trkpt lat="62.650147356445" lon="17.854598421603">
        <ele>82.2</ele>
        <time>2018-01-07T12:08:38Z</time>
      </trkpt>
      <trkpt lat="62.650175603448" lon="17.854489121627">
        <ele>82.2</ele>
        <time>2018-01-07T12:08:39Z</time>
      </trkpt>
      <trkpt lat="62.650197144931" lon="17.854377642357">
        <ele>82.2</ele>
        <time>2018-01-07T12:08:40Z</time>
      </trkpt>
      <trkpt lat="62.650217010034" lon="17.854277897747">
        <ele>82.2</ele>
        <time>2018-01-07T12:08:41Z</time>
      </trkpt>
      <trkpt lat="62.650235114938" lon="17.854194330204">
        <ele>82.2</ele>
        <time>2018-01-07T12:08:42Z</time>
      </trkpt>
      <trkpt lat="62.650256824059" lon="17.854103889503">
        <ele>82.2</ele>
        <time>2018-01-07T12:08:43Z</time>
      </trkpt>
      <trkpt lat="62.650277192076" lon="17.85401864558">
        <ele>82.2</ele>
        <time>2018-01-07T12:08:44Z</time>
      </trkpt>
      <trkpt lat="62.650286495985" lon="17.853975311157">
        <ele>82.2</ele>
        <time>2018-01-07T12:08:45Z</time>
      </trkpt>
      <trkpt lat="62.650292698591" lon="17.853960642832">
        <ele>82</ele>
        <time>2018-01-07T12:08:46Z</time>
      </trkpt>
      <trkpt lat="62.650305858174" lon="17.853920828807">
        <ele>82</ele>
        <time>2018-01-07T12:08:47Z</time>
      </trkpt>
      <trkpt lat="62.650318347205" lon="17.853891995071">
        <ele>82.4</ele>
        <time>2018-01-07T12:08:48Z</time>
      </trkpt>
      <trkpt lat="62.650322621974" lon="17.853852767779">
        <ele>82.8</ele>
        <time>2018-01-07T12:08:49Z</time>
      </trkpt>
      <trkpt lat="62.650333602263" lon="17.85381412722">
        <ele>83</ele>
        <time>2018-01-07T12:08:50Z</time>
      </trkpt>
      <trkpt lat="62.650350030787" lon="17.853757884671">
        <ele>83</ele>
        <time>2018-01-07T12:08:51Z</time>
      </trkpt>
      <trkpt lat="62.650368135691" lon="17.85371186804">
        <ele>83</ele>
        <time>2018-01-07T12:08:52Z</time>
      </trkpt>
      <trkpt lat="62.650387162604" lon="17.853663504477">
        <ele>83</ele>
        <time>2018-01-07T12:08:53Z</time>
      </trkpt>
      <trkpt lat="62.650414906693" lon="17.853610866145">
        <ele>83</ele>
        <time>2018-01-07T12:08:54Z</time>
      </trkpt>
      <trkpt lat="62.650434771796" lon="17.853574823975">
        <ele>82.8</ele>
        <time>2018-01-07T12:08:55Z</time>
      </trkpt>
      <trkpt lat="62.650449691578" lon="17.853552947216">
        <ele>82.8</ele>
        <time>2018-01-07T12:08:56Z</time>
      </trkpt>
      <trkpt lat="62.650480201694" lon="17.85351740796">
        <ele>82.8</ele>
        <time>2018-01-07T12:08:57Z</time>
      </trkpt>
      <trkpt lat="62.650504928299" lon="17.853485892016">
        <ele>82.6</ele>
        <time>2018-01-07T12:08:58Z</time>
      </trkpt>
      <trkpt lat="62.650524374307" lon="17.853458818479">
        <ele>82.4</ele>
        <time>2018-01-07T12:08:59Z</time>
      </trkpt>
      <trkpt lat="62.650545748152" lon="17.853426967259">
        <ele>82.2</ele>
        <time>2018-01-07T12:09:00Z</time>
      </trkpt>
      <trkpt lat="62.650576845001" lon="17.853397295333">
        <ele>82</ele>
        <time>2018-01-07T12:09:01Z</time>
      </trkpt>
      <trkpt lat="62.650594363172" lon="17.853366952855">
        <ele>82</ele>
        <time>2018-01-07T12:09:02Z</time>
      </trkpt>
      <trkpt lat="62.650611881343" lon="17.853341807155">
        <ele>82</ele>
        <time>2018-01-07T12:09:03Z</time>
      </trkpt>
      <trkpt lat="62.650624789469" lon="17.853319008387">
        <ele>81.8</ele>
        <time>2018-01-07T12:09:04Z</time>
      </trkpt>
      <trkpt lat="62.650640966536" lon="17.853290342289">
        <ele>81.8</ele>
        <time>2018-01-07T12:09:05Z</time>
      </trkpt>
      <trkpt lat="62.650659406716" lon="17.853262849657">
        <ele>81.8</ele>
        <time>2018-01-07T12:09:06Z</time>
      </trkpt>
      <trkpt lat="62.650679104181" lon="17.853229992609">
        <ele>81.8</ele>
        <time>2018-01-07T12:09:07Z</time>
      </trkpt>
      <trkpt lat="62.650698885465" lon="17.853189843308">
        <ele>81.8</ele>
        <time>2018-01-07T12:09:08Z</time>
      </trkpt>
      <trkpt lat="62.650713050876" lon="17.853160925753">
        <ele>81.8</ele>
        <time>2018-01-07T12:09:09Z</time>
      </trkpt>
      <trkpt lat="62.65072696483" lon="17.853126308506">
        <ele>82</ele>
        <time>2018-01-07T12:09:10Z</time>
      </trkpt>
      <trkpt lat="62.650736687834" lon="17.853095127838">
        <ele>82</ele>
        <time>2018-01-07T12:09:11Z</time>
      </trkpt>
      <trkpt lat="62.6507546251" lon="17.853060678229">
        <ele>82</ele>
        <time>2018-01-07T12:09:12Z</time>
      </trkpt>
      <trkpt lat="62.650774071108" lon="17.853019355462">
        <ele>81.8</ele>
        <time>2018-01-07T12:09:13Z</time>
      </trkpt>
      <trkpt lat="62.650787901243" lon="17.852983061835">
        <ele>81.8</ele>
        <time>2018-01-07T12:09:14Z</time>
      </trkpt>
      <trkpt lat="62.650801144645" lon="17.852953557547">
        <ele>81.6</ele>
        <time>2018-01-07T12:09:15Z</time>
      </trkpt>
      <trkpt lat="62.650820087739" lon="17.852907289459">
        <ele>81.6</ele>
        <time>2018-01-07T12:09:16Z</time>
      </trkpt>
      <trkpt lat="62.650832912046" lon="17.852880551198">
        <ele>81.6</ele>
        <time>2018-01-07T12:09:17Z</time>
      </trkpt>
      <trkpt lat="62.650850514036" lon="17.852844089933">
        <ele>81.6</ele>
        <time>2018-01-07T12:09:18Z</time>
      </trkpt>
      <trkpt lat="62.650869373311" lon="17.85281584293">
        <ele>81.4</ele>
        <time>2018-01-07T12:09:19Z</time>
      </trkpt>
      <trkpt lat="62.650887729672" lon="17.852789356126">
        <ele>81.6</ele>
        <time>2018-01-07T12:09:20Z</time>
      </trkpt>
      <trkpt lat="62.65091304301" lon="17.852754906517">
        <ele>81.6</ele>
        <time>2018-01-07T12:09:21Z</time>
      </trkpt>
      <trkpt lat="62.65093232138" lon="17.852722300926">
        <ele>81.6</ele>
        <time>2018-01-07T12:09:22Z</time>
      </trkpt>
      <trkpt lat="62.650976158717" lon="17.85268843805">
        <ele>81.6</ele>
        <time>2018-01-07T12:09:23Z</time>
      </trkpt>
      <trkpt lat="62.651013458172" lon="17.852662370341">
        <ele>81.6</ele>
        <time>2018-01-07T12:09:24Z</time>
      </trkpt>
      <trkpt lat="62.651048075419" lon="17.852650970957">
        <ele>81.2</ele>
        <time>2018-01-07T12:09:25Z</time>
      </trkpt>
      <trkpt lat="62.651082608847" lon="17.852644516894">
        <ele>81</ele>
        <time>2018-01-07T12:09:26Z</time>
      </trkpt>
      <trkpt lat="62.651102222493" lon="17.852638649564">
        <ele>80.6</ele>
        <time>2018-01-07T12:09:27Z</time>
      </trkpt>
      <trkpt lat="62.651127032917" lon="17.852645774179">
        <ele>80.4</ele>
        <time>2018-01-07T12:09:28Z</time>
      </trkpt>
      <trkpt lat="62.651156201929" lon="17.85265239588">
        <ele>80</ele>
        <time>2018-01-07T12:09:29Z</time>
      </trkpt>
      <trkpt lat="62.651177575774" lon="17.852650132767">
        <ele>79.8</ele>
        <time>2018-01-07T12:09:30Z</time>
      </trkpt>
      <trkpt lat="62.65120305675" lon="17.852658095572">
        <ele>79.6</ele>
        <time>2018-01-07T12:09:31Z</time>
      </trkpt>
      <trkpt lat="62.651224765871" lon="17.852664717273">
        <ele>79.4</ele>
        <time>2018-01-07T12:09:32Z</time>
      </trkpt>
      <trkpt lat="62.651248821924" lon="17.852663711445">
        <ele>79.4</ele>
        <time>2018-01-07T12:09:33Z</time>
      </trkpt>
      <trkpt lat="62.651257287643" lon="17.85265826321">
        <ele>79.2</ele>
        <time>2018-01-07T12:09:34Z</time>
      </trkpt>
      <trkpt lat="62.651288049216" lon="17.852647199102">
        <ele>79.2</ele>
        <time>2018-01-07T12:09:35Z</time>
      </trkpt>
      <trkpt lat="62.651316296219" lon="17.852636973184">
        <ele>79</ele>
        <time>2018-01-07T12:09:36Z</time>
      </trkpt>
      <trkpt lat="62.651328617612" lon="17.852625489981">
        <ele>79</ele>
        <time>2018-01-07T12:09:37Z</time>
      </trkpt>
      <trkpt lat="62.651358540995" lon="17.852606965982">
        <ele>79</ele>
        <time>2018-01-07T12:09:38Z</time>
      </trkpt>
      <trkpt lat="62.651383351419" lon="17.852584418671">
        <ele>78.8</ele>
        <time>2018-01-07T12:09:39Z</time>
      </trkpt>
      <trkpt lat="62.651404306169" lon="17.852566229948">
        <ele>78.8</ele>
        <time>2018-01-07T12:09:40Z</time>
      </trkpt>
      <trkpt lat="62.651430457697" lon="17.852531361244">
        <ele>78.8</ele>
        <time>2018-01-07T12:09:41Z</time>
      </trkpt>
      <trkpt lat="62.651452502094" lon="17.852514010711">
        <ele>78.8</ele>
        <time>2018-01-07T12:09:42Z</time>
      </trkpt>
      <trkpt lat="62.651481754925" lon="17.852494732341">
        <ele>79</ele>
        <time>2018-01-07T12:09:43Z</time>
      </trkpt>
      <trkpt lat="62.651502709675" lon="17.852470257193">
        <ele>78.8</ele>
        <time>2018-01-07T12:09:44Z</time>
      </trkpt>
      <trkpt lat="62.651525340805" lon="17.852452236108">
        <ele>78.8</ele>
        <time>2018-01-07T12:09:45Z</time>
      </trkpt>
      <trkpt lat="62.651549983591" lon="17.852424994933">
        <ele>78.6</ele>
        <time>2018-01-07T12:09:46Z</time>
      </trkpt>
      <trkpt lat="62.651572614721" lon="17.85240261526">
        <ele>78.4</ele>
        <time>2018-01-07T12:09:47Z</time>
      </trkpt>
      <trkpt lat="62.651593234195" lon="17.852388952763">
        <ele>78.4</ele>
        <time>2018-01-07T12:09:48Z</time>
      </trkpt>
      <trkpt lat="62.651612344927" lon="17.852373446248">
        <ele>78.4</ele>
        <time>2018-01-07T12:09:49Z</time>
      </trkpt>
      <trkpt lat="62.651634473143" lon="17.852345785978">
        <ele>78.6</ele>
        <time>2018-01-07T12:09:50Z</time>
      </trkpt>
      <trkpt lat="62.651664312707" lon="17.852341930304">
        <ele>78.6</ele>
        <time>2018-01-07T12:09:51Z</time>
      </trkpt>
      <trkpt lat="62.651676466462" lon="17.852323154848">
        <ele>78.8</ele>
        <time>2018-01-07T12:09:52Z</time>
      </trkpt>
      <trkpt lat="62.651700690153" lon="17.852306139591">
        <ele>78.8</ele>
        <time>2018-01-07T12:09:53Z</time>
      </trkpt>
      <trkpt lat="62.651728182785" lon="17.852304127935">
        <ele>79</ele>
        <time>2018-01-07T12:09:54Z</time>
      </trkpt>
      <trkpt lat="62.651748215526" lon="17.852293231465">
        <ele>79.2</ele>
        <time>2018-01-07T12:09:55Z</time>
      </trkpt>
      <trkpt lat="62.651777133081" lon="17.852286861221">
        <ele>79.4</ele>
        <time>2018-01-07T12:09:56Z</time>
      </trkpt>
      <trkpt lat="62.651806637369" lon="17.852281412986">
        <ele>79.4</ele>
        <time>2018-01-07T12:09:57Z</time>
      </trkpt>
      <trkpt lat="62.651833962363" lon="17.852276802941">
        <ele>79.4</ele>
        <time>2018-01-07T12:09:58Z</time>
      </trkpt>
      <trkpt lat="62.651855000932" lon="17.85226599029">
        <ele>79.6</ele>
        <time>2018-01-07T12:09:59Z</time>
      </trkpt>
      <trkpt lat="62.651874530759" lon="17.852263308082">
        <ele>79.6</ele>
        <time>2018-01-07T12:10:00Z</time>
      </trkpt>
      <trkpt lat="62.651895234052" lon="17.852257943666">
        <ele>79.8</ele>
        <time>2018-01-07T12:10:01Z</time>
      </trkpt>
      <trkpt lat="62.651913506594" lon="17.852254758544">
        <ele>79.8</ele>
        <time>2018-01-07T12:10:02Z</time>
      </trkpt>
      <trkpt lat="62.651933874611" lon="17.852248891214">
        <ele>80</ele>
        <time>2018-01-07T12:10:03Z</time>
      </trkpt>
      <trkpt lat="62.651955499913" lon="17.852238581477">
        <ele>80.2</ele>
        <time>2018-01-07T12:10:04Z</time>
      </trkpt>
      <trkpt lat="62.651976370844" lon="17.852222823505">
        <ele>80.4</ele>
        <time>2018-01-07T12:10:05Z</time>
      </trkpt>
      <trkpt lat="62.651992547911" lon="17.852216872356">
        <ele>80.4</ele>
        <time>2018-01-07T12:10:06Z</time>
      </trkpt>
      <trkpt lat="62.652005539856" lon="17.852201114384">
        <ele>80.6</ele>
        <time>2018-01-07T12:10:07Z</time>
      </trkpt>
      <trkpt lat="62.652018028887" lon="17.852187703344">
        <ele>80.8</ele>
        <time>2018-01-07T12:10:08Z</time>
      </trkpt>
      <trkpt lat="62.652032948669" lon="17.852174040847">
        <ele>81</ele>
        <time>2018-01-07T12:10:09Z</time>
      </trkpt>
      <trkpt lat="62.652052059401" lon="17.852156606495">
        <ele>81</ele>
        <time>2018-01-07T12:10:10Z</time>
      </trkpt>
      <trkpt lat="62.652078294748" lon="17.852129197682">
        <ele>81.4</ele>
        <time>2018-01-07T12:10:11Z</time>
      </trkpt>
      <trkpt lat="62.652090867598" lon="17.852107823837">
        <ele>81.6</ele>
        <time>2018-01-07T12:10:12Z</time>
      </trkpt>
      <trkpt lat="62.652116935307" lon="17.852083181051">
        <ele>81.8</ele>
        <time>2018-01-07T12:10:13Z</time>
      </trkpt>
      <trkpt lat="62.652140488446" lon="17.852048731442">
        <ele>81.8</ele>
        <time>2018-01-07T12:10:14Z</time>
      </trkpt>
      <trkpt lat="62.652152139287" lon="17.852024507751">
        <ele>82</ele>
        <time>2018-01-07T12:10:15Z</time>
      </trkpt>
      <trkpt lat="62.652168400173" lon="17.852005061743">
        <ele>82</ele>
        <time>2018-01-07T12:10:16Z</time>
      </trkpt>
      <trkpt lat="62.652193378235" lon="17.851972372333">
        <ele>82</ele>
        <time>2018-01-07T12:10:17Z</time>
      </trkpt>
      <trkpt lat="62.652207627465" lon="17.851938425638">
        <ele>82</ele>
        <time>2018-01-07T12:10:18Z</time>
      </trkpt>
      <trkpt lat="62.652225229455" lon="17.851917889983">
        <ele>82</ele>
        <time>2018-01-07T12:10:19Z</time>
      </trkpt>
      <trkpt lat="62.652256913037" lon="17.851879165605">
        <ele>82.2</ele>
        <time>2018-01-07T12:10:20Z</time>
      </trkpt>
      <trkpt lat="62.652275353217" lon="17.851844967453">
        <ele>82.4</ele>
        <time>2018-01-07T12:10:21Z</time>
      </trkpt>
      <trkpt lat="62.652293206664" lon="17.851828706567">
        <ele>82.4</ele>
        <time>2018-01-07T12:10:22Z</time>
      </trkpt>
      <trkpt lat="62.652309299912" lon="17.851809344378">
        <ele>82.4</ele>
        <time>2018-01-07T12:10:23Z</time>
      </trkpt>
      <trkpt lat="62.652319861106" lon="17.85178319285">
        <ele>82.6</ele>
        <time>2018-01-07T12:10:24Z</time>
      </trkpt>
      <trkpt lat="62.652333439784" lon="17.851765674679">
        <ele>83</ele>
        <time>2018-01-07T12:10:25Z</time>
      </trkpt>
      <trkpt lat="62.652344922987" lon="17.851751090173">
        <ele>83.2</ele>
        <time>2018-01-07T12:10:26Z</time>
      </trkpt>
      <trkpt lat="62.652359926588" lon="17.851735332201">
        <ele>83.4</ele>
        <time>2018-01-07T12:10:27Z</time>
      </trkpt>
      <trkpt lat="62.652373337628" lon="17.851721837342">
        <ele>83.8</ele>
        <time>2018-01-07T12:10:28Z</time>
      </trkpt>
      <trkpt lat="62.652385491383" lon="17.851698368022">
        <ele>84</ele>
        <time>2018-01-07T12:10:29Z</time>
      </trkpt>
      <trkpt lat="62.652397645138" lon="17.851677497091">
        <ele>84.4</ele>
        <time>2018-01-07T12:10:30Z</time>
      </trkpt>
      <trkpt lat="62.652411559092" lon="17.851648663355">
        <ele>84.8</ele>
        <time>2018-01-07T12:10:31Z</time>
      </trkpt>
      <trkpt lat="62.65242681415" lon="17.851622428008">
        <ele>85</ele>
        <time>2018-01-07T12:10:32Z</time>
      </trkpt>
      <trkpt lat="62.652442404484" lon="17.851600802706">
        <ele>85.4</ele>
        <time>2018-01-07T12:10:33Z</time>
      </trkpt>
      <trkpt lat="62.652454642058" lon="17.851573980626">
        <ele>85.6</ele>
        <time>2018-01-07T12:10:34Z</time>
      </trkpt>
      <trkpt lat="62.652468472193" lon="17.851552355324">
        <ele>85.8</ele>
        <time>2018-01-07T12:10:35Z</time>
      </trkpt>
      <trkpt lat="62.65248464926" lon="17.851524443597">
        <ele>85.8</ele>
        <time>2018-01-07T12:10:36Z</time>
      </trkpt>
      <trkpt lat="62.652498311757" lon="17.851499800811">
        <ele>86</ele>
        <time>2018-01-07T12:10:37Z</time>
      </trkpt>
      <trkpt lat="62.652511890435" lon="17.851475493301">
        <ele>86.2</ele>
        <time>2018-01-07T12:10:38Z</time>
      </trkpt>
      <trkpt lat="62.652526307303" lon="17.851452275438">
        <ele>86.4</ele>
        <time>2018-01-07T12:10:39Z</time>
      </trkpt>
      <trkpt lat="62.652545669492" lon="17.851436517466">
        <ele>86.6</ele>
        <time>2018-01-07T12:10:40Z</time>
      </trkpt>
      <trkpt lat="62.652565199319" lon="17.85140684554">
        <ele>86.8</ele>
        <time>2018-01-07T12:10:41Z</time>
      </trkpt>
      <trkpt lat="62.652580873472" lon="17.851379269089">
        <ele>86.8</ele>
        <time>2018-01-07T12:10:42Z</time>
      </trkpt>
      <trkpt lat="62.652599816566" lon="17.851346914955">
        <ele>87</ele>
        <time>2018-01-07T12:10:43Z</time>
      </trkpt>
      <trkpt lat="62.652618089108" lon="17.851325373472">
        <ele>87</ele>
        <time>2018-01-07T12:10:44Z</time>
      </trkpt>
      <trkpt lat="62.652632338338" lon="17.851300479229">
        <ele>87.2</ele>
        <time>2018-01-07T12:10:45Z</time>
      </trkpt>
      <trkpt lat="62.652654634192" lon="17.851267873638">
        <ele>87.4</ele>
        <time>2018-01-07T12:10:46Z</time>
      </trkpt>
      <trkpt lat="62.652671733268" lon="17.851233843124">
        <ele>87.6</ele>
        <time>2018-01-07T12:10:47Z</time>
      </trkpt>
      <trkpt lat="62.652690089629" lon="17.85120400356">
        <ele>87.6</ele>
        <time>2018-01-07T12:10:48Z</time>
      </trkpt>
      <trkpt lat="62.652718420451" lon="17.851157986929">
        <ele>87.8</ele>
        <time>2018-01-07T12:10:49Z</time>
      </trkpt>
      <trkpt lat="62.652735770984" lon="17.851127392994">
        <ele>87.8</ele>
        <time>2018-01-07T12:10:50Z</time>
      </trkpt>
      <trkpt lat="62.652758150657" lon="17.851094033032">
        <ele>88</ele>
        <time>2018-01-07T12:10:51Z</time>
      </trkpt>
      <trkpt lat="62.652771896973" lon="17.851075341395">
        <ele>88.2</ele>
        <time>2018-01-07T12:10:52Z</time>
      </trkpt>
      <trkpt lat="62.652792097352" lon="17.851055308654">
        <ele>88.4</ele>
        <time>2018-01-07T12:10:53Z</time>
      </trkpt>
      <trkpt lat="62.652811878636" lon="17.851024547081">
        <ele>88.8</ele>
        <time>2018-01-07T12:10:54Z</time>
      </trkpt>
      <trkpt lat="62.652831324644" lon="17.85100199977">
        <ele>89</ele>
        <time>2018-01-07T12:10:55Z</time>
      </trkpt>
      <trkpt lat="62.652844400408" lon="17.850967466342">
        <ele>89.2</ele>
        <time>2018-01-07T12:10:56Z</time>
      </trkpt>
      <trkpt lat="62.652857979086" lon="17.85093745914">
        <ele>89.2</ele>
        <time>2018-01-07T12:10:57Z</time>
      </trkpt>
      <trkpt lat="62.65286434933" lon="17.850879791668">
        <ele>89.2</ele>
        <time>2018-01-07T12:10:58Z</time>
      </trkpt>
      <trkpt lat="62.652872898868" lon="17.850826985698">
        <ele>89.2</ele>
        <time>2018-01-07T12:10:59Z</time>
      </trkpt>
      <trkpt lat="62.652883040967" lon="17.850773592995">
        <ele>89.2</ele>
        <time>2018-01-07T12:11:00Z</time>
      </trkpt>
      <trkpt lat="62.652896535826" lon="17.850720535568">
        <ele>89.4</ele>
        <time>2018-01-07T12:11:01Z</time>
      </trkpt>
      <trkpt lat="62.65290542064" lon="17.850673261652">
        <ele>89.4</ele>
        <time>2018-01-07T12:11:02Z</time>
      </trkpt>
      <trkpt lat="62.652914473092" lon="17.850626574469">
        <ele>89.4</ele>
        <time>2018-01-07T12:11:03Z</time>
      </trkpt>
      <trkpt lat="62.652916652386" lon="17.850575109603">
        <ele>89.4</ele>
        <time>2018-01-07T12:11:04Z</time>
      </trkpt>
      <trkpt lat="62.652921765345" lon="17.850518867054">
        <ele>89.6</ele>
        <time>2018-01-07T12:11:05Z</time>
      </trkpt>
      <trkpt lat="62.652925201924" lon="17.850454829338">
        <ele>89.6</ele>
        <time>2018-01-07T12:11:06Z</time>
      </trkpt>
      <trkpt lat="62.65293056634" lon="17.850391545993">
        <ele>89.6</ele>
        <time>2018-01-07T12:11:07Z</time>
      </trkpt>
      <trkpt lat="62.65293643367" lon="17.850310660658">
        <ele>89.8</ele>
        <time>2018-01-07T12:11:08Z</time>
      </trkpt>
      <trkpt lat="62.652938193869" lon="17.850252825548">
        <ele>89.8</ele>
        <time>2018-01-07T12:11:09Z</time>
      </trkpt>
      <trkpt lat="62.652942384819" lon="17.850204126709">
        <ele>89.6</ele>
        <time>2018-01-07T12:11:10Z</time>
      </trkpt>
      <trkpt lat="62.652944228837" lon="17.850107818678">
        <ele>89.6</ele>
        <time>2018-01-07T12:11:11Z</time>
      </trkpt>
      <trkpt lat="62.652953532746" lon="17.850038165089">
        <ele>89.6</ele>
        <time>2018-01-07T12:11:12Z</time>
      </trkpt>
      <trkpt lat="62.65296409394" lon="17.849970271699">
        <ele>89.4</ele>
        <time>2018-01-07T12:11:13Z</time>
      </trkpt>
      <trkpt lat="62.652970967098" lon="17.849919142109">
        <ele>89.2</ele>
        <time>2018-01-07T12:11:14Z</time>
      </trkpt>
      <trkpt lat="62.652986305975" lon="17.849857786601">
        <ele>89</ele>
        <time>2018-01-07T12:11:15Z</time>
      </trkpt>
      <trkpt lat="62.652991586572" lon="17.849817888757">
        <ele>89</ele>
        <time>2018-01-07T12:11:16Z</time>
      </trkpt>
      <trkpt lat="62.653003991784" lon="17.849758544905">
        <ele>89</ele>
        <time>2018-01-07T12:11:17Z</time>
      </trkpt>
      <trkpt lat="62.653011535494" lon="17.849682772529">
        <ele>89</ele>
        <time>2018-01-07T12:11:18Z</time>
      </trkpt>
      <trkpt lat="62.653016313177" lon="17.84963994102">
        <ele>89</ele>
        <time>2018-01-07T12:11:19Z</time>
      </trkpt>
      <trkpt lat="62.653028718389" lon="17.849574226924">
        <ele>89</ele>
        <time>2018-01-07T12:11:20Z</time>
      </trkpt>
      <trkpt lat="62.653032071149" lon="17.849519996031">
        <ele>89</ele>
        <time>2018-01-07T12:11:21Z</time>
      </trkpt>
      <trkpt lat="62.653045314551" lon="17.849451767365">
        <ele>89</ele>
        <time>2018-01-07T12:11:22Z</time>
      </trkpt>
      <trkpt lat="62.653056630116" lon="17.849377922826">
        <ele>89</ele>
        <time>2018-01-07T12:11:23Z</time>
      </trkpt>
      <trkpt lat="62.653066604577" lon="17.849326122684">
        <ele>89</ele>
        <time>2018-01-07T12:11:24Z</time>
      </trkpt>
      <trkpt lat="62.653073645373" lon="17.849263845167">
        <ele>89.2</ele>
        <time>2018-01-07T12:11:25Z</time>
      </trkpt>
      <trkpt lat="62.653082362549" lon="17.849215900699">
        <ele>89</ele>
        <time>2018-01-07T12:11:26Z</time>
      </trkpt>
      <trkpt lat="62.653092169372" lon="17.849145241282">
        <ele>89</ele>
        <time>2018-01-07T12:11:27Z</time>
      </trkpt>
      <trkpt lat="62.65309904253" lon="17.84908505924">
        <ele>89</ele>
        <time>2018-01-07T12:11:28Z</time>
      </trkpt>
      <trkpt lat="62.653099545444" lon="17.849028313777">
        <ele>89</ele>
        <time>2018-01-07T12:11:29Z</time>
      </trkpt>
      <trkpt lat="62.653103401118" lon="17.848957319084">
        <ele>89</ele>
        <time>2018-01-07T12:11:30Z</time>
      </trkpt>
      <trkpt lat="62.653098120521" lon="17.848883306907">
        <ele>89.2</ele>
        <time>2018-01-07T12:11:31Z</time>
      </trkpt>
      <trkpt lat="62.653098455797" lon="17.848817508992">
        <ele>89.2</ele>
        <time>2018-01-07T12:11:32Z</time>
      </trkpt>
      <trkpt lat="62.653095103037" lon="17.848734192906">
        <ele>89</ele>
        <time>2018-01-07T12:11:33Z</time>
      </trkpt>
      <trkpt lat="62.65309401339" lon="17.848676944529">
        <ele>89.2</ele>
        <time>2018-01-07T12:11:34Z</time>
      </trkpt>
      <trkpt lat="62.653094516304" lon="17.848602010343">
        <ele>89.2</ele>
        <time>2018-01-07T12:11:35Z</time>
      </trkpt>
      <trkpt lat="62.653091834096" lon="17.848526237967">
        <ele>89.2</ele>
        <time>2018-01-07T12:11:36Z</time>
      </trkpt>
      <trkpt lat="62.65308898425" lon="17.848436719275">
        <ele>89</ele>
        <time>2018-01-07T12:11:37Z</time>
      </trkpt>
      <trkpt lat="62.653082194911" lon="17.848345691841">
        <ele>89</ele>
        <time>2018-01-07T12:11:38Z</time>
      </trkpt>
      <trkpt lat="62.65308060235" lon="17.848277211718">
        <ele>88.8</ele>
        <time>2018-01-07T12:11:39Z</time>
      </trkpt>
      <trkpt lat="62.653069454423" lon="17.848198924772">
        <ele>88.8</ele>
        <time>2018-01-07T12:11:40Z</time>
      </trkpt>
      <trkpt lat="62.653063167998" lon="17.848127510984">
        <ele>88.6</ele>
        <time>2018-01-07T12:11:41Z</time>
      </trkpt>
      <trkpt lat="62.653056797754" lon="17.848041009776">
        <ele>88.4</ele>
        <time>2018-01-07T12:11:42Z</time>
      </trkpt>
      <trkpt lat="62.653050846605" lon="17.847949395609">
        <ele>88.2</ele>
        <time>2018-01-07T12:11:43Z</time>
      </trkpt>
      <trkpt lat="62.65304120742" lon="17.847851495017">
        <ele>87.8</ele>
        <time>2018-01-07T12:11:44Z</time>
      </trkpt>
      <trkpt lat="62.65303534009" lon="17.847748481466">
        <ele>87.2</ele>
        <time>2018-01-07T12:11:45Z</time>
      </trkpt>
      <trkpt lat="62.65302695819" lon="17.847648904494">
        <ele>86.8</ele>
        <time>2018-01-07T12:11:46Z</time>
      </trkpt>
      <trkpt lat="62.653020336489" lon="17.847551925911">
        <ele>86.2</ele>
        <time>2018-01-07T12:11:47Z</time>
      </trkpt>
      <trkpt lat="62.65301438534" lon="17.847438183528">
        <ele>85.4</ele>
        <time>2018-01-07T12:11:48Z</time>
      </trkpt>
      <trkpt lat="62.65300516525" lon="17.847332655407">
        <ele>85</ele>
        <time>2018-01-07T12:11:49Z</time>
      </trkpt>
      <trkpt lat="62.653000722843" lon="17.847251602434">
        <ele>85</ele>
        <time>2018-01-07T12:11:50Z</time>
      </trkpt>
      <trkpt lat="62.652996867169" lon="17.847143224467">
        <ele>85</ele>
        <time>2018-01-07T12:11:51Z</time>
      </trkpt>
      <trkpt lat="62.652994436418" lon="17.847064937521">
        <ele>85</ele>
        <time>2018-01-07T12:11:52Z</time>
      </trkpt>
      <trkpt lat="62.652994184961" lon="17.846971395517">
        <ele>85.2</ele>
        <time>2018-01-07T12:11:53Z</time>
      </trkpt>
      <trkpt lat="62.653002902137" lon="17.846885816318">
        <ele>85.6</ele>
        <time>2018-01-07T12:11:54Z</time>
      </trkpt>
      <trkpt lat="62.65300600344" lon="17.846826472466">
        <ele>85.6</ele>
        <time>2018-01-07T12:11:55Z</time>
      </trkpt>
      <trkpt lat="62.653008937105" lon="17.846757321791">
        <ele>85.4</ele>
        <time>2018-01-07T12:11:56Z</time>
      </trkpt>
      <trkpt lat="62.653023940706" lon="17.846688422573">
        <ele>85.6</ele>
        <time>2018-01-07T12:11:57Z</time>
      </trkpt>
      <trkpt lat="62.653037938479" lon="17.846616254414">
        <ele>85.4</ele>
        <time>2018-01-07T12:11:58Z</time>
      </trkpt>
      <trkpt lat="62.653051014243" lon="17.846558335485">
        <ele>85.4</ele>
        <time>2018-01-07T12:11:59Z</time>
      </trkpt>
      <trkpt lat="62.653068532414" lon="17.846501590022">
        <ele>85.2</ele>
        <time>2018-01-07T12:12:00Z</time>
      </trkpt>
      <trkpt lat="62.653081356721" lon="17.846444593102">
        <ele>85.2</ele>
        <time>2018-01-07T12:12:01Z</time>
      </trkpt>
      <trkpt lat="62.653104406946" lon="17.846391368037">
        <ele>85.2</ele>
        <time>2018-01-07T12:12:02Z</time>
      </trkpt>
      <trkpt lat="62.653127960085" lon="17.846324480475">
        <ele>85</ele>
        <time>2018-01-07T12:12:03Z</time>
      </trkpt>
      <trkpt lat="62.653136425804" lon="17.846274105256">
        <ele>85.2</ele>
        <time>2018-01-07T12:12:04Z</time>
      </trkpt>
      <trkpt lat="62.653165846273" lon="17.8462134203">
        <ele>85.2</ele>
        <time>2018-01-07T12:12:05Z</time>
      </trkpt>
      <trkpt lat="62.653188477403" lon="17.846153154439">
        <ele>85.2</ele>
        <time>2018-01-07T12:12:06Z</time>
      </trkpt>
      <trkpt lat="62.653207420497" lon="17.846096744252">
        <ele>85.2</ele>
        <time>2018-01-07T12:12:07Z</time>
      </trkpt>
      <trkpt lat="62.653233069111" lon="17.84604326773">
        <ele>85.4</ele>
        <time>2018-01-07T12:12:08Z</time>
      </trkpt>
      <trkpt lat="62.653253520947" lon="17.845975290521">
        <ele>85.4</ele>
        <time>2018-01-07T12:12:09Z</time>
      </trkpt>
      <trkpt lat="62.653270284747" lon="17.84591753923">
        <ele>85.6</ele>
        <time>2018-01-07T12:12:10Z</time>
      </trkpt>
      <trkpt lat="62.65330607546" lon="17.845849729659">
        <ele>85.6</ele>
        <time>2018-01-07T12:12:11Z</time>
      </trkpt>
      <trkpt lat="62.653328371314" lon="17.845788877065">
        <ele>85.6</ele>
        <time>2018-01-07T12:12:12Z</time>
      </trkpt>
      <trkpt lat="62.653366592778" lon="17.845727102462">
        <ele>85.4</ele>
        <time>2018-01-07T12:12:13Z</time>
      </trkpt>
      <trkpt lat="62.653394169229" lon="17.845679074175">
        <ele>85.2</ele>
        <time>2018-01-07T12:12:14Z</time>
      </trkpt>
      <trkpt lat="62.653434486168" lon="17.845629788603">
        <ele>85</ele>
        <time>2018-01-07T12:12:15Z</time>
      </trkpt>
      <trkpt lat="62.653476730944" lon="17.845582933782">
        <ele>84.8</ele>
        <time>2018-01-07T12:12:16Z</time>
      </trkpt>
      <trkpt lat="62.653522747575" lon="17.845534905495">
        <ele>84.6</ele>
        <time>2018-01-07T12:12:17Z</time>
      </trkpt>
      <trkpt lat="62.653573625708" lon="17.845480171688">
        <ele>84.2</ele>
        <time>2018-01-07T12:12:18Z</time>
      </trkpt>
      <trkpt lat="62.653617379226" lon="17.845411775384">
        <ele>83.8</ele>
        <time>2018-01-07T12:12:19Z</time>
      </trkpt>
      <trkpt lat="62.653658450536" lon="17.845318987751">
        <ele>83.6</ele>
        <time>2018-01-07T12:12:20Z</time>
      </trkpt>
      <trkpt lat="62.653693486878" lon="17.845197031106">
        <ele>83.4</ele>
        <time>2018-01-07T12:12:21Z</time>
      </trkpt>
      <trkpt lat="62.653720308958" lon="17.845094771926">
        <ele>83.2</ele>
        <time>2018-01-07T12:12:22Z</time>
      </trkpt>
      <trkpt lat="62.653756434947" lon="17.844958985146">
        <ele>82.8</ele>
        <time>2018-01-07T12:12:23Z</time>
      </trkpt>
      <trkpt lat="62.653787867072" lon="17.844851613007">
        <ele>82.6</ele>
        <time>2018-01-07T12:12:24Z</time>
      </trkpt>
      <trkpt lat="62.653818377188" lon="17.844761256125">
        <ele>82</ele>
        <time>2018-01-07T12:12:25Z</time>
      </trkpt>
      <trkpt lat="62.653848887304" lon="17.84467534165">
        <ele>81</ele>
        <time>2018-01-07T12:12:26Z</time>
      </trkpt>
      <trkpt lat="62.653876212298" lon="17.844603508767">
        <ele>80.2</ele>
        <time>2018-01-07T12:12:27Z</time>
      </trkpt>
      <trkpt lat="62.653905800405" lon="17.844528993676">
        <ele>79.4</ele>
        <time>2018-01-07T12:12:28Z</time>
      </trkpt>
      <trkpt lat="62.653941004385" lon="17.844453891852">
        <ele>79.2</ele>
        <time>2018-01-07T12:12:29Z</time>
      </trkpt>
      <trkpt lat="62.653977046555" lon="17.844372671241">
        <ele>79</ele>
        <time>2018-01-07T12:12:30Z</time>
      </trkpt>
      <trkpt lat="62.65401434601" lon="17.8442939652">
        <ele>79.2</ele>
        <time>2018-01-07T12:12:31Z</time>
      </trkpt>
      <trkpt lat="62.654053238026" lon="17.844231184769">
        <ele>79.2</ele>
        <time>2018-01-07T12:12:32Z</time>
      </trkpt>
      <trkpt lat="62.654097494458" lon="17.844176283324">
        <ele>78.8</ele>
        <time>2018-01-07T12:12:33Z</time>
      </trkpt>
      <trkpt lat="62.654139906872" lon="17.844141163163">
        <ele>78.2</ele>
        <time>2018-01-07T12:12:34Z</time>
      </trkpt>
      <trkpt lat="62.654176535775" lon="17.844124399363">
        <ele>77.6</ele>
        <time>2018-01-07T12:12:35Z</time>
      </trkpt>
      <trkpt lat="62.654235292894" lon="17.8440927996">
        <ele>76.8</ele>
        <time>2018-01-07T12:12:36Z</time>
      </trkpt>
      <trkpt lat="62.654282231534" lon="17.8440760358">
        <ele>76</ele>
        <time>2018-01-07T12:12:37Z</time>
      </trkpt>
      <trkpt lat="62.654337552074" lon="17.844052147385">
        <ele>75.2</ele>
        <time>2018-01-07T12:12:38Z</time>
      </trkpt>
      <trkpt lat="62.654388681664" lon="17.844041250915">
        <ele>74.4</ele>
        <time>2018-01-07T12:12:39Z</time>
      </trkpt>
      <trkpt lat="62.654431094078" lon="17.844028342789">
        <ele>73.8</ele>
        <time>2018-01-07T12:12:40Z</time>
      </trkpt>
      <trkpt lat="62.654490102654" lon="17.844014093559">
        <ele>72.8</ele>
        <time>2018-01-07T12:12:41Z</time>
      </trkpt>
      <trkpt lat="62.654550955248" lon="17.844010740799">
        <ele>72.2</ele>
        <time>2018-01-07T12:12:42Z</time>
      </trkpt>
      <trkpt lat="62.654617675172" lon="17.844002945632">
        <ele>71.2</ele>
        <time>2018-01-07T12:12:43Z</time>
      </trkpt>
      <trkpt lat="62.654679114499" lon="17.843991043334">
        <ele>69.8</ele>
        <time>2018-01-07T12:12:44Z</time>
      </trkpt>
      <trkpt lat="62.654739799455" lon="17.843978721941">
        <ele>68.4</ele>
        <time>2018-01-07T12:12:45Z</time>
      </trkpt>
      <trkpt lat="62.654792437787" lon="17.843962377236">
        <ele>67.8</ele>
        <time>2018-01-07T12:12:46Z</time>
      </trkpt>
      <trkpt lat="62.654840298436" lon="17.843940919572">
        <ele>66.6</ele>
        <time>2018-01-07T12:12:47Z</time>
      </trkpt>
      <trkpt lat="62.654889751646" lon="17.843923317582">
        <ele>65.4</ele>
        <time>2018-01-07T12:12:48Z</time>
      </trkpt>
      <trkpt lat="62.654945156005" lon="17.843901357004">
        <ele>64.6</ele>
        <time>2018-01-07T12:12:49Z</time>
      </trkpt>
      <trkpt lat="62.654999973631" lon="17.843880318435">
        <ele>64</ele>
        <time>2018-01-07T12:12:50Z</time>
      </trkpt>
      <trkpt lat="62.655061915872" lon="17.843855256554">
        <ele>63.2</ele>
        <time>2018-01-07T12:12:51Z</time>
      </trkpt>
      <trkpt lat="62.655110949987" lon="17.843823824429">
        <ele>62.6</ele>
        <time>2018-01-07T12:12:52Z</time>
      </trkpt>
      <trkpt lat="62.655172556952" lon="17.843790799743">
        <ele>61.8</ele>
        <time>2018-01-07T12:12:53Z</time>
      </trkpt>
      <trkpt lat="62.655227961311" lon="17.843780741463">
        <ele>61</ele>
        <time>2018-01-07T12:12:54Z</time>
      </trkpt>
      <trkpt lat="62.655279258539" lon="17.843780406187">
        <ele>60.2</ele>
        <time>2018-01-07T12:12:55Z</time>
      </trkpt>
      <trkpt lat="62.655327454464" lon="17.843791135019">
        <ele>59.6</ele>
        <time>2018-01-07T12:12:56Z</time>
      </trkpt>
      <trkpt lat="62.655370369792" lon="17.843811083941">
        <ele>59.2</ele>
        <time>2018-01-07T12:12:57Z</time>
      </trkpt>
      <trkpt lat="62.655419487726" lon="17.84385223907">
        <ele>59</ele>
        <time>2018-01-07T12:12:58Z</time>
      </trkpt>
      <trkpt lat="62.655477239017" lon="17.843898004244">
        <ele>59</ele>
        <time>2018-01-07T12:12:59Z</time>
      </trkpt>
      <trkpt lat="62.655531302272" lon="17.843950977852">
        <ele>59.2</ele>
        <time>2018-01-07T12:13:00Z</time>
      </trkpt>
      <trkpt lat="62.655588969744" lon="17.844006549849">
        <ele>59</ele>
        <time>2018-01-07T12:13:01Z</time>
      </trkpt>
      <trkpt lat="62.655647559225" lon="17.84406681571">
        <ele>58.4</ele>
        <time>2018-01-07T12:13:02Z</time>
      </trkpt>
      <trkpt lat="62.655712267493" lon="17.844146946674">
        <ele>57.6</ele>
        <time>2018-01-07T12:13:03Z</time>
      </trkpt>
      <trkpt lat="62.655770773155" lon="17.84422774819">
        <ele>56.8</ele>
        <time>2018-01-07T12:13:04Z</time>
      </trkpt>
      <trkpt lat="62.655830368464" lon="17.844316261054">
        <ele>56.2</ele>
        <time>2018-01-07T12:13:05Z</time>
      </trkpt>
      <trkpt lat="62.655891137239" lon="17.844411982352">
        <ele>54.8</ele>
        <time>2018-01-07T12:13:06Z</time>
      </trkpt>
      <trkpt lat="62.655941596277" lon="17.844493119144">
        <ele>54.2</ele>
        <time>2018-01-07T12:13:07Z</time>
      </trkpt>
      <trkpt lat="62.655996078627" lon="17.844580542361">
        <ele>53.8</ele>
        <time>2018-01-07T12:13:08Z</time>
      </trkpt>
      <trkpt lat="62.656046286208" lon="17.844661343877">
        <ele>53</ele>
        <time>2018-01-07T12:13:09Z</time>
      </trkpt>
      <trkpt lat="62.656091632287" lon="17.844735020778">
        <ele>52.4</ele>
        <time>2018-01-07T12:13:10Z</time>
      </trkpt>
      <trkpt lat="62.656140582583" lon="17.844812301896">
        <ele>52</ele>
        <time>2018-01-07T12:13:11Z</time>
      </trkpt>
      <trkpt lat="62.656183665549" lon="17.8448806982">
        <ele>51.8</ele>
        <time>2018-01-07T12:13:12Z</time>
      </trkpt>
      <trkpt lat="62.656232029112" lon="17.844944316821">
        <ele>51.6</ele>
        <time>2018-01-07T12:13:13Z</time>
      </trkpt>
      <trkpt lat="62.656279805942" lon="17.845014892419">
        <ele>51.8</ele>
        <time>2018-01-07T12:13:14Z</time>
      </trkpt>
      <trkpt lat="62.65632439765" lon="17.845086222388">
        <ele>52.2</ele>
        <time>2018-01-07T12:13:15Z</time>
      </trkpt>
      <trkpt lat="62.656364882227" lon="17.845149421914">
        <ele>52</ele>
        <time>2018-01-07T12:13:16Z</time>
      </trkpt>
      <trkpt lat="62.656404109519" lon="17.845211447974">
        <ele>51.8</ele>
        <time>2018-01-07T12:13:17Z</time>
      </trkpt>
      <trkpt lat="62.656449707055" lon="17.845284454323">
        <ele>51.6</ele>
        <time>2018-01-07T12:13:18Z</time>
      </trkpt>
      <trkpt lat="62.656492287107" lon="17.845358382681">
        <ele>51.2</ele>
        <time>2018-01-07T12:13:19Z</time>
      </trkpt>
      <trkpt lat="62.656531179123" lon="17.845406662425">
        <ele>51</ele>
        <time>2018-01-07T12:13:20Z</time>
      </trkpt>
      <trkpt lat="62.65657920741" lon="17.845457792015">
        <ele>51</ele>
        <time>2018-01-07T12:13:21Z</time>
      </trkpt>
      <trkpt lat="62.656609214612" lon="17.845465587182">
        <ele>51.2</ele>
        <time>2018-01-07T12:13:22Z</time>
      </trkpt>
      <trkpt lat="62.656660176564" lon="17.845517638781">
        <ele>51.6</ele>
        <time>2018-01-07T12:13:23Z</time>
      </trkpt>
      <trkpt lat="62.656703930082" lon="17.845559380643">
        <ele>51.6</ele>
        <time>2018-01-07T12:13:24Z</time>
      </trkpt>
      <trkpt lat="62.656768722169" lon="17.845689970645">
        <ele>51.6</ele>
        <time>2018-01-07T12:13:26Z</time>
      </trkpt>
      <trkpt lat="62.656799735199" lon="17.845731712507">
        <ele>51.4</ele>
        <time>2018-01-07T12:13:27Z</time>
      </trkpt>
      <trkpt lat="62.656840974147" lon="17.845776220396">
        <ele>51.4</ele>
        <time>2018-01-07T12:13:28Z</time>
      </trkpt>
      <trkpt lat="62.656881458724" lon="17.845824583959">
        <ele>51.4</ele>
        <time>2018-01-07T12:13:29Z</time>
      </trkpt>
      <trkpt lat="62.656914651048" lon="17.84584294032">
        <ele>51.4</ele>
        <time>2018-01-07T12:13:30Z</time>
      </trkpt>
      <trkpt lat="62.656960164765" lon="17.84584964584">
        <ele>51.2</ele>
        <time>2018-01-07T12:13:31Z</time>
      </trkpt>
      <trkpt lat="62.656991177795" lon="17.845838162637">
        <ele>51.4</ele>
        <time>2018-01-07T12:13:32Z</time>
      </trkpt>
      <trkpt lat="62.657032584381" lon="17.845845119614">
        <ele>51.2</ele>
        <time>2018-01-07T12:13:33Z</time>
      </trkpt>
      <trkpt lat="62.657073404234" lon="17.845840593388">
        <ele>51</ele>
        <time>2018-01-07T12:13:34Z</time>
      </trkpt>
      <trkpt lat="62.657106177463" lon="17.845843107958">
        <ele>51</ele>
        <time>2018-01-07T12:13:35Z</time>
      </trkpt>
      <trkpt lat="62.657147332592" lon="17.84585802774">
        <ele>51</ele>
        <time>2018-01-07T12:13:36Z</time>
      </trkpt>
      <trkpt lat="62.657177507432" lon="17.845872109332">
        <ele>50.8</ele>
        <time>2018-01-07T12:13:37Z</time>
      </trkpt>
      <trkpt lat="62.657203156046" lon="17.845892225892">
        <ele>51</ele>
        <time>2018-01-07T12:13:38Z</time>
      </trkpt>
      <trkpt lat="62.657233330886" lon="17.845911336624">
        <ele>51</ele>
        <time>2018-01-07T12:13:39Z</time>
      </trkpt>
      <trkpt lat="62.657257219301" lon="17.845941679102">
        <ele>51</ele>
        <time>2018-01-07T12:13:40Z</time>
      </trkpt>
      <trkpt lat="62.657280269526" lon="17.845969842286">
        <ele>51</ele>
        <time>2018-01-07T12:13:41Z</time>
      </trkpt>
      <trkpt lat="62.657310192909" lon="17.84601141651">
        <ele>51</ele>
        <time>2018-01-07T12:13:42Z</time>
      </trkpt>
      <trkpt lat="62.657338020817" lon="17.846055421485">
        <ele>51</ele>
        <time>2018-01-07T12:13:43Z</time>
      </trkpt>
      <trkpt lat="62.657359143205" lon="17.846092218026">
        <ele>51</ele>
        <time>2018-01-07T12:13:44Z</time>
      </trkpt>
      <trkpt lat="62.657378505394" lon="17.84613965958">
        <ele>51</ele>
        <time>2018-01-07T12:13:45Z</time>
      </trkpt>
      <trkpt lat="62.657399041049" lon="17.846170924067">
        <ele>51.2</ele>
        <time>2018-01-07T12:13:46Z</time>
      </trkpt>
      <trkpt lat="62.657422510369" lon="17.846219036173">
        <ele>51.2</ele>
        <time>2018-01-07T12:13:47Z</time>
      </trkpt>
      <trkpt lat="62.657444973861" lon="17.846302771354">
        <ele>51.4</ele>
        <time>2018-01-07T12:13:48Z</time>
      </trkpt>
      <trkpt lat="62.657466682982" lon="17.846375274789">
        <ele>51.4</ele>
        <time>2018-01-07T12:13:49Z</time>
      </trkpt>
      <trkpt lat="62.657484704067" lon="17.846447862043">
        <ele>51.4</ele>
        <time>2018-01-07T12:13:50Z</time>
      </trkpt>
      <trkpt lat="62.657508341025" lon="17.846523047686">
        <ele>51.4</ele>
        <time>2018-01-07T12:13:51Z</time>
      </trkpt>
      <trkpt lat="62.657520746237" lon="17.846574931647">
        <ele>51.4</ele>
        <time>2018-01-07T12:13:52Z</time>
      </trkpt>
      <trkpt lat="62.657537510037" lon="17.846661768131">
        <ele>51.4</ele>
        <time>2018-01-07T12:13:53Z</time>
      </trkpt>
      <trkpt lat="62.657550166706" lon="17.84675992018">
        <ele>51.2</ele>
        <time>2018-01-07T12:13:54Z</time>
      </trkpt>
      <trkpt lat="62.657571456732" lon="17.846837536574">
        <ele>51</ele>
        <time>2018-01-07T12:13:55Z</time>
      </trkpt>
      <trkpt lat="62.657589142541" lon="17.846910040009">
        <ele>51</ele>
        <time>2018-01-07T12:13:56Z</time>
      </trkpt>
      <trkpt lat="62.657607247445" lon="17.847003162918">
        <ele>51</ele>
        <time>2018-01-07T12:13:57Z</time>
      </trkpt>
      <trkpt lat="62.657625687625" lon="17.847076923638">
        <ele>50.8</ele>
        <time>2018-01-07T12:13:58Z</time>
      </trkpt>
      <trkpt lat="62.65764538509" lon="17.847163592484">
        <ele>50.6</ele>
        <time>2018-01-07T12:13:59Z</time>
      </trkpt>
      <trkpt lat="62.657668100039" lon="17.847249758416">
        <ele>50.6</ele>
        <time>2018-01-07T12:14:00Z</time>
      </trkpt>
      <trkpt lat="62.657699699802" lon="17.847319998738">
        <ele>50.4</ele>
        <time>2018-01-07T12:14:01Z</time>
      </trkpt>
      <trkpt lat="62.657717050335" lon="17.847407338136">
        <ele>50.2</ele>
        <time>2018-01-07T12:14:02Z</time>
      </trkpt>
      <trkpt lat="62.657736999257" lon="17.847488894023">
        <ele>50</ele>
        <time>2018-01-07T12:14:03Z</time>
      </trkpt>
      <trkpt lat="62.657752505772" lon="17.847543711649">
        <ele>49.8</ele>
        <time>2018-01-07T12:14:04Z</time>
      </trkpt>
      <trkpt lat="62.657772957608" lon="17.847630212857">
        <ele>49.6</ele>
        <time>2018-01-07T12:14:05Z</time>
      </trkpt>
      <trkpt lat="62.657795337281" lon="17.847709170355">
        <ele>49.6</ele>
        <time>2018-01-07T12:14:06Z</time>
      </trkpt>
      <trkpt lat="62.657809837968" lon="17.847767173103">
        <ele>49.4</ele>
        <time>2018-01-07T12:14:07Z</time>
      </trkpt>
      <trkpt lat="62.657839928989" lon="17.847863229677">
        <ele>49.4</ele>
        <time>2018-01-07T12:14:08Z</time>
      </trkpt>
      <trkpt lat="62.657859710273" lon="17.847930620153">
        <ele>49.4</ele>
        <time>2018-01-07T12:14:09Z</time>
      </trkpt>
      <trkpt lat="62.657882341403" lon="17.848000273742">
        <ele>49.4</ele>
        <time>2018-01-07T12:14:10Z</time>
      </trkpt>
      <trkpt lat="62.657911007501" lon="17.84806162925">
        <ele>49.6</ele>
        <time>2018-01-07T12:14:11Z</time>
      </trkpt>
      <trkpt lat="62.657927436025" lon="17.84812281712">
        <ele>49.6</ele>
        <time>2018-01-07T12:14:12Z</time>
      </trkpt>
      <trkpt lat="62.657954844838" lon="17.848198757134">
        <ele>49.4</ele>
        <time>2018-01-07T12:14:13Z</time>
      </trkpt>
      <trkpt lat="62.657982505108" lon="17.848257346615">
        <ele>49.2</ele>
        <time>2018-01-07T12:14:14Z</time>
      </trkpt>
      <trkpt lat="62.658010668292" lon="17.84832398272">
        <ele>49.2</ele>
        <time>2018-01-07T12:14:15Z</time>
      </trkpt>
      <trkpt lat="62.658037071277" lon="17.848372681559">
        <ele>49.2</ele>
        <time>2018-01-07T12:14:16Z</time>
      </trkpt>
      <trkpt lat="62.658056265828" lon="17.848418865828">
        <ele>49.2</ele>
        <time>2018-01-07T12:14:17Z</time>
      </trkpt>
      <trkpt lat="62.658089374333" lon="17.848486759218">
        <ele>49</ele>
        <time>2018-01-07T12:14:18Z</time>
      </trkpt>
      <trkpt lat="62.658115358223" lon="17.848536799161">
        <ele>49</ele>
        <time>2018-01-07T12:14:19Z</time>
      </trkpt>
      <trkpt lat="62.658141677389" lon="17.84860561456">
        <ele>49</ele>
        <time>2018-01-07T12:14:20Z</time>
      </trkpt>
      <trkpt lat="62.658170343487" lon="17.848678453271">
        <ele>48.8</ele>
        <time>2018-01-07T12:14:21Z</time>
      </trkpt>
      <trkpt lat="62.658199177223" lon="17.848745173195">
        <ele>48.4</ele>
        <time>2018-01-07T12:14:22Z</time>
      </trkpt>
      <trkpt lat="62.658238320696" lon="17.848825136521">
        <ele>48</ele>
        <time>2018-01-07T12:14:23Z</time>
      </trkpt>
      <trkpt lat="62.658271010106" lon="17.848886911124">
        <ele>48</ele>
        <time>2018-01-07T12:14:24Z</time>
      </trkpt>
      <trkpt lat="62.658305627353" lon="17.848946338795">
        <ele>47.6</ele>
        <time>2018-01-07T12:14:25Z</time>
      </trkpt>
      <trkpt lat="62.658325492456" lon="17.849001324059">
        <ele>47.4</ele>
        <time>2018-01-07T12:14:26Z</time>
      </trkpt>
      <trkpt lat="62.65834443555" lon="17.849032840003">
        <ele>47.6</ele>
        <time>2018-01-07T12:14:27Z</time>
      </trkpt>
      <trkpt lat="62.658367485775" lon="17.849086567982">
        <ele>47.6</ele>
        <time>2018-01-07T12:14:28Z</time>
      </trkpt>
      <trkpt lat="62.658387686154" lon="17.849144738368">
        <ele>47.8</ele>
        <time>2018-01-07T12:14:29Z</time>
      </trkpt>
      <trkpt lat="62.658412077483" lon="17.849209698093">
        <ele>47.6</ele>
        <time>2018-01-07T12:14:30Z</time>
      </trkpt>
      <trkpt lat="62.658436552631" lon="17.84926862285">
        <ele>47.6</ele>
        <time>2018-01-07T12:14:31Z</time>
      </trkpt>
      <trkpt lat="62.658448454929" lon="17.849309358884">
        <ele>47.6</ele>
        <time>2018-01-07T12:14:32Z</time>
      </trkpt>
      <trkpt lat="62.658465889281" lon="17.849394099893">
        <ele>47.8</ele>
        <time>2018-01-07T12:14:33Z</time>
      </trkpt>
      <trkpt lat="62.65848357509" lon="17.849434919746">
        <ele>47.6</ele>
        <time>2018-01-07T12:14:34Z</time>
      </trkpt>
      <trkpt lat="62.658504026926" lon="17.849505579163">
        <ele>47.6</ele>
        <time>2018-01-07T12:14:35Z</time>
      </trkpt>
      <trkpt lat="62.658506038582" lon="17.849593253837">
        <ele>47.6</ele>
        <time>2018-01-07T12:14:36Z</time>
      </trkpt>
      <trkpt lat="62.658506876772" lon="17.849667182195">
        <ele>47.4</ele>
        <time>2018-01-07T12:14:37Z</time>
      </trkpt>
      <trkpt lat="62.658493465732" lon="17.849748821901">
        <ele>47.4</ele>
        <time>2018-01-07T12:14:38Z</time>
      </trkpt>
      <trkpt lat="62.658468320032" lon="17.849809674495">
        <ele>47.2</ele>
        <time>2018-01-07T12:14:39Z</time>
      </trkpt>
      <trkpt lat="62.658448706386" lon="17.849836831851">
        <ele>47</ele>
        <time>2018-01-07T12:14:40Z</time>
      </trkpt>
      <trkpt lat="62.658420627021" lon="17.849855858764">
        <ele>46.8</ele>
        <time>2018-01-07T12:14:41Z</time>
      </trkpt>
      <trkpt lat="62.658408724723" lon="17.849860636447">
        <ele>46.8</ele>
        <time>2018-01-07T12:14:42Z</time>
      </trkpt>
      <trkpt lat="62.658387267059" lon="17.849865246492">
        <ele>47</ele>
        <time>2018-01-07T12:14:43Z</time>
      </trkpt>
      <trkpt lat="62.658365138843" lon="17.849870527089">
        <ele>47.2</ele>
        <time>2018-01-07T12:14:44Z</time>
      </trkpt>
      <trkpt lat="62.658341334247" lon="17.849877651704">
        <ele>47.6</ele>
        <time>2018-01-07T12:14:45Z</time>
      </trkpt>
      <trkpt lat="62.658323816076" lon="17.849877400247">
        <ele>47.8</ele>
        <time>2018-01-07T12:14:46Z</time>
      </trkpt>
      <trkpt lat="62.658304370068" lon="17.849877819342">
        <ele>47.8</ele>
        <time>2018-01-07T12:14:47Z</time>
      </trkpt>
      <trkpt lat="62.658285343155" lon="17.849878657532">
        <ele>47.8</ele>
        <time>2018-01-07T12:14:48Z</time>
      </trkpt>
      <trkpt lat="62.658266735337" lon="17.849882513206">
        <ele>47.6</ele>
        <time>2018-01-07T12:14:49Z</time>
      </trkpt>
      <trkpt lat="62.658248211338" lon="17.849883770491">
        <ele>47.8</ele>
        <time>2018-01-07T12:14:50Z</time>
      </trkpt>
      <trkpt lat="62.658228178597" lon="17.84988133974">
        <ele>47.8</ele>
        <time>2018-01-07T12:14:51Z</time>
      </trkpt>
      <trkpt lat="62.658208984046" lon="17.849881675016">
        <ele>47.8</ele>
        <time>2018-01-07T12:14:52Z</time>
      </trkpt>
      <trkpt lat="62.658187274925" lon="17.849887877622">
        <ele>48</ele>
        <time>2018-01-07T12:14:53Z</time>
      </trkpt>
      <trkpt lat="62.658169337659" lon="17.849891230382">
        <ele>48</ele>
        <time>2018-01-07T12:14:54Z</time>
      </trkpt>
      <trkpt lat="62.658140168647" lon="17.849893409676">
        <ele>48</ele>
        <time>2018-01-07T12:14:55Z</time>
      </trkpt>
      <trkpt lat="62.658115274404" lon="17.849895840427">
        <ele>48.4</ele>
        <time>2018-01-07T12:14:56Z</time>
      </trkpt>
      <trkpt lat="62.658100270803" lon="17.849903467956">
        <ele>48.6</ele>
        <time>2018-01-07T12:14:57Z</time>
      </trkpt>
      <trkpt lat="62.658070179782" lon="17.849907491268">
        <ele>48.6</ele>
        <time>2018-01-07T12:14:58Z</time>
      </trkpt>
      <trkpt lat="62.658042938607" lon="17.84991235277">
        <ele>48.8</ele>
        <time>2018-01-07T12:14:59Z</time>
      </trkpt>
      <trkpt lat="62.658022905866" lon="17.849919561204">
        <ele>48.8</ele>
        <time>2018-01-07T12:15:00Z</time>
      </trkpt>
      <trkpt lat="62.657986779877" lon="17.849920483213">
        <ele>48.6</ele>
        <time>2018-01-07T12:15:01Z</time>
      </trkpt>
      <trkpt lat="62.657959454883" lon="17.849923584516">
        <ele>48.6</ele>
        <time>2018-01-07T12:15:02Z</time>
      </trkpt>
      <trkpt lat="62.657933051898" lon="17.849926434362">
        <ele>48.6</ele>
        <time>2018-01-07T12:15:03Z</time>
      </trkpt>
      <trkpt lat="62.657905475447" lon="17.84992492562">
        <ele>48.6</ele>
        <time>2018-01-07T12:15:04Z</time>
      </trkpt>
      <trkpt lat="62.657880245928" lon="17.849914699702">
        <ele>48.6</ele>
        <time>2018-01-07T12:15:05Z</time>
      </trkpt>
      <trkpt lat="62.657859374997" lon="17.849905060517">
        <ele>48.8</ele>
        <time>2018-01-07T12:15:06Z</time>
      </trkpt>
      <trkpt lat="62.657844203758" lon="17.849901372481">
        <ele>48.8</ele>
        <time>2018-01-07T12:15:07Z</time>
      </trkpt>
      <trkpt lat="62.657829535433" lon="17.849902210671">
        <ele>49</ele>
        <time>2018-01-07T12:15:08Z</time>
      </trkpt>
      <trkpt lat="62.657812603995" lon="17.849897181531">
        <ele>49.2</ele>
        <time>2018-01-07T12:15:09Z</time>
      </trkpt>
      <trkpt lat="62.657797516575" lon="17.849889805459">
        <ele>49.2</ele>
        <time>2018-01-07T12:15:10Z</time>
      </trkpt>
      <trkpt lat="62.657779830766" lon="17.849887290889">
        <ele>49.4</ele>
        <time>2018-01-07T12:15:11Z</time>
      </trkpt>
      <trkpt lat="62.657764994803" lon="17.849884021948">
        <ele>49.6</ele>
        <time>2018-01-07T12:15:12Z</time>
      </trkpt>
      <trkpt lat="62.657747392813" lon="17.849876813514">
        <ele>49.8</ele>
        <time>2018-01-07T12:15:13Z</time>
      </trkpt>
      <trkpt lat="62.657732892126" lon="17.849872287288">
        <ele>49.8</ele>
        <time>2018-01-07T12:15:14Z</time>
      </trkpt>
      <trkpt lat="62.657708836073" lon="17.849866839053">
        <ele>50.2</ele>
        <time>2018-01-07T12:15:15Z</time>
      </trkpt>
      <trkpt lat="62.657687797504" lon="17.849868180157">
        <ele>50.4</ele>
        <time>2018-01-07T12:15:16Z</time>
      </trkpt>
      <trkpt lat="62.657656868293" lon="17.849866671415">
        <ele>50.6</ele>
        <time>2018-01-07T12:15:17Z</time>
      </trkpt>
      <trkpt lat="62.657644882176" lon="17.849871197641">
        <ele>50.8</ele>
        <time>2018-01-07T12:15:18Z</time>
      </trkpt>
      <trkpt lat="62.657628118376" lon="17.849877400247">
        <ele>51</ele>
        <time>2018-01-07T12:15:19Z</time>
      </trkpt>
      <trkpt lat="62.657602218305" lon="17.849881172102">
        <ele>51</ele>
        <time>2018-01-07T12:15:20Z</time>
      </trkpt>
      <trkpt lat="62.657579419537" lon="17.849889805459">
        <ele>51.2</ele>
        <time>2018-01-07T12:15:21Z</time>
      </trkpt>
      <trkpt lat="62.657560560262" lon="17.849894583142">
        <ele>51.2</ele>
        <time>2018-01-07T12:15:22Z</time>
      </trkpt>
      <trkpt lat="62.657542958272" lon="17.849901372481">
        <ele>51.2</ele>
        <time>2018-01-07T12:15:23Z</time>
      </trkpt>
      <trkpt lat="62.65753222944" lon="17.849900869567">
        <ele>51.2</ele>
        <time>2018-01-07T12:15:24Z</time>
      </trkpt>
      <trkpt lat="62.657518566943" lon="17.849901623938">
        <ele>51.6</ele>
        <time>2018-01-07T12:15:25Z</time>
      </trkpt>
      <trkpt lat="62.657508592482" lon="17.84991402915">
        <ele>51.6</ele>
        <time>2018-01-07T12:15:26Z</time>
      </trkpt>
      <trkpt lat="62.657502138419" lon="17.849924674163">
        <ele>51.8</ele>
        <time>2018-01-07T12:15:27Z</time>
      </trkpt>
      <trkpt lat="62.65749115813" lon="17.849932134054">
        <ele>52</ele>
        <time>2018-01-07T12:15:28Z</time>
      </trkpt>
      <trkpt lat="62.657477411814" lon="17.849945796551">
        <ele>52.2</ele>
        <time>2018-01-07T12:15:29Z</time>
      </trkpt>
      <trkpt lat="62.657466766801" lon="17.849952250614">
        <ele>52.4</ele>
        <time>2018-01-07T12:15:30Z</time>
      </trkpt>
      <trkpt lat="62.65745092501" lon="17.849963147084">
        <ele>52.6</ele>
        <time>2018-01-07T12:15:31Z</time>
      </trkpt>
      <trkpt lat="62.657443213662" lon="17.849966583663">
        <ele>52.6</ele>
        <time>2018-01-07T12:15:32Z</time>
      </trkpt>
      <trkpt lat="62.657430556993" lon="17.849975133201">
        <ele>52.8</ele>
        <time>2018-01-07T12:15:33Z</time>
      </trkpt>
      <trkpt lat="62.657420247256" lon="17.849975133201">
        <ele>53</ele>
        <time>2018-01-07T12:15:34Z</time>
      </trkpt>
      <trkpt lat="62.657409350786" lon="17.849979994703">
        <ele>53</ele>
        <time>2018-01-07T12:15:35Z</time>
      </trkpt>
      <trkpt lat="62.657395353013" lon="17.849987370775">
        <ele>53.4</ele>
        <time>2018-01-07T12:15:36Z</time>
      </trkpt>
      <trkpt lat="62.657384456543" lon="17.849994243933">
        <ele>53.6</ele>
        <time>2018-01-07T12:15:37Z</time>
      </trkpt>
      <trkpt lat="62.657373560073" lon="17.849998351064">
        <ele>54</ele>
        <time>2018-01-07T12:15:38Z</time>
      </trkpt>
      <trkpt lat="62.657365932544" lon="17.85000539186">
        <ele>54.2</ele>
        <time>2018-01-07T12:15:39Z</time>
      </trkpt>
      <trkpt lat="62.657353443513" lon="17.850010421">
        <ele>54.4</ele>
        <time>2018-01-07T12:15:40Z</time>
      </trkpt>
      <trkpt lat="62.657335506247" lon="17.850019389633">
        <ele>54.6</ele>
        <time>2018-01-07T12:15:41Z</time>
      </trkpt>
      <trkpt lat="62.657324525958" lon="17.850024921687">
        <ele>55</ele>
        <time>2018-01-07T12:15:42Z</time>
      </trkpt>
      <trkpt lat="62.657309103262" lon="17.85003221394">
        <ele>55</ele>
        <time>2018-01-07T12:15:43Z</time>
      </trkpt>
      <trkpt lat="62.657296781869" lon="17.850036823985">
        <ele>55.2</ele>
        <time>2018-01-07T12:15:44Z</time>
      </trkpt>
      <trkpt lat="62.657285717761" lon="17.850040847297">
        <ele>55.4</ele>
        <time>2018-01-07T12:15:45Z</time>
      </trkpt>
      <trkpt lat="62.657274402196" lon="17.850046798446">
        <ele>55.4</ele>
        <time>2018-01-07T12:15:46Z</time>
      </trkpt>
      <trkpt lat="62.657261829346" lon="17.850053587785">
        <ele>55.6</ele>
        <time>2018-01-07T12:15:47Z</time>
      </trkpt>
      <trkpt lat="62.657251519609" lon="17.850066412092">
        <ele>55.8</ele>
        <time>2018-01-07T12:15:48Z</time>
      </trkpt>
      <trkpt lat="62.65724053932" lon="17.850075045449">
        <ele>56</ele>
        <time>2018-01-07T12:15:49Z</time>
      </trkpt>
      <trkpt lat="62.657232408877" lon="17.850082840616">
        <ele>56.4</ele>
        <time>2018-01-07T12:15:50Z</time>
      </trkpt>
      <trkpt lat="62.657224781348" lon="17.850091054878">
        <ele>56.6</ele>
        <time>2018-01-07T12:15:51Z</time>
      </trkpt>
      <trkpt lat="62.657216064172" lon="17.85009507819">
        <ele>56.6</ele>
        <time>2018-01-07T12:15:52Z</time>
      </trkpt>
      <trkpt lat="62.657203072227" lon="17.850103879185">
        <ele>57</ele>
        <time>2018-01-07T12:15:53Z</time>
      </trkpt>
      <trkpt lat="62.657190499377" lon="17.850114859474">
        <ele>57</ele>
        <time>2018-01-07T12:15:54Z</time>
      </trkpt>
      <trkpt lat="62.657178010346" lon="17.850126594134">
        <ele>57.2</ele>
        <time>2018-01-07T12:15:55Z</time>
      </trkpt>
      <trkpt lat="62.657165353677" lon="17.850139753717">
        <ele>57.2</ele>
        <time>2018-01-07T12:15:56Z</time>
      </trkpt>
      <trkpt lat="62.657152445551" lon="17.850152494205">
        <ele>57.4</ele>
        <time>2018-01-07T12:15:57Z</time>
      </trkpt>
      <trkpt lat="62.657142051995" lon="17.850155930784">
        <ele>57.6</ele>
        <time>2018-01-07T12:15:58Z</time>
      </trkpt>
      <trkpt lat="62.657133167181" lon="17.850160037915">
        <ele>57.6</ele>
        <time>2018-01-07T12:15:59Z</time>
      </trkpt>
      <trkpt lat="62.657121181064" lon="17.850168419815">
        <ele>57.8</ele>
        <time>2018-01-07T12:16:00Z</time>
      </trkpt>
      <trkpt lat="62.657111122784" lon="17.850174873878">
        <ele>58</ele>
        <time>2018-01-07T12:16:01Z</time>
      </trkpt>
      <trkpt lat="62.657101064504" lon="17.850184261606">
        <ele>58.2</ele>
        <time>2018-01-07T12:16:02Z</time>
      </trkpt>
      <trkpt lat="62.657085641808" lon="17.850195493352">
        <ele>58.6</ele>
        <time>2018-01-07T12:16:03Z</time>
      </trkpt>
      <trkpt lat="62.657081450858" lon="17.850201360682">
        <ele>58.8</ele>
        <time>2018-01-07T12:16:04Z</time>
      </trkpt>
      <trkpt lat="62.65707206313" lon="17.850208904392">
        <ele>59.2</ele>
        <time>2018-01-07T12:16:05Z</time>
      </trkpt>
      <trkpt lat="62.657057730081" lon="17.85021577755">
        <ele>59.6</ele>
        <time>2018-01-07T12:16:06Z</time>
      </trkpt>
      <trkpt lat="62.657047252706" lon="17.850224327088">
        <ele>59.8</ele>
        <time>2018-01-07T12:16:07Z</time>
      </trkpt>
      <trkpt lat="62.657036356236" lon="17.850230110599">
        <ele>60</ele>
        <time>2018-01-07T12:16:08Z</time>
      </trkpt>
      <trkpt lat="62.657024873033" lon="17.850231786979">
        <ele>60</ele>
        <time>2018-01-07T12:16:09Z</time>
      </trkpt>
      <trkpt lat="62.657011797269" lon="17.850233798635">
        <ele>60.2</ele>
        <time>2018-01-07T12:16:10Z</time>
      </trkpt>
      <trkpt lat="62.656996206935" lon="17.850236648481">
        <ele>60.4</ele>
        <time>2018-01-07T12:16:11Z</time>
      </trkpt>
      <trkpt lat="62.656985226646" lon="17.850227176934">
        <ele>60.4</ele>
        <time>2018-01-07T12:16:12Z</time>
      </trkpt>
      <trkpt lat="62.656971815606" lon="17.850228937133">
        <ele>60.6</ele>
        <time>2018-01-07T12:16:13Z</time>
      </trkpt>
      <trkpt lat="62.656955638539" lon="17.850232625169">
        <ele>60.8</ele>
        <time>2018-01-07T12:16:14Z</time>
      </trkpt>
      <trkpt lat="62.656933677961" lon="17.850237486671">
        <ele>60.8</ele>
        <time>2018-01-07T12:16:15Z</time>
      </trkpt>
      <trkpt lat="62.656916075971" lon="17.85023421773">
        <ele>61</ele>
        <time>2018-01-07T12:16:16Z</time>
      </trkpt>
      <trkpt lat="62.656902832569" lon="17.850235139739">
        <ele>61</ele>
        <time>2018-01-07T12:16:17Z</time>
      </trkpt>
      <trkpt lat="62.656888583339" lon="17.850233044264">
        <ele>61.2</ele>
        <time>2018-01-07T12:16:18Z</time>
      </trkpt>
      <trkpt lat="62.656870813711" lon="17.850227260753">
        <ele>61.2</ele>
        <time>2018-01-07T12:16:19Z</time>
      </trkpt>
      <trkpt lat="62.65685413373" lon="17.850217621568">
        <ele>61.4</ele>
        <time>2018-01-07T12:16:20Z</time>
      </trkpt>
      <trkpt lat="62.656838040482" lon="17.85021074841">
        <ele>61.4</ele>
        <time>2018-01-07T12:16:21Z</time>
      </trkpt>
      <trkpt lat="62.656825886727" lon="17.850206808917">
        <ele>61.6</ele>
        <time>2018-01-07T12:16:22Z</time>
      </trkpt>
      <trkpt lat="62.656810715488" lon="17.850203037062">
        <ele>61.8</ele>
        <time>2018-01-07T12:16:23Z</time>
      </trkpt>
      <trkpt lat="62.656797639724" lon="17.850199684302">
        <ele>61.8</ele>
        <time>2018-01-07T12:16:24Z</time>
      </trkpt>
      <trkpt lat="62.656781881752" lon="17.850195828628">
        <ele>62</ele>
        <time>2018-01-07T12:16:25Z</time>
      </trkpt>
      <trkpt lat="62.656765453228" lon="17.850186524719">
        <ele>62</ele>
        <time>2018-01-07T12:16:26Z</time>
      </trkpt>
      <trkpt lat="62.656750701084" lon="17.850181747036">
        <ele>62</ele>
        <time>2018-01-07T12:16:27Z</time>
      </trkpt>
      <trkpt lat="62.656731422714" lon="17.85017638262">
        <ele>62.2</ele>
        <time>2018-01-07T12:16:28Z</time>
      </trkpt>
      <trkpt lat="62.656716251475" lon="17.850178729552">
        <ele>62.4</ele>
        <time>2018-01-07T12:16:29Z</time>
      </trkpt>
      <trkpt lat="62.656684400255" lon="17.85017470624">
        <ele>62.4</ele>
        <time>2018-01-07T12:16:30Z</time>
      </trkpt>
      <trkpt lat="62.656670821577" lon="17.850180238294">
        <ele>62.6</ele>
        <time>2018-01-07T12:16:31Z</time>
      </trkpt>
      <trkpt lat="62.656653219587" lon="17.850179651561">
        <ele>62.8</ele>
        <time>2018-01-07T12:16:32Z</time>
      </trkpt>
      <trkpt lat="62.65662949881" lon="17.850176214982">
        <ele>62.6</ele>
        <time>2018-01-07T12:16:33Z</time>
      </trkpt>
      <trkpt lat="62.656609968983" lon="17.850174538602">
        <ele>62.8</ele>
        <time>2018-01-07T12:16:34Z</time>
      </trkpt>
      <trkpt lat="62.656591864079" lon="17.850172107851">
        <ele>62.8</ele>
        <time>2018-01-07T12:16:35Z</time>
      </trkpt>
      <trkpt lat="62.656574345908" lon="17.850174035688">
        <ele>62.6</ele>
        <time>2018-01-07T12:16:36Z</time>
      </trkpt>
      <trkpt lat="62.656558839393" lon="17.850170180014">
        <ele>62.8</ele>
        <time>2018-01-07T12:16:37Z</time>
      </trkpt>
      <trkpt lat="62.65654567981" lon="17.850178059">
        <ele>62.8</ele>
        <time>2018-01-07T12:16:38Z</time>
      </trkpt>
      <trkpt lat="62.656514918237" lon="17.850186859995">
        <ele>63.2</ele>
        <time>2018-01-07T12:16:39Z</time>
      </trkpt>
      <trkpt lat="62.656495220772" lon="17.850193481696">
        <ele>63.4</ele>
        <time>2018-01-07T12:16:40Z</time>
      </trkpt>
      <trkpt lat="62.656471835271" lon="17.850205803089">
        <ele>63.6</ele>
        <time>2018-01-07T12:16:41Z</time>
      </trkpt>
      <trkpt lat="62.656446438114" lon="17.850219297948">
        <ele>63.8</ele>
        <time>2018-01-07T12:16:42Z</time>
      </trkpt>
      <trkpt lat="62.656427411201" lon="17.850230110599">
        <ele>63.8</ele>
        <time>2018-01-07T12:16:43Z</time>
      </trkpt>
      <trkpt lat="62.656408468107" lon="17.850247209675">
        <ele>63.8</ele>
        <time>2018-01-07T12:16:44Z</time>
      </trkpt>
      <trkpt lat="62.656389608832" lon="17.850262632371">
        <ele>63.8</ele>
        <time>2018-01-07T12:16:45Z</time>
      </trkpt>
      <trkpt lat="62.656370330462" lon="17.850274953764">
        <ele>63.6</ele>
        <time>2018-01-07T12:16:46Z</time>
      </trkpt>
      <trkpt lat="62.656349962445" lon="17.850294315953">
        <ele>63.6</ele>
        <time>2018-01-07T12:16:47Z</time>
      </trkpt>
      <trkpt lat="62.656328337143" lon="17.850316192712">
        <ele>63.6</ele>
        <time>2018-01-07T12:16:48Z</time>
      </trkpt>
      <trkpt lat="62.656313333542" lon="17.850328514105">
        <ele>63.8</ele>
        <time>2018-01-07T12:16:49Z</time>
      </trkpt>
      <trkpt lat="62.656295312457" lon="17.850347038104">
        <ele>64</ele>
        <time>2018-01-07T12:16:50Z</time>
      </trkpt>
      <trkpt lat="62.65628248815" lon="17.850357096384">
        <ele>64.2</ele>
        <time>2018-01-07T12:16:51Z</time>
      </trkpt>
      <trkpt lat="62.656272262232" lon="17.850370675062">
        <ele>64.4</ele>
        <time>2018-01-07T12:16:52Z</time>
      </trkpt>
      <trkpt lat="62.656264383246" lon="17.85039347383">
        <ele>64.6</ele>
        <time>2018-01-07T12:16:53Z</time>
      </trkpt>
      <trkpt lat="62.656254408785" lon="17.850419792996">
        <ele>64.8</ele>
        <time>2018-01-07T12:16:54Z</time>
      </trkpt>
      <trkpt lat="62.656243009401" lon="17.850436472977">
        <ele>65</ele>
        <time>2018-01-07T12:16:55Z</time>
      </trkpt>
      <trkpt lat="62.656233621673" lon="17.850448459094">
        <ele>65.6</ele>
        <time>2018-01-07T12:16:56Z</time>
      </trkpt>
      <trkpt lat="62.656223563393" lon="17.850457427727">
        <ele>65.8</ele>
        <time>2018-01-07T12:16:57Z</time>
      </trkpt>
      <trkpt lat="62.656213588932" lon="17.850471593138">
        <ele>65.8</ele>
        <time>2018-01-07T12:16:58Z</time>
      </trkpt>
      <trkpt lat="62.6562028601" lon="17.850480058857">
        <ele>66</ele>
        <time>2018-01-07T12:16:59Z</time>
      </trkpt>
      <trkpt lat="62.656190622526" lon="17.850494308087">
        <ele>66.4</ele>
        <time>2018-01-07T12:17:00Z</time>
      </trkpt>
      <trkpt lat="62.65618022897" lon="17.850503360539">
        <ele>66.6</ele>
        <time>2018-01-07T12:17:01Z</time>
      </trkpt>
      <trkpt lat="62.656168661948" lon="17.850513418819">
        <ele>67</ele>
        <time>2018-01-07T12:17:02Z</time>
      </trkpt>
      <trkpt lat="62.656154328899" lon="17.850520794891">
        <ele>67</ele>
        <time>2018-01-07T12:17:03Z</time>
      </trkpt>
      <trkpt lat="62.6561441868" lon="17.850526159307">
        <ele>67.4</ele>
        <time>2018-01-07T12:17:04Z</time>
      </trkpt>
      <trkpt lat="62.656135385805" lon="17.850534541207">
        <ele>67.6</ele>
        <time>2018-01-07T12:17:05Z</time>
      </trkpt>
      <trkpt lat="62.656114766331" lon="17.850548790437">
        <ele>67.8</ele>
        <time>2018-01-07T12:17:06Z</time>
      </trkpt>
      <trkpt lat="62.656103450766" lon="17.850563374943">
        <ele>68.2</ele>
        <time>2018-01-07T12:17:07Z</time>
      </trkpt>
      <trkpt lat="62.656088447165" lon="17.850590113204">
        <ele>68.4</ele>
        <time>2018-01-07T12:17:08Z</time>
      </trkpt>
      <trkpt lat="62.656071096632" lon="17.850609307755">
        <ele>68.4</ele>
        <time>2018-01-07T12:17:09Z</time>
      </trkpt>
      <trkpt lat="62.656057098859" lon="17.850626071555">
        <ele>68.6</ele>
        <time>2018-01-07T12:17:10Z</time>
      </trkpt>
      <trkpt lat="62.656040418878" lon="17.850640069328">
        <ele>69</ele>
        <time>2018-01-07T12:17:11Z</time>
      </trkpt>
      <trkpt lat="62.656030695874" lon="17.850650630522">
        <ele>69.2</ele>
        <time>2018-01-07T12:17:12Z</time>
      </trkpt>
      <trkpt lat="62.656017703929" lon="17.850663790105">
        <ele>69.4</ele>
        <time>2018-01-07T12:17:13Z</time>
      </trkpt>
      <trkpt lat="62.656007226554" lon="17.850677284964">
        <ele>69.6</ele>
        <time>2018-01-07T12:17:14Z</time>
      </trkpt>
      <trkpt lat="62.65599247441" lon="17.850694216402">
        <ele>69.6</ele>
        <time>2018-01-07T12:17:15Z</time>
      </trkpt>
      <trkpt lat="62.655980236836" lon="17.850708297994">
        <ele>69.8</ele>
        <time>2018-01-07T12:17:16Z</time>
      </trkpt>
      <trkpt lat="62.655965484692" lon="17.850719362102">
        <ele>70</ele>
        <time>2018-01-07T12:17:17Z</time>
      </trkpt>
      <trkpt lat="62.655950984005" lon="17.850739059567">
        <ele>70.2</ele>
        <time>2018-01-07T12:17:18Z</time>
      </trkpt>
      <trkpt lat="62.655937489146" lon="17.850755236634">
        <ele>70.4</ele>
        <time>2018-01-07T12:17:19Z</time>
      </trkpt>
      <trkpt lat="62.655922150269" lon="17.850773676814">
        <ele>70.4</ele>
        <time>2018-01-07T12:17:20Z</time>
      </trkpt>
      <trkpt lat="62.655907565763" lon="17.850796727039">
        <ele>70.6</ele>
        <time>2018-01-07T12:17:21Z</time>
      </trkpt>
      <trkpt lat="62.655896501655" lon="17.850819106712">
        <ele>70.8</ele>
        <time>2018-01-07T12:17:22Z</time>
      </trkpt>
      <trkpt lat="62.655880240769" lon="17.850845174421">
        <ele>70.8</ele>
        <time>2018-01-07T12:17:23Z</time>
      </trkpt>
      <trkpt lat="62.655868589928" lon="17.850866464447">
        <ele>71.2</ele>
        <time>2018-01-07T12:17:24Z</time>
      </trkpt>
      <trkpt lat="62.655857022906" lon="17.850887838292">
        <ele>71.4</ele>
        <time>2018-01-07T12:17:25Z</time>
      </trkpt>
      <trkpt lat="62.655848557187" lon="17.850905188825">
        <ele>71.8</ele>
        <time>2018-01-07T12:17:26Z</time>
      </trkpt>
      <trkpt lat="62.655836990165" lon="17.850922120263">
        <ele>72.2</ele>
        <time>2018-01-07T12:17:27Z</time>
      </trkpt>
      <trkpt lat="62.655824333496" lon="17.85093662095">
        <ele>72.6</ele>
        <time>2018-01-07T12:17:28Z</time>
      </trkpt>
      <trkpt lat="62.655811760646" lon="17.850954055302">
        <ele>72.8</ele>
        <time>2018-01-07T12:17:29Z</time>
      </trkpt>
      <trkpt lat="62.655798936339" lon="17.850969226541">
        <ele>73</ele>
        <time>2018-01-07T12:17:30Z</time>
      </trkpt>
      <trkpt lat="62.655788878059" lon="17.850985152151">
        <ele>73.2</ele>
        <time>2018-01-07T12:17:31Z</time>
      </trkpt>
      <trkpt lat="62.655777311037" lon="17.851008872928">
        <ele>73.6</ele>
        <time>2018-01-07T12:17:32Z</time>
      </trkpt>
      <trkpt lat="62.655765157282" lon="17.851023625072">
        <ele>73.8</ele>
        <time>2018-01-07T12:17:33Z</time>
      </trkpt>
      <trkpt lat="62.65575526664" lon="17.851038796311">
        <ele>74</ele>
        <time>2018-01-07T12:17:34Z</time>
      </trkpt>
      <trkpt lat="62.65573934103" lon="17.851051872075">
        <ele>74.2</ele>
        <time>2018-01-07T12:17:35Z</time>
      </trkpt>
      <trkpt lat="62.655726516723" lon="17.851059164328">
        <ele>74.2</ele>
        <time>2018-01-07T12:17:36Z</time>
      </trkpt>
      <trkpt lat="62.655711848398" lon="17.851073916472">
        <ele>74.4</ele>
        <time>2018-01-07T12:17:37Z</time>
      </trkpt>
      <trkpt lat="62.655694497865" lon="17.851093865394">
        <ele>74.4</ele>
        <time>2018-01-07T12:17:38Z</time>
      </trkpt>
      <trkpt lat="62.655682930843" lon="17.851104845683">
        <ele>74.6</ele>
        <time>2018-01-07T12:17:39Z</time>
      </trkpt>
      <trkpt lat="62.655671196183" lon="17.851118172904">
        <ele>74.8</ele>
        <time>2018-01-07T12:17:40Z</time>
      </trkpt>
      <trkpt lat="62.655648145958" lon="17.851150694676">
        <ele>75</ele>
        <time>2018-01-07T12:17:41Z</time>
      </trkpt>
      <trkpt lat="62.655635824565" lon="17.851166871743">
        <ele>75</ele>
        <time>2018-01-07T12:17:42Z</time>
      </trkpt>
      <trkpt lat="62.655612690521" lon="17.851196711307">
        <ele>75.2</ele>
        <time>2018-01-07T12:17:43Z</time>
      </trkpt>
      <trkpt lat="62.655604224802" lon="17.851213894202">
        <ele>75.2</ele>
        <time>2018-01-07T12:17:44Z</time>
      </trkpt>
      <trkpt lat="62.655578576188" lon="17.851247840897">
        <ele>75.4</ele>
        <time>2018-01-07T12:17:45Z</time>
      </trkpt>
      <trkpt lat="62.655557034705" lon="17.851274662977">
        <ele>75.4</ele>
        <time>2018-01-07T12:17:46Z</time>
      </trkpt>
      <trkpt lat="62.655537923973" lon="17.851299724858">
        <ele>75.4</ele>
        <time>2018-01-07T12:17:47Z</time>
      </trkpt>
      <trkpt lat="62.655516466309" lon="17.851321098703">
        <ele>75.4</ele>
        <time>2018-01-07T12:17:48Z</time>
      </trkpt>
      <trkpt lat="62.655501211251" lon="17.851336689037">
        <ele>76</ele>
        <time>2018-01-07T12:17:49Z</time>
      </trkpt>
      <trkpt lat="62.6554820167" lon="17.851356218864">
        <ele>76.2</ele>
        <time>2018-01-07T12:17:50Z</time>
      </trkpt>
      <trkpt lat="62.655466594004" lon="17.851373234121">
        <ele>76.4</ele>
        <time>2018-01-07T12:17:51Z</time>
      </trkpt>
      <trkpt lat="62.655456200448" lon="17.851391339025">
        <ele>76.6</ele>
        <time>2018-01-07T12:17:52Z</time>
      </trkpt>
      <trkpt lat="62.655443292322" lon="17.851412964327">
        <ele>76.8</ele>
        <time>2018-01-07T12:17:53Z</time>
      </trkpt>
      <trkpt lat="62.655424852142" lon="17.851437188018">
        <ele>76.6</ele>
        <time>2018-01-07T12:17:54Z</time>
      </trkpt>
      <trkpt lat="62.655407836885" lon="17.851466943763">
        <ele>76.8</ele>
        <time>2018-01-07T12:17:55Z</time>
      </trkpt>
      <trkpt lat="62.655389564343" lon="17.851484461934">
        <ele>77</ele>
        <time>2018-01-07T12:17:56Z</time>
      </trkpt>
      <trkpt lat="62.655378332597" lon="17.851501980105">
        <ele>77.2</ele>
        <time>2018-01-07T12:17:57Z</time>
      </trkpt>
      <trkpt lat="62.655361484978" lon="17.851522767217">
        <ele>77.4</ele>
        <time>2018-01-07T12:17:58Z</time>
      </trkpt>
      <trkpt lat="62.655345727006" lon="17.85154682327">
        <ele>77.6</ele>
        <time>2018-01-07T12:17:59Z</time>
      </trkpt>
      <trkpt lat="62.655329633758" lon="17.85157280716">
        <ele>77.8</ele>
        <time>2018-01-07T12:18:00Z</time>
      </trkpt>
      <trkpt lat="62.655315133071" lon="17.851597198489">
        <ele>78</ele>
        <time>2018-01-07T12:18:01Z</time>
      </trkpt>
      <trkpt lat="62.655305577705" lon="17.85161806942">
        <ele>78.2</ele>
        <time>2018-01-07T12:18:02Z</time>
      </trkpt>
      <trkpt lat="62.655281270195" lon="17.851661571481">
        <ele>78.2</ele>
        <time>2018-01-07T12:18:03Z</time>
      </trkpt>
      <trkpt lat="62.655267188603" lon="17.851695601995">
        <ele>78.4</ele>
        <time>2018-01-07T12:18:04Z</time>
      </trkpt>
      <trkpt lat="62.655244976568" lon="17.851743630282">
        <ele>78.4</ele>
        <time>2018-01-07T12:18:05Z</time>
      </trkpt>
      <trkpt lat="62.655223602723" lon="17.851792329121">
        <ele>78.6</ele>
        <time>2018-01-07T12:18:06Z</time>
      </trkpt>
      <trkpt lat="62.6552137959" lon="17.85183599882">
        <ele>78.4</ele>
        <time>2018-01-07T12:18:07Z</time>
      </trkpt>
      <trkpt lat="62.65518948839" lon="17.851878327415">
        <ele>78.4</ele>
        <time>2018-01-07T12:18:08Z</time>
      </trkpt>
      <trkpt lat="62.655173227504" lon="17.851927529168">
        <ele>78.4</ele>
        <time>2018-01-07T12:18:09Z</time>
      </trkpt>
      <trkpt lat="62.655161241387" lon="17.851963906614">
        <ele>78.4</ele>
        <time>2018-01-07T12:18:10Z</time>
      </trkpt>
      <trkpt lat="62.655146321605" lon="17.852004055915">
        <ele>78.4</ele>
        <time>2018-01-07T12:18:11Z</time>
      </trkpt>
      <trkpt lat="62.655131569461" lon="17.852046216872">
        <ele>78.4</ele>
        <time>2018-01-07T12:18:12Z</time>
      </trkpt>
      <trkpt lat="62.655111955815" lon="17.852101034498">
        <ele>78.6</ele>
        <time>2018-01-07T12:18:13Z</time>
      </trkpt>
      <trkpt lat="62.655104747381" lon="17.852142943998">
        <ele>78.6</ele>
        <time>2018-01-07T12:18:14Z</time>
      </trkpt>
      <trkpt lat="62.655090498151" lon="17.852201952574">
        <ele>78.8</ele>
        <time>2018-01-07T12:18:15Z</time>
      </trkpt>
      <trkpt lat="62.655084211726" lon="17.852237827106">
        <ele>78.8</ele>
        <time>2018-01-07T12:18:16Z</time>
      </trkpt>
      <trkpt lat="62.655083457355" lon="17.852285771574">
        <ele>78.8</ele>
        <time>2018-01-07T12:18:17Z</time>
      </trkpt>
      <trkpt lat="62.65507549455" lon="17.852356850086">
        <ele>79</ele>
        <time>2018-01-07T12:18:18Z</time>
      </trkpt>
      <trkpt lat="62.655075243093" lon="17.852408566409">
        <ele>79.2</ele>
        <time>2018-01-07T12:18:19Z</time>
      </trkpt>
      <trkpt lat="62.65507046541" lon="17.852487440088">
        <ele>79.2</ele>
        <time>2018-01-07T12:18:20Z</time>
      </trkpt>
      <trkpt lat="62.65506459808" lon="17.852562038998">
        <ele>79.2</ele>
        <time>2018-01-07T12:18:21Z</time>
      </trkpt>
      <trkpt lat="62.655075243093" lon="17.85262808837">
        <ele>79.2</ele>
        <time>2018-01-07T12:18:22Z</time>
      </trkpt>
      <trkpt lat="62.655072728523" lon="17.852734287043">
        <ele>79</ele>
        <time>2018-01-07T12:18:23Z</time>
      </trkpt>
      <trkpt lat="62.655071135962" lon="17.852823554278">
        <ele>79</ele>
        <time>2018-01-07T12:18:24Z</time>
      </trkpt>
      <trkpt lat="62.655069711039" lon="17.852879713008">
        <ele>78.8</ele>
        <time>2018-01-07T12:18:25Z</time>
      </trkpt>
      <trkpt lat="62.655059820397" lon="17.85296504075">
        <ele>78.8</ele>
        <time>2018-01-07T12:18:26Z</time>
      </trkpt>
      <trkpt lat="62.655057473465" lon="17.853016421797">
        <ele>78.8</ele>
        <time>2018-01-07T12:18:27Z</time>
      </trkpt>
      <trkpt lat="62.655043140416" lon="17.853080040418">
        <ele>78.8</ele>
        <time>2018-01-07T12:18:28Z</time>
      </trkpt>
      <trkpt lat="62.655028052996" lon="17.853149610188">
        <ele>78.6</ele>
        <time>2018-01-07T12:18:29Z</time>
      </trkpt>
      <trkpt lat="62.655014725775" lon="17.853206104194">
        <ele>78.6</ele>
        <time>2018-01-07T12:18:30Z</time>
      </trkpt>
      <trkpt lat="62.655002488201" lon="17.853241559631">
        <ele>78.6</ele>
        <time>2018-01-07T12:18:31Z</time>
      </trkpt>
      <trkpt lat="62.654993184292" lon="17.853277434163">
        <ele>78.6</ele>
        <time>2018-01-07T12:18:32Z</time>
      </trkpt>
      <trkpt lat="62.654979354157" lon="17.853311716134">
        <ele>78.6</ele>
        <time>2018-01-07T12:18:33Z</time>
      </trkpt>
      <trkpt lat="62.654967787135" lon="17.853338538214">
        <ele>78.8</ele>
        <time>2018-01-07T12:18:34Z</time>
      </trkpt>
      <trkpt lat="62.654955298104" lon="17.853382124094">
        <ele>79.2</ele>
        <time>2018-01-07T12:18:35Z</time>
      </trkpt>
      <trkpt lat="62.65494138415" lon="17.853421602843">
        <ele>79.4</ele>
        <time>2018-01-07T12:18:36Z</time>
      </trkpt>
      <trkpt lat="62.65492964949" lon="17.853456555366">
        <ele>79.8</ele>
        <time>2018-01-07T12:18:37Z</time>
      </trkpt>
      <trkpt lat="62.654916657545" lon="17.853499051599">
        <ele>80</ele>
        <time>2018-01-07T12:18:38Z</time>
      </trkpt>
      <trkpt lat="62.654897295356" lon="17.853543978583">
        <ele>80</ele>
        <time>2018-01-07T12:18:39Z</time>
      </trkpt>
      <trkpt lat="62.654885393058" lon="17.853578512011">
        <ele>80</ele>
        <time>2018-01-07T12:18:40Z</time>
      </trkpt>
      <trkpt lat="62.654870138" lon="17.853621762615">
        <ele>80</ele>
        <time>2018-01-07T12:18:41Z</time>
      </trkpt>
      <trkpt lat="62.654853709476" lon="17.853667024875">
        <ele>80</ele>
        <time>2018-01-07T12:18:42Z</time>
      </trkpt>
      <trkpt lat="62.654844740843" lon="17.853707341814">
        <ele>80</ele>
        <time>2018-01-07T12:18:43Z</time>
      </trkpt>
      <trkpt lat="62.654827138853" lon="17.853764841648">
        <ele>80</ele>
        <time>2018-01-07T12:18:44Z</time>
      </trkpt>
      <trkpt lat="62.654816829116" lon="17.853812618478">
        <ele>80</ele>
        <time>2018-01-07T12:18:45Z</time>
      </trkpt>
      <trkpt lat="62.654807525207" lon="17.85385100758">
        <ele>79.8</ele>
        <time>2018-01-07T12:18:46Z</time>
      </trkpt>
      <trkpt lat="62.654796125823" lon="17.853900544609">
        <ele>80</ele>
        <time>2018-01-07T12:18:47Z</time>
      </trkpt>
      <trkpt lat="62.654783636792" lon="17.853949662543">
        <ele>80</ele>
        <time>2018-01-07T12:18:48Z</time>
      </trkpt>
      <trkpt lat="62.654777266548" lon="17.853983944514">
        <ele>80</ele>
        <time>2018-01-07T12:18:49Z</time>
      </trkpt>
      <trkpt lat="62.654753126676" lon="17.854051167352">
        <ele>80</ele>
        <time>2018-01-07T12:18:50Z</time>
      </trkpt>
      <trkpt lat="62.654739045084" lon="17.854093328309">
        <ele>80</ele>
        <time>2018-01-07T12:18:51Z</time>
      </trkpt>
      <trkpt lat="62.654727980976" lon="17.854125598624">
        <ele>80.2</ele>
        <time>2018-01-07T12:18:52Z</time>
      </trkpt>
      <trkpt lat="62.654707864416" lon="17.854174800377">
        <ele>80.2</ele>
        <time>2018-01-07T12:18:53Z</time>
      </trkpt>
      <trkpt lat="62.654688083132" lon="17.854212435108">
        <ele>80.4</ele>
        <time>2018-01-07T12:18:54Z</time>
      </trkpt>
      <trkpt lat="62.654669475314" lon="17.854249315468">
        <ele>80.6</ele>
        <time>2018-01-07T12:18:55Z</time>
      </trkpt>
      <trkpt lat="62.654655393722" lon="17.854273120064">
        <ele>80.8</ele>
        <time>2018-01-07T12:18:56Z</time>
      </trkpt>
      <trkpt lat="62.654635947714" lon="17.854297930488">
        <ele>80.8</ele>
        <time>2018-01-07T12:18:57Z</time>
      </trkpt>
      <trkpt lat="62.65461281367" lon="17.854331625726">
        <ele>81</ele>
        <time>2018-01-07T12:18:58Z</time>
      </trkpt>
      <trkpt lat="62.654591188368" lon="17.854358699263">
        <ele>81.2</ele>
        <time>2018-01-07T12:18:59Z</time>
      </trkpt>
      <trkpt lat="62.654555649112" lon="17.854404380618">
        <ele>81.4</ele>
        <time>2018-01-07T12:19:00Z</time>
      </trkpt>
      <trkpt lat="62.654535784009" lon="17.854462802461">
        <ele>81.4</ele>
        <time>2018-01-07T12:19:01Z</time>
      </trkpt>
      <trkpt lat="62.654503681332" lon="17.85449976664">
        <ele>81.4</ele>
        <time>2018-01-07T12:19:02Z</time>
      </trkpt>
      <trkpt lat="62.654471913931" lon="17.854548716936">
        <ele>81.4</ele>
        <time>2018-01-07T12:19:03Z</time>
      </trkpt>
      <trkpt lat="62.654463364393" lon="17.85456933641">
        <ele>81.4</ele>
        <time>2018-01-07T12:19:04Z</time>
      </trkpt>
      <trkpt lat="62.654430507345" lon="17.854621555647">
        <ele>81.2</ele>
        <time>2018-01-07T12:19:05Z</time>
      </trkpt>
      <trkpt lat="62.65440997169" lon="17.854655502342">
        <ele>81</ele>
        <time>2018-01-07T12:19:06Z</time>
      </trkpt>
      <trkpt lat="62.654389184578" lon="17.854685425725">
        <ele>81</ele>
        <time>2018-01-07T12:19:07Z</time>
      </trkpt>
      <trkpt lat="62.654362865412" lon="17.854730939442">
        <ele>81</ele>
        <time>2018-01-07T12:19:08Z</time>
      </trkpt>
      <trkpt lat="62.654343084128" lon="17.854779973557">
        <ele>81</ele>
        <time>2018-01-07T12:19:09Z</time>
      </trkpt>
      <trkpt lat="62.65431777079" lon="17.854819033211">
        <ele>81</ele>
        <time>2018-01-07T12:19:10Z</time>
      </trkpt>
      <trkpt lat="62.654289523787" lon="17.854867145317">
        <ele>81.2</ele>
        <time>2018-01-07T12:19:11Z</time>
      </trkpt>
      <trkpt lat="62.654269239589" lon="17.854895057044">
        <ele>81.2</ele>
        <time>2018-01-07T12:19:12Z</time>
      </trkpt>
      <trkpt lat="62.654240489672" lon="17.854942582417">
        <ele>81.2</ele>
        <time>2018-01-07T12:19:13Z</time>
      </trkpt>
      <trkpt lat="62.6542247317" lon="17.854969823592">
        <ele>81.2</ele>
        <time>2018-01-07T12:19:14Z</time>
      </trkpt>
      <trkpt lat="62.654198077258" lon="17.855008045056">
        <ele>81.2</ele>
        <time>2018-01-07T12:19:15Z</time>
      </trkpt>
      <trkpt lat="62.654179888535" lon="17.855025144132">
        <ele>81.2</ele>
        <time>2018-01-07T12:19:16Z</time>
      </trkpt>
      <trkpt lat="62.654148288772" lon="17.855056240981">
        <ele>81.2</ele>
        <time>2018-01-07T12:19:17Z</time>
      </trkpt>
      <trkpt lat="62.654118784484" lon="17.85509907249">
        <ele>81.2</ele>
        <time>2018-01-07T12:19:18Z</time>
      </trkpt>
      <trkpt lat="62.654104535254" lon="17.855125643113">
        <ele>81</ele>
        <time>2018-01-07T12:19:19Z</time>
      </trkpt>
      <trkpt lat="62.654076707346" lon="17.855149699166">
        <ele>81</ele>
        <time>2018-01-07T12:19:20Z</time>
      </trkpt>
      <trkpt lat="62.654049214714" lon="17.855180460739">
        <ele>81.2</ele>
        <time>2018-01-07T12:19:21Z</time>
      </trkpt>
      <trkpt lat="62.654034714027" lon="17.85520049348">
        <ele>81.2</ele>
        <time>2018-01-07T12:19:22Z</time>
      </trkpt>
      <trkpt lat="62.65400344954" lon="17.855232177062">
        <ele>81.2</ele>
        <time>2018-01-07T12:19:23Z</time>
      </trkpt>
      <trkpt lat="62.653971011587" lon="17.855264279739">
        <ele>81.4</ele>
        <time>2018-01-07T12:19:24Z</time>
      </trkpt>
      <trkpt lat="62.653952822864" lon="17.855281378815">
        <ele>81.4</ele>
        <time>2018-01-07T12:19:25Z</time>
      </trkpt>
      <trkpt lat="62.653934466503" lon="17.85530107628">
        <ele>81.4</ele>
        <time>2018-01-07T12:19:26Z</time>
      </trkpt>
      <trkpt lat="62.653912003011" lon="17.855322198668">
        <ele>81.6</ele>
        <time>2018-01-07T12:19:27Z</time>
      </trkpt>
      <trkpt lat="62.653894149564" lon="17.855342063771">
        <ele>81.6</ele>
        <time>2018-01-07T12:19:28Z</time>
      </trkpt>
      <trkpt lat="62.653878475411" lon="17.855360336313">
        <ele>81.6</ele>
        <time>2018-01-07T12:19:29Z</time>
      </trkpt>
      <trkpt lat="62.65386598638" lon="17.855378105941">
        <ele>81.8</ele>
        <time>2018-01-07T12:19:30Z</time>
      </trkpt>
      <trkpt lat="62.653852994435" lon="17.855399395967">
        <ele>82</ele>
        <time>2018-01-07T12:19:31Z</time>
      </trkpt>
      <trkpt lat="62.653838577567" lon="17.855422362373">
        <ele>82.2</ele>
        <time>2018-01-07T12:19:32Z</time>
      </trkpt>
      <trkpt lat="62.653824747432" lon="17.855445831693">
        <ele>82.6</ele>
        <time>2018-01-07T12:19:33Z</time>
      </trkpt>
      <trkpt lat="62.653807648356" lon="17.855470809755">
        <ele>82.8</ele>
        <time>2018-01-07T12:19:34Z</time>
      </trkpt>
      <trkpt lat="62.653791890384" lon="17.855496877464">
        <ele>83</ele>
        <time>2018-01-07T12:19:35Z</time>
      </trkpt>
      <trkpt lat="62.653766493227" lon="17.855528812503">
        <ele>83.4</ele>
        <time>2018-01-07T12:19:36Z</time>
      </trkpt>
      <trkpt lat="62.653748053047" lon="17.855562675379">
        <ele>83.4</ele>
        <time>2018-01-07T12:19:37Z</time>
      </trkpt>
      <trkpt lat="62.653735312559" lon="17.855593856047">
        <ele>83.6</ele>
        <time>2018-01-07T12:19:38Z</time>
      </trkpt>
      <trkpt lat="62.653713687257" lon="17.855625371991">
        <ele>83.8</ele>
        <time>2018-01-07T12:19:39Z</time>
      </trkpt>
      <trkpt lat="62.653695163258" lon="17.855648338397">
        <ele>83.8</ele>
        <time>2018-01-07T12:19:40Z</time>
      </trkpt>
      <trkpt lat="62.65367655544" lon="17.855669963699">
        <ele>83.8</ele>
        <time>2018-01-07T12:19:41Z</time>
      </trkpt>
      <trkpt lat="62.65366482078" lon="17.855692762467">
        <ele>84</ele>
        <time>2018-01-07T12:19:42Z</time>
      </trkpt>
      <trkpt lat="62.653647134971" lon="17.85571095119">
        <ele>84.2</ele>
        <time>2018-01-07T12:19:43Z</time>
      </trkpt>
      <trkpt lat="62.653628862429" lon="17.855730564836">
        <ele>84.4</ele>
        <time>2018-01-07T12:19:44Z</time>
      </trkpt>
      <trkpt lat="62.653609751697" lon="17.855751016672">
        <ele>84.6</ele>
        <time>2018-01-07T12:19:45Z</time>
      </trkpt>
      <trkpt lat="62.653593490811" lon="17.855764679169">
        <ele>84.8</ele>
        <time>2018-01-07T12:19:46Z</time>
      </trkpt>
      <trkpt lat="62.653576140278" lon="17.855786304471">
        <ele>85</ele>
        <time>2018-01-07T12:19:47Z</time>
      </trkpt>
      <trkpt lat="62.653557197184" lon="17.855796698027">
        <ele>85.2</ele>
        <time>2018-01-07T12:19:48Z</time>
      </trkpt>
      <trkpt lat="62.653541271574" lon="17.855811031076">
        <ele>85.4</ele>
        <time>2018-01-07T12:19:49Z</time>
      </trkpt>
      <trkpt lat="62.65352149029" lon="17.855811617809">
        <ele>85.6</ele>
        <time>2018-01-07T12:19:50Z</time>
      </trkpt>
      <trkpt lat="62.653501792825" lon="17.85582075408">
        <ele>85.8</ele>
        <time>2018-01-07T12:19:51Z</time>
      </trkpt>
      <trkpt lat="62.653485783396" lon="17.8558274596">
        <ele>86</ele>
        <time>2018-01-07T12:19:52Z</time>
      </trkpt>
      <trkpt lat="62.653462733171" lon="17.855833829844">
        <ele>86.2</ele>
        <time>2018-01-07T12:19:53Z</time>
      </trkpt>
      <trkpt lat="62.653442197516" lon="17.855837266423">
        <ele>86.4</ele>
        <time>2018-01-07T12:19:54Z</time>
      </trkpt>
      <trkpt lat="62.65342174568" lon="17.85582662141">
        <ele>86.6</ele>
        <time>2018-01-07T12:19:55Z</time>
      </trkpt>
      <trkpt lat="62.653405652432" lon="17.85581991589">
        <ele>86.8</ele>
        <time>2018-01-07T12:19:56Z</time>
      </trkpt>
      <trkpt lat="62.653385535872" lon="17.855813880922">
        <ele>87.2</ele>
        <time>2018-01-07T12:19:57Z</time>
      </trkpt>
      <trkpt lat="62.653369526443" lon="17.85580566666">
        <ele>87.4</ele>
        <time>2018-01-07T12:19:58Z</time>
      </trkpt>
      <trkpt lat="62.653346476218" lon="17.855801643348">
        <ele>87.6</ele>
        <time>2018-01-07T12:19:59Z</time>
      </trkpt>
      <trkpt lat="62.653327784581" lon="17.855791668887">
        <ele>87.8</ele>
        <time>2018-01-07T12:20:00Z</time>
      </trkpt>
      <trkpt lat="62.653309847315" lon="17.855767529015">
        <ele>88.2</ele>
        <time>2018-01-07T12:20:01Z</time>
      </trkpt>
      <trkpt lat="62.653294927533" lon="17.855749088835">
        <ele>88.2</ele>
        <time>2018-01-07T12:20:02Z</time>
      </trkpt>
      <trkpt lat="62.65328009157" lon="17.855726206248">
        <ele>88.4</ele>
        <time>2018-01-07T12:20:03Z</time>
      </trkpt>
      <trkpt lat="62.653265590883" lon="17.855709945362">
        <ele>88.6</ele>
        <time>2018-01-07T12:20:04Z</time>
      </trkpt>
      <trkpt lat="62.653246815427" lon="17.855688068603">
        <ele>88.6</ele>
        <time>2018-01-07T12:20:05Z</time>
      </trkpt>
      <trkpt lat="62.653231141274" lon="17.855674322287">
        <ele>89</ele>
        <time>2018-01-07T12:20:06Z</time>
      </trkpt>
      <trkpt lat="62.653214964207" lon="17.855661833256">
        <ele>89</ele>
        <time>2018-01-07T12:20:07Z</time>
      </trkpt>
      <trkpt lat="62.653198451864" lon="17.855638363936">
        <ele>89.2</ele>
        <time>2018-01-07T12:20:08Z</time>
      </trkpt>
      <trkpt lat="62.653179760227" lon="17.855641549058">
        <ele>89.2</ele>
        <time>2018-01-07T12:20:09Z</time>
      </trkpt>
      <trkpt lat="62.653172048879" lon="17.855625539629">
        <ele>89.4</ele>
        <time>2018-01-07T12:20:10Z</time>
      </trkpt>
      <trkpt lat="62.653155704174" lon="17.855630401131">
        <ele>89.4</ele>
        <time>2018-01-07T12:20:11Z</time>
      </trkpt>
      <trkpt lat="62.653140532935" lon="17.855623527973">
        <ele>89.6</ele>
        <time>2018-01-07T12:20:12Z</time>
      </trkpt>
      <trkpt lat="62.653128798275" lon="17.855614224064">
        <ele>89.8</ele>
        <time>2018-01-07T12:20:13Z</time>
      </trkpt>
      <trkpt lat="62.653118823814" lon="17.855603411413">
        <ele>90</ele>
        <time>2018-01-07T12:20:14Z</time>
      </trkpt>
      <trkpt lat="62.653109352267" lon="17.855596454436">
        <ele>90.4</ele>
        <time>2018-01-07T12:20:15Z</time>
      </trkpt>
      <trkpt lat="62.653102479109" lon="17.855588743088">
        <ele>90.6</ele>
        <time>2018-01-07T12:20:16Z</time>
      </trkpt>
      <trkpt lat="62.653088816612" lon="17.855579522998">
        <ele>91</ele>
        <time>2018-01-07T12:20:17Z</time>
      </trkpt>
      <trkpt lat="62.653074148287" lon="17.855568877985">
        <ele>91.2</ele>
        <time>2018-01-07T12:20:18Z</time>
      </trkpt>
      <trkpt lat="62.653063922369" lon="17.855551359814">
        <ele>91.4</ele>
        <time>2018-01-07T12:20:19Z</time>
      </trkpt>
      <trkpt lat="62.653054869917" lon="17.855543061733">
        <ele>91.8</ele>
        <time>2018-01-07T12:20:20Z</time>
      </trkpt>
      <trkpt lat="62.653044057266" lon="17.855535601842">
        <ele>92</ele>
        <time>2018-01-07T12:20:21Z</time>
      </trkpt>
      <trkpt lat="62.653035591547" lon="17.855524956829">
        <ele>92.2</ele>
        <time>2018-01-07T12:20:22Z</time>
      </trkpt>
      <trkpt lat="62.653022012869" lon="17.855515569101">
        <ele>92.6</ele>
        <time>2018-01-07T12:20:23Z</time>
      </trkpt>
      <trkpt lat="62.653009104743" lon="17.855511378151">
        <ele>93</ele>
        <time>2018-01-07T12:20:24Z</time>
      </trkpt>
      <trkpt lat="62.652997453902" lon="17.855508193029">
        <ele>93.4</ele>
        <time>2018-01-07T12:20:25Z</time>
      </trkpt>
      <trkpt lat="62.652988485269" lon="17.855496458369">
        <ele>93.6</ele>
        <time>2018-01-07T12:20:26Z</time>
      </trkpt>
      <trkpt lat="62.652980103369" lon="17.85548044894">
        <ele>93.8</ele>
        <time>2018-01-07T12:20:27Z</time>
      </trkpt>
      <trkpt lat="62.652966357053" lon="17.855463852778">
        <ele>94</ele>
        <time>2018-01-07T12:20:28Z</time>
      </trkpt>
      <trkpt lat="62.652953532746" lon="17.855436108689">
        <ele>94.2</ele>
        <time>2018-01-07T12:20:29Z</time>
      </trkpt>
      <trkpt lat="62.652946072855" lon="17.855429235531">
        <ele>94.4</ele>
        <time>2018-01-07T12:20:30Z</time>
      </trkpt>
      <trkpt lat="62.652931153073" lon="17.855418925794">
        <ele>94.4</ele>
        <time>2018-01-07T12:20:31Z</time>
      </trkpt>
      <trkpt lat="62.65291799349" lon="17.855408196962">
        <ele>94.6</ele>
        <time>2018-01-07T12:20:32Z</time>
      </trkpt>
      <trkpt lat="62.652902822251" lon="17.855400485614">
        <ele>94.8</ele>
        <time>2018-01-07T12:20:33Z</time>
      </trkpt>
      <trkpt lat="62.652890081763" lon="17.855396881397">
        <ele>94.8</ele>
        <time>2018-01-07T12:20:34Z</time>
      </trkpt>
      <trkpt lat="62.652872312135" lon="17.855393947732">
        <ele>95</ele>
        <time>2018-01-07T12:20:35Z</time>
      </trkpt>
      <trkpt lat="62.652857224715" lon="17.855386990755">
        <ele>95.2</ele>
        <time>2018-01-07T12:20:36Z</time>
      </trkpt>
      <trkpt lat="62.652844651865" lon="17.855381877796">
        <ele>95.2</ele>
        <time>2018-01-07T12:20:37Z</time>
      </trkpt>
      <trkpt lat="62.65282746897" lon="17.855375926647">
        <ele>95.4</ele>
        <time>2018-01-07T12:20:38Z</time>
      </trkpt>
      <trkpt lat="62.652810788989" lon="17.855374753181">
        <ele>95.4</ele>
        <time>2018-01-07T12:20:39Z</time>
      </trkpt>
      <trkpt lat="62.652792013533" lon="17.855373914991">
        <ele>95.6</ele>
        <time>2018-01-07T12:20:40Z</time>
      </trkpt>
      <trkpt lat="62.652771645516" lon="17.8553664551">
        <ele>95.8</ele>
        <time>2018-01-07T12:20:41Z</time>
      </trkpt>
      <trkpt lat="62.6527495173" lon="17.855358659933">
        <ele>96.2</ele>
        <time>2018-01-07T12:20:42Z</time>
      </trkpt>
      <trkpt lat="62.652734681337" lon="17.855363018521">
        <ele>96.6</ele>
        <time>2018-01-07T12:20:43Z</time>
      </trkpt>
      <trkpt lat="62.652718588089" lon="17.855356815915">
        <ele>96.8</ele>
        <time>2018-01-07T12:20:44Z</time>
      </trkpt>
      <trkpt lat="62.652693023294" lon="17.855351116223">
        <ele>96.8</ele>
        <time>2018-01-07T12:20:45Z</time>
      </trkpt>
      <trkpt lat="62.652675253666" lon="17.855343572513">
        <ele>96.8</ele>
        <time>2018-01-07T12:20:46Z</time>
      </trkpt>
      <trkpt lat="62.65265647821" lon="17.855339381563">
        <ele>97</ele>
        <time>2018-01-07T12:20:47Z</time>
      </trkpt>
      <trkpt lat="62.652630997234" lon="17.855331502577">
        <ele>96.8</ele>
        <time>2018-01-07T12:20:48Z</time>
      </trkpt>
      <trkpt lat="62.65261456871" lon="17.855331670215">
        <ele>97</ele>
        <time>2018-01-07T12:20:49Z</time>
      </trkpt>
      <trkpt lat="62.65259109939" lon="17.855333933328">
        <ele>97</ele>
        <time>2018-01-07T12:20:50Z</time>
      </trkpt>
      <trkpt lat="62.652567881527" lon="17.855337453726">
        <ele>97</ele>
        <time>2018-01-07T12:20:51Z</time>
      </trkpt>
      <trkpt lat="62.652545501854" lon="17.855344075427">
        <ele>97.2</ele>
        <time>2018-01-07T12:20:52Z</time>
      </trkpt>
      <trkpt lat="62.652517506308" lon="17.85534214759">
        <ele>97.2</ele>
        <time>2018-01-07T12:20:53Z</time>
      </trkpt>
      <trkpt lat="62.652493450255" lon="17.855355726268">
        <ele>97.2</ele>
        <time>2018-01-07T12:20:54Z</time>
      </trkpt>
      <trkpt lat="62.652475596808" lon="17.855371316602">
        <ele>97.4</ele>
        <time>2018-01-07T12:20:55Z</time>
      </trkpt>
      <trkpt lat="62.652456653714" lon="17.855397300492">
        <ele>97.6</ele>
        <time>2018-01-07T12:20:56Z</time>
      </trkpt>
      <trkpt lat="62.652438716448" lon="17.855426134228">
        <ele>97.6</ele>
        <time>2018-01-07T12:20:57Z</time>
      </trkpt>
      <trkpt lat="62.652422790838" lon="17.85545614143">
        <ele>97.6</ele>
        <time>2018-01-07T12:20:58Z</time>
      </trkpt>
      <trkpt lat="62.652399656794" lon="17.855502660975">
        <ele>97.6</ele>
        <time>2018-01-07T12:20:59Z</time>
      </trkpt>
      <trkpt lat="62.6523890956" lon="17.85554079862">
        <ele>97.6</ele>
        <time>2018-01-07T12:21:00Z</time>
      </trkpt>
      <trkpt lat="62.652369733411" lon="17.855592850219">
        <ele>97.8</ele>
        <time>2018-01-07T12:21:01Z</time>
      </trkpt>
      <trkpt lat="62.65235640619" lon="17.855648338397">
        <ele>97.8</ele>
        <time>2018-01-07T12:21:02Z</time>
      </trkpt>
      <trkpt lat="62.652344252435" lon="17.855689409707">
        <ele>97.8</ele>
        <time>2018-01-07T12:21:03Z</time>
      </trkpt>
      <trkpt lat="62.652329165015" lon="17.855733917596">
        <ele>97.8</ele>
        <time>2018-01-07T12:21:04Z</time>
      </trkpt>
      <trkpt lat="62.652312317396" lon="17.855788483765">
        <ele>97.8</ele>
        <time>2018-01-07T12:21:05Z</time>
      </trkpt>
      <trkpt lat="62.652298906356" lon="17.855835422405">
        <ele>97.8</ele>
        <time>2018-01-07T12:21:06Z</time>
      </trkpt>
      <trkpt lat="62.652280549995" lon="17.855894682438">
        <ele>97.8</ele>
        <time>2018-01-07T12:21:07Z</time>
      </trkpt>
      <trkpt lat="62.652260768711" lon="17.855947656046">
        <ele>97.6</ele>
        <time>2018-01-07T12:21:08Z</time>
      </trkpt>
      <trkpt lat="62.652251297164" lon="17.855979339628">
        <ele>97.6</ele>
        <time>2018-01-07T12:21:09Z</time>
      </trkpt>
      <trkpt lat="62.652239813961" lon="17.856014878884">
        <ele>97.6</ele>
        <time>2018-01-07T12:21:10Z</time>
      </trkpt>
      <trkpt lat="62.652217518107" lon="17.856067768673">
        <ele>97.6</ele>
        <time>2018-01-07T12:21:11Z</time>
      </trkpt>
      <trkpt lat="62.65219966466" lon="17.856112276562">
        <ele>97.8</ele>
        <time>2018-01-07T12:21:12Z</time>
      </trkpt>
      <trkpt lat="62.652182984679" lon="17.856148402551">
        <ele>98</ele>
        <time>2018-01-07T12:21:13Z</time>
      </trkpt>
      <trkpt lat="62.652168986906" lon="17.85618033759">
        <ele>98.2</ele>
        <time>2018-01-07T12:21:14Z</time>
      </trkpt>
      <trkpt lat="62.652147948337" lon="17.856214954837">
        <ele>98.4</ele>
        <time>2018-01-07T12:21:15Z</time>
      </trkpt>
      <trkpt lat="62.652126071578" lon="17.856250661731">
        <ele>98.6</ele>
        <time>2018-01-07T12:21:16Z</time>
      </trkpt>
      <trkpt lat="62.652107379941" lon="17.856272035576">
        <ele>98.6</ele>
        <time>2018-01-07T12:21:17Z</time>
      </trkpt>
      <trkpt lat="62.652072678875" lon="17.856301707502">
        <ele>99</ele>
        <time>2018-01-07T12:21:18Z</time>
      </trkpt>
      <trkpt lat="62.652034457411" lon="17.856322913709">
        <ele>99</ele>
        <time>2018-01-07T12:21:19Z</time>
      </trkpt>
      <trkpt lat="62.651992464092" lon="17.856346047753">
        <ele>99.2</ele>
        <time>2018-01-07T12:21:20Z</time>
      </trkpt>
      <trkpt lat="62.651948626755" lon="17.856378904801">
        <ele>99</ele>
        <time>2018-01-07T12:21:21Z</time>
      </trkpt>
      <trkpt lat="62.651922894322" lon="17.856403463768">
        <ele>99</ele>
        <time>2018-01-07T12:21:22Z</time>
      </trkpt>
      <trkpt lat="62.651884253763" lon="17.85645107296">
        <ele>98.8</ele>
        <time>2018-01-07T12:21:23Z</time>
      </trkpt>
      <trkpt lat="62.651851312896" lon="17.856511925554">
        <ele>98.6</ele>
        <time>2018-01-07T12:21:24Z</time>
      </trkpt>
      <trkpt lat="62.651818036753" lon="17.85661032906">
        <ele>98.4</ele>
        <time>2018-01-07T12:21:25Z</time>
      </trkpt>
      <trkpt lat="62.651791382311" lon="17.856699680114">
        <ele>97.8</ele>
        <time>2018-01-07T12:21:26Z</time>
      </trkpt>
      <trkpt lat="62.65176464405" lon="17.856805543511">
        <ele>97</ele>
        <time>2018-01-07T12:21:27Z</time>
      </trkpt>
      <trkpt lat="62.651738492522" lon="17.856894307832">
        <ele>96.2</ele>
        <time>2018-01-07T12:21:28Z</time>
      </trkpt>
      <trkpt lat="62.651729523889" lon="17.856944850689">
        <ele>95.8</ele>
        <time>2018-01-07T12:21:29Z</time>
      </trkpt>
      <trkpt lat="62.651708401501" lon="17.857009642776">
        <ele>95.2</ele>
        <time>2018-01-07T12:21:30Z</time>
      </trkpt>
      <trkpt lat="62.651691218606" lon="17.857080637469">
        <ele>95.4</ele>
        <time>2018-01-07T12:21:31Z</time>
      </trkpt>
      <trkpt lat="62.651675292996" lon="17.857146603022">
        <ele>95.4</ele>
        <time>2018-01-07T12:21:32Z</time>
      </trkpt>
      <trkpt lat="62.651644531423" lon="17.857210892195">
        <ele>95.8</ele>
        <time>2018-01-07T12:21:33Z</time>
      </trkpt>
      <trkpt lat="62.651629444003" lon="17.857271074237">
        <ele>96.2</ele>
        <time>2018-01-07T12:21:34Z</time>
      </trkpt>
      <trkpt lat="62.65159700605" lon="17.857347600984">
        <ele>96</ele>
        <time>2018-01-07T12:21:35Z</time>
      </trkpt>
      <trkpt lat="62.651565741563" lon="17.857422954265">
        <ele>95.6</ele>
        <time>2018-01-07T12:21:36Z</time>
      </trkpt>
      <trkpt lat="62.651550989419" lon="17.857476933701">
        <ele>95.6</ele>
        <time>2018-01-07T12:21:37Z</time>
      </trkpt>
      <trkpt lat="62.651519557294" lon="17.857560165968">
        <ele>95.4</ele>
        <time>2018-01-07T12:21:38Z</time>
      </trkpt>
      <trkpt lat="62.651495165965" lon="17.857634178145">
        <ele>95.2</ele>
        <time>2018-01-07T12:21:39Z</time>
      </trkpt>
      <trkpt lat="62.65147379212" lon="17.857685475373">
        <ele>95</ele>
        <time>2018-01-07T12:21:40Z</time>
      </trkpt>
      <trkpt lat="62.651440935072" lon="17.857747669071">
        <ele>95</ele>
        <time>2018-01-07T12:21:41Z</time>
      </trkpt>
      <trkpt lat="62.651415621734" lon="17.857796451729">
        <ele>94.6</ele>
        <time>2018-01-07T12:21:42Z</time>
      </trkpt>
      <trkpt lat="62.651373460777" lon="17.857876917969">
        <ele>94.6</ele>
        <time>2018-01-07T12:21:43Z</time>
      </trkpt>
      <trkpt lat="62.651360301194" lon="17.857936764735">
        <ele>94.4</ele>
        <time>2018-01-07T12:21:44Z</time>
      </trkpt>
      <trkpt lat="62.651329539621" lon="17.857988229601">
        <ele>94.2</ele>
        <time>2018-01-07T12:21:45Z</time>
      </trkpt>
      <trkpt lat="62.651299951514" lon="17.85804614853">
        <ele>94</ele>
        <time>2018-01-07T12:21:46Z</time>
      </trkpt>
      <trkpt lat="62.651279583497" lon="17.858110270065">
        <ele>93.8</ele>
        <time>2018-01-07T12:21:47Z</time>
      </trkpt>
      <trkpt lat="62.651242367861" lon="17.858200626947">
        <ele>93.6</ele>
        <time>2018-01-07T12:21:48Z</time>
      </trkpt>
      <trkpt lat="62.651215210505" lon="17.858253265279">
        <ele>93.4</ele>
        <time>2018-01-07T12:21:49Z</time>
      </trkpt>
      <trkpt lat="62.651188723701" lon="17.858296264426">
        <ele>93.4</ele>
        <time>2018-01-07T12:21:50Z</time>
      </trkpt>
      <trkpt lat="62.651157375395" lon="17.858350662957">
        <ele>93.2</ele>
        <time>2018-01-07T12:21:51Z</time>
      </trkpt>
      <trkpt lat="62.651136588283" lon="17.858389722611">
        <ele>93.2</ele>
        <time>2018-01-07T12:21:52Z</time>
      </trkpt>
      <trkpt lat="62.65110247395" lon="17.858424758953">
        <ele>93.2</ele>
        <time>2018-01-07T12:21:53Z</time>
      </trkpt>
      <trkpt lat="62.651069868359" lon="17.858464321521">
        <ele>93.2</ele>
        <time>2018-01-07T12:21:54Z</time>
      </trkpt>
      <trkpt lat="62.651026953031" lon="17.85850044751">
        <ele>93.2</ele>
        <time>2018-01-07T12:21:55Z</time>
      </trkpt>
      <trkpt lat="62.650984708255" lon="17.858532550187">
        <ele>92.8</ele>
        <time>2018-01-07T12:21:56Z</time>
      </trkpt>
      <trkpt lat="62.650939697452" lon="17.858562725027">
        <ele>92.6</ele>
        <time>2018-01-07T12:21:57Z</time>
      </trkpt>
      <trkpt lat="62.650898039409" lon="17.858581919578">
        <ele>92.4</ele>
        <time>2018-01-07T12:21:58Z</time>
      </trkpt>
      <trkpt lat="62.65086107523" lon="17.858589630926">
        <ele>92.4</ele>
        <time>2018-01-07T12:21:59Z</time>
      </trkpt>
      <trkpt lat="62.65082503306" lon="17.858577058076">
        <ele>92.2</ele>
        <time>2018-01-07T12:22:00Z</time>
      </trkpt>
      <trkpt lat="62.65078982908" lon="17.858569598185">
        <ele>92.2</ele>
        <time>2018-01-07T12:22:01Z</time>
      </trkpt>
      <trkpt lat="62.650765437751" lon="17.858539171888">
        <ele>92</ele>
        <time>2018-01-07T12:22:02Z</time>
      </trkpt>
      <trkpt lat="62.650739370042" lon="17.858489131945">
        <ele>91.8</ele>
        <time>2018-01-07T12:22:03Z</time>
      </trkpt>
      <trkpt lat="62.650716990369" lon="17.858460633485">
        <ele>91.6</ele>
        <time>2018-01-07T12:22:04Z</time>
      </trkpt>
      <trkpt lat="62.650689665375" lon="17.858409336257">
        <ele>91.4</ele>
        <time>2018-01-07T12:22:05Z</time>
      </trkpt>
      <trkpt lat="62.650661502191" lon="17.85834286779">
        <ele>91.4</ele>
        <time>2018-01-07T12:22:06Z</time>
      </trkpt>
      <trkpt lat="62.650635685939" lon="17.858259467885">
        <ele>91.4</ele>
        <time>2018-01-07T12:22:07Z</time>
      </trkpt>
      <trkpt lat="62.650613306266" lon="17.858149581176">
        <ele>91.2</ele>
        <time>2018-01-07T12:22:08Z</time>
      </trkpt>
      <trkpt lat="62.650595955733" lon="17.858040867933">
        <ele>90</ele>
        <time>2018-01-07T12:22:09Z</time>
      </trkpt>
      <trkpt lat="62.650583047607" lon="17.857933998708">
        <ele>89</ele>
        <time>2018-01-07T12:22:10Z</time>
      </trkpt>
      <trkpt lat="62.650564104513" lon="17.857809946588">
        <ele>87.8</ele>
        <time>2018-01-07T12:22:11Z</time>
      </trkpt>
      <trkpt lat="62.650537701528" lon="17.85768069769">
        <ele>86.2</ele>
        <time>2018-01-07T12:22:12Z</time>
      </trkpt>
      <trkpt lat="62.650511633819" lon="17.857537786295">
        <ele>84.8</ele>
        <time>2018-01-07T12:22:13Z</time>
      </trkpt>
      <trkpt lat="62.650480453151" lon="17.857402334791">
        <ele>84.2</ele>
        <time>2018-01-07T12:22:14Z</time>
      </trkpt>
      <trkpt lat="62.650445835904" lon="17.857272834436">
        <ele>83.4</ele>
        <time>2018-01-07T12:22:15Z</time>
      </trkpt>
      <trkpt lat="62.650415074331" lon="17.857162025718">
        <ele>82.6</ele>
        <time>2018-01-07T12:22:16Z</time>
      </trkpt>
      <trkpt lat="62.650374589754" lon="17.857048534792">
        <ele>82</ele>
        <time>2018-01-07T12:22:17Z</time>
      </trkpt>
      <trkpt lat="62.650330584779" lon="17.856935630599">
        <ele>81.6</ele>
        <time>2018-01-07T12:22:18Z</time>
      </trkpt>
      <trkpt lat="62.650284903424" lon="17.856842423871">
        <ele>81</ele>
        <time>2018-01-07T12:22:19Z</time>
      </trkpt>
      <trkpt lat="62.650235534033" lon="17.856759275423">
        <ele>80.6</ele>
        <time>2018-01-07T12:22:20Z</time>
      </trkpt>
      <trkpt lat="62.650183985348" lon="17.856685095608">
        <ele>80.2</ele>
        <time>2018-01-07T12:22:21Z</time>
      </trkpt>
      <trkpt lat="62.650139645097" lon="17.856644108117">
        <ele>80</ele>
        <time>2018-01-07T12:22:22Z</time>
      </trkpt>
      <trkpt lat="62.650086755308" lon="17.85659524164">
        <ele>79.6</ele>
        <time>2018-01-07T12:22:23Z</time>
      </trkpt>
      <trkpt lat="62.65004300179" lon="17.856564647705">
        <ele>79.4</ele>
        <time>2018-01-07T12:22:24Z</time>
      </trkpt>
      <trkpt lat="62.650004696507" lon="17.856548638276">
        <ele>79.2</ele>
        <time>2018-01-07T12:22:25Z</time>
      </trkpt>
      <trkpt lat="62.649973515839" lon="17.856526677698">
        <ele>78.8</ele>
        <time>2018-01-07T12:22:26Z</time>
      </trkpt>
      <trkpt lat="62.649949543605" lon="17.856500274713">
        <ele>79</ele>
        <time>2018-01-07T12:22:27Z</time>
      </trkpt>
      <trkpt lat="62.6499331989" lon="17.856486109302">
        <ele>79.4</ele>
        <time>2018-01-07T12:22:28Z</time>
      </trkpt>
      <trkpt lat="62.649902688784" lon="17.856483678551">
        <ele>79.8</ele>
        <time>2018-01-07T12:22:29Z</time>
      </trkpt>
      <trkpt lat="62.649877375446" lon="17.856475548108">
        <ele>80.4</ele>
        <time>2018-01-07T12:22:30Z</time>
      </trkpt>
      <trkpt lat="62.649851559194" lon="17.856462556163">
        <ele>81</ele>
        <time>2018-01-07T12:22:31Z</time>
      </trkpt>
      <trkpt lat="62.649829933892" lon="17.85646364581">
        <ele>81.2</ele>
        <time>2018-01-07T12:22:32Z</time>
      </trkpt>
      <trkpt lat="62.649802525079" lon="17.856457610842">
        <ele>81.4</ele>
        <time>2018-01-07T12:22:33Z</time>
      </trkpt>
      <trkpt lat="62.649783665804" lon="17.856451994969">
        <ele>81.6</ele>
        <time>2018-01-07T12:22:34Z</time>
      </trkpt>
      <trkpt lat="62.649763130149" lon="17.856439170662">
        <ele>81.8</ele>
        <time>2018-01-07T12:22:35Z</time>
      </trkpt>
      <trkpt lat="62.649742259218" lon="17.856424167061">
        <ele>81.8</ele>
        <time>2018-01-07T12:22:36Z</time>
      </trkpt>
      <trkpt lat="62.649720466278" lon="17.856423328871">
        <ele>82</ele>
        <time>2018-01-07T12:22:37Z</time>
      </trkpt>
      <trkpt lat="62.649690626714" lon="17.856430704943">
        <ele>82.2</ele>
        <time>2018-01-07T12:22:38Z</time>
      </trkpt>
      <trkpt lat="62.649667241213" lon="17.856432968056">
        <ele>82.4</ele>
        <time>2018-01-07T12:22:39Z</time>
      </trkpt>
      <trkpt lat="62.649651231784" lon="17.856429447658">
        <ele>82.4</ele>
        <time>2018-01-07T12:22:40Z</time>
      </trkpt>
      <trkpt lat="62.649633797432" lon="17.856426094898">
        <ele>82.6</ele>
        <time>2018-01-07T12:22:41Z</time>
      </trkpt>
      <trkpt lat="62.649614267605" lon="17.856429363839">
        <ele>82.8</ele>
        <time>2018-01-07T12:22:42Z</time>
      </trkpt>
      <trkpt lat="62.649593229036" lon="17.856425508165">
        <ele>83</ele>
        <time>2018-01-07T12:22:43Z</time>
      </trkpt>
      <trkpt lat="62.649577973978" lon="17.856418215912">
        <ele>83</ele>
        <time>2018-01-07T12:22:44Z</time>
      </trkpt>
      <trkpt lat="62.649569256802" lon="17.856425759622">
        <ele>83.2</ele>
        <time>2018-01-07T12:22:45Z</time>
      </trkpt>
      <trkpt lat="62.64954344055" lon="17.856428022735">
        <ele>83.4</ele>
        <time>2018-01-07T12:22:46Z</time>
      </trkpt>
      <trkpt lat="62.649526090017" lon="17.856427016907">
        <ele>83.6</ele>
        <time>2018-01-07T12:22:47Z</time>
      </trkpt>
      <trkpt lat="62.649502788335" lon="17.856426681631">
        <ele>83.8</ele>
        <time>2018-01-07T12:22:48Z</time>
      </trkpt>
      <trkpt lat="62.649485856897" lon="17.856434057703">
        <ele>84.2</ele>
        <time>2018-01-07T12:22:49Z</time>
      </trkpt>
      <trkpt lat="62.64946129793" lon="17.856433135694">
        <ele>84.4</ele>
        <time>2018-01-07T12:22:50Z</time>
      </trkpt>
      <trkpt lat="62.649437744791" lon="17.85643347097">
        <ele>84.6</ele>
        <time>2018-01-07T12:22:51Z</time>
      </trkpt>
      <trkpt lat="62.649416203308" lon="17.856438081015">
        <ele>84.8</ele>
        <time>2018-01-07T12:22:52Z</time>
      </trkpt>
      <trkpt lat="62.649392314893" lon="17.85643598554">
        <ele>85</ele>
        <time>2018-01-07T12:22:53Z</time>
      </trkpt>
      <trkpt lat="62.64937747893" lon="17.856431291676">
        <ele>85.2</ele>
        <time>2018-01-07T12:22:54Z</time>
      </trkpt>
      <trkpt lat="62.649349902479" lon="17.856420730482">
        <ele>85.2</ele>
        <time>2018-01-07T12:22:55Z</time>
      </trkpt>
      <trkpt lat="62.649327606625" lon="17.85640161975">
        <ele>85.6</ele>
        <time>2018-01-07T12:22:56Z</time>
      </trkpt>
      <trkpt lat="62.649310842825" lon="17.856375049127">
        <ele>85.6</ele>
        <time>2018-01-07T12:22:57Z</time>
      </trkpt>
      <trkpt lat="62.649292067369" lon="17.856349232875">
        <ele>85.6</ele>
        <time>2018-01-07T12:22:58Z</time>
      </trkpt>
      <trkpt lat="62.64926767604" lon="17.856308915936">
        <ele>85.6</ele>
        <time>2018-01-07T12:22:59Z</time>
      </trkpt>
      <trkpt lat="62.649252420982" lon="17.856276980897">
        <ele>85.6</ele>
        <time>2018-01-07T12:23:00Z</time>
      </trkpt>
      <trkpt lat="62.649236327734" lon="17.856241609279">
        <ele>85.8</ele>
        <time>2018-01-07T12:23:01Z</time>
      </trkpt>
      <trkpt lat="62.649210762939" lon="17.85619793958">
        <ele>86</ele>
        <time>2018-01-07T12:23:02Z</time>
      </trkpt>
      <trkpt lat="62.649201123754" lon="17.856168016197">
        <ele>86.2</ele>
        <time>2018-01-07T12:23:03Z</time>
      </trkpt>
      <trkpt lat="62.649184443773" lon="17.856135662063">
        <ele>86.4</ele>
        <time>2018-01-07T12:23:04Z</time>
      </trkpt>
      <trkpt lat="62.649165081584" lon="17.856091740907">
        <ele>86.4</ele>
        <time>2018-01-07T12:23:05Z</time>
      </trkpt>
      <trkpt lat="62.649147144318" lon="17.856045305181">
        <ele>86.4</ele>
        <time>2018-01-07T12:23:06Z</time>
      </trkpt>
      <trkpt lat="62.649131218708" lon="17.856008676278">
        <ele>86.4</ele>
        <time>2018-01-07T12:23:07Z</time>
      </trkpt>
      <trkpt lat="62.649109341949" lon="17.855972969384">
        <ele>86.2</ele>
        <time>2018-01-07T12:23:08Z</time>
      </trkpt>
      <trkpt lat="62.649089309208" lon="17.855941369621">
        <ele>86.4</ele>
        <time>2018-01-07T12:23:09Z</time>
      </trkpt>
      <trkpt lat="62.649075479073" lon="17.855921672156">
        <ele>86.4</ele>
        <time>2018-01-07T12:23:10Z</time>
      </trkpt>
      <trkpt lat="62.649051506839" lon="17.855886635814">
        <ele>86.6</ele>
        <time>2018-01-07T12:23:11Z</time>
      </trkpt>
      <trkpt lat="62.649028288976" lon="17.8558526053">
        <ele>86.6</ele>
        <time>2018-01-07T12:23:12Z</time>
      </trkpt>
      <trkpt lat="62.649005574027" lon="17.855822346641">
        <ele>86.6</ele>
        <time>2018-01-07T12:23:13Z</time>
      </trkpt>
      <trkpt lat="62.648987804399" lon="17.85579644657">
        <ele>86.6</ele>
        <time>2018-01-07T12:23:14Z</time>
      </trkpt>
      <trkpt lat="62.648968106934" lon="17.855773396345">
        <ele>86.6</ele>
        <time>2018-01-07T12:23:15Z</time>
      </trkpt>
      <trkpt lat="62.64894748746" lon="17.855745400799">
        <ele>86.6</ele>
        <time>2018-01-07T12:23:16Z</time>
      </trkpt>
      <trkpt lat="62.648929466375" lon="17.855707682249">
        <ele>86.8</ele>
        <time>2018-01-07T12:23:17Z</time>
      </trkpt>
      <trkpt lat="62.648912451118" lon="17.85567909997">
        <ele>87</ele>
        <time>2018-01-07T12:23:18Z</time>
      </trkpt>
      <trkpt lat="62.648890741997" lon="17.855661330342">
        <ele>87</ele>
        <time>2018-01-07T12:23:19Z</time>
      </trkpt>
      <trkpt lat="62.648875151663" lon="17.855635094995">
        <ele>87</ele>
        <time>2018-01-07T12:23:20Z</time>
      </trkpt>
      <trkpt lat="62.648858723139" lon="17.855613302055">
        <ele>87.2</ele>
        <time>2018-01-07T12:23:21Z</time>
      </trkpt>
      <trkpt lat="62.648842210796" lon="17.855588407812">
        <ele>87.2</ele>
        <time>2018-01-07T12:23:22Z</time>
      </trkpt>
      <trkpt lat="62.648823770616" lon="17.855547001226">
        <ele>87.4</ele>
        <time>2018-01-07T12:23:23Z</time>
      </trkpt>
      <trkpt lat="62.648804408427" lon="17.855512635436">
        <ele>87.6</ele>
        <time>2018-01-07T12:23:24Z</time>
      </trkpt>
      <trkpt lat="62.648788650455" lon="17.855476844723">
        <ele>87.6</ele>
        <time>2018-01-07T12:23:25Z</time>
      </trkpt>
      <trkpt lat="62.648776245243" lon="17.855445077322">
        <ele>87.8</ele>
        <time>2018-01-07T12:23:26Z</time>
      </trkpt>
      <trkpt lat="62.64876308566" lon="17.855416243586">
        <ele>87.8</ele>
        <time>2018-01-07T12:23:27Z</time>
      </trkpt>
      <trkpt lat="62.648748417335" lon="17.855393444818">
        <ele>88</ele>
        <time>2018-01-07T12:23:28Z</time>
      </trkpt>
      <trkpt lat="62.648729055146" lon="17.85536142596">
        <ele>88.2</ele>
        <time>2018-01-07T12:23:29Z</time>
      </trkpt>
      <trkpt lat="62.648702065428" lon="17.855335190613">
        <ele>88.2</ele>
        <time>2018-01-07T12:23:30Z</time>
      </trkpt>
      <trkpt lat="62.648676668271" lon="17.855312391845">
        <ele>88.4</ele>
        <time>2018-01-07T12:23:31Z</time>
      </trkpt>
      <trkpt lat="62.648655881159" lon="17.855308452352">
        <ele>88.6</ele>
        <time>2018-01-07T12:23:32Z</time>
      </trkpt>
      <trkpt lat="62.64862897526" lon="17.855284228661">
        <ele>88.8</ele>
        <time>2018-01-07T12:23:33Z</time>
      </trkpt>
      <trkpt lat="62.648605757397" lon="17.8552993999">
        <ele>88.8</ele>
        <time>2018-01-07T12:23:34Z</time>
      </trkpt>
      <trkpt lat="62.648578432403" lon="17.855294873674">
        <ele>89</ele>
        <time>2018-01-07T12:23:35Z</time>
      </trkpt>
      <trkpt lat="62.648550101581" lon="17.855298142615">
        <ele>89.2</ele>
        <time>2018-01-07T12:23:36Z</time>
      </trkpt>
      <trkpt lat="62.648524536786" lon="17.855321276659">
        <ele>89.2</ele>
        <time>2018-01-07T12:23:37Z</time>
      </trkpt>
      <trkpt lat="62.648507353891" lon="17.855352876422">
        <ele>89.2</ele>
        <time>2018-01-07T12:23:38Z</time>
      </trkpt>
      <trkpt lat="62.648480112716" lon="17.855387242212">
        <ele>89.2</ele>
        <time>2018-01-07T12:23:39Z</time>
      </trkpt>
      <trkpt lat="62.648456894853" lon="17.855412471731">
        <ele>89</ele>
        <time>2018-01-07T12:23:40Z</time>
      </trkpt>
      <trkpt lat="62.648440801605" lon="17.855435605775">
        <ele>88.8</ele>
        <time>2018-01-07T12:23:41Z</time>
      </trkpt>
      <trkpt lat="62.648408363652" lon="17.855463014588">
        <ele>88.8</ele>
        <time>2018-01-07T12:23:42Z</time>
      </trkpt>
      <trkpt lat="62.648388582368" lon="17.855483047329">
        <ele>88.6</ele>
        <time>2018-01-07T12:23:43Z</time>
      </trkpt>
      <trkpt lat="62.648351953465" lon="17.855501487509">
        <ele>88.4</ele>
        <time>2018-01-07T12:23:44Z</time>
      </trkpt>
      <trkpt lat="62.648318509684" lon="17.855519592413">
        <ele>88.4</ele>
        <time>2018-01-07T12:23:45Z</time>
      </trkpt>
      <trkpt lat="62.648296130011" lon="17.855531662349">
        <ele>88.6</ele>
        <time>2018-01-07T12:23:46Z</time>
      </trkpt>
      <trkpt lat="62.648265284619" lon="17.855544319018">
        <ele>88.4</ele>
        <time>2018-01-07T12:23:47Z</time>
      </trkpt>
      <trkpt lat="62.648234020132" lon="17.855545157208">
        <ele>88.4</ele>
        <time>2018-01-07T12:23:48Z</time>
      </trkpt>
      <trkpt lat="62.648211137545" lon="17.855549515796">
        <ele>88.4</ele>
        <time>2018-01-07T12:23:49Z</time>
      </trkpt>
      <trkpt lat="62.648177945221" lon="17.855549934891">
        <ele>88.4</ele>
        <time>2018-01-07T12:23:50Z</time>
      </trkpt>
      <trkpt lat="62.648149865856" lon="17.855547671778">
        <ele>88.6</ele>
        <time>2018-01-07T12:23:51Z</time>
      </trkpt>
      <trkpt lat="62.648130922762" lon="17.855551443633">
        <ele>88.4</ele>
        <time>2018-01-07T12:23:52Z</time>
      </trkpt>
      <trkpt lat="62.648098903904" lon="17.855553036194">
        <ele>88.6</ele>
        <time>2018-01-07T12:23:53Z</time>
      </trkpt>
      <trkpt lat="62.648070070168" lon="17.855551108357">
        <ele>88.6</ele>
        <time>2018-01-07T12:23:54Z</time>
      </trkpt>
      <trkpt lat="62.648049953608" lon="17.855552365642">
        <ele>88.6</ele>
        <time>2018-01-07T12:23:55Z</time>
      </trkpt>
      <trkpt lat="62.648031932523" lon="17.855561082818">
        <ele>88.6</ele>
        <time>2018-01-07T12:23:56Z</time>
      </trkpt>
      <trkpt lat="62.648015084904" lon="17.855572817478">
        <ele>88.6</ele>
        <time>2018-01-07T12:23:57Z</time>
      </trkpt>
      <trkpt lat="62.64799781819" lon="17.855588994545">
        <ele>88.8</ele>
        <time>2018-01-07T12:23:58Z</time>
      </trkpt>
      <trkpt lat="62.647976444345" lon="17.855613469693">
        <ele>88.8</ele>
        <time>2018-01-07T12:23:59Z</time>
      </trkpt>
      <trkpt lat="62.647956495423" lon="17.855639285945">
        <ele>89</ele>
        <time>2018-01-07T12:24:00Z</time>
      </trkpt>
      <trkpt lat="62.647940485994" lon="17.855671220984">
        <ele>89</ele>
        <time>2018-01-07T12:24:01Z</time>
      </trkpt>
      <trkpt lat="62.647923638375" lon="17.855700222358">
        <ele>89.4</ele>
        <time>2018-01-07T12:24:02Z</time>
      </trkpt>
      <trkpt lat="62.647910394973" lon="17.855727128257">
        <ele>89.6</ele>
        <time>2018-01-07T12:24:03Z</time>
      </trkpt>
      <trkpt lat="62.647898408856" lon="17.855751603405">
        <ele>89.8</ele>
        <time>2018-01-07T12:24:04Z</time>
      </trkpt>
      <trkpt lat="62.647885081635" lon="17.855779096037">
        <ele>90.2</ele>
        <time>2018-01-07T12:24:05Z</time>
      </trkpt>
      <trkpt lat="62.647871419138" lon="17.855804660832">
        <ele>90.4</ele>
        <time>2018-01-07T12:24:06Z</time>
      </trkpt>
      <trkpt lat="62.647856918451" lon="17.855832321102">
        <ele>90.6</ele>
        <time>2018-01-07T12:24:07Z</time>
      </trkpt>
      <trkpt lat="62.647845016153" lon="17.855867189806">
        <ele>90.6</ele>
        <time>2018-01-07T12:24:08Z</time>
      </trkpt>
      <trkpt lat="62.647834287321" lon="17.855899879216">
        <ele>90.8</ele>
        <time>2018-01-07T12:24:09Z</time>
      </trkpt>
      <trkpt lat="62.647821463014" lon="17.85592888059">
        <ele>91.2</ele>
        <time>2018-01-07T12:24:10Z</time>
      </trkpt>
      <trkpt lat="62.647808471069" lon="17.85595737905">
        <ele>91.2</ele>
        <time>2018-01-07T12:24:11Z</time>
      </trkpt>
      <trkpt lat="62.647797406961" lon="17.855982357112">
        <ele>91.2</ele>
        <time>2018-01-07T12:24:12Z</time>
      </trkpt>
      <trkpt lat="62.647788941242" lon="17.856010604115">
        <ele>91.4</ele>
        <time>2018-01-07T12:24:13Z</time>
      </trkpt>
      <trkpt lat="62.64777737422" lon="17.856044047896">
        <ele>91.6</ele>
        <time>2018-01-07T12:24:14Z</time>
      </trkpt>
      <trkpt lat="62.647770249605" lon="17.856077659315">
        <ele>91.6</ele>
        <time>2018-01-07T12:24:15Z</time>
      </trkpt>
      <trkpt lat="62.647756922384" lon="17.856123424489">
        <ele>91.8</ele>
        <time>2018-01-07T12:24:16Z</time>
      </trkpt>
      <trkpt lat="62.647742756973" lon="17.856169273482">
        <ele>92</ele>
        <time>2018-01-07T12:24:17Z</time>
      </trkpt>
      <trkpt lat="62.64773295015" lon="17.856206237661">
        <ele>92.4</ele>
        <time>2018-01-07T12:24:18Z</time>
      </trkpt>
      <trkpt lat="62.647723813879" lon="17.856248733894">
        <ele>92.6</ele>
        <time>2018-01-07T12:24:19Z</time>
      </trkpt>
      <trkpt lat="62.647715264341" lon="17.856292068317">
        <ele>92.8</ele>
        <time>2018-01-07T12:24:20Z</time>
      </trkpt>
      <trkpt lat="62.64770612807" lon="17.856336827663">
        <ele>93</ele>
        <time>2018-01-07T12:24:21Z</time>
      </trkpt>
      <trkpt lat="62.647696321247" lon="17.856386951425">
        <ele>93</ele>
        <time>2018-01-07T12:24:22Z</time>
      </trkpt>
      <trkpt lat="62.647685927691" lon="17.856450989141">
        <ele>93</ele>
        <time>2018-01-07T12:24:23Z</time>
      </trkpt>
      <trkpt lat="62.647678635438" lon="17.856487031311">
        <ele>93.2</ele>
        <time>2018-01-07T12:24:24Z</time>
      </trkpt>
      <trkpt lat="62.647673773936" lon="17.856515529771">
        <ele>93.2</ele>
        <time>2018-01-07T12:24:25Z</time>
      </trkpt>
      <trkpt lat="62.64767176228" lon="17.856553751235">
        <ele>93.2</ele>
        <time>2018-01-07T12:24:26Z</time>
      </trkpt>
      <trkpt lat="62.647668074244" lon="17.856590044862">
        <ele>93.4</ele>
        <time>2018-01-07T12:24:27Z</time>
      </trkpt>
      <trkpt lat="62.64766757133" lon="17.856623823919">
        <ele>93.6</ele>
        <time>2018-01-07T12:24:28Z</time>
      </trkpt>
      <trkpt lat="62.647663296561" lon="17.856684760332">
        <ele>93.6</ele>
        <time>2018-01-07T12:24:29Z</time>
      </trkpt>
      <trkpt lat="62.647661955457" lon="17.856748881867">
        <ele>93.8</ele>
        <time>2018-01-07T12:24:30Z</time>
      </trkpt>
      <trkpt lat="62.647667068416" lon="17.85677629068">
        <ele>94</ele>
        <time>2018-01-07T12:24:31Z</time>
      </trkpt>
      <trkpt lat="62.647667236054" lon="17.856843681156">
        <ele>94.2</ele>
        <time>2018-01-07T12:24:32Z</time>
      </trkpt>
      <trkpt lat="62.647668828615" lon="17.856905036664">
        <ele>94.2</ele>
        <time>2018-01-07T12:24:33Z</time>
      </trkpt>
      <trkpt lat="62.647667236054" lon="17.856967817095">
        <ele>94.2</ele>
        <time>2018-01-07T12:24:34Z</time>
      </trkpt>
      <trkpt lat="62.647662458371" lon="17.857059766538">
        <ele>94.4</ele>
        <time>2018-01-07T12:24:35Z</time>
      </trkpt>
      <trkpt lat="62.647657932145" lon="17.857114835621">
        <ele>94.4</ele>
        <time>2018-01-07T12:24:36Z</time>
      </trkpt>
      <trkpt lat="62.647646532761" lon="17.857199073716">
        <ele>94.4</ele>
        <time>2018-01-07T12:24:37Z</time>
      </trkpt>
      <trkpt lat="62.647644772562" lon="17.85725573536">
        <ele>94.4</ele>
        <time>2018-01-07T12:24:38Z</time>
      </trkpt>
      <trkpt lat="62.647626751477" lon="17.857340895464">
        <ele>94.2</ele>
        <time>2018-01-07T12:24:39Z</time>
      </trkpt>
      <trkpt lat="62.647616357921" lon="17.857412393071">
        <ele>94</ele>
        <time>2018-01-07T12:24:40Z</time>
      </trkpt>
      <trkpt lat="62.647607137831" lon="17.857490344741">
        <ele>93.8</ele>
        <time>2018-01-07T12:24:41Z</time>
      </trkpt>
      <trkpt lat="62.647595654628" lon="17.857568296411">
        <ele>93.6</ele>
        <time>2018-01-07T12:24:42Z</time>
      </trkpt>
      <trkpt lat="62.647605796727" lon="17.857626802073">
        <ele>93.4</ele>
        <time>2018-01-07T12:24:43Z</time>
      </trkpt>
      <trkpt lat="62.647595906085" lon="17.857709363788">
        <ele>93.4</ele>
        <time>2018-01-07T12:24:44Z</time>
      </trkpt>
      <trkpt lat="62.647588194737" lon="17.857805671819">
        <ele>93.4</ele>
        <time>2018-01-07T12:24:45Z</time>
      </trkpt>
      <trkpt lat="62.647593894429" lon="17.857833332089">
        <ele>93.4</ele>
        <time>2018-01-07T12:24:46Z</time>
      </trkpt>
      <trkpt lat="62.647581656855" lon="17.857917318727">
        <ele>93.4</ele>
        <time>2018-01-07T12:24:47Z</time>
      </trkpt>
      <trkpt lat="62.647590206393" lon="17.857960401693">
        <ele>93.6</ele>
        <time>2018-01-07T12:24:48Z</time>
      </trkpt>
      <trkpt lat="62.647583081778" lon="17.85803441387">
        <ele>93.6</ele>
        <time>2018-01-07T12:24:49Z</time>
      </trkpt>
      <trkpt lat="62.647576795353" lon="17.85811152735">
        <ele>93.6</ele>
        <time>2018-01-07T12:24:50Z</time>
      </trkpt>
      <trkpt lat="62.647578387914" lon="17.858147401882">
        <ele>93.6</ele>
        <time>2018-01-07T12:24:51Z</time>
      </trkpt>
      <trkpt lat="62.647567910539" lon="17.858208422114">
        <ele>93.6</ele>
        <time>2018-01-07T12:24:52Z</time>
      </trkpt>
      <trkpt lat="62.64756615034" lon="17.85826994526">
        <ele>93.8</ele>
        <time>2018-01-07T12:24:53Z</time>
      </trkpt>
      <trkpt lat="62.647565647426" lon="17.858302215575">
        <ele>93.6</ele>
        <time>2018-01-07T12:24:54Z</time>
      </trkpt>
      <trkpt lat="62.647563468132" lon="17.858357284658">
        <ele>93.6</ele>
        <time>2018-01-07T12:24:55Z</time>
      </trkpt>
      <trkpt lat="62.647562294666" lon="17.858410174447">
        <ele>93.8</ele>
        <time>2018-01-07T12:24:56Z</time>
      </trkpt>
      <trkpt lat="62.64755860663" lon="17.858465830263">
        <ele>93.8</ele>
        <time>2018-01-07T12:24:57Z</time>
      </trkpt>
      <trkpt lat="62.647562629942" lon="17.858540261535">
        <ele>93.6</ele>
        <time>2018-01-07T12:24:58Z</time>
      </trkpt>
      <trkpt lat="62.647564222503" lon="17.858580578474">
        <ele>93.8</ele>
        <time>2018-01-07T12:24:59Z</time>
      </trkpt>
      <trkpt lat="62.647561707933" lon="17.858644867647">
        <ele>93.8</ele>
        <time>2018-01-07T12:25:00Z</time>
      </trkpt>
      <trkpt lat="62.647561624114" lon="17.858703457128">
        <ele>93.8</ele>
        <time>2018-01-07T12:25:01Z</time>
      </trkpt>
      <trkpt lat="62.647565479788" lon="17.858727345543">
        <ele>93.8</ele>
        <time>2018-01-07T12:25:02Z</time>
      </trkpt>
      <trkpt lat="62.64755860663" lon="17.858820216995">
        <ele>94</ele>
        <time>2018-01-07T12:25:03Z</time>
      </trkpt>
      <trkpt lat="62.647549135083" lon="17.858884757625">
        <ele>94</ele>
        <time>2018-01-07T12:25:04Z</time>
      </trkpt>
      <trkpt lat="62.647549637997" lon="17.858937228319">
        <ele>94</ele>
        <time>2018-01-07T12:25:05Z</time>
      </trkpt>
      <trkpt lat="62.647544105943" lon="17.859019706215">
        <ele>94</ele>
        <time>2018-01-07T12:25:06Z</time>
      </trkpt>
      <trkpt lat="62.647538741527" lon="17.859071841633">
        <ele>94.2</ele>
        <time>2018-01-07T12:25:07Z</time>
      </trkpt>
      <trkpt lat="62.64752591722" lon="17.859157504651">
        <ele>94.2</ele>
        <time>2018-01-07T12:25:08Z</time>
      </trkpt>
      <trkpt lat="62.647522229184" lon="17.859220368901">
        <ele>94.2</ele>
        <time>2018-01-07T12:25:09Z</time>
      </trkpt>
      <trkpt lat="62.647517283863" lon="17.859256746347">
        <ele>94</ele>
        <time>2018-01-07T12:25:10Z</time>
      </trkpt>
      <trkpt lat="62.647505465384" lon="17.859324220642">
        <ele>94</ele>
        <time>2018-01-07T12:25:11Z</time>
      </trkpt>
      <trkpt lat="62.64748736048" lon="17.859393287498">
        <ele>94.2</ele>
        <time>2018-01-07T12:25:12Z</time>
      </trkpt>
      <trkpt lat="62.647488450127" lon="17.859434610265">
        <ele>94</ele>
        <time>2018-01-07T12:25:13Z</time>
      </trkpt>
      <trkpt lat="62.647473027431" lon="17.859495965773">
        <ele>94</ele>
        <time>2018-01-07T12:25:14Z</time>
      </trkpt>
      <trkpt lat="62.647454084337" lon="17.8595741689">
        <ele>94</ele>
        <time>2018-01-07T12:25:15Z</time>
      </trkpt>
      <trkpt lat="62.647440338021" lon="17.859635859684">
        <ele>94.2</ele>
        <time>2018-01-07T12:25:16Z</time>
      </trkpt>
      <trkpt lat="62.647435476519" lon="17.859670644569">
        <ele>94.2</ele>
        <time>2018-01-07T12:25:17Z</time>
      </trkpt>
      <trkpt lat="62.64742114347" lon="17.859714733363">
        <ele>94.4</ele>
        <time>2018-01-07T12:25:18Z</time>
      </trkpt>
      <trkpt lat="62.647401446005" lon="17.859759827985">
        <ele>94.6</ele>
        <time>2018-01-07T12:25:19Z</time>
      </trkpt>
      <trkpt lat="62.647379653065" lon="17.859821351131">
        <ele>94.8</ele>
        <time>2018-01-07T12:25:20Z</time>
      </trkpt>
      <trkpt lat="62.647368588957" lon="17.859866194296">
        <ele>94.8</ele>
        <time>2018-01-07T12:25:21Z</time>
      </trkpt>
      <trkpt lat="62.647340509592" lon="17.859934506781">
        <ele>95</ele>
        <time>2018-01-07T12:25:22Z</time>
      </trkpt>
      <trkpt lat="62.647312346408" lon="17.859999298868">
        <ele>95</ele>
        <time>2018-01-07T12:25:23Z</time>
      </trkpt>
      <trkpt lat="62.647305808526" lon="17.860033161744">
        <ele>95.2</ele>
        <time>2018-01-07T12:25:24Z</time>
      </trkpt>
      <trkpt lat="62.647283512672" lon="17.860082614954">
        <ele>95.2</ele>
        <time>2018-01-07T12:25:25Z</time>
      </trkpt>
      <trkpt lat="62.647260294809" lon="17.860141288254">
        <ele>95.2</ele>
        <time>2018-01-07T12:25:26Z</time>
      </trkpt>
      <trkpt lat="62.647248643968" lon="17.860183952125">
        <ele>95.4</ele>
        <time>2018-01-07T12:25:27Z</time>
      </trkpt>
      <trkpt lat="62.647218804404" lon="17.860247989841">
        <ele>95.4</ele>
        <time>2018-01-07T12:25:28Z</time>
      </trkpt>
      <trkpt lat="62.647196173274" lon="17.860302472191">
        <ele>95.6</ele>
        <time>2018-01-07T12:25:29Z</time>
      </trkpt>
      <trkpt lat="62.647169099737" lon="17.86034781827">
        <ele>95.6</ele>
        <time>2018-01-07T12:25:30Z</time>
      </trkpt>
      <trkpt lat="62.64713951163" lon="17.860400288964">
        <ele>95.6</ele>
        <time>2018-01-07T12:25:31Z</time>
      </trkpt>
      <trkpt lat="62.647108247143" lon="17.860415795479">
        <ele>95.6</ele>
        <time>2018-01-07T12:25:32Z</time>
      </trkpt>
      <trkpt lat="62.64708083833" lon="17.86045007745">
        <ele>95.6</ele>
        <time>2018-01-07T12:25:33Z</time>
      </trkpt>
      <trkpt lat="62.647055776449" lon="17.860466254517">
        <ele>95.6</ele>
        <time>2018-01-07T12:25:34Z</time>
      </trkpt>
      <trkpt lat="62.647031468939" lon="17.86049198695">
        <ele>95.6</ele>
        <time>2018-01-07T12:25:35Z</time>
      </trkpt>
      <trkpt lat="62.647012274388" lon="17.860511684415">
        <ele>95.4</ele>
        <time>2018-01-07T12:25:36Z</time>
      </trkpt>
      <trkpt lat="62.646978998245" lon="17.860546385481">
        <ele>95.6</ele>
        <time>2018-01-07T12:25:37Z</time>
      </trkpt>
      <trkpt lat="62.646956953848" lon="17.860595587234">
        <ele>95.6</ele>
        <time>2018-01-07T12:25:38Z</time>
      </trkpt>
      <trkpt lat="62.646929293578" lon="17.860611512844">
        <ele>95.6</ele>
        <time>2018-01-07T12:25:39Z</time>
      </trkpt>
      <trkpt lat="62.646899537833" lon="17.860638586381">
        <ele>95.6</ele>
        <time>2018-01-07T12:25:40Z</time>
      </trkpt>
      <trkpt lat="62.64687464359" lon="17.86066968323">
        <ele>95.6</ele>
        <time>2018-01-07T12:25:41Z</time>
      </trkpt>
      <trkpt lat="62.646834661927" lon="17.860708659065">
        <ele>95.8</ele>
        <time>2018-01-07T12:25:42Z</time>
      </trkpt>
      <trkpt lat="62.646806666381" lon="17.860751993488">
        <ele>95.6</ele>
        <time>2018-01-07T12:25:43Z</time>
      </trkpt>
      <trkpt lat="62.646781772138" lon="17.860780491948">
        <ele>95.6</ele>
        <time>2018-01-07T12:25:44Z</time>
      </trkpt>
      <trkpt lat="62.646744975597" lon="17.860833549375">
        <ele>95.6</ele>
        <time>2018-01-07T12:25:45Z</time>
      </trkpt>
      <trkpt lat="62.646728127978" lon="17.86085827598">
        <ele>95.4</ele>
        <time>2018-01-07T12:25:46Z</time>
      </trkpt>
      <trkpt lat="62.646694516559" lon="17.860889708105">
        <ele>95.2</ele>
        <time>2018-01-07T12:25:47Z</time>
      </trkpt>
      <trkpt lat="62.646669789954" lon="17.860920972592">
        <ele>95</ele>
        <time>2018-01-07T12:25:48Z</time>
      </trkpt>
      <trkpt lat="62.646648416109" lon="17.860952069441">
        <ele>95</ele>
        <time>2018-01-07T12:25:49Z</time>
      </trkpt>
      <trkpt lat="62.646617738355" lon="17.860977969512">
        <ele>94.8</ele>
        <time>2018-01-07T12:25:50Z</time>
      </trkpt>
      <trkpt lat="62.646597286519" lon="17.861009401637">
        <ele>95</ele>
        <time>2018-01-07T12:25:51Z</time>
      </trkpt>
      <trkpt lat="62.646578846339" lon="17.861035217889">
        <ele>95</ele>
        <time>2018-01-07T12:25:52Z</time>
      </trkpt>
      <trkpt lat="62.646550766974" lon="17.861064722177">
        <ele>95.2</ele>
        <time>2018-01-07T12:25:53Z</time>
      </trkpt>
      <trkpt lat="62.646521262686" lon="17.861094477922">
        <ele>95</ele>
        <time>2018-01-07T12:25:54Z</time>
      </trkpt>
      <trkpt lat="62.646504750343" lon="17.861118366337">
        <ele>95.2</ele>
        <time>2018-01-07T12:25:55Z</time>
      </trkpt>
      <trkpt lat="62.6464798561" lon="17.861149547005">
        <ele>95.2</ele>
        <time>2018-01-07T12:25:56Z</time>
      </trkpt>
      <trkpt lat="62.646454458943" lon="17.861179973302">
        <ele>95.4</ele>
        <time>2018-01-07T12:25:57Z</time>
      </trkpt>
      <trkpt lat="62.646430738166" lon="17.861198245844">
        <ele>95.4</ele>
        <time>2018-01-07T12:25:58Z</time>
      </trkpt>
      <trkpt lat="62.646413303814" lon="17.861227163399">
        <ele>95.4</ele>
        <time>2018-01-07T12:25:59Z</time>
      </trkpt>
      <trkpt lat="62.646381201137" lon="17.861250967995">
        <ele>95.2</ele>
        <time>2018-01-07T12:26:00Z</time>
      </trkpt>
      <trkpt lat="62.646359492016" lon="17.861279634093">
        <ele>95.2</ele>
        <time>2018-01-07T12:26:01Z</time>
      </trkpt>
      <trkpt lat="62.646339375456" lon="17.861311652951">
        <ele>95.2</ele>
        <time>2018-01-07T12:26:02Z</time>
      </trkpt>
      <trkpt lat="62.646318420706" lon="17.861341241058">
        <ele>95.2</ele>
        <time>2018-01-07T12:26:03Z</time>
      </trkpt>
      <trkpt lat="62.646297465956" lon="17.861372002631">
        <ele>95.4</ele>
        <time>2018-01-07T12:26:04Z</time>
      </trkpt>
      <trkpt lat="62.64628204326" lon="17.861399243806">
        <ele>95.6</ele>
        <time>2018-01-07T12:26:05Z</time>
      </trkpt>
      <trkpt lat="62.646265614736" lon="17.861430089198">
        <ele>96</ele>
        <time>2018-01-07T12:26:06Z</time>
      </trkpt>
      <trkpt lat="62.646254885904" lon="17.861449870482">
        <ele>96.2</ele>
        <time>2018-01-07T12:26:07Z</time>
      </trkpt>
      <trkpt lat="62.646234685525" lon="17.861487169937">
        <ele>96.6</ele>
        <time>2018-01-07T12:26:08Z</time>
      </trkpt>
      <trkpt lat="62.646227980005" lon="17.861515668397">
        <ele>96.8</ele>
        <time>2018-01-07T12:26:09Z</time>
      </trkpt>
      <trkpt lat="62.646202834305" lon="17.86156403196">
        <ele>97</ele>
        <time>2018-01-07T12:26:10Z</time>
      </trkpt>
      <trkpt lat="62.646186657238" lon="17.861599403578">
        <ele>97</ele>
        <time>2018-01-07T12:26:11Z</time>
      </trkpt>
      <trkpt lat="62.646166037764" lon="17.861655729946">
        <ele>97.2</ele>
        <time>2018-01-07T12:26:12Z</time>
      </trkpt>
      <trkpt lat="62.646141394978" lon="17.861730077399">
        <ele>97.2</ele>
        <time>2018-01-07T12:26:13Z</time>
      </trkpt>
      <trkpt lat="62.646120440228" lon="17.861789337432">
        <ele>97.2</ele>
        <time>2018-01-07T12:26:14Z</time>
      </trkpt>
      <trkpt lat="62.646099150202" lon="17.861859829211">
        <ele>97</ele>
        <time>2018-01-07T12:26:15Z</time>
      </trkpt>
      <trkpt lat="62.646080626203" lon="17.861910874982">
        <ele>97</ele>
        <time>2018-01-07T12:26:16Z</time>
      </trkpt>
      <trkpt lat="62.646056905426" lon="17.861976505259">
        <ele>96.8</ele>
        <time>2018-01-07T12:26:17Z</time>
      </trkpt>
      <trkpt lat="62.646034274296" lon="17.862019839682">
        <ele>96.6</ele>
        <time>2018-01-07T12:26:18Z</time>
      </trkpt>
      <trkpt lat="62.646011391709" lon="17.862071639824">
        <ele>96.4</ele>
        <time>2018-01-07T12:26:19Z</time>
      </trkpt>
      <trkpt lat="62.645990856054" lon="17.86213316297">
        <ele>96.2</ele>
        <time>2018-01-07T12:26:20Z</time>
      </trkpt>
      <trkpt lat="62.645970823313" lon="17.862179850153">
        <ele>96.2</ele>
        <time>2018-01-07T12:26:21Z</time>
      </trkpt>
      <trkpt lat="62.645945677613" lon="17.862234751598">
        <ele>96</ele>
        <time>2018-01-07T12:26:22Z</time>
      </trkpt>
      <trkpt lat="62.645924052311" lon="17.862300465694">
        <ele>95.8</ele>
        <time>2018-01-07T12:26:23Z</time>
      </trkpt>
      <trkpt lat="62.645910473633" lon="17.86235109237">
        <ele>95.8</ele>
        <time>2018-01-07T12:26:24Z</time>
      </trkpt>
      <trkpt lat="62.645896056765" lon="17.862418650484">
        <ele>95.6</ele>
        <time>2018-01-07T12:26:25Z</time>
      </trkpt>
      <trkpt lat="62.645880466431" lon="17.862480425087">
        <ele>95.4</ele>
        <time>2018-01-07T12:26:26Z</time>
      </trkpt>
      <trkpt lat="62.645870994884" lon="17.862550246314">
        <ele>95.4</ele>
        <time>2018-01-07T12:26:27Z</time>
      </trkpt>
      <trkpt lat="62.645866217201" lon="17.862626270147">
        <ele>95.4</ele>
        <time>2018-01-07T12:26:28Z</time>
      </trkpt>
      <trkpt lat="62.645865546649" lon="17.862680920135">
        <ele>95.4</ele>
        <time>2018-01-07T12:26:29Z</time>
      </trkpt>
      <trkpt lat="62.645855656007" lon="17.862764822954">
        <ele>95.4</ele>
        <time>2018-01-07T12:26:30Z</time>
      </trkpt>
      <trkpt lat="62.645856745654" lon="17.862844115728">
        <ele>95.4</ele>
        <time>2018-01-07T12:26:31Z</time>
      </trkpt>
      <trkpt lat="62.645865379011" lon="17.862874290568">
        <ele>95.2</ele>
        <time>2018-01-07T12:26:32Z</time>
      </trkpt>
      <trkpt lat="62.645860349871" lon="17.862954002437">
        <ele>95</ele>
        <time>2018-01-07T12:26:33Z</time>
      </trkpt>
      <trkpt lat="62.645864373183" lon="17.863018207791">
        <ele>95</ele>
        <time>2018-01-07T12:26:34Z</time>
      </trkpt>
      <trkpt lat="62.645865630468" lon="17.86307361215">
        <ele>95</ele>
        <time>2018-01-07T12:26:35Z</time>
      </trkpt>
      <trkpt lat="62.645866803934" lon="17.863171345104">
        <ele>95</ele>
        <time>2018-01-07T12:26:36Z</time>
      </trkpt>
      <trkpt lat="62.645876946033" lon="17.863213673699">
        <ele>95</ele>
        <time>2018-01-07T12:26:37Z</time>
      </trkpt>
      <trkpt lat="62.645880969345" lon="17.863268575144">
        <ele>95</ele>
        <time>2018-01-07T12:26:38Z</time>
      </trkpt>
      <trkpt lat="62.645887339589" lon="17.863337390543">
        <ele>95.2</ele>
        <time>2018-01-07T12:26:39Z</time>
      </trkpt>
      <trkpt lat="62.645896308222" lon="17.863375528188">
        <ele>95.2</ele>
        <time>2018-01-07T12:26:40Z</time>
      </trkpt>
      <trkpt lat="62.64590653414" lon="17.863455072419">
        <ele>95.2</ele>
        <time>2018-01-07T12:26:41Z</time>
      </trkpt>
      <trkpt lat="62.64591743061" lon="17.863498406842">
        <ele>95.2</ele>
        <time>2018-01-07T12:26:42Z</time>
      </trkpt>
      <trkpt lat="62.645921956836" lon="17.863568563345">
        <ele>95.2</ele>
        <time>2018-01-07T12:26:43Z</time>
      </trkpt>
      <trkpt lat="62.645924219949" lon="17.863641318237">
        <ele>95.2</ele>
        <time>2018-01-07T12:26:44Z</time>
      </trkpt>
      <trkpt lat="62.645927572709" lon="17.863700997365">
        <ele>95.4</ele>
        <time>2018-01-07T12:26:45Z</time>
      </trkpt>
      <trkpt lat="62.645931428383" lon="17.863756234086">
        <ele>95.4</ele>
        <time>2018-01-07T12:26:46Z</time>
      </trkpt>
      <trkpt lat="62.645937714808" lon="17.863834604851">
        <ele>95.2</ele>
        <time>2018-01-07T12:26:47Z</time>
      </trkpt>
      <trkpt lat="62.645946934898" lon="17.863897133825">
        <ele>95.4</ele>
        <time>2018-01-07T12:26:48Z</time>
      </trkpt>
      <trkpt lat="62.645959088653" lon="17.863937115488">
        <ele>95.2</ele>
        <time>2018-01-07T12:26:49Z</time>
      </trkpt>
      <trkpt lat="62.645975684815" lon="17.863998303358">
        <ele>95.2</ele>
        <time>2018-01-07T12:26:50Z</time>
      </trkpt>
      <trkpt lat="62.645985072543" lon="17.864040631953">
        <ele>95.2</ele>
        <time>2018-01-07T12:26:51Z</time>
      </trkpt>
      <trkpt lat="62.645996555746" lon="17.864073405182">
        <ele>95.2</ele>
        <time>2018-01-07T12:26:52Z</time>
      </trkpt>
      <trkpt lat="62.646010804976" lon="17.864096623045">
        <ele>95.2</ele>
        <time>2018-01-07T12:26:53Z</time>
      </trkpt>
      <trkpt lat="62.646032011183" lon="17.864130821197">
        <ele>95.4</ele>
        <time>2018-01-07T12:26:54Z</time>
      </trkpt>
      <trkpt lat="62.646054474675" lon="17.864160241666">
        <ele>95.6</ele>
        <time>2018-01-07T12:26:55Z</time>
      </trkpt>
      <trkpt lat="62.646075261787" lon="17.864173904163">
        <ele>95.6</ele>
        <time>2018-01-07T12:26:56Z</time>
      </trkpt>
      <trkpt lat="62.646089762474" lon="17.86419008123">
        <ele>95.8</ele>
        <time>2018-01-07T12:26:57Z</time>
      </trkpt>
      <trkpt lat="62.646105352808" lon="17.864186812289">
        <ele>95.8</ele>
        <time>2018-01-07T12:26:58Z</time>
      </trkpt>
      <trkpt lat="62.6461278163" lon="17.86420684503">
        <ele>95.8</ele>
        <time>2018-01-07T12:26:59Z</time>
      </trkpt>
      <trkpt lat="62.64615044743" lon="17.864217238586">
        <ele>95.8</ele>
        <time>2018-01-07T12:27:00Z</time>
      </trkpt>
      <trkpt lat="62.646171066904" lon="17.864228973246">
        <ele>95.8</ele>
        <time>2018-01-07T12:27:01Z</time>
      </trkpt>
      <trkpt lat="62.646185986686" lon="17.864224698477">
        <ele>96</ele>
        <time>2018-01-07T12:27:02Z</time>
      </trkpt>
      <trkpt lat="62.646216077707" lon="17.864242635743">
        <ele>96.2</ele>
        <time>2018-01-07T12:27:03Z</time>
      </trkpt>
      <trkpt lat="62.646238373561" lon="17.864254957136">
        <ele>96.2</ele>
        <time>2018-01-07T12:27:04Z</time>
      </trkpt>
      <trkpt lat="62.646263686899" lon="17.864263171398">
        <ele>96.4</ele>
        <time>2018-01-07T12:27:05Z</time>
      </trkpt>
      <trkpt lat="62.64628288145" lon="17.86425713643">
        <ele>96.6</ele>
        <time>2018-01-07T12:27:06Z</time>
      </trkpt>
      <trkpt lat="62.646313475385" lon="17.864270463651">
        <ele>96.8</ele>
        <time>2018-01-07T12:27:07Z</time>
      </trkpt>
      <trkpt lat="62.646342644397" lon="17.864275744248">
        <ele>96.8</ele>
        <time>2018-01-07T12:27:08Z</time>
      </trkpt>
      <trkpt lat="62.646364018242" lon="17.86427390023">
        <ele>97</ele>
        <time>2018-01-07T12:27:09Z</time>
      </trkpt>
      <trkpt lat="62.646380027671" lon="17.864271553298">
        <ele>97</ele>
        <time>2018-01-07T12:27:10Z</time>
      </trkpt>
      <trkpt lat="62.646417243307" lon="17.864258142258">
        <ele>97.2</ele>
        <time>2018-01-07T12:27:11Z</time>
      </trkpt>
      <trkpt lat="62.646443646292" lon="17.864254035127">
        <ele>97.2</ele>
        <time>2018-01-07T12:27:12Z</time>
      </trkpt>
      <trkpt lat="62.646461248282" lon="17.864245737046">
        <ele>97.2</ele>
        <time>2018-01-07T12:27:13Z</time>
      </trkpt>
      <trkpt lat="62.64648991438" lon="17.864238528612">
        <ele>97.4</ele>
        <time>2018-01-07T12:27:14Z</time>
      </trkpt>
      <trkpt lat="62.646518077564" lon="17.864239115345">
        <ele>97.4</ele>
        <time>2018-01-07T12:27:15Z</time>
      </trkpt>
      <trkpt lat="62.646538361762" lon="17.864238444793">
        <ele>97.4</ele>
        <time>2018-01-07T12:27:16Z</time>
      </trkpt>
      <trkpt lat="62.646572979009" lon="17.864241378458">
        <ele>97.4</ele>
        <time>2018-01-07T12:27:17Z</time>
      </trkpt>
      <trkpt lat="62.646612793034" lon="17.864260070095">
        <ele>97.4</ele>
        <time>2018-01-07T12:27:18Z</time>
      </trkpt>
      <trkpt lat="62.646649924851" lon="17.864277755904">
        <ele>97.4</ele>
        <time>2018-01-07T12:27:19Z</time>
      </trkpt>
      <trkpt lat="62.646699797156" lon="17.864303739794">
        <ele>97.4</ele>
        <time>2018-01-07T12:27:20Z</time>
      </trkpt>
      <trkpt lat="62.646743634493" lon="17.864343134724">
        <ele>97.2</ele>
        <time>2018-01-07T12:27:21Z</time>
      </trkpt>
      <trkpt lat="62.646779844301" lon="17.864369202433">
        <ele>96.8</ele>
        <time>2018-01-07T12:27:22Z</time>
      </trkpt>
      <trkpt lat="62.64682435219" lon="17.864399377273">
        <ele>96.4</ele>
        <time>2018-01-07T12:27:23Z</time>
      </trkpt>
      <trkpt lat="62.646867602794" lon="17.86442812719">
        <ele>95.8</ele>
        <time>2018-01-07T12:27:24Z</time>
      </trkpt>
      <trkpt lat="62.646914960529" lon="17.86446249298">
        <ele>95.4</ele>
        <time>2018-01-07T12:27:25Z</time>
      </trkpt>
      <trkpt lat="62.646960222789" lon="17.86448512411">
        <ele>94.6</ele>
        <time>2018-01-07T12:27:26Z</time>
      </trkpt>
      <trkpt lat="62.647006742334" lon="17.864514041665">
        <ele>94.2</ele>
        <time>2018-01-07T12:27:27Z</time>
      </trkpt>
      <trkpt lat="62.647057788105" lon="17.864546395799">
        <ele>93.8</ele>
        <time>2018-01-07T12:27:28Z</time>
      </trkpt>
      <trkpt lat="62.64711268955" lon="17.864582857064">
        <ele>93.2</ele>
        <time>2018-01-07T12:27:29Z</time>
      </trkpt>
      <trkpt lat="62.647176727266" lon="17.864621329985">
        <ele>92.6</ele>
        <time>2018-01-07T12:27:30Z</time>
      </trkpt>
      <trkpt lat="62.647230119969" lon="17.864649325531">
        <ele>91.8</ele>
        <time>2018-01-07T12:27:31Z</time>
      </trkpt>
      <trkpt lat="62.647275801324" lon="17.864675979973">
        <ele>91</ele>
        <time>2018-01-07T12:27:32Z</time>
      </trkpt>
      <trkpt lat="62.647336737737" lon="17.864704897528">
        <ele>90.2</ele>
        <time>2018-01-07T12:27:33Z</time>
      </trkpt>
      <trkpt lat="62.647401278367" lon="17.864732222522">
        <ele>89.4</ele>
        <time>2018-01-07T12:27:34Z</time>
      </trkpt>
      <trkpt lat="62.647457604735" lon="17.864756027118">
        <ele>88.8</ele>
        <time>2018-01-07T12:27:35Z</time>
      </trkpt>
      <trkpt lat="62.647513512008" lon="17.86478016699">
        <ele>88.2</ele>
        <time>2018-01-07T12:27:36Z</time>
      </trkpt>
      <trkpt lat="62.647573610231" lon="17.864806486156">
        <ele>87.8</ele>
        <time>2018-01-07T12:27:37Z</time>
      </trkpt>
      <trkpt lat="62.647639156689" lon="17.864851832235">
        <ele>87.4</ele>
        <time>2018-01-07T12:27:38Z</time>
      </trkpt>
      <trkpt lat="62.647693722858" lon="17.864924000394">
        <ele>87</ele>
        <time>2018-01-07T12:27:39Z</time>
      </trkpt>
      <trkpt lat="62.647741164412" lon="17.865017207122">
        <ele>86.8</ele>
        <time>2018-01-07T12:27:40Z</time>
      </trkpt>
      <trkpt lat="62.647781816627" lon="17.865122735243">
        <ele>86.2</ele>
        <time>2018-01-07T12:27:41Z</time>
      </trkpt>
      <trkpt lat="62.64781928372" lon="17.865200519275">
        <ele>86</ele>
        <time>2018-01-07T12:27:42Z</time>
      </trkpt>
      <trkpt lat="62.647851386397" lon="17.865266401009">
        <ele>85.6</ele>
        <time>2018-01-07T12:27:43Z</time>
      </trkpt>
      <trkpt lat="62.647895978105" lon="17.865343765946">
        <ele>85.2</ele>
        <time>2018-01-07T12:27:44Z</time>
      </trkpt>
      <trkpt lat="62.647932858465" lon="17.865415431191">
        <ele>84.8</ele>
        <time>2018-01-07T12:27:45Z</time>
      </trkpt>
      <trkpt lat="62.647960434916" lon="17.865449713162">
        <ele>84.6</ele>
        <time>2018-01-07T12:27:46Z</time>
      </trkpt>
      <trkpt lat="62.648001422407" lon="17.86551358324">
        <ele>84.6</ele>
        <time>2018-01-07T12:27:47Z</time>
      </trkpt>
      <trkpt lat="62.648031261971" lon="17.865561946803">
        <ele>84.4</ele>
        <time>2018-01-07T12:27:48Z</time>
      </trkpt>
      <trkpt lat="62.648062023544" lon="17.865578207689">
        <ele>84.2</ele>
        <time>2018-01-07T12:27:49Z</time>
      </trkpt>
      <trkpt lat="62.648092617479" lon="17.865645514346">
        <ele>84.2</ele>
        <time>2018-01-07T12:27:50Z</time>
      </trkpt>
      <trkpt lat="62.648137963558" lon="17.865682394706">
        <ele>84</ele>
        <time>2018-01-07T12:27:51Z</time>
      </trkpt>
      <trkpt lat="62.648170988244" lon="17.865703265637">
        <ele>84</ele>
        <time>2018-01-07T12:27:52Z</time>
      </trkpt>
      <trkpt lat="62.648231170286" lon="17.865786749361">
        <ele>84.2</ele>
        <time>2018-01-07T12:27:53Z</time>
      </trkpt>
      <trkpt lat="62.648265536076" lon="17.865845003566">
        <ele>83.8</ele>
        <time>2018-01-07T12:27:54Z</time>
      </trkpt>
      <trkpt lat="62.648307445576" lon="17.865892780396">
        <ele>83.8</ele>
        <time>2018-01-07T12:27:55Z</time>
      </trkpt>
      <trkpt lat="62.648356731148" lon="17.865938377932">
        <ele>83.4</ele>
        <time>2018-01-07T12:27:56Z</time>
      </trkpt>
      <trkpt lat="62.6483993112" lon="17.866036949076">
        <ele>83.2</ele>
        <time>2018-01-07T12:27:57Z</time>
      </trkpt>
      <trkpt lat="62.648441723614" lon="17.866113308185">
        <ele>83.2</ele>
        <time>2018-01-07T12:27:58Z</time>
      </trkpt>
      <trkpt lat="62.64847055735" lon="17.866234929554">
        <ele>82.8</ele>
        <time>2018-01-07T12:27:59Z</time>
      </trkpt>
      <trkpt lat="62.648492434109" lon="17.866376499845">
        <ele>82.4</ele>
        <time>2018-01-07T12:28:00Z</time>
      </trkpt>
      <trkpt lat="62.648514646144" lon="17.866519243602">
        <ele>81.8</ele>
        <time>2018-01-07T12:28:01Z</time>
      </trkpt>
      <trkpt lat="62.648536019989" lon="17.866639523867">
        <ele>81.4</ele>
        <time>2018-01-07T12:28:02Z</time>
      </trkpt>
      <trkpt lat="62.648558483481" lon="17.866776400294">
        <ele>80.4</ele>
        <time>2018-01-07T12:28:03Z</time>
      </trkpt>
      <trkpt lat="62.64858287481" lon="17.866913025264">
        <ele>80</ele>
        <time>2018-01-07T12:28:04Z</time>
      </trkpt>
      <trkpt lat="62.648604500112" lon="17.867039843411">
        <ele>79.2</ele>
        <time>2018-01-07T12:28:05Z</time>
      </trkpt>
      <trkpt lat="62.64862897526" lon="17.867191220525">
        <ele>78.4</ele>
        <time>2018-01-07T12:28:06Z</time>
      </trkpt>
      <trkpt lat="62.648650600562" lon="17.867315524102">
        <ele>77.6</ele>
        <time>2018-01-07T12:28:07Z</time>
      </trkpt>
      <trkpt lat="62.648663005774" lon="17.867433792711">
        <ele>77</ele>
        <time>2018-01-07T12:28:08Z</time>
      </trkpt>
      <trkpt lat="62.648689660216" lon="17.867525993611">
        <ele>76.6</ele>
        <time>2018-01-07T12:28:09Z</time>
      </trkpt>
      <trkpt lat="62.648704831455" lon="17.867640406546">
        <ele>76.8</ele>
        <time>2018-01-07T12:28:10Z</time>
      </trkpt>
      <trkpt lat="62.648720170332" lon="17.867726488659">
        <ele>76.6</ele>
        <time>2018-01-07T12:28:11Z</time>
      </trkpt>
      <trkpt lat="62.648739783978" lon="17.867786922158">
        <ele>76.8</ele>
        <time>2018-01-07T12:28:12Z</time>
      </trkpt>
      <trkpt lat="62.648767863343" lon="17.867898820523">
        <ele>77</ele>
        <time>2018-01-07T12:28:13Z</time>
      </trkpt>
      <trkpt lat="62.648786722618" lon="17.867978113297">
        <ele>77.4</ele>
        <time>2018-01-07T12:28:14Z</time>
      </trkpt>
      <trkpt lat="62.648801558581" lon="17.868059333908">
        <ele>77.2</ele>
        <time>2018-01-07T12:28:15Z</time>
      </trkpt>
      <trkpt lat="62.648822010417" lon="17.868145583659">
        <ele>77.6</ele>
        <time>2018-01-07T12:28:16Z</time>
      </trkpt>
      <trkpt lat="62.648839277131" lon="17.868220350207">
        <ele>77.6</ele>
        <time>2018-01-07T12:28:17Z</time>
      </trkpt>
      <trkpt lat="62.648863500822" lon="17.868334260228">
        <ele>77.6</ele>
        <time>2018-01-07T12:28:18Z</time>
      </trkpt>
      <trkpt lat="62.648887808332" lon="17.868441213272">
        <ele>77.2</ele>
        <time>2018-01-07T12:28:19Z</time>
      </trkpt>
      <trkpt lat="62.648908595444" lon="17.868492007586">
        <ele>77</ele>
        <time>2018-01-07T12:28:20Z</time>
      </trkpt>
      <trkpt lat="62.648932148583" lon="17.868560822985">
        <ele>76.8</ele>
        <time>2018-01-07T12:28:21Z</time>
      </trkpt>
      <trkpt lat="62.648970286228" lon="17.86860650434">
        <ele>76.6</ele>
        <time>2018-01-07T12:28:22Z</time>
      </trkpt>
      <trkpt lat="62.648993420272" lon="17.868686886761">
        <ele>76.6</ele>
        <time>2018-01-07T12:28:23Z</time>
      </trkpt>
      <trkpt lat="62.649022673103" lon="17.868731897564">
        <ele>76.4</ele>
        <time>2018-01-07T12:28:24Z</time>
      </trkpt>
      <trkpt lat="62.649055697789" lon="17.868806580293">
        <ele>76.4</ele>
        <time>2018-01-07T12:28:25Z</time>
      </trkpt>
      <trkpt lat="62.649082268412" lon="17.868906241084">
        <ele>76.6</ele>
        <time>2018-01-07T12:28:26Z</time>
      </trkpt>
      <trkpt lat="62.649112694709" lon="17.868957873588">
        <ele>76.4</ele>
        <time>2018-01-07T12:28:27Z</time>
      </trkpt>
      <trkpt lat="62.649130296699" lon="17.869030125566">
        <ele>76.2</ele>
        <time>2018-01-07T12:28:28Z</time>
      </trkpt>
      <trkpt lat="62.64915954953" lon="17.869102796639">
        <ele>76.2</ele>
        <time>2018-01-07T12:28:29Z</time>
      </trkpt>
      <trkpt lat="62.649197435718" lon="17.869161889034">
        <ele>76</ele>
        <time>2018-01-07T12:28:30Z</time>
      </trkpt>
      <trkpt lat="62.649223838703" lon="17.869248054966">
        <ele>75.8</ele>
        <time>2018-01-07T12:28:31Z</time>
      </trkpt>
      <trkpt lat="62.649250996059" lon="17.869300609479">
        <ele>75.6</ele>
        <time>2018-01-07T12:28:32Z</time>
      </trkpt>
      <trkpt lat="62.649278656329" lon="17.869379064063">
        <ele>75.4</ele>
        <time>2018-01-07T12:28:33Z</time>
      </trkpt>
      <trkpt lat="62.649305646047" lon="17.869447879462">
        <ele>75.2</ele>
        <time>2018-01-07T12:28:34Z</time>
      </trkpt>
      <trkpt lat="62.649331210842" lon="17.869539493629">
        <ele>75.2</ele>
        <time>2018-01-07T12:28:35Z</time>
      </trkpt>
      <trkpt lat="62.649361637139" lon="17.869619456955">
        <ele>74.6</ele>
        <time>2018-01-07T12:28:36Z</time>
      </trkpt>
      <trkpt lat="62.649390470875" lon="17.869681985929">
        <ele>74.4</ele>
        <time>2018-01-07T12:28:37Z</time>
      </trkpt>
      <trkpt lat="62.649430787814" lon="17.869770414974">
        <ele>74.2</ele>
        <time>2018-01-07T12:28:38Z</time>
      </trkpt>
      <trkpt lat="62.649459202455" lon="17.869846271169">
        <ele>74</ele>
        <time>2018-01-07T12:28:39Z</time>
      </trkpt>
      <trkpt lat="62.64949231096" lon="17.869920953898">
        <ele>73.8</ele>
        <time>2018-01-07T12:28:40Z</time>
      </trkpt>
      <trkpt lat="62.649532963175" lon="17.87000460526">
        <ele>73.4</ele>
        <time>2018-01-07T12:28:41Z</time>
      </trkpt>
      <trkpt lat="62.649570011173" lon="17.870078701256">
        <ele>73.2</ele>
        <time>2018-01-07T12:28:42Z</time>
      </trkpt>
      <trkpt lat="62.649609741379" lon="17.870158748401">
        <ele>73</ele>
        <time>2018-01-07T12:28:43Z</time>
      </trkpt>
      <trkpt lat="62.649647795205" lon="17.870246506894">
        <ele>72.6</ele>
        <time>2018-01-07T12:28:44Z</time>
      </trkpt>
      <trkpt lat="62.649682496271" lon="17.870328314238">
        <ele>72</ele>
        <time>2018-01-07T12:28:45Z</time>
      </trkpt>
      <trkpt lat="62.64971107855" lon="17.870411714143">
        <ele>71.4</ele>
        <time>2018-01-07T12:28:46Z</time>
      </trkpt>
      <trkpt lat="62.649736308069" lon="17.870506345794">
        <ele>70.8</ele>
        <time>2018-01-07T12:28:47Z</time>
      </trkpt>
      <trkpt lat="62.649766902004" lon="17.87061396939">
        <ele>70.4</ele>
        <time>2018-01-07T12:28:48Z</time>
      </trkpt>
      <trkpt lat="62.649792802075" lon="17.870718826959">
        <ele>70.2</ele>
        <time>2018-01-07T12:28:49Z</time>
      </trkpt>
      <trkpt lat="62.649814846472" lon="17.870795940439">
        <ele>70</ele>
        <time>2018-01-07T12:28:50Z</time>
      </trkpt>
      <trkpt lat="62.64983177791" lon="17.870869533521">
        <ele>70.2</ele>
        <time>2018-01-07T12:28:51Z</time>
      </trkpt>
      <trkpt lat="62.649856001601" lon="17.870944802983">
        <ele>70.2</ele>
        <time>2018-01-07T12:28:52Z</time>
      </trkpt>
      <trkpt lat="62.649876788713" lon="17.871021581187">
        <ele>70.2</ele>
        <time>2018-01-07T12:28:53Z</time>
      </trkpt>
      <trkpt lat="62.649893887789" lon="17.871112021888">
        <ele>70</ele>
        <time>2018-01-07T12:28:54Z</time>
      </trkpt>
      <trkpt lat="62.649901934413" lon="17.871220399855">
        <ele>70</ele>
        <time>2018-01-07T12:28:55Z</time>
      </trkpt>
      <trkpt lat="62.649928924131" lon="17.871277648232">
        <ele>70</ele>
        <time>2018-01-07T12:28:56Z</time>
      </trkpt>
      <trkpt lat="62.649941329343" lon="17.871372196064">
        <ele>70</ele>
        <time>2018-01-07T12:28:57Z</time>
      </trkpt>
      <trkpt lat="62.649956584401" lon="17.871458194358">
        <ele>70.2</ele>
        <time>2018-01-07T12:28:58Z</time>
      </trkpt>
      <trkpt lat="62.649971168907" lon="17.87153346382">
        <ele>70.2</ele>
        <time>2018-01-07T12:28:59Z</time>
      </trkpt>
      <trkpt lat="62.649986675422" lon="17.871619126838">
        <ele>70.2</ele>
        <time>2018-01-07T12:29:00Z</time>
      </trkpt>
      <trkpt lat="62.650001259928" lon="17.871685343848">
        <ele>70</ele>
        <time>2018-01-07T12:29:01Z</time>
      </trkpt>
      <trkpt lat="62.650012575493" lon="17.871757595826">
        <ele>70</ele>
        <time>2018-01-07T12:29:02Z</time>
      </trkpt>
      <trkpt lat="62.650030931854" lon="17.871830434537">
        <ele>70</ele>
        <time>2018-01-07T12:29:03Z</time>
      </trkpt>
      <trkpt lat="62.650047025102" lon="17.871892628235">
        <ele>69.8</ele>
        <time>2018-01-07T12:29:04Z</time>
      </trkpt>
      <trkpt lat="62.650063537445" lon="17.871957001227">
        <ele>70</ele>
        <time>2018-01-07T12:29:05Z</time>
      </trkpt>
      <trkpt lat="62.650081139435" lon="17.872014417242">
        <ele>70</ele>
        <time>2018-01-07T12:29:06Z</time>
      </trkpt>
      <trkpt lat="62.650079714512" lon="17.872065798289">
        <ele>69.8</ele>
        <time>2018-01-07T12:29:07Z</time>
      </trkpt>
      <trkpt lat="62.650060268504" lon="17.872118017526">
        <ele>69.8</ele>
        <time>2018-01-07T12:29:08Z</time>
      </trkpt>
      <trkpt lat="62.650037888831" lon="17.872113407481">
        <ele>70</ele>
        <time>2018-01-07T12:29:09Z</time>
      </trkpt>
      <trkpt lat="62.65000612143" lon="17.872070156877">
        <ele>70</ele>
        <time>2018-01-07T12:29:10Z</time>
      </trkpt>
      <trkpt lat="62.649999751186" lon="17.872013495233">
        <ele>70</ele>
        <time>2018-01-07T12:29:11Z</time>
      </trkpt>
      <trkpt lat="62.649990531096" lon="17.871966305136">
        <ele>70.2</ele>
        <time>2018-01-07T12:29:12Z</time>
      </trkpt>
      <trkpt lat="62.649973180563" lon="17.871897322099">
        <ele>70.2</ele>
        <time>2018-01-07T12:29:13Z</time>
      </trkpt>
      <trkpt lat="62.649957087315" lon="17.871847365975">
        <ele>70.2</ele>
        <time>2018-01-07T12:29:14Z</time>
      </trkpt>
      <trkpt lat="62.649950214157" lon="17.871802355172">
        <ele>70.6</ele>
        <time>2018-01-07T12:29:15Z</time>
      </trkpt>
      <trkpt lat="62.649928337398" lon="17.871744855338">
        <ele>70.4</ele>
        <time>2018-01-07T12:29:16Z</time>
      </trkpt>
      <trkpt lat="62.649909561942" lon="17.871707220607">
        <ele>70.2</ele>
        <time>2018-01-07T12:29:17Z</time>
      </trkpt>
      <trkpt lat="62.649903107879" lon="17.871630945317">
        <ele>70.2</ele>
        <time>2018-01-07T12:29:18Z</time>
      </trkpt>
      <trkpt lat="62.649884080966" lon="17.871590879835">
        <ele>70</ele>
        <time>2018-01-07T12:29:19Z</time>
      </trkpt>
      <trkpt lat="62.64988123112" lon="17.871536229847">
        <ele>69.8</ele>
        <time>2018-01-07T12:29:20Z</time>
      </trkpt>
      <trkpt lat="62.649863880587" lon="17.871484513524">
        <ele>69.8</ele>
        <time>2018-01-07T12:29:21Z</time>
      </trkpt>
      <trkpt lat="62.649859354361" lon="17.871442352567">
        <ele>69.8</ele>
        <time>2018-01-07T12:29:22Z</time>
      </trkpt>
      <trkpt lat="62.649840243629" lon="17.871383176353">
        <ele>70</ele>
        <time>2018-01-07T12:29:23Z</time>
      </trkpt>
      <trkpt lat="62.64983010153" lon="17.871352163323">
        <ele>70</ele>
        <time>2018-01-07T12:29:24Z</time>
      </trkpt>
      <trkpt lat="62.649821551992" lon="17.87129038872">
        <ele>70</ele>
        <time>2018-01-07T12:29:25Z</time>
      </trkpt>
      <trkpt lat="62.649807051305" lon="17.871249149772">
        <ele>70</ele>
        <time>2018-01-07T12:29:26Z</time>
      </trkpt>
      <trkpt lat="62.649801100156" lon="17.871201708218">
        <ele>70</ele>
        <time>2018-01-07T12:29:27Z</time>
      </trkpt>
      <trkpt lat="62.649785761279" lon="17.871154350483">
        <ele>70</ele>
        <time>2018-01-07T12:29:28Z</time>
      </trkpt>
      <trkpt lat="62.649772769334" lon="17.871122080168">
        <ele>70</ele>
        <time>2018-01-07T12:29:29Z</time>
      </trkpt>
      <trkpt lat="62.649760699398" lon="17.87105653371">
        <ele>70</ele>
        <time>2018-01-07T12:29:30Z</time>
      </trkpt>
      <trkpt lat="62.649737397716" lon="17.871035159865">
        <ele>70.2</ele>
        <time>2018-01-07T12:29:31Z</time>
      </trkpt>
      <trkpt lat="62.649733122947" lon="17.870984281732">
        <ele>70.4</ele>
        <time>2018-01-07T12:29:32Z</time>
      </trkpt>
      <trkpt lat="62.649715604776" lon="17.870943210422">
        <ele>70.4</ele>
        <time>2018-01-07T12:29:33Z</time>
      </trkpt>
      <trkpt lat="62.649706971419" lon="17.870902390569">
        <ele>70.6</ele>
        <time>2018-01-07T12:29:34Z</time>
      </trkpt>
      <trkpt lat="62.649696158768" lon="17.870845561287">
        <ele>70.6</ele>
        <time>2018-01-07T12:29:35Z</time>
      </trkpt>
      <trkpt lat="62.649682077176" lon="17.870813207153">
        <ele>70.8</ele>
        <time>2018-01-07T12:29:36Z</time>
      </trkpt>
      <trkpt lat="62.649670677792" lon="17.870759898269">
        <ele>70.8</ele>
        <time>2018-01-07T12:29:37Z</time>
      </trkpt>
      <trkpt lat="62.649653578716" lon="17.870720754796">
        <ele>71</ele>
        <time>2018-01-07T12:29:38Z</time>
      </trkpt>
      <trkpt lat="62.649644107169" lon="17.870666859179">
        <ele>71.2</ele>
        <time>2018-01-07T12:29:39Z</time>
      </trkpt>
      <trkpt lat="62.649633881251" lon="17.870617405969">
        <ele>71.2</ele>
        <time>2018-01-07T12:29:40Z</time>
      </trkpt>
      <trkpt lat="62.649615105795" lon="17.870591002984">
        <ele>71.2</ele>
        <time>2018-01-07T12:29:41Z</time>
      </trkpt>
      <trkpt lat="62.649601527117" lon="17.870535682444">
        <ele>71.2</ele>
        <time>2018-01-07T12:29:42Z</time>
      </trkpt>
      <trkpt lat="62.649587110249" lon="17.870513973323">
        <ele>71.2</ele>
        <time>2018-01-07T12:29:43Z</time>
      </trkpt>
      <trkpt lat="62.649568502431" lon="17.87046644795">
        <ele>71.4</ele>
        <time>2018-01-07T12:29:44Z</time>
      </trkpt>
      <trkpt lat="62.649560874902" lon="17.870465777398">
        <ele>71.4</ele>
        <time>2018-01-07T12:29:45Z</time>
      </trkpt>
      <trkpt lat="62.64953673503" lon="17.870416910921">
        <ele>71.6</ele>
        <time>2018-01-07T12:29:46Z</time>
      </trkpt>
      <trkpt lat="62.649520977058" lon="17.870366787159">
        <ele>71.8</ele>
        <time>2018-01-07T12:29:47Z</time>
      </trkpt>
      <trkpt lat="62.649511421692" lon="17.870333678654">
        <ele>71.8</ele>
        <time>2018-01-07T12:29:48Z</time>
      </trkpt>
      <trkpt lat="62.649502620697" lon="17.870311131343">
        <ele>72.2</ele>
        <time>2018-01-07T12:29:49Z</time>
      </trkpt>
      <trkpt lat="62.649487952372" lon="17.870287159109">
        <ele>72.2</ele>
        <time>2018-01-07T12:29:50Z</time>
      </trkpt>
      <trkpt lat="62.649467081441" lon="17.870260504667">
        <ele>72.4</ele>
        <time>2018-01-07T12:29:51Z</time>
      </trkpt>
      <trkpt lat="62.64945123965" lon="17.870237035347">
        <ele>72.4</ele>
        <time>2018-01-07T12:29:52Z</time>
      </trkpt>
      <trkpt lat="62.649430620176" lon="17.870210632362">
        <ele>72.4</ele>
        <time>2018-01-07T12:29:53Z</time>
      </trkpt>
      <trkpt lat="62.649412934367" lon="17.870180122246">
        <ele>72.4</ele>
        <time>2018-01-07T12:29:54Z</time>
      </trkpt>
      <trkpt lat="62.649400780612" lon="17.870162352618">
        <ele>72.2</ele>
        <time>2018-01-07T12:29:55Z</time>
      </trkpt>
      <trkpt lat="62.649387453391" lon="17.87014039204">
        <ele>72.2</ele>
        <time>2018-01-07T12:29:56Z</time>
      </trkpt>
      <trkpt lat="62.649371695419" lon="17.870112647951">
        <ele>72.4</ele>
        <time>2018-01-07T12:29:57Z</time>
      </trkpt>
      <trkpt lat="62.649353255239" lon="17.870074426487">
        <ele>72.6</ele>
        <time>2018-01-07T12:29:58Z</time>
      </trkpt>
      <trkpt lat="62.64933892219" lon="17.87003980924">
        <ele>72.8</ele>
        <time>2018-01-07T12:29:59Z</time>
      </trkpt>
      <trkpt lat="62.649325846426" lon="17.870021117603">
        <ele>73</ele>
        <time>2018-01-07T12:30:00Z</time>
      </trkpt>
      <trkpt lat="62.6493045564" lon="17.869978202275">
        <ele>73.2</ele>
        <time>2018-01-07T12:30:01Z</time>
      </trkpt>
      <trkpt lat="62.649287205867" lon="17.869946015779">
        <ele>73.2</ele>
        <time>2018-01-07T12:30:02Z</time>
      </trkpt>
      <trkpt lat="62.649273459551" lon="17.869925731581">
        <ele>73.2</ele>
        <time>2018-01-07T12:30:03Z</time>
      </trkpt>
      <trkpt lat="62.649251918068" lon="17.869885749918">
        <ele>73.4</ele>
        <time>2018-01-07T12:30:04Z</time>
      </trkpt>
      <trkpt lat="62.649233226431" lon="17.869858844019">
        <ele>73.4</ele>
        <time>2018-01-07T12:30:05Z</time>
      </trkpt>
      <trkpt lat="62.64921906102" lon="17.86983948183">
        <ele>73.6</ele>
        <time>2018-01-07T12:30:06Z</time>
      </trkpt>
      <trkpt lat="62.649199950288" lon="17.869788938973">
        <ele>73.6</ele>
        <time>2018-01-07T12:30:07Z</time>
      </trkpt>
      <trkpt lat="62.649191149293" lon="17.869758931771">
        <ele>73.8</ele>
        <time>2018-01-07T12:30:08Z</time>
      </trkpt>
      <trkpt lat="62.649181845384" lon="17.8697330317">
        <ele>74</ele>
        <time>2018-01-07T12:30:09Z</time>
      </trkpt>
      <trkpt lat="62.649162986109" lon="17.869694139684">
        <ele>74</ele>
        <time>2018-01-07T12:30:10Z</time>
      </trkpt>
      <trkpt lat="62.649144126834" lon="17.869658348971">
        <ele>74.2</ele>
        <time>2018-01-07T12:30:11Z</time>
      </trkpt>
      <trkpt lat="62.64913105107" lon="17.869627587398">
        <ele>74.4</ele>
        <time>2018-01-07T12:30:12Z</time>
      </trkpt>
      <trkpt lat="62.649119651686" lon="17.869592551056">
        <ele>74.4</ele>
        <time>2018-01-07T12:30:13Z</time>
      </trkpt>
      <trkpt lat="62.64910841994" lon="17.869565226062">
        <ele>74.6</ele>
        <time>2018-01-07T12:30:14Z</time>
      </trkpt>
      <trkpt lat="62.649092661968" lon="17.869517952146">
        <ele>75</ele>
        <time>2018-01-07T12:30:15Z</time>
      </trkpt>
      <trkpt lat="62.649075311435" lon="17.869481993795">
        <ele>75</ele>
        <time>2018-01-07T12:30:16Z</time>
      </trkpt>
      <trkpt lat="62.649063744413" lon="17.869449052928">
        <ele>75.2</ele>
        <time>2018-01-07T12:30:17Z</time>
      </trkpt>
      <trkpt lat="62.649048237898" lon="17.869407311066">
        <ele>75.2</ele>
        <time>2018-01-07T12:30:18Z</time>
      </trkpt>
      <trkpt lat="62.649027702243" lon="17.869357103485">
        <ele>75.2</ele>
        <time>2018-01-07T12:30:19Z</time>
      </trkpt>
      <trkpt lat="62.64902040999" lon="17.869334304717">
        <ele>75.2</ele>
        <time>2018-01-07T12:30:20Z</time>
      </trkpt>
      <trkpt lat="62.649005490208" lon="17.869290048285">
        <ele>75.2</ele>
        <time>2018-01-07T12:30:21Z</time>
      </trkpt>
      <trkpt lat="62.648983781087" lon="17.869255179581">
        <ele>75.2</ele>
        <time>2018-01-07T12:30:22Z</time>
      </trkpt>
      <trkpt lat="62.648972297884" lon="17.869220143239">
        <ele>75.2</ele>
        <time>2018-01-07T12:30:23Z</time>
      </trkpt>
      <trkpt lat="62.648954779713" lon="17.869173791332">
        <ele>75.2</ele>
        <time>2018-01-07T12:30:24Z</time>
      </trkpt>
      <trkpt lat="62.648936088076" lon="17.869135821325">
        <ele>75.2</ele>
        <time>2018-01-07T12:30:25Z</time>
      </trkpt>
      <trkpt lat="62.648926784167" lon="17.869106317037">
        <ele>75.2</ele>
        <time>2018-01-07T12:30:26Z</time>
      </trkpt>
      <trkpt lat="62.648914211317" lon="17.869078489129">
        <ele>75.4</ele>
        <time>2018-01-07T12:30:27Z</time>
      </trkpt>
      <trkpt lat="62.648893340386" lon="17.86903230486">
        <ele>75.4</ele>
        <time>2018-01-07T12:30:28Z</time>
      </trkpt>
      <trkpt lat="62.648880767536" lon="17.868993161387">
        <ele>75.4</ele>
        <time>2018-01-07T12:30:29Z</time>
      </trkpt>
      <trkpt lat="62.648864674288" lon="17.868969608248">
        <ele>75.6</ele>
        <time>2018-01-07T12:30:30Z</time>
      </trkpt>
      <trkpt lat="62.648847239936" lon="17.868910264396">
        <ele>75.8</ele>
        <time>2018-01-07T12:30:31Z</time>
      </trkpt>
      <trkpt lat="62.648837349294" lon="17.868876485339">
        <ele>75.8</ele>
        <time>2018-01-07T12:30:32Z</time>
      </trkpt>
      <trkpt lat="62.648823602978" lon="17.868853686571">
        <ele>76</ele>
        <time>2018-01-07T12:30:33Z</time>
      </trkpt>
      <trkpt lat="62.648812287413" lon="17.868809681596">
        <ele>76</ele>
        <time>2018-01-07T12:30:34Z</time>
      </trkpt>
      <trkpt lat="62.648796026527" lon="17.868762575318">
        <ele>76.2</ele>
        <time>2018-01-07T12:30:35Z</time>
      </trkpt>
      <trkpt lat="62.648784291867" lon="17.868728125709">
        <ele>76</ele>
        <time>2018-01-07T12:30:36Z</time>
      </trkpt>
      <trkpt lat="62.648771635198" lon="17.86867439773">
        <ele>76</ele>
        <time>2018-01-07T12:30:37Z</time>
      </trkpt>
      <trkpt lat="62.648759062348" lon="17.868630392755">
        <ele>76.2</ele>
        <time>2018-01-07T12:30:38Z</time>
      </trkpt>
      <trkpt lat="62.648752608285" lon="17.868599379725">
        <ele>76.2</ele>
        <time>2018-01-07T12:30:39Z</time>
      </trkpt>
      <trkpt lat="62.648739867797" lon="17.868547411945">
        <ele>76.2</ele>
        <time>2018-01-07T12:30:40Z</time>
      </trkpt>
      <trkpt lat="62.648730563888" lon="17.86849670145">
        <ele>76</ele>
        <time>2018-01-07T12:30:41Z</time>
      </trkpt>
      <trkpt lat="62.648720254151" lon="17.868462000384">
        <ele>76</ele>
        <time>2018-01-07T12:30:42Z</time>
      </trkpt>
      <trkpt lat="62.648704831455" lon="17.868392095338">
        <ele>76.2</ele>
        <time>2018-01-07T12:30:43Z</time>
      </trkpt>
      <trkpt lat="62.648695443727" lon="17.86836091467">
        <ele>76</ele>
        <time>2018-01-07T12:30:44Z</time>
      </trkpt>
      <trkpt lat="62.648688402931" lon="17.86832571069">
        <ele>76.2</ele>
        <time>2018-01-07T12:30:45Z</time>
      </trkpt>
      <trkpt lat="62.648679937212" lon="17.868283633552">
        <ele>76.2</ele>
        <time>2018-01-07T12:30:46Z</time>
      </trkpt>
      <trkpt lat="62.648673734606" lon="17.868234264161">
        <ele>76.4</ele>
        <time>2018-01-07T12:30:47Z</time>
      </trkpt>
      <trkpt lat="62.648664346878" lon="17.868189672453">
        <ele>76.4</ele>
        <time>2018-01-07T12:30:48Z</time>
      </trkpt>
      <trkpt lat="62.648658814824" lon="17.86816058726">
        <ele>76.4</ele>
        <time>2018-01-07T12:30:49Z</time>
      </trkpt>
      <trkpt lat="62.648648588906" lon="17.868109709127">
        <ele>76.6</ele>
        <time>2018-01-07T12:30:50Z</time>
      </trkpt>
      <trkpt lat="62.648638446807" lon="17.868066542342">
        <ele>76.8</ele>
        <time>2018-01-07T12:30:51Z</time>
      </trkpt>
      <trkpt lat="62.648631825106" lon="17.868017759684">
        <ele>77.2</ele>
        <time>2018-01-07T12:30:52Z</time>
      </trkpt>
      <trkpt lat="62.648613971659" lon="17.867956571814">
        <ele>77</ele>
        <time>2018-01-07T12:30:53Z</time>
      </trkpt>
      <trkpt lat="62.648611708546" lon="17.867929330639">
        <ele>77.2</ele>
        <time>2018-01-07T12:30:54Z</time>
      </trkpt>
      <trkpt lat="62.648599135696" lon="17.867853055349">
        <ele>77.2</ele>
        <time>2018-01-07T12:30:55Z</time>
      </trkpt>
      <trkpt lat="62.648590586158" lon="17.86781944393">
        <ele>77.2</ele>
        <time>2018-01-07T12:30:56Z</time>
      </trkpt>
      <trkpt lat="62.648580024964" lon="17.867750209436">
        <ele>77.4</ele>
        <time>2018-01-07T12:30:57Z</time>
      </trkpt>
      <trkpt lat="62.648574828186" lon="17.867720286053">
        <ele>77.6</ele>
        <time>2018-01-07T12:30:58Z</time>
      </trkpt>
      <trkpt lat="62.648565021363" lon="17.867641663831">
        <ele>77.8</ele>
        <time>2018-01-07T12:30:59Z</time>
      </trkpt>
      <trkpt lat="62.648551358866" lon="17.86759899996">
        <ele>77.8</ele>
        <time>2018-01-07T12:31:00Z</time>
      </trkpt>
      <trkpt lat="62.648548173744" lon="17.867565304722">
        <ele>77.8</ele>
        <time>2018-01-07T12:31:01Z</time>
      </trkpt>
      <trkpt lat="62.648538031645" lon="17.867486850138">
        <ele>77.8</ele>
        <time>2018-01-07T12:31:02Z</time>
      </trkpt>
      <trkpt lat="62.648532248134" lon="17.867451562339">
        <ele>77.8</ele>
        <time>2018-01-07T12:31:03Z</time>
      </trkpt>
      <trkpt lat="62.648524285329" lon="17.867378472171">
        <ele>77.8</ele>
        <time>2018-01-07T12:31:04Z</time>
      </trkpt>
      <trkpt lat="62.64851414323" lon="17.867312255161">
        <ele>77.8</ele>
        <time>2018-01-07T12:31:05Z</time>
      </trkpt>
      <trkpt lat="62.64851079047" lon="17.867289959307">
        <ele>77.8</ele>
        <time>2018-01-07T12:31:06Z</time>
      </trkpt>
      <trkpt lat="62.648501318923" lon="17.867218377881">
        <ele>77.8</ele>
        <time>2018-01-07T12:31:07Z</time>
      </trkpt>
      <trkpt lat="62.648490170996" lon="17.867166326282">
        <ele>77.8</ele>
        <time>2018-01-07T12:31:08Z</time>
      </trkpt>
      <trkpt lat="62.648487740245" lon="17.867133133958">
        <ele>77.8</ele>
        <time>2018-01-07T12:31:09Z</time>
      </trkpt>
      <trkpt lat="62.648474580662" lon="17.867086530594">
        <ele>78</ele>
        <time>2018-01-07T12:31:10Z</time>
      </trkpt>
      <trkpt lat="62.648462259269" lon="17.867025510362">
        <ele>78</ele>
        <time>2018-01-07T12:31:11Z</time>
      </trkpt>
      <trkpt lat="62.648455637568" lon="17.866982343577">
        <ele>78.2</ele>
        <time>2018-01-07T12:31:12Z</time>
      </trkpt>
      <trkpt lat="62.648453961188" lon="17.866937500412">
        <ele>78.2</ele>
        <time>2018-01-07T12:31:13Z</time>
      </trkpt>
      <trkpt lat="62.64844624984" lon="17.866897518749">
        <ele>78.4</ele>
        <time>2018-01-07T12:31:14Z</time>
      </trkpt>
      <trkpt lat="62.648442645623" lon="17.866849574281">
        <ele>78.6</ele>
        <time>2018-01-07T12:31:15Z</time>
      </trkpt>
      <trkpt lat="62.648435185732" lon="17.866807078048">
        <ele>78.8</ele>
        <time>2018-01-07T12:31:16Z</time>
      </trkpt>
      <trkpt lat="62.648428061117" lon="17.86674739892">
        <ele>79.2</ele>
        <time>2018-01-07T12:31:18Z</time>
      </trkpt>
      <trkpt lat="62.648422948158" lon="17.86669543114">
        <ele>79.4</ele>
        <time>2018-01-07T12:31:19Z</time>
      </trkpt>
      <trkpt lat="62.648418757208" lon="17.86665855078">
        <ele>79.6</ele>
        <time>2018-01-07T12:31:20Z</time>
      </trkpt>
      <trkpt lat="62.648413979525" lon="17.866623682076">
        <ele>79.8</ele>
        <time>2018-01-07T12:31:21Z</time>
      </trkpt>
      <trkpt lat="62.648409620937" lon="17.866591914675">
        <ele>80</ele>
        <time>2018-01-07T12:31:22Z</time>
      </trkpt>
      <trkpt lat="62.648402747779" lon="17.866547574424">
        <ele>80.2</ele>
        <time>2018-01-07T12:31:23Z</time>
      </trkpt>
      <trkpt lat="62.648398724467" lon="17.866508263313">
        <ele>80.2</ele>
        <time>2018-01-07T12:31:24Z</time>
      </trkpt>
      <trkpt lat="62.648391013119" lon="17.866472724057">
        <ele>80.4</ele>
        <time>2018-01-07T12:31:25Z</time>
      </trkpt>
      <trkpt lat="62.648387157445" lon="17.866431149833">
        <ele>80.4</ele>
        <time>2018-01-07T12:31:26Z</time>
      </trkpt>
      <trkpt lat="62.64837919464" lon="17.866396364948">
        <ele>80.6</ele>
        <time>2018-01-07T12:31:27Z</time>
      </trkpt>
      <trkpt lat="62.648375506604" lon="17.866358897855">
        <ele>80.8</ele>
        <time>2018-01-07T12:31:28Z</time>
      </trkpt>
      <trkpt lat="62.648367795256" lon="17.866321849857">
        <ele>80.8</ele>
        <time>2018-01-07T12:31:29Z</time>
      </trkpt>
      <trkpt lat="62.648360083908" lon="17.866289411904">
        <ele>80.8</ele>
        <time>2018-01-07T12:31:30Z</time>
      </trkpt>
      <trkpt lat="62.648351450551" lon="17.86626124872">
        <ele>81</ele>
        <time>2018-01-07T12:31:31Z</time>
      </trkpt>
      <trkpt lat="62.648342649556" lon="17.866234678097">
        <ele>81.4</ele>
        <time>2018-01-07T12:31:32Z</time>
      </trkpt>
      <trkpt lat="62.648332172181" lon="17.866204419438">
        <ele>81.6</ele>
        <time>2018-01-07T12:31:33Z</time>
      </trkpt>
      <trkpt lat="62.648322784453" lon="17.86618078248">
        <ele>81.8</ele>
        <time>2018-01-07T12:31:34Z</time>
      </trkpt>
      <trkpt lat="62.648308870499" lon="17.866162090843">
        <ele>82</ele>
        <time>2018-01-07T12:31:35Z</time>
      </trkpt>
      <trkpt lat="62.648288586301" lon="17.866142477197">
        <ele>82.2</ele>
        <time>2018-01-07T12:31:36Z</time>
      </trkpt>
      <trkpt lat="62.648272576872" lon="17.866129317614">
        <ele>82.4</ele>
        <time>2018-01-07T12:31:37Z</time>
      </trkpt>
      <trkpt lat="62.64825514252" lon="17.866116074212">
        <ele>82.6</ele>
        <time>2018-01-07T12:31:38Z</time>
      </trkpt>
      <trkpt lat="62.648237456711" lon="17.866112386176">
        <ele>83</ele>
        <time>2018-01-07T12:31:39Z</time>
      </trkpt>
      <trkpt lat="62.648227063155" lon="17.866109955425">
        <ele>83</ele>
        <time>2018-01-07T12:31:40Z</time>
      </trkpt>
      <trkpt lat="62.648208706794" lon="17.866104591009">
        <ele>83.4</ele>
        <time>2018-01-07T12:31:41Z</time>
      </trkpt>
      <trkpt lat="62.648190350433" lon="17.866114397832">
        <ele>83.8</ele>
        <time>2018-01-07T12:31:42Z</time>
      </trkpt>
      <trkpt lat="62.648167886941" lon="17.866119846067">
        <ele>84</ele>
        <time>2018-01-07T12:31:43Z</time>
      </trkpt>
      <trkpt lat="62.648153972987" lon="17.866129904347">
        <ele>84.2</ele>
        <time>2018-01-07T12:31:44Z</time>
      </trkpt>
      <trkpt lat="62.648136706273" lon="17.866136023134">
        <ele>84.4</ele>
        <time>2018-01-07T12:31:45Z</time>
      </trkpt>
      <trkpt lat="62.648120864482" lon="17.866142393378">
        <ele>84.4</ele>
        <time>2018-01-07T12:31:46Z</time>
      </trkpt>
      <trkpt lat="62.648105274148" lon="17.866154547133">
        <ele>84.6</ele>
        <time>2018-01-07T12:31:47Z</time>
      </trkpt>
      <trkpt lat="62.64809085728" lon="17.866171730028">
        <ele>84.6</ele>
        <time>2018-01-07T12:31:48Z</time>
      </trkpt>
      <trkpt lat="62.648076943326" lon="17.866189248199">
        <ele>84.6</ele>
        <time>2018-01-07T12:31:49Z</time>
      </trkpt>
      <trkpt lat="62.648064454295" lon="17.866205257628">
        <ele>84.6</ele>
        <time>2018-01-07T12:31:50Z</time>
      </trkpt>
      <trkpt lat="62.648051210893" lon="17.866222775799">
        <ele>84.6</ele>
        <time>2018-01-07T12:31:51Z</time>
      </trkpt>
      <trkpt lat="62.648037296939" lon="17.86623610302">
        <ele>84.8</ele>
        <time>2018-01-07T12:31:52Z</time>
      </trkpt>
      <trkpt lat="62.648021874243" lon="17.866253369734">
        <ele>85</ele>
        <time>2018-01-07T12:31:53Z</time>
      </trkpt>
      <trkpt lat="62.648005613357" lon="17.866273318656">
        <ele>85</ele>
        <time>2018-01-07T12:31:54Z</time>
      </trkpt>
      <trkpt lat="62.647993124326" lon="17.866293770492">
        <ele>85.2</ele>
        <time>2018-01-07T12:31:55Z</time>
      </trkpt>
      <trkpt lat="62.647978288363" lon="17.866315311975">
        <ele>85.6</ele>
        <time>2018-01-07T12:31:56Z</time>
      </trkpt>
      <trkpt lat="62.647966218427" lon="17.86633417125">
        <ele>85.8</ele>
        <time>2018-01-07T12:31:57Z</time>
      </trkpt>
      <trkpt lat="62.647953980853" lon="17.866355461276">
        <ele>86.2</ele>
        <time>2018-01-07T12:31:58Z</time>
      </trkpt>
      <trkpt lat="62.64793998308" lon="17.866375829293">
        <ele>86.4</ele>
        <time>2018-01-07T12:31:59Z</time>
      </trkpt>
      <trkpt lat="62.647927661687" lon="17.866396364948">
        <ele>86.8</ele>
        <time>2018-01-07T12:32:00Z</time>
      </trkpt>
      <trkpt lat="62.647917016674" lon="17.866417403517">
        <ele>87</ele>
        <time>2018-01-07T12:32:01Z</time>
      </trkpt>
      <trkpt lat="62.64790561729" lon="17.866439364095">
        <ele>87.4</ele>
        <time>2018-01-07T12:32:02Z</time>
      </trkpt>
      <trkpt lat="62.647895223734" lon="17.866458391008">
        <ele>87.4</ele>
        <time>2018-01-07T12:32:03Z</time>
      </trkpt>
      <trkpt lat="62.647888266757" lon="17.866477334102">
        <ele>87.6</ele>
        <time>2018-01-07T12:32:04Z</time>
      </trkpt>
      <trkpt lat="62.647877286468" lon="17.86650264744">
        <ele>87.8</ele>
        <time>2018-01-07T12:32:05Z</time>
      </trkpt>
      <trkpt lat="62.647867563464" lon="17.86652444038">
        <ele>87.8</ele>
        <time>2018-01-07T12:32:06Z</time>
      </trkpt>
      <trkpt lat="62.647855661166" lon="17.866546568596">
        <ele>88</ele>
        <time>2018-01-07T12:32:07Z</time>
      </trkpt>
      <trkpt lat="62.647844177963" lon="17.866568529174">
        <ele>88.2</ele>
        <time>2018-01-07T12:32:08Z</time>
      </trkpt>
      <trkpt lat="62.647830766923" lon="17.866599123109">
        <ele>88.6</ele>
        <time>2018-01-07T12:32:09Z</time>
      </trkpt>
      <trkpt lat="62.647824983412" lon="17.866613959072">
        <ele>88.6</ele>
        <time>2018-01-07T12:32:10Z</time>
      </trkpt>
      <trkpt lat="62.647814757494" lon="17.866641200247">
        <ele>88.8</ele>
        <time>2018-01-07T12:32:11Z</time>
      </trkpt>
      <trkpt lat="62.647808722526" lon="17.866654024554">
        <ele>89</ele>
        <time>2018-01-07T12:32:12Z</time>
      </trkpt>
      <trkpt lat="62.647801597911" lon="17.866674895485">
        <ele>89.2</ele>
        <time>2018-01-07T12:32:13Z</time>
      </trkpt>
      <trkpt lat="62.647790449984" lon="17.866701214651">
        <ele>89.4</ele>
        <time>2018-01-07T12:32:14Z</time>
      </trkpt>
      <trkpt lat="62.647780224066" lon="17.866728539645">
        <ele>89.4</ele>
        <time>2018-01-07T12:32:15Z</time>
      </trkpt>
      <trkpt lat="62.647773267089" lon="17.866746644549">
        <ele>89.6</ele>
        <time>2018-01-07T12:32:16Z</time>
      </trkpt>
      <trkpt lat="62.647765807198" lon="17.866767850756">
        <ele>89.8</ele>
        <time>2018-01-07T12:32:17Z</time>
      </trkpt>
      <trkpt lat="62.647758850221" lon="17.866787883497">
        <ele>90</ele>
        <time>2018-01-07T12:32:18Z</time>
      </trkpt>
      <trkpt lat="62.647752899072" lon="17.866810766084">
        <ele>90.4</ele>
        <time>2018-01-07T12:32:19Z</time>
      </trkpt>
      <trkpt lat="62.647744265715" lon="17.866840521829">
        <ele>90.8</ele>
        <time>2018-01-07T12:32:20Z</time>
      </trkpt>
      <trkpt lat="62.64773043558" lon="17.866886035546">
        <ele>91</ele>
        <time>2018-01-07T12:32:21Z</time>
      </trkpt>
      <trkpt lat="62.647724065336" lon="17.866918138223">
        <ele>91.2</ele>
        <time>2018-01-07T12:32:22Z</time>
      </trkpt>
      <trkpt lat="62.647714761427" lon="17.866966334148">
        <ele>91.4</ele>
        <time>2018-01-07T12:32:23Z</time>
      </trkpt>
      <trkpt lat="62.647704703147" lon="17.86701059058">
        <ele>91.4</ele>
        <time>2018-01-07T12:32:24Z</time>
      </trkpt>
      <trkpt lat="62.647695315419" lon="17.867047722397">
        <ele>91.4</ele>
        <time>2018-01-07T12:32:25Z</time>
      </trkpt>
      <trkpt lat="62.647686095329" lon="17.867083094015">
        <ele>91.4</ele>
        <time>2018-01-07T12:32:26Z</time>
      </trkpt>
      <trkpt lat="62.647678719257" lon="17.867113855588">
        <ele>91.4</ele>
        <time>2018-01-07T12:32:27Z</time>
      </trkpt>
      <trkpt lat="62.647673354841" lon="17.867140845306">
        <ele>91.6</ele>
        <time>2018-01-07T12:32:28Z</time>
      </trkpt>
      <trkpt lat="62.647667068416" lon="17.86717152306">
        <ele>91.8</ele>
        <time>2018-01-07T12:32:29Z</time>
      </trkpt>
      <trkpt lat="62.647661704" lon="17.867199015692">
        <ele>91.8</ele>
        <time>2018-01-07T12:32:30Z</time>
      </trkpt>
      <trkpt lat="62.647655669032" lon="17.86722935817">
        <ele>92</ele>
        <time>2018-01-07T12:32:31Z</time>
      </trkpt>
      <trkpt lat="62.647648628236" lon="17.867258108087">
        <ele>92.2</ele>
        <time>2018-01-07T12:32:32Z</time>
      </trkpt>
      <trkpt lat="62.647640581612" lon="17.867293647343">
        <ele>92.4</ele>
        <time>2018-01-07T12:32:33Z</time>
      </trkpt>
      <trkpt lat="62.647635133377" lon="17.867324492735">
        <ele>92.4</ele>
        <time>2018-01-07T12:32:34Z</time>
      </trkpt>
      <trkpt lat="62.647626835296" lon="17.867361456914">
        <ele>92.6</ele>
        <time>2018-01-07T12:32:35Z</time>
      </trkpt>
      <trkpt lat="62.647619375405" lon="17.867392218487">
        <ele>92.8</ele>
        <time>2018-01-07T12:32:36Z</time>
      </trkpt>
      <trkpt lat="62.647615435912" lon="17.867414933436">
        <ele>93</ele>
        <time>2018-01-07T12:32:37Z</time>
      </trkpt>
      <trkpt lat="62.647610406772" lon="17.867440749688">
        <ele>93</ele>
        <time>2018-01-07T12:32:38Z</time>
      </trkpt>
      <trkpt lat="62.647604958537" lon="17.867466314483">
        <ele>93.2</ele>
        <time>2018-01-07T12:32:39Z</time>
      </trkpt>
      <trkpt lat="62.647604455623" lon="17.867484838482">
        <ele>93.4</ele>
        <time>2018-01-07T12:32:40Z</time>
      </trkpt>
      <trkpt lat="62.647598085379" lon="17.867509397449">
        <ele>93.8</ele>
        <time>2018-01-07T12:32:41Z</time>
      </trkpt>
      <trkpt lat="62.647588613832" lon="17.867534543149">
        <ele>94</ele>
        <time>2018-01-07T12:32:42Z</time>
      </trkpt>
      <trkpt lat="62.647581405398" lon="17.867562371057">
        <ele>94</ele>
        <time>2018-01-07T12:32:43Z</time>
      </trkpt>
      <trkpt lat="62.647573526412" lon="17.867591791526">
        <ele>94.4</ele>
        <time>2018-01-07T12:32:44Z</time>
      </trkpt>
      <trkpt lat="62.647564222503" lon="17.867618948882">
        <ele>94.6</ele>
        <time>2018-01-07T12:32:45Z</time>
      </trkpt>
      <trkpt lat="62.647551733472" lon="17.867653147034">
        <ele>94.8</ele>
        <time>2018-01-07T12:32:46Z</time>
      </trkpt>
      <trkpt lat="62.647541339916" lon="17.867685501168">
        <ele>94.8</ele>
        <time>2018-01-07T12:32:47Z</time>
      </trkpt>
      <trkpt lat="62.647530778722" lon="17.867716011284">
        <ele>95</ele>
        <time>2018-01-07T12:32:48Z</time>
      </trkpt>
      <trkpt lat="62.647520636623" lon="17.867744677382">
        <ele>95.2</ele>
        <time>2018-01-07T12:32:49Z</time>
      </trkpt>
      <trkpt lat="62.647506303574" lon="17.867778204982">
        <ele>95.2</ele>
        <time>2018-01-07T12:32:50Z</time>
      </trkpt>
      <trkpt lat="62.647488785403" lon="17.867819527749">
        <ele>95.2</ele>
        <time>2018-01-07T12:32:51Z</time>
      </trkpt>
      <trkpt lat="62.647470680499" lon="17.867849199675">
        <ele>95.4</ele>
        <time>2018-01-07T12:32:52Z</time>
      </trkpt>
      <trkpt lat="62.647448719921" lon="17.867865879656">
        <ele>95.6</ele>
        <time>2018-01-07T12:32:53Z</time>
      </trkpt>
      <trkpt lat="62.64742952537" lon="17.867875937936">
        <ele>95.6</ele>
        <time>2018-01-07T12:32:54Z</time>
      </trkpt>
      <trkpt lat="62.647414018855" lon="17.867884319836">
        <ele>95.6</ele>
        <time>2018-01-07T12:32:55Z</time>
      </trkpt>
      <trkpt lat="62.647390381897" lon="17.867892115003">
        <ele>95.6</ele>
        <time>2018-01-07T12:32:56Z</time>
      </trkpt>
      <trkpt lat="62.647361045247" lon="17.867897730876">
        <ele>95.8</ele>
        <time>2018-01-07T12:32:57Z</time>
      </trkpt>
      <trkpt lat="62.647339252307" lon="17.86789069008">
        <ele>96</ele>
        <time>2018-01-07T12:32:58Z</time>
      </trkpt>
      <trkpt lat="62.647314525702" lon="17.867881134714">
        <ele>96</ele>
        <time>2018-01-07T12:32:59Z</time>
      </trkpt>
      <trkpt lat="62.647292732762" lon="17.867872082262">
        <ele>96</ele>
        <time>2018-01-07T12:33:00Z</time>
      </trkpt>
      <trkpt lat="62.647268257614" lon="17.867837129739">
        <ele>96.2</ele>
        <time>2018-01-07T12:33:01Z</time>
      </trkpt>
      <trkpt lat="62.647251745271" lon="17.867819611568">
        <ele>96.4</ele>
        <time>2018-01-07T12:33:02Z</time>
      </trkpt>
      <trkpt lat="62.647231880168" lon="17.867794633506">
        <ele>96.6</ele>
        <time>2018-01-07T12:33:03Z</time>
      </trkpt>
      <trkpt lat="62.647219223499" lon="17.867784072312">
        <ele>96.6</ele>
        <time>2018-01-07T12:33:04Z</time>
      </trkpt>
      <trkpt lat="62.647197262921" lon="17.867753143101">
        <ele>96.6</ele>
        <time>2018-01-07T12:33:05Z</time>
      </trkpt>
      <trkpt lat="62.647181337311" lon="17.86772305208">
        <ele>96.8</ele>
        <time>2018-01-07T12:33:06Z</time>
      </trkpt>
      <trkpt lat="62.647160214923" lon="17.86768952448">
        <ele>96.8</ele>
        <time>2018-01-07T12:33:07Z</time>
      </trkpt>
      <trkpt lat="62.647139176354" lon="17.867641915288">
        <ele>97</ele>
        <time>2018-01-07T12:33:08Z</time>
      </trkpt>
      <trkpt lat="62.64712023326" lon="17.867610902258">
        <ele>97.2</ele>
        <time>2018-01-07T12:33:09Z</time>
      </trkpt>
      <trkpt lat="62.647102882727" lon="17.867566897283">
        <ele>97.4</ele>
        <time>2018-01-07T12:33:10Z</time>
      </trkpt>
      <trkpt lat="62.647075473914" lon="17.867523898136">
        <ele>97.6</ele>
        <time>2018-01-07T12:33:11Z</time>
      </trkpt>
      <trkpt lat="62.647059715942" lon="17.867492298373">
        <ele>97.4</ele>
        <time>2018-01-07T12:33:12Z</time>
      </trkpt>
      <trkpt lat="62.64704060521" lon="17.867455501832">
        <ele>97.6</ele>
        <time>2018-01-07T12:33:13Z</time>
      </trkpt>
      <trkpt lat="62.647023757591" lon="17.867420297852">
        <ele>97.6</ele>
        <time>2018-01-07T12:33:14Z</time>
      </trkpt>
      <trkpt lat="62.647011436198" lon="17.867384088044">
        <ele>97.8</ele>
        <time>2018-01-07T12:33:15Z</time>
      </trkpt>
      <trkpt lat="62.646995762045" lon="17.86734335201">
        <ele>97.6</ele>
        <time>2018-01-07T12:33:16Z</time>
      </trkpt>
      <trkpt lat="62.646975896942" lon="17.867311165514">
        <ele>97.8</ele>
        <time>2018-01-07T12:33:17Z</time>
      </trkpt>
      <trkpt lat="62.646960641884" lon="17.867283421425">
        <ele>98</ele>
        <time>2018-01-07T12:33:18Z</time>
      </trkpt>
      <trkpt lat="62.646942117885" lon="17.867229441989">
        <ele>98</ele>
        <time>2018-01-07T12:33:19Z</time>
      </trkpt>
      <trkpt lat="62.646924432076" lon="17.867173786173">
        <ele>98.2</ele>
        <time>2018-01-07T12:33:20Z</time>
      </trkpt>
      <trkpt lat="62.646913870882" lon="17.867139001288">
        <ele>98.2</ele>
        <time>2018-01-07T12:33:21Z</time>
      </trkpt>
      <trkpt lat="62.646902639136" lon="17.867086279137">
        <ele>98.4</ele>
        <time>2018-01-07T12:33:22Z</time>
      </trkpt>
      <trkpt lat="62.646881013834" lon="17.867024672172">
        <ele>98.2</ele>
        <time>2018-01-07T12:33:23Z</time>
      </trkpt>
      <trkpt lat="62.646868189527" lon="17.86696281375">
        <ele>98.4</ele>
        <time>2018-01-07T12:33:24Z</time>
      </trkpt>
      <trkpt lat="62.646861567826" lon="17.866908499038">
        <ele>98.4</ele>
        <time>2018-01-07T12:33:25Z</time>
      </trkpt>
      <trkpt lat="62.646856706324" lon="17.866837755802">
        <ele>98.4</ele>
        <time>2018-01-07T12:33:26Z</time>
      </trkpt>
      <trkpt lat="62.646849246433" lon="17.866782938176">
        <ele>98.2</ele>
        <time>2018-01-07T12:33:27Z</time>
      </trkpt>
      <trkpt lat="62.646848743519" lon="17.866727533817">
        <ele>98.2</ele>
        <time>2018-01-07T12:33:28Z</time>
      </trkpt>
      <trkpt lat="62.646847234777" lon="17.866661232988">
        <ele>98</ele>
        <time>2018-01-07T12:33:29Z</time>
      </trkpt>
      <trkpt lat="62.646844636388" lon="17.866592836684">
        <ele>98</ele>
        <time>2018-01-07T12:33:30Z</time>
      </trkpt>
      <trkpt lat="62.646845809854" lon="17.866522009629">
        <ele>98</ele>
        <time>2018-01-07T12:33:31Z</time>
      </trkpt>
      <trkpt lat="62.646838936696" lon="17.866455289705">
        <ele>98.2</ele>
        <time>2018-01-07T12:33:32Z</time>
      </trkpt>
      <trkpt lat="62.646828375502" lon="17.866376499845">
        <ele>98.2</ele>
        <time>2018-01-07T12:33:33Z</time>
      </trkpt>
      <trkpt lat="62.646826782941" lon="17.866289328085">
        <ele>98.4</ele>
        <time>2018-01-07T12:33:34Z</time>
      </trkpt>
      <trkpt lat="62.646822256715" lon="17.86624867587">
        <ele>98.2</ele>
        <time>2018-01-07T12:33:35Z</time>
      </trkpt>
      <trkpt lat="62.646813790996" lon="17.866127808872">
        <ele>98.2</ele>
        <time>2018-01-07T12:33:36Z</time>
      </trkpt>
      <trkpt lat="62.646807504571" lon="17.866052204134">
        <ele>98.2</ele>
        <time>2018-01-07T12:33:37Z</time>
      </trkpt>
      <trkpt lat="62.646794764083" lon="17.865985987124">
        <ele>98.2</ele>
        <time>2018-01-07T12:33:38Z</time>
      </trkpt>
      <trkpt lat="62.646785543993" lon="17.865914321879">
        <ele>98.2</ele>
        <time>2018-01-07T12:33:39Z</time>
      </trkpt>
      <trkpt lat="62.646771965315" lon="17.865851457629">
        <ele>98.2</ele>
        <time>2018-01-07T12:33:40Z</time>
      </trkpt>
      <trkpt lat="62.646760817388" lon="17.865783648058">
        <ele>98.2</ele>
        <time>2018-01-07T12:33:41Z</time>
      </trkpt>
      <trkpt lat="62.646741036104" lon="17.865700248153">
        <ele>98.2</ele>
        <time>2018-01-07T12:33:42Z</time>
      </trkpt>
      <trkpt lat="62.646720248992" lon="17.86563847355">
        <ele>98.2</ele>
        <time>2018-01-07T12:33:43Z</time>
      </trkpt>
      <trkpt lat="62.646700467708" lon="17.865583320648">
        <ele>98</ele>
        <time>2018-01-07T12:33:44Z</time>
      </trkpt>
      <trkpt lat="62.646674735275" lon="17.865513918516">
        <ele>97.8</ele>
        <time>2018-01-07T12:33:45Z</time>
      </trkpt>
      <trkpt lat="62.646657133285" lon="17.865460274356">
        <ele>97.6</ele>
        <time>2018-01-07T12:33:46Z</time>
      </trkpt>
      <trkpt lat="62.64664162677" lon="17.865414006268">
        <ele>97.4</ele>
        <time>2018-01-07T12:33:47Z</time>
      </trkpt>
      <trkpt lat="62.646616229613" lon="17.865347370163">
        <ele>97.4</ele>
        <time>2018-01-07T12:33:48Z</time>
      </trkpt>
      <trkpt lat="62.646594101397" lon="17.865276543108">
        <ele>97.6</ele>
        <time>2018-01-07T12:33:49Z</time>
      </trkpt>
      <trkpt lat="62.646574487751" lon="17.865226167889">
        <ele>97.6</ele>
        <time>2018-01-07T12:33:50Z</time>
      </trkpt>
      <trkpt lat="62.646548671499" lon="17.865164225648">
        <ele>97.6</ele>
        <time>2018-01-07T12:33:51Z</time>
      </trkpt>
      <trkpt lat="62.646530818052" lon="17.865118711931">
        <ele>97.4</ele>
        <time>2018-01-07T12:33:52Z</time>
      </trkpt>
      <trkpt lat="62.646508103103" lon="17.865067414703">
        <ele>97.4</ele>
        <time>2018-01-07T12:33:53Z</time>
      </trkpt>
      <trkpt lat="62.646487232172" lon="17.865034725293">
        <ele>97.2</ele>
        <time>2018-01-07T12:33:54Z</time>
      </trkpt>
      <trkpt lat="62.646468289078" lon="17.86499306725">
        <ele>97.2</ele>
        <time>2018-01-07T12:33:55Z</time>
      </trkpt>
      <trkpt lat="62.64644213755" lon="17.864950738655">
        <ele>97.2</ele>
        <time>2018-01-07T12:33:56Z</time>
      </trkpt>
      <trkpt lat="62.646412633262" lon="17.864915534675">
        <ele>97.2</ele>
        <time>2018-01-07T12:33:57Z</time>
      </trkpt>
      <trkpt lat="62.646383548069" lon="17.86487404427">
        <ele>97.2</ele>
        <time>2018-01-07T12:33:58Z</time>
      </trkpt>
      <trkpt lat="62.64635245122" lon="17.864851748416">
        <ele>97.2</ele>
        <time>2018-01-07T12:33:59Z</time>
      </trkpt>
      <trkpt lat="62.646327389339" lon="17.864814029866">
        <ele>97.4</ele>
        <time>2018-01-07T12:34:00Z</time>
      </trkpt>
      <trkpt lat="62.646296376309" lon="17.864771868909">
        <ele>97.6</ele>
        <time>2018-01-07T12:34:01Z</time>
      </trkpt>
      <trkpt lat="62.646269638048" lon="17.864734401816">
        <ele>97.6</ele>
        <time>2018-01-07T12:34:02Z</time>
      </trkpt>
      <trkpt lat="62.646242229235" lon="17.864697940551">
        <ele>97.6</ele>
        <time>2018-01-07T12:34:03Z</time>
      </trkpt>
      <trkpt lat="62.646209791282" lon="17.864682601674">
        <ele>97.6</ele>
        <time>2018-01-07T12:34:04Z</time>
      </trkpt>
      <trkpt lat="62.646175676949" lon="17.864668436263">
        <ele>97.6</ele>
        <time>2018-01-07T12:34:05Z</time>
      </trkpt>
      <trkpt lat="62.646157572045" lon="17.86466365858">
        <ele>97.4</ele>
        <time>2018-01-07T12:34:06Z</time>
      </trkpt>
      <trkpt lat="62.646118260934" lon="17.86468628971">
        <ele>96.8</ele>
        <time>2018-01-07T12:34:07Z</time>
      </trkpt>
      <trkpt lat="62.646082637859" lon="17.864734820911">
        <ele>97</ele>
        <time>2018-01-07T12:34:08Z</time>
      </trkpt>
      <trkpt lat="62.646058581806" lon="17.864794500039">
        <ele>96.8</ele>
        <time>2018-01-07T12:34:09Z</time>
      </trkpt>
      <trkpt lat="62.646039973988" lon="17.864852167511">
        <ele>96.8</ele>
        <time>2018-01-07T12:34:10Z</time>
      </trkpt>
      <trkpt lat="62.646027736414" lon="17.864927353154">
        <ele>96.8</ele>
        <time>2018-01-07T12:34:11Z</time>
      </trkpt>
      <trkpt lat="62.646003512723" lon="17.864998012571">
        <ele>96.6</ele>
        <time>2018-01-07T12:34:12Z</time>
      </trkpt>
      <trkpt lat="62.645975936272" lon="17.865069007264">
        <ele>96.4</ele>
        <time>2018-01-07T12:34:13Z</time>
      </trkpt>
      <trkpt lat="62.645941402844" lon="17.865144192907">
        <ele>96.2</ele>
        <time>2018-01-07T12:34:14Z</time>
      </trkpt>
      <trkpt lat="62.645902175552" lon="17.865213259763">
        <ele>95.8</ele>
        <time>2018-01-07T12:34:15Z</time>
      </trkpt>
      <trkpt lat="62.64586546283" lon="17.865278554764">
        <ele>95.6</ele>
        <time>2018-01-07T12:34:16Z</time>
      </trkpt>
      <trkpt lat="62.645826235538" lon="17.865342508661">
        <ele>95.4</ele>
        <time>2018-01-07T12:34:17Z</time>
      </trkpt>
      <trkpt lat="62.645783487848" lon="17.865415431191">
        <ele>95</ele>
        <time>2018-01-07T12:34:18Z</time>
      </trkpt>
      <trkpt lat="62.645739566692" lon="17.865490197739">
        <ele>94.8</ele>
        <time>2018-01-07T12:34:19Z</time>
      </trkpt>
      <trkpt lat="62.645695813174" lon="17.865570244884">
        <ele>94.6</ele>
        <time>2018-01-07T12:34:20Z</time>
      </trkpt>
      <trkpt lat="62.645653484579" lon="17.865650375848">
        <ele>94</ele>
        <time>2018-01-07T12:34:21Z</time>
      </trkpt>
      <trkpt lat="62.645616939495" lon="17.865722711645">
        <ele>93.4</ele>
        <time>2018-01-07T12:34:22Z</time>
      </trkpt>
      <trkpt lat="62.645573102158" lon="17.865820696056">
        <ele>93</ele>
        <time>2018-01-07T12:34:23Z</time>
      </trkpt>
      <trkpt lat="62.645535886522" lon="17.865907197264">
        <ele>92.2</ele>
        <time>2018-01-07T12:34:24Z</time>
      </trkpt>
      <trkpt lat="62.645498167972" lon="17.865984226925">
        <ele>91.4</ele>
        <time>2018-01-07T12:34:25Z</time>
      </trkpt>
      <trkpt lat="62.645456007015" lon="17.866068967934">
        <ele>90.4</ele>
        <time>2018-01-07T12:34:26Z</time>
      </trkpt>
      <trkpt lat="62.645416444447" lon="17.866145075586">
        <ele>89.6</ele>
        <time>2018-01-07T12:34:27Z</time>
      </trkpt>
      <trkpt lat="62.645370260178" lon="17.866225877102">
        <ele>88.8</ele>
        <time>2018-01-07T12:34:28Z</time>
      </trkpt>
      <trkpt lat="62.64532231571" lon="17.866311791577">
        <ele>88</ele>
        <time>2018-01-07T12:34:29Z</time>
      </trkpt>
      <trkpt lat="62.645272359586" lon="17.866399382432">
        <ele>87.4</ele>
        <time>2018-01-07T12:34:30Z</time>
      </trkpt>
      <trkpt lat="62.645222235824" lon="17.866493511169">
        <ele>87.2</ele>
        <time>2018-01-07T12:34:31Z</time>
      </trkpt>
      <trkpt lat="62.645178314668" lon="17.866587807544">
        <ele>87</ele>
        <time>2018-01-07T12:34:32Z</time>
      </trkpt>
      <trkpt lat="62.645130034924" lon="17.866707081981">
        <ele>86.6</ele>
        <time>2018-01-07T12:34:33Z</time>
      </trkpt>
      <trkpt lat="62.645091394365" lon="17.866817723061">
        <ele>86</ele>
        <time>2018-01-07T12:34:34Z</time>
      </trkpt>
      <trkpt lat="62.645050406874" lon="17.86695275547">
        <ele>85</ele>
        <time>2018-01-07T12:34:35Z</time>
      </trkpt>
      <trkpt lat="62.645017549826" lon="17.867088206974">
        <ele>85.8</ele>
        <time>2018-01-07T12:34:36Z</time>
      </trkpt>
      <trkpt lat="62.644986788253" lon="17.867233968215">
        <ele>85.6</ele>
        <time>2018-01-07T12:34:37Z</time>
      </trkpt>
      <trkpt lat="62.644948985884" lon="17.867396325618">
        <ele>85.2</ele>
        <time>2018-01-07T12:34:38Z</time>
      </trkpt>
      <trkpt lat="62.644911770248" lon="17.867539823746">
        <ele>84.8</ele>
        <time>2018-01-07T12:34:39Z</time>
      </trkpt>
      <trkpt lat="62.644881008675" lon="17.867658176174">
        <ele>84</ele>
        <time>2018-01-07T12:34:40Z</time>
      </trkpt>
      <trkpt lat="62.644840775555" lon="17.867804272691">
        <ele>83.4</ele>
        <time>2018-01-07T12:34:41Z</time>
      </trkpt>
      <trkpt lat="62.644807164136" lon="17.867921619291">
        <ele>83.2</ele>
        <time>2018-01-07T12:34:42Z</time>
      </trkpt>
      <trkpt lat="62.644778162762" lon="17.868050113818">
        <ele>82.8</ele>
        <time>2018-01-07T12:34:43Z</time>
      </trkpt>
      <trkpt lat="62.644760896048" lon="17.868161257812">
        <ele>82.4</ele>
        <time>2018-01-07T12:34:44Z</time>
      </trkpt>
      <trkpt lat="62.644741869135" lon="17.868267791761">
        <ele>82</ele>
        <time>2018-01-07T12:34:45Z</time>
      </trkpt>
      <trkpt lat="62.644721836394" lon="17.868371140588">
        <ele>81.8</ele>
        <time>2018-01-07T12:34:46Z</time>
      </trkpt>
      <trkpt lat="62.644704318223" lon="17.868439955987">
        <ele>81.6</ele>
        <time>2018-01-07T12:34:47Z</time>
      </trkpt>
      <trkpt lat="62.644683028197" lon="17.868520254589">
        <ele>81.4</ele>
        <time>2018-01-07T12:34:48Z</time>
      </trkpt>
      <trkpt lat="62.644673305193" lon="17.868617149353">
        <ele>81.4</ele>
        <time>2018-01-07T12:34:49Z</time>
      </trkpt>
      <trkpt lat="62.644679843075" lon="17.868688730779">
        <ele>81</ele>
        <time>2018-01-07T12:34:50Z</time>
      </trkpt>
      <trkpt lat="62.644677496143" lon="17.868782440421">
        <ele>81</ele>
        <time>2018-01-07T12:34:51Z</time>
      </trkpt>
      <trkpt lat="62.644676574134" lon="17.868859553901">
        <ele>80.6</ele>
        <time>2018-01-07T12:34:52Z</time>
      </trkpt>
      <trkpt lat="62.644672802279" lon="17.868945384557">
        <ele>80.4</ele>
        <time>2018-01-07T12:34:53Z</time>
      </trkpt>
      <trkpt lat="62.644671544994" lon="17.869022162761">
        <ele>80.4</ele>
        <time>2018-01-07T12:34:54Z</time>
      </trkpt>
      <trkpt lat="62.644669533338" lon="17.869106568494">
        <ele>80.2</ele>
        <time>2018-01-07T12:34:55Z</time>
      </trkpt>
      <trkpt lat="62.644669784795" lon="17.869189633123">
        <ele>80.2</ele>
        <time>2018-01-07T12:34:56Z</time>
      </trkpt>
      <trkpt lat="62.644665845302" lon="17.869259035255">
        <ele>80</ele>
        <time>2018-01-07T12:34:57Z</time>
      </trkpt>
      <trkpt lat="62.64466182199" lon="17.869345285006">
        <ele>80.2</ele>
        <time>2018-01-07T12:34:58Z</time>
      </trkpt>
      <trkpt lat="62.644660313248" lon="17.869427762902">
        <ele>80.2</ele>
        <time>2018-01-07T12:34:59Z</time>
      </trkpt>
      <trkpt lat="62.644655535565" lon="17.869516611042">
        <ele>80</ele>
        <time>2018-01-07T12:35:00Z</time>
      </trkpt>
      <trkpt lat="62.644653020995" lon="17.869612583797">
        <ele>80</ele>
        <time>2018-01-07T12:35:01Z</time>
      </trkpt>
      <trkpt lat="62.644657798678" lon="17.869683410852">
        <ele>80</ele>
        <time>2018-01-07T12:35:02Z</time>
      </trkpt>
      <trkpt lat="62.644652182805" lon="17.869787933145">
        <ele>80</ele>
        <time>2018-01-07T12:35:03Z</time>
      </trkpt>
      <trkpt lat="62.644645142009" lon="17.869871919783">
        <ele>79.8</ele>
        <time>2018-01-07T12:35:04Z</time>
      </trkpt>
      <trkpt lat="62.644637765937" lon="17.869960851742">
        <ele>79.8</ele>
        <time>2018-01-07T12:35:05Z</time>
      </trkpt>
      <trkpt lat="62.64462661801" lon="17.870053136461">
        <ele>79.6</ele>
        <time>2018-01-07T12:35:06Z</time>
      </trkpt>
      <trkpt lat="62.644623013793" lon="17.870135446719">
        <ele>79.4</ele>
        <time>2018-01-07T12:35:07Z</time>
      </trkpt>
      <trkpt lat="62.644608932201" lon="17.870230246008">
        <ele>78.6</ele>
        <time>2018-01-07T12:35:08Z</time>
      </trkpt>
      <trkpt lat="62.6445939286" lon="17.870320686709">
        <ele>77.8</ele>
        <time>2018-01-07T12:35:09Z</time>
      </trkpt>
      <trkpt lat="62.644586552528" lon="17.870423784079">
        <ele>76.6</ele>
        <time>2018-01-07T12:35:10Z</time>
      </trkpt>
      <trkpt lat="62.644571465108" lon="17.870550853683">
        <ele>75.8</ele>
        <time>2018-01-07T12:35:11Z</time>
      </trkpt>
      <trkpt lat="62.644559227534" lon="17.87067264269">
        <ele>75.6</ele>
        <time>2018-01-07T12:35:12Z</time>
      </trkpt>
      <trkpt lat="62.644547995788" lon="17.870802981235">
        <ele>75.6</ele>
        <time>2018-01-07T12:35:13Z</time>
      </trkpt>
      <trkpt lat="62.644540452078" lon="17.870914628143">
        <ele>75.2</ele>
        <time>2018-01-07T12:35:14Z</time>
      </trkpt>
      <trkpt lat="62.644521257527" lon="17.871035914236">
        <ele>74.8</ele>
        <time>2018-01-07T12:35:15Z</time>
      </trkpt>
      <trkpt lat="62.644505248098" lon="17.871157451786">
        <ele>74.8</ele>
        <time>2018-01-07T12:35:16Z</time>
      </trkpt>
      <trkpt lat="62.644492088515" lon="17.871268092866">
        <ele>74.6</ele>
        <time>2018-01-07T12:35:17Z</time>
      </trkpt>
      <trkpt lat="62.644478761294" lon="17.871357527739">
        <ele>74.2</ele>
        <time>2018-01-07T12:35:18Z</time>
      </trkpt>
      <trkpt lat="62.644464428245" lon="17.871460289833">
        <ele>74.2</ele>
        <time>2018-01-07T12:35:19Z</time>
      </trkpt>
      <trkpt lat="62.64445898001" lon="17.871546707222">
        <ele>73.8</ele>
        <time>2018-01-07T12:35:20Z</time>
      </trkpt>
      <trkpt lat="62.644449005549" lon="17.871641255054">
        <ele>73.6</ele>
        <time>2018-01-07T12:35:21Z</time>
      </trkpt>
      <trkpt lat="62.644449340825" lon="17.871716608335">
        <ele>73.6</ele>
        <time>2018-01-07T12:35:22Z</time>
      </trkpt>
      <trkpt lat="62.644452525947" lon="17.871792715987">
        <ele>73.4</ele>
        <time>2018-01-07T12:35:23Z</time>
      </trkpt>
      <trkpt lat="62.644429727179" lon="17.871887096181">
        <ele>73.4</ele>
        <time>2018-01-07T12:35:24Z</time>
      </trkpt>
      <trkpt lat="62.644410951723" lon="17.871972172466">
        <ele>73</ele>
        <time>2018-01-07T12:35:25Z</time>
      </trkpt>
      <trkpt lat="62.644399719977" lon="17.872055069457">
        <ele>72.8</ele>
        <time>2018-01-07T12:35:26Z</time>
      </trkpt>
      <trkpt lat="62.644380273969" lon="17.872148779099">
        <ele>71.8</ele>
        <time>2018-01-07T12:35:27Z</time>
      </trkpt>
      <trkpt lat="62.644378849046" lon="17.872243326931">
        <ele>71.4</ele>
        <time>2018-01-07T12:35:28Z</time>
      </trkpt>
      <trkpt lat="62.644380106331" lon="17.872331672157">
        <ele>71</ele>
        <time>2018-01-07T12:35:29Z</time>
      </trkpt>
      <trkpt lat="62.644348674206" lon="17.872428483102">
        <ele>70.6</ele>
        <time>2018-01-07T12:35:30Z</time>
      </trkpt>
      <trkpt lat="62.644323528506" lon="17.872519007622">
        <ele>69.4</ele>
        <time>2018-01-07T12:35:31Z</time>
      </trkpt>
      <trkpt lat="62.644305507421" lon="17.872588493573">
        <ele>68.8</ele>
        <time>2018-01-07T12:35:32Z</time>
      </trkpt>
      <trkpt lat="62.644272734192" lon="17.872681616482">
        <ele>68.4</ele>
        <time>2018-01-07T12:35:33Z</time>
      </trkpt>
      <trkpt lat="62.644265441939" lon="17.872776080495">
        <ele>67.6</ele>
        <time>2018-01-07T12:35:34Z</time>
      </trkpt>
      <trkpt lat="62.644240044782" lon="17.872889403783">
        <ele>66.8</ele>
        <time>2018-01-07T12:35:35Z</time>
      </trkpt>
      <trkpt lat="62.644221101688" lon="17.873001721243">
        <ele>66.2</ele>
        <time>2018-01-07T12:35:36Z</time>
      </trkpt>
      <trkpt lat="62.644217916566" lon="17.873105740622">
        <ele>66.4</ele>
        <time>2018-01-07T12:35:37Z</time>
      </trkpt>
      <trkpt lat="62.644200901309" lon="17.873238007004">
        <ele>66.2</ele>
        <time>2018-01-07T12:35:38Z</time>
      </trkpt>
      <trkpt lat="62.644174749781" lon="17.87336071802">
        <ele>65.6</ele>
        <time>2018-01-07T12:35:39Z</time>
      </trkpt>
      <trkpt lat="62.644157063972" lon="17.873476639697">
        <ele>65.4</ele>
        <time>2018-01-07T12:35:40Z</time>
      </trkpt>
      <trkpt lat="62.644122530544" lon="17.873580156162">
        <ele>65.2</ele>
        <time>2018-01-07T12:35:41Z</time>
      </trkpt>
      <trkpt lat="62.644095708464" lon="17.873700771703">
        <ele>65.4</ele>
        <time>2018-01-07T12:35:42Z</time>
      </trkpt>
      <trkpt lat="62.644070730402" lon="17.873806216005">
        <ele>65.2</ele>
        <time>2018-01-07T12:35:43Z</time>
      </trkpt>
      <trkpt lat="62.64404742872" lon="17.873917862913">
        <ele>65</ele>
        <time>2018-01-07T12:35:44Z</time>
      </trkpt>
      <trkpt lat="62.644037538078" lon="17.874013165116">
        <ele>65</ele>
        <time>2018-01-07T12:35:45Z</time>
      </trkpt>
      <trkpt lat="62.644009039618" lon="17.874117687409">
        <ele>64.6</ele>
        <time>2018-01-07T12:35:46Z</time>
      </trkpt>
      <trkpt lat="62.643978278045" lon="17.874246601031">
        <ele>64.8</ele>
        <time>2018-01-07T12:35:47Z</time>
      </trkpt>
      <trkpt lat="62.643953132345" lon="17.87436738421">
        <ele>65.6</ele>
        <time>2018-01-07T12:35:48Z</time>
      </trkpt>
      <trkpt lat="62.643928908654" lon="17.87447215796">
        <ele>65.6</ele>
        <time>2018-01-07T12:35:49Z</time>
      </trkpt>
      <trkpt lat="62.643904768782" lon="17.874581457936">
        <ele>66.4</ele>
        <time>2018-01-07T12:35:50Z</time>
      </trkpt>
      <trkpt lat="62.643898314719" lon="17.874624037988">
        <ele>66.6</ele>
        <time>2018-01-07T12:35:51Z</time>
      </trkpt>
      <trkpt lat="62.643877192331" lon="17.874767452297">
        <ele>66.4</ele>
        <time>2018-01-07T12:35:52Z</time>
      </trkpt>
      <trkpt lat="62.643856991952" lon="17.874894102806">
        <ele>66.4</ele>
        <time>2018-01-07T12:35:53Z</time>
      </trkpt>
      <trkpt lat="62.643844419102" lon="17.874973060304">
        <ele>66.6</ele>
        <time>2018-01-07T12:35:54Z</time>
      </trkpt>
      <trkpt lat="62.643825978922" lon="17.875065428842">
        <ele>66.6</ele>
        <time>2018-01-07T12:35:55Z</time>
      </trkpt>
      <trkpt lat="62.64380519181" lon="17.875165592547">
        <ele>66</ele>
        <time>2018-01-07T12:35:56Z</time>
      </trkpt>
      <trkpt lat="62.643796558453" lon="17.875229294987">
        <ele>66</ele>
        <time>2018-01-07T12:35:57Z</time>
      </trkpt>
      <trkpt lat="62.643775352246" lon="17.87532711176">
        <ele>65.8</ele>
        <time>2018-01-07T12:35:58Z</time>
      </trkpt>
      <trkpt lat="62.643761941206" lon="17.875427024008">
        <ele>64.6</ele>
        <time>2018-01-07T12:35:59Z</time>
      </trkpt>
      <trkpt lat="62.64374651851" lon="17.875501622918">
        <ele>62.8</ele>
        <time>2018-01-07T12:36:00Z</time>
      </trkpt>
      <trkpt lat="62.64372472557" lon="17.875599020596">
        <ele>61</ele>
        <time>2018-01-07T12:36:01Z</time>
      </trkpt>
      <trkpt lat="62.643718271507" lon="17.875693903704">
        <ele>60.4</ele>
        <time>2018-01-07T12:36:02Z</time>
      </trkpt>
      <trkpt lat="62.643701172431" lon="17.875777135971">
        <ele>58.8</ele>
        <time>2018-01-07T12:36:03Z</time>
      </trkpt>
      <trkpt lat="62.643689353952" lon="17.875883837558">
        <ele>57.4</ele>
        <time>2018-01-07T12:36:04Z</time>
      </trkpt>
      <trkpt lat="62.643675356179" lon="17.875947791455">
        <ele>55</ele>
        <time>2018-01-07T12:36:05Z</time>
      </trkpt>
      <trkpt lat="62.643651635402" lon="17.876059354544">
        <ele>53.8</ele>
        <time>2018-01-07T12:36:06Z</time>
      </trkpt>
      <trkpt lat="62.643634955421" lon="17.876151723082">
        <ele>53.8</ele>
        <time>2018-01-07T12:36:07Z</time>
      </trkpt>
      <trkpt lat="62.643623136942" lon="17.876222047223">
        <ele>53.8</ele>
        <time>2018-01-07T12:36:08Z</time>
      </trkpt>
      <trkpt lat="62.643601679278" lon="17.876323132937">
        <ele>53.8</ele>
        <time>2018-01-07T12:36:09Z</time>
      </trkpt>
      <trkpt lat="62.643586927134" lon="17.876390271956">
        <ele>53.8</ele>
        <time>2018-01-07T12:36:10Z</time>
      </trkpt>
      <trkpt lat="62.643561194701" lon="17.876465038504">
        <ele>53.6</ele>
        <time>2018-01-07T12:36:11Z</time>
      </trkpt>
      <trkpt lat="62.643528505291" lon="17.876543828364">
        <ele>53.6</ele>
        <time>2018-01-07T12:36:12Z</time>
      </trkpt>
      <trkpt lat="62.643493217492" lon="17.876607279347">
        <ele>53.6</ele>
        <time>2018-01-07T12:36:13Z</time>
      </trkpt>
      <trkpt lat="62.643438316047" lon="17.876666623199">
        <ele>53.8</ele>
        <time>2018-01-07T12:36:14Z</time>
      </trkpt>
      <trkpt lat="62.643393221425" lon="17.87669587603">
        <ele>53.6</ele>
        <time>2018-01-07T12:36:15Z</time>
      </trkpt>
      <trkpt lat="62.643349300269" lon="17.876716495504">
        <ele>53.4</ele>
        <time>2018-01-07T12:36:16Z</time>
      </trkpt>
      <trkpt lat="62.643305882027" lon="17.876739797186">
        <ele>53.6</ele>
        <time>2018-01-07T12:36:17Z</time>
      </trkpt>
      <trkpt lat="62.643265481269" lon="17.876743149946">
        <ele>53.8</ele>
        <time>2018-01-07T12:36:18Z</time>
      </trkpt>
      <trkpt lat="62.643219464638" lon="17.876734935684">
        <ele>53.6</ele>
        <time>2018-01-07T12:36:19Z</time>
      </trkpt>
      <trkpt lat="62.643177303681" lon="17.876729487449">
        <ele>53.8</ele>
        <time>2018-01-07T12:36:20Z</time>
      </trkpt>
      <trkpt lat="62.643146123013" lon="17.876723368662">
        <ele>54.2</ele>
        <time>2018-01-07T12:36:21Z</time>
      </trkpt>
      <trkpt lat="62.643108739739" lon="17.876711969278">
        <ele>54.2</ele>
        <time>2018-01-07T12:36:22Z</time>
      </trkpt>
      <trkpt lat="62.643068925714" lon="17.876698977333">
        <ele>54.2</ele>
        <time>2018-01-07T12:36:23Z</time>
      </trkpt>
      <trkpt lat="62.643041097806" lon="17.876691936537">
        <ele>54.4</ele>
        <time>2018-01-07T12:36:24Z</time>
      </trkpt>
      <trkpt lat="62.643009330405" lon="17.876676681479">
        <ele>54.6</ele>
        <time>2018-01-07T12:36:25Z</time>
      </trkpt>
      <trkpt lat="62.642974210244" lon="17.876662432249">
        <ele>54.6</ele>
        <time>2018-01-07T12:36:26Z</time>
      </trkpt>
      <trkpt lat="62.642948310173" lon="17.876661677878">
        <ele>54.6</ele>
        <time>2018-01-07T12:36:27Z</time>
      </trkpt>
      <trkpt lat="62.642922410102" lon="17.876661929335">
        <ele>54.6</ele>
        <time>2018-01-07T12:36:28Z</time>
      </trkpt>
      <trkpt lat="62.64286809539" lon="17.876666036466">
        <ele>54.8</ele>
        <time>2018-01-07T12:36:30Z</time>
      </trkpt>
      <trkpt lat="62.642849319934" lon="17.876654469444">
        <ele>54.8</ele>
        <time>2018-01-07T12:36:31Z</time>
      </trkpt>
      <trkpt lat="62.642831969401" lon="17.876652876883">
        <ele>55</ele>
        <time>2018-01-07T12:36:32Z</time>
      </trkpt>
      <trkpt lat="62.642818809818" lon="17.876649021209">
        <ele>55.2</ele>
        <time>2018-01-07T12:36:33Z</time>
      </trkpt>
      <trkpt lat="62.642803219484" lon="17.876652373969">
        <ele>55.8</ele>
        <time>2018-01-07T12:36:34Z</time>
      </trkpt>
      <trkpt lat="62.642785785132" lon="17.876651871055">
        <ele>56.4</ele>
        <time>2018-01-07T12:36:35Z</time>
      </trkpt>
      <trkpt lat="62.64277170354" lon="17.876653798892">
        <ele>57</ele>
        <time>2018-01-07T12:36:36Z</time>
      </trkpt>
      <trkpt lat="62.642755861749" lon="17.876662096973">
        <ele>57.6</ele>
        <time>2018-01-07T12:36:37Z</time>
      </trkpt>
      <trkpt lat="62.642739684682" lon="17.876668383398">
        <ele>58.2</ele>
        <time>2018-01-07T12:36:38Z</time>
      </trkpt>
      <trkpt lat="62.642724094348" lon="17.876671903796">
        <ele>58.6</ele>
        <time>2018-01-07T12:36:39Z</time>
      </trkpt>
      <trkpt lat="62.642708168738" lon="17.876671819977">
        <ele>59.2</ele>
        <time>2018-01-07T12:36:40Z</time>
      </trkpt>
      <trkpt lat="62.642689812377" lon="17.876683051723">
        <ele>59.6</ele>
        <time>2018-01-07T12:36:41Z</time>
      </trkpt>
      <trkpt lat="62.642671875111" lon="17.876698977333">
        <ele>60</ele>
        <time>2018-01-07T12:36:42Z</time>
      </trkpt>
      <trkpt lat="62.642639856253" lon="17.876719848264">
        <ele>60.6</ele>
        <time>2018-01-07T12:36:43Z</time>
      </trkpt>
      <trkpt lat="62.642624265919" lon="17.876739881005">
        <ele>60.8</ele>
        <time>2018-01-07T12:36:44Z</time>
      </trkpt>
      <trkpt lat="62.64259316907" lon="17.876765613438">
        <ele>61</ele>
        <time>2018-01-07T12:36:45Z</time>
      </trkpt>
      <trkpt lat="62.642570202664" lon="17.876792016423">
        <ele>61.2</ele>
        <time>2018-01-07T12:36:46Z</time>
      </trkpt>
      <trkpt lat="62.642549750828" lon="17.876811630069">
        <ele>61.4</ele>
        <time>2018-01-07T12:36:47Z</time>
      </trkpt>
      <trkpt lat="62.642530221001" lon="17.876847253144">
        <ele>61.8</ele>
        <time>2018-01-07T12:36:48Z</time>
      </trkpt>
      <trkpt lat="62.642513708658" lon="17.876864184582">
        <ele>62</ele>
        <time>2018-01-07T12:36:49Z</time>
      </trkpt>
      <trkpt lat="62.642491245166" lon="17.876884971694">
        <ele>62.2</ele>
        <time>2018-01-07T12:36:50Z</time>
      </trkpt>
      <trkpt lat="62.64247079333" lon="17.876902741322">
        <ele>62.4</ele>
        <time>2018-01-07T12:36:51Z</time>
      </trkpt>
      <trkpt lat="62.642455035358" lon="17.876929144307">
        <ele>62.6</ele>
        <time>2018-01-07T12:36:52Z</time>
      </trkpt>
      <trkpt lat="62.642431733676" lon="17.876967617228">
        <ele>63</ele>
        <time>2018-01-07T12:36:53Z</time>
      </trkpt>
      <trkpt lat="62.642409437822" lon="17.877000390457">
        <ele>63.2</ele>
        <time>2018-01-07T12:36:54Z</time>
      </trkpt>
      <trkpt lat="62.642388063977" lon="17.877039785387">
        <ele>63.8</ele>
        <time>2018-01-07T12:36:55Z</time>
      </trkpt>
      <trkpt lat="62.642367612141" lon="17.877079180317">
        <ele>64.2</ele>
        <time>2018-01-07T12:36:56Z</time>
      </trkpt>
      <trkpt lat="62.642342801717" lon="17.877106002397">
        <ele>64.4</ele>
        <time>2018-01-07T12:36:57Z</time>
      </trkpt>
      <trkpt lat="62.642318829483" lon="17.877137769798">
        <ele>64.8</ele>
        <time>2018-01-07T12:36:58Z</time>
      </trkpt>
      <trkpt lat="62.642295024887" lon="17.87717029157">
        <ele>65.2</ele>
        <time>2018-01-07T12:36:59Z</time>
      </trkpt>
      <trkpt lat="62.642274908327" lon="17.877207842482">
        <ele>65.6</ele>
        <time>2018-01-07T12:37:00Z</time>
      </trkpt>
      <trkpt lat="62.642246828962" lon="17.877262324832">
        <ele>65.8</ele>
        <time>2018-01-07T12:37:01Z</time>
      </trkpt>
      <trkpt lat="62.642232998827" lon="17.877296690622">
        <ele>65.8</ele>
        <time>2018-01-07T12:37:02Z</time>
      </trkpt>
      <trkpt lat="62.642197711028" lon="17.877357794673">
        <ele>66</ele>
        <time>2018-01-07T12:37:03Z</time>
      </trkpt>
      <trkpt lat="62.642176504821" lon="17.877412947575">
        <ele>65.8</ele>
        <time>2018-01-07T12:37:04Z</time>
      </trkpt>
      <trkpt lat="62.64215311932" lon="17.877469106305">
        <ele>65.8</ele>
        <time>2018-01-07T12:37:05Z</time>
      </trkpt>
      <trkpt lat="62.642125626688" lon="17.877526773777">
        <ele>65.6</ele>
        <time>2018-01-07T12:37:06Z</time>
      </trkpt>
      <trkpt lat="62.642098217875" lon="17.87757681372">
        <ele>65.4</ele>
        <time>2018-01-07T12:37:07Z</time>
      </trkpt>
      <trkpt lat="62.642064522637" lon="17.87764303073">
        <ele>65.2</ele>
        <time>2018-01-07T12:37:08Z</time>
      </trkpt>
      <trkpt lat="62.642028480467" lon="17.877727771739">
        <ele>65</ele>
        <time>2018-01-07T12:37:09Z</time>
      </trkpt>
      <trkpt lat="62.641996964523" lon="17.877808908531">
        <ele>65</ele>
        <time>2018-01-07T12:37:10Z</time>
      </trkpt>
      <trkpt lat="62.641962263457" lon="17.87790706058">
        <ele>64.4</ele>
        <time>2018-01-07T12:37:11Z</time>
      </trkpt>
      <trkpt lat="62.641931250427" lon="17.878006386095">
        <ele>64.2</ele>
        <time>2018-01-07T12:37:12Z</time>
      </trkpt>
      <trkpt lat="62.641896465542" lon="17.878127420731">
        <ele>64</ele>
        <time>2018-01-07T12:37:13Z</time>
      </trkpt>
      <trkpt lat="62.641865787788" lon="17.87825407124">
        <ele>63.6</ele>
        <time>2018-01-07T12:37:14Z</time>
      </trkpt>
      <trkpt lat="62.641840558269" lon="17.87838650526">
        <ele>63</ele>
        <time>2018-01-07T12:37:15Z</time>
      </trkpt>
      <trkpt lat="62.641816753673" lon="17.878525812438">
        <ele>62.2</ele>
        <time>2018-01-07T12:37:16Z</time>
      </trkpt>
      <trkpt lat="62.641796301837" lon="17.878660509571">
        <ele>61.6</ele>
        <time>2018-01-07T12:37:17Z</time>
      </trkpt>
      <trkpt lat="62.641776688191" lon="17.878817502558">
        <ele>60.8</ele>
        <time>2018-01-07T12:37:18Z</time>
      </trkpt>
      <trkpt lat="62.641767971015" lon="17.878946332361">
        <ele>60.2</ele>
        <time>2018-01-07T12:37:19Z</time>
      </trkpt>
      <trkpt lat="62.641762774237" lon="17.879083544064">
        <ele>59.8</ele>
        <time>2018-01-07T12:37:20Z</time>
      </trkpt>
      <trkpt lat="62.641762271323" lon="17.879217403007">
        <ele>59.2</ele>
        <time>2018-01-07T12:37:21Z</time>
      </trkpt>
      <trkpt lat="62.641764785893" lon="17.879315303599">
        <ele>59</ele>
        <time>2018-01-07T12:37:22Z</time>
      </trkpt>
      <trkpt lat="62.641776185277" lon="17.879504231625">
        <ele>58.8</ele>
        <time>2018-01-07T12:37:23Z</time>
      </trkpt>
      <trkpt lat="62.64178850667" lon="17.879638593482">
        <ele>58.4</ele>
        <time>2018-01-07T12:37:24Z</time>
      </trkpt>
      <trkpt lat="62.64179856495" lon="17.879764908715">
        <ele>57.6</ele>
        <time>2018-01-07T12:37:25Z</time>
      </trkpt>
      <trkpt lat="62.641806863031" lon="17.879889882844">
        <ele>57</ele>
        <time>2018-01-07T12:37:26Z</time>
      </trkpt>
      <trkpt lat="62.641811724533" lon="17.879996752069">
        <ele>56.6</ele>
        <time>2018-01-07T12:37:27Z</time>
      </trkpt>
      <trkpt lat="62.641817508044" lon="17.880111081185">
        <ele>56.2</ele>
        <time>2018-01-07T12:37:28Z</time>
      </trkpt>
      <trkpt lat="62.641807198307" lon="17.880291040578">
        <ele>55.4</ele>
        <time>2018-01-07T12:37:30Z</time>
      </trkpt>
      <trkpt lat="62.641794709276" lon="17.880461109329">
        <ele>55.4</ele>
        <time>2018-01-07T12:37:31Z</time>
      </trkpt>
      <trkpt lat="62.641782471702" lon="17.880578791205">
        <ele>55.2</ele>
        <time>2018-01-07T12:37:32Z</time>
      </trkpt>
      <trkpt lat="62.641766378454" lon="17.880699574384">
        <ele>55</ele>
        <time>2018-01-07T12:37:33Z</time>
      </trkpt>
      <trkpt lat="62.641749447016" lon="17.880792362017">
        <ele>54.8</ele>
        <time>2018-01-07T12:37:34Z</time>
      </trkpt>
      <trkpt lat="62.641731425931" lon="17.88089185517">
        <ele>54.6</ele>
        <time>2018-01-07T12:37:35Z</time>
      </trkpt>
      <trkpt lat="62.64172396604" lon="17.880928064978">
        <ele>54.6</ele>
        <time>2018-01-07T12:37:36Z</time>
      </trkpt>
      <trkpt lat="62.641703262747" lon="17.881036945859">
        <ele>54.8</ele>
        <time>2018-01-07T12:37:37Z</time>
      </trkpt>
      <trkpt lat="62.641691108992" lon="17.881099223376">
        <ele>55.2</ele>
        <time>2018-01-07T12:37:38Z</time>
      </trkpt>
      <trkpt lat="62.641675937753" lon="17.881164769834">
        <ele>55.4</ele>
        <time>2018-01-07T12:37:39Z</time>
      </trkpt>
      <trkpt lat="62.641665041283" lon="17.881225287152">
        <ele>55.6</ele>
        <time>2018-01-07T12:37:40Z</time>
      </trkpt>
      <trkpt lat="62.641648361302" lon="17.881332156377">
        <ele>55.8</ele>
        <time>2018-01-07T12:37:41Z</time>
      </trkpt>
      <trkpt lat="62.64164014704" lon="17.881435421385">
        <ele>55.8</ele>
        <time>2018-01-07T12:37:42Z</time>
      </trkpt>
      <trkpt lat="62.641629334389" lon="17.88154983432">
        <ele>55.2</ele>
        <time>2018-01-07T12:37:43Z</time>
      </trkpt>
      <trkpt lat="62.641612570589" lon="17.881637257537">
        <ele>55</ele>
        <time>2018-01-07T12:37:44Z</time>
      </trkpt>
      <trkpt lat="62.641610475114" lon="17.881709425696">
        <ele>54.6</ele>
        <time>2018-01-07T12:37:45Z</time>
      </trkpt>
      <trkpt lat="62.641606954716" lon="17.881804141166">
        <ele>54.6</ele>
        <time>2018-01-07T12:37:46Z</time>
      </trkpt>
      <trkpt lat="62.641566553958" lon="17.88180129132">
        <ele>54.6</ele>
        <time>2018-01-07T12:37:47Z</time>
      </trkpt>
      <trkpt lat="62.64152866777" lon="17.881823335717">
        <ele>54.4</ele>
        <time>2018-01-07T12:37:48Z</time>
      </trkpt>
      <trkpt lat="62.641483573148" lon="17.881852756186">
        <ele>54.2</ele>
        <time>2018-01-07T12:37:50Z</time>
      </trkpt>
      <trkpt lat="62.641447447159" lon="17.881851498901">
        <ele>54.4</ele>
        <time>2018-01-07T12:37:51Z</time>
      </trkpt>
      <trkpt lat="62.64142054126" lon="17.881859713163">
        <ele>54.6</ele>
        <time>2018-01-07T12:37:52Z</time>
      </trkpt>
      <trkpt lat="62.641387600393" lon="17.881875387316">
        <ele>54.6</ele>
        <time>2018-01-07T12:37:53Z</time>
      </trkpt>
      <trkpt lat="62.641355665354" lon="17.881890307098">
        <ele>55</ele>
        <time>2018-01-07T12:37:54Z</time>
      </trkpt>
      <trkpt lat="62.641324903781" lon="17.881904975423">
        <ele>55.2</ele>
        <time>2018-01-07T12:37:55Z</time>
      </trkpt>
      <trkpt lat="62.641294896579" lon="17.881919559929">
        <ele>55.4</ele>
        <time>2018-01-07T12:37:56Z</time>
      </trkpt>
      <trkpt lat="62.641270421431" lon="17.881932970969">
        <ele>55.4</ele>
        <time>2018-01-07T12:37:57Z</time>
      </trkpt>
      <trkpt lat="62.641238234935" lon="17.881959038678">
        <ele>55.6</ele>
        <time>2018-01-07T12:37:58Z</time>
      </trkpt>
      <trkpt lat="62.641197247444" lon="17.882007402241">
        <ele>55.6</ele>
        <time>2018-01-07T12:37:59Z</time>
      </trkpt>
      <trkpt lat="62.641158103971" lon="17.882078816029">
        <ele>55.4</ele>
        <time>2018-01-07T12:38:00Z</time>
      </trkpt>
      <trkpt lat="62.641123989638" lon="17.882155594233">
        <ele>55.4</ele>
        <time>2018-01-07T12:38:01Z</time>
      </trkpt>
      <trkpt lat="62.641097754291" lon="17.882223068528">
        <ele>55.4</ele>
        <time>2018-01-07T12:38:02Z</time>
      </trkpt>
      <trkpt lat="62.641058024085" lon="17.882341756232">
        <ele>55.2</ele>
        <time>2018-01-07T12:38:03Z</time>
      </trkpt>
      <trkpt lat="62.641029441806" lon="17.882454660425">
        <ele>54.8</ele>
        <time>2018-01-07T12:38:04Z</time>
      </trkpt>
      <trkpt lat="62.641008487056" lon="17.882586507712">
        <ele>54</ele>
        <time>2018-01-07T12:38:05Z</time>
      </trkpt>
      <trkpt lat="62.640996333301" lon="17.88270653652">
        <ele>53.4</ele>
        <time>2018-01-07T12:38:06Z</time>
      </trkpt>
      <trkpt lat="62.640988202858" lon="17.882816087953">
        <ele>52.2</ele>
        <time>2018-01-07T12:38:07Z</time>
      </trkpt>
      <trkpt lat="62.640983508994" lon="17.882929746517">
        <ele>51.2</ele>
        <time>2018-01-07T12:38:08Z</time>
      </trkpt>
      <trkpt lat="62.640976803474" lon="17.883019935761">
        <ele>50.4</ele>
        <time>2018-01-07T12:38:09Z</time>
      </trkpt>
      <trkpt lat="62.640969008307" lon="17.883103251847">
        <ele>50.4</ele>
        <time>2018-01-07T12:38:10Z</time>
      </trkpt>
      <trkpt lat="62.640955597267" lon="17.883209869615">
        <ele>50.4</ele>
        <time>2018-01-07T12:38:11Z</time>
      </trkpt>
      <trkpt lat="62.64095283124" lon="17.883304585085">
        <ele>50.8</ele>
        <time>2018-01-07T12:38:12Z</time>
      </trkpt>
      <trkpt lat="62.640955178172" lon="17.883410197025">
        <ele>51</ele>
        <time>2018-01-07T12:38:13Z</time>
      </trkpt>
      <trkpt lat="62.640968589212" lon="17.883515892784">
        <ele>50.6</ele>
        <time>2018-01-07T12:38:14Z</time>
      </trkpt>
      <trkpt lat="62.640986777935" lon="17.883627958787">
        <ele>50</ele>
        <time>2018-01-07T12:38:15Z</time>
      </trkpt>
      <trkpt lat="62.641006643038" lon="17.883736420573">
        <ele>49.2</ele>
        <time>2018-01-07T12:38:16Z</time>
      </trkpt>
      <trkpt lat="62.641029441806" lon="17.883834907898">
        <ele>48.8</ele>
        <time>2018-01-07T12:38:17Z</time>
      </trkpt>
      <trkpt lat="62.641060371017" lon="17.883955691077">
        <ele>48.6</ele>
        <time>2018-01-07T12:38:18Z</time>
      </trkpt>
      <trkpt lat="62.641090964952" lon="17.884072450944">
        <ele>48.4</ele>
        <time>2018-01-07T12:38:19Z</time>
      </trkpt>
      <trkpt lat="62.64112214562" lon="17.884186360965">
        <ele>48</ele>
        <time>2018-01-07T12:38:20Z</time>
      </trkpt>
      <trkpt lat="62.641152069003" lon="17.884296080036">
        <ele>47.4</ele>
        <time>2018-01-07T12:38:21Z</time>
      </trkpt>
      <trkpt lat="62.641178891083" lon="17.884388029479">
        <ele>47.2</ele>
        <time>2018-01-07T12:38:22Z</time>
      </trkpt>
      <trkpt lat="62.641217280185" lon="17.884491126849">
        <ele>46.6</ele>
        <time>2018-01-07T12:38:23Z</time>
      </trkpt>
      <trkpt lat="62.641258016219" lon="17.884574945849">
        <ele>45.8</ele>
        <time>2018-01-07T12:38:24Z</time>
      </trkpt>
      <trkpt lat="62.641300512452" lon="17.884653987166">
        <ele>45.2</ele>
        <time>2018-01-07T12:38:25Z</time>
      </trkpt>
      <trkpt lat="62.64134510416" lon="17.884734034311">
        <ele>44.2</ele>
        <time>2018-01-07T12:38:26Z</time>
      </trkpt>
      <trkpt lat="62.641386091651" lon="17.88480704066">
        <ele>44</ele>
        <time>2018-01-07T12:38:27Z</time>
      </trkpt>
      <trkpt lat="62.641429174617" lon="17.884886081977">
        <ele>43.6</ele>
        <time>2018-01-07T12:38:28Z</time>
      </trkpt>
      <trkpt lat="62.641474855972" lon="17.884971409719">
        <ele>43.2</ele>
        <time>2018-01-07T12:38:29Z</time>
      </trkpt>
      <trkpt lat="62.641518944766" lon="17.885052295054">
        <ele>42.6</ele>
        <time>2018-01-07T12:38:30Z</time>
      </trkpt>
      <trkpt lat="62.641561273361" lon="17.885132593656">
        <ele>42</ele>
        <time>2018-01-07T12:38:31Z</time>
      </trkpt>
      <trkpt lat="62.641599494825" lon="17.885207108747">
        <ele>41.6</ele>
        <time>2018-01-07T12:38:32Z</time>
      </trkpt>
      <trkpt lat="62.641651462605" lon="17.885306937176">
        <ele>41</ele>
        <time>2018-01-07T12:38:33Z</time>
      </trkpt>
      <trkpt lat="62.641696557227" lon="17.885393941298">
        <ele>40.4</ele>
        <time>2018-01-07T12:38:34Z</time>
      </trkpt>
      <trkpt lat="62.64174911174" lon="17.885492344804">
        <ele>39.8</ele>
        <time>2018-01-07T12:38:35Z</time>
      </trkpt>
      <trkpt lat="62.641799319321" lon="17.885589155749">
        <ele>39.2</ele>
        <time>2018-01-07T12:38:36Z</time>
      </trkpt>
      <trkpt lat="62.641847096151" lon="17.885679847907">
        <ele>38.6</ele>
        <time>2018-01-07T12:38:37Z</time>
      </trkpt>
      <trkpt lat="62.641891352583" lon="17.885773641368">
        <ele>38</ele>
        <time>2018-01-07T12:38:38Z</time>
      </trkpt>
      <trkpt lat="62.64193602811" lon="17.885854023789">
        <ele>37.4</ele>
        <time>2018-01-07T12:38:39Z</time>
      </trkpt>
      <trkpt lat="62.641972154099" lon="17.885925605215">
        <ele>37.2</ele>
        <time>2018-01-07T12:38:40Z</time>
      </trkpt>
      <trkpt lat="62.642009453554" lon="17.886001126134">
        <ele>37.4</ele>
        <time>2018-01-07T12:38:41Z</time>
      </trkpt>
      <trkpt lat="62.642043148792" lon="17.886064074203">
        <ele>37.4</ele>
        <time>2018-01-07T12:38:42Z</time>
      </trkpt>
      <trkpt lat="62.642079442419" lon="17.886133727792">
        <ele>37.6</ele>
        <time>2018-01-07T12:38:43Z</time>
      </trkpt>
      <trkpt lat="62.642113892028" lon="17.886194328929">
        <ele>37.8</ele>
        <time>2018-01-07T12:38:44Z</time>
      </trkpt>
      <trkpt lat="62.642147503447" lon="17.886256522627">
        <ele>38</ele>
        <time>2018-01-07T12:38:45Z</time>
      </trkpt>
      <trkpt lat="62.642180109038" lon="17.886317878135">
        <ele>37.8</ele>
        <time>2018-01-07T12:38:46Z</time>
      </trkpt>
      <trkpt lat="62.642213888095" lon="17.886388034638">
        <ele>37.8</ele>
        <time>2018-01-07T12:38:47Z</time>
      </trkpt>
      <trkpt lat="62.642258060708" lon="17.886486019049">
        <ele>37.6</ele>
        <time>2018-01-07T12:38:48Z</time>
      </trkpt>
      <trkpt lat="62.642296785086" lon="17.886583668184">
        <ele>37.4</ele>
        <time>2018-01-07T12:38:49Z</time>
      </trkpt>
      <trkpt lat="62.6423308156" lon="17.886687771382">
        <ele>37</ele>
        <time>2018-01-07T12:38:50Z</time>
      </trkpt>
      <trkpt lat="62.642360068431" lon="17.886792126037">
        <ele>36.4</ele>
        <time>2018-01-07T12:38:51Z</time>
      </trkpt>
      <trkpt lat="62.642379765896" lon="17.886885332765">
        <ele>35.8</ele>
        <time>2018-01-07T12:38:52Z</time>
      </trkpt>
      <trkpt lat="62.642393428393" lon="17.887010809808">
        <ele>35</ele>
        <time>2018-01-07T12:38:53Z</time>
      </trkpt>
      <trkpt lat="62.642387980158" lon="17.88712379782">
        <ele>34</ele>
        <time>2018-01-07T12:38:54Z</time>
      </trkpt>
      <trkpt lat="62.642365265209" lon="17.887220692584">
        <ele>33.4</ele>
        <time>2018-01-07T12:38:55Z</time>
      </trkpt>
      <trkpt lat="62.642332994894" lon="17.887296129684">
        <ele>32.4</ele>
        <time>2018-01-07T12:38:56Z</time>
      </trkpt>
      <trkpt lat="62.642299215837" lon="17.88736184378">
        <ele>31.8</ele>
        <time>2018-01-07T12:38:57Z</time>
      </trkpt>
      <trkpt lat="62.642260826735" lon="17.887431162093">
        <ele>31.4</ele>
        <time>2018-01-07T12:38:58Z</time>
      </trkpt>
      <trkpt lat="62.642216235027" lon="17.887503162614">
        <ele>31</ele>
        <time>2018-01-07T12:38:59Z</time>
      </trkpt>
      <trkpt lat="62.642171727138" lon="17.8875780968">
        <ele>30.8</ele>
        <time>2018-01-07T12:39:00Z</time>
      </trkpt>
      <trkpt lat="62.642122357747" lon="17.887669878605">
        <ele>30.6</ele>
        <time>2018-01-07T12:39:01Z</time>
      </trkpt>
      <trkpt lat="62.642090422708" lon="17.887730312104">
        <ele>30.4</ele>
        <time>2018-01-07T12:39:02Z</time>
      </trkpt>
      <trkpt lat="62.642052704158" lon="17.887799211322">
        <ele>30</ele>
        <time>2018-01-07T12:39:03Z</time>
      </trkpt>
      <trkpt lat="62.642021020576" lon="17.887865512151">
        <ele>29.8</ele>
        <time>2018-01-07T12:39:04Z</time>
      </trkpt>
      <trkpt lat="62.641992019202" lon="17.887938937595">
        <ele>29.8</ele>
        <time>2018-01-07T12:39:05Z</time>
      </trkpt>
      <trkpt lat="62.641963939837" lon="17.888007752994">
        <ele>29.6</ele>
        <time>2018-01-07T12:39:06Z</time>
      </trkpt>
      <trkpt lat="62.64193770449" lon="17.88807681985">
        <ele>29.6</ele>
        <time>2018-01-07T12:39:07Z</time>
      </trkpt>
      <trkpt lat="62.641913564618" lon="17.888149910018">
        <ele>29.6</ele>
        <time>2018-01-07T12:39:08Z</time>
      </trkpt>
      <trkpt lat="62.641886071986" lon="17.888217300494">
        <ele>29.6</ele>
        <time>2018-01-07T12:39:09Z</time>
      </trkpt>
      <trkpt lat="62.64186226739" lon="17.888272788672">
        <ele>29.6</ele>
        <time>2018-01-07T12:39:10Z</time>
      </trkpt>
      <trkpt lat="62.64183879807" lon="17.888336910207">
        <ele>29.6</ele>
        <time>2018-01-07T12:39:11Z</time>
      </trkpt>
      <trkpt lat="62.641817591863" lon="17.888398265715">
        <ele>29.6</ele>
        <time>2018-01-07T12:39:12Z</time>
      </trkpt>
      <trkpt lat="62.641804348461" lon="17.888465153277">
        <ele>29.6</ele>
        <time>2018-01-07T12:39:13Z</time>
      </trkpt>
      <trkpt lat="62.641786662652" lon="17.88854033892">
        <ele>29.6</ele>
        <time>2018-01-07T12:39:14Z</time>
      </trkpt>
      <trkpt lat="62.641771910508" lon="17.88863086344">
        <ele>29.6</ele>
        <time>2018-01-07T12:39:15Z</time>
      </trkpt>
      <trkpt lat="62.641760762581" lon="17.888704205065">
        <ele>29.2</ele>
        <time>2018-01-07T12:39:16Z</time>
      </trkpt>
      <trkpt lat="62.641755398165" lon="17.888757011035">
        <ele>29</ele>
        <time>2018-01-07T12:39:17Z</time>
      </trkpt>
      <trkpt lat="62.641751374853" lon="17.888805626055">
        <ele>28.6</ele>
        <time>2018-01-07T12:39:18Z</time>
      </trkpt>
      <trkpt lat="62.641742741496" lon="17.888837561094">
        <ele>28.6</ele>
        <time>2018-01-07T12:39:19Z</time>
      </trkpt>
      <trkpt lat="62.641732683216" lon="17.888869244676">
        <ele>28.6</ele>
        <time>2018-01-07T12:39:20Z</time>
      </trkpt>
      <trkpt lat="62.641726145334" lon="17.88889489329">
        <ele>28.8</ele>
        <time>2018-01-07T12:39:21Z</time>
      </trkpt>
      <trkpt lat="62.641721116194" lon="17.88891500985">
        <ele>29</ele>
        <time>2018-01-07T12:39:22Z</time>
      </trkpt>
      <trkpt lat="62.641713823941" lon="17.888957086988">
        <ele>29.2</ele>
        <time>2018-01-07T12:39:23Z</time>
      </trkpt>
      <trkpt lat="62.641710806457" lon="17.888974688978">
        <ele>29.6</ele>
        <time>2018-01-07T12:39:24Z</time>
      </trkpt>
      <trkpt lat="62.641700580539" lon="17.889006204922">
        <ele>30</ele>
        <time>2018-01-07T12:39:25Z</time>
      </trkpt>
      <trkpt lat="62.641695132304" lon="17.889041995635">
        <ele>30.2</ele>
        <time>2018-01-07T12:39:26Z</time>
      </trkpt>
      <trkpt lat="62.641689767888" lon="17.889066051688">
        <ele>30.6</ele>
        <time>2018-01-07T12:39:27Z</time>
      </trkpt>
      <trkpt lat="62.641685157843" lon="17.889086922619">
        <ele>30.6</ele>
        <time>2018-01-07T12:39:28Z</time>
      </trkpt>
      <trkpt lat="62.641680463979" lon="17.889112906509">
        <ele>31</ele>
        <time>2018-01-07T12:39:29Z</time>
      </trkpt>
      <trkpt lat="62.641675518658" lon="17.889138303666">
        <ele>31</ele>
        <time>2018-01-07T12:39:30Z</time>
      </trkpt>
      <trkpt lat="62.641671914441" lon="17.889165293384">
        <ele>31.4</ele>
        <time>2018-01-07T12:39:31Z</time>
      </trkpt>
      <trkpt lat="62.641669651328" lon="17.889182895374">
        <ele>31.8</ele>
        <time>2018-01-07T12:39:32Z</time>
      </trkpt>
      <trkpt lat="62.641664873645" lon="17.889209382178">
        <ele>32</ele>
        <time>2018-01-07T12:39:33Z</time>
      </trkpt>
      <trkpt lat="62.641662359075" lon="17.889230420747">
        <ele>32.4</ele>
        <time>2018-01-07T12:39:34Z</time>
      </trkpt>
      <trkpt lat="62.64165774903" lon="17.88925028585">
        <ele>32.8</ele>
        <time>2018-01-07T12:39:35Z</time>
      </trkpt>
      <trkpt lat="62.641653055166" lon="17.889269899496">
        <ele>33</ele>
        <time>2018-01-07T12:39:36Z</time>
      </trkpt>
      <trkpt lat="62.641650456777" lon="17.889284232545">
        <ele>33.2</ele>
        <time>2018-01-07T12:39:37Z</time>
      </trkpt>
      <trkpt lat="62.641647439293" lon="17.889305019657">
        <ele>33.6</ele>
        <time>2018-01-07T12:39:38Z</time>
      </trkpt>
      <trkpt lat="62.641644086533" lon="17.889321699638">
        <ele>33.8</ele>
        <time>2018-01-07T12:39:39Z</time>
      </trkpt>
      <trkpt lat="62.641639979402" lon="17.889347012976">
        <ele>34.2</ele>
        <time>2018-01-07T12:39:40Z</time>
      </trkpt>
      <trkpt lat="62.64163930885" lon="17.889360256378">
        <ele>34.6</ele>
        <time>2018-01-07T12:39:41Z</time>
      </trkpt>
      <trkpt lat="62.641636039909" lon="17.889382300775">
        <ele>35</ele>
        <time>2018-01-07T12:39:42Z</time>
      </trkpt>
      <trkpt lat="62.641633525339" lon="17.889406775923">
        <ele>35.4</ele>
        <time>2018-01-07T12:39:43Z</time>
      </trkpt>
      <trkpt lat="62.641632854787" lon="17.889428317406">
        <ele>35.6</ele>
        <time>2018-01-07T12:39:44Z</time>
      </trkpt>
      <trkpt lat="62.641629669665" lon="17.889447428138">
        <ele>35.8</ele>
        <time>2018-01-07T12:39:45Z</time>
      </trkpt>
      <trkpt lat="62.641628328561" lon="17.889465113947">
        <ele>36</ele>
        <time>2018-01-07T12:39:46Z</time>
      </trkpt>
      <trkpt lat="62.641626819819" lon="17.889481877747">
        <ele>36.2</ele>
        <time>2018-01-07T12:39:47Z</time>
      </trkpt>
      <trkpt lat="62.641625311077" lon="17.889507191085">
        <ele>36.4</ele>
        <time>2018-01-07T12:39:48Z</time>
      </trkpt>
      <trkpt lat="62.641624640525" lon="17.889525882722">
        <ele>36.6</ele>
        <time>2018-01-07T12:39:49Z</time>
      </trkpt>
      <trkpt lat="62.64162086867" lon="17.88954616692">
        <ele>36.8</ele>
        <time>2018-01-07T12:39:50Z</time>
      </trkpt>
      <trkpt lat="62.641618270281" lon="17.889566367299">
        <ele>37</ele>
        <time>2018-01-07T12:39:51Z</time>
      </trkpt>
      <trkpt lat="62.641615923349" lon="17.889583969289">
        <ele>37.4</ele>
        <time>2018-01-07T12:39:52Z</time>
      </trkpt>
      <trkpt lat="62.641617012996" lon="17.889605007858">
        <ele>37.8</ele>
        <time>2018-01-07T12:39:53Z</time>
      </trkpt>
      <trkpt lat="62.641615504254" lon="17.889630488834">
        <ele>38.2</ele>
        <time>2018-01-07T12:39:54Z</time>
      </trkpt>
      <trkpt lat="62.64161416315" lon="17.889659490208">
        <ele>38.4</ele>
        <time>2018-01-07T12:39:55Z</time>
      </trkpt>
      <trkpt lat="62.64161332496" lon="17.889684887365">
        <ele>38.8</ele>
        <time>2018-01-07T12:39:56Z</time>
      </trkpt>
      <trkpt lat="62.641613157322" lon="17.889708272866">
        <ele>38.8</ele>
        <time>2018-01-07T12:39:57Z</time>
      </trkpt>
      <trkpt lat="62.641611229485" lon="17.889732161281">
        <ele>39.2</ele>
        <time>2018-01-07T12:39:58Z</time>
      </trkpt>
      <trkpt lat="62.641611145666" lon="17.889755295325">
        <ele>39.4</ele>
        <time>2018-01-07T12:39:59Z</time>
      </trkpt>
      <trkpt lat="62.641615252797" lon="17.889774489876">
        <ele>39.6</ele>
        <time>2018-01-07T12:40:00Z</time>
      </trkpt>
      <trkpt lat="62.641614749883" lon="17.889799551757">
        <ele>39.8</ele>
        <time>2018-01-07T12:40:01Z</time>
      </trkpt>
      <trkpt lat="62.64161667772" lon="17.889821177059">
        <ele>40</ele>
        <time>2018-01-07T12:40:02Z</time>
      </trkpt>
      <trkpt lat="62.641618102643" lon="17.889847496225">
        <ele>40.4</ele>
        <time>2018-01-07T12:40:03Z</time>
      </trkpt>
      <trkpt lat="62.641620701032" lon="17.88986719369">
        <ele>40.6</ele>
        <time>2018-01-07T12:40:04Z</time>
      </trkpt>
      <trkpt lat="62.641624389068" lon="17.889894770141">
        <ele>41</ele>
        <time>2018-01-07T12:40:05Z</time>
      </trkpt>
      <trkpt lat="62.641629585846" lon="17.88992586699">
        <ele>41.4</ele>
        <time>2018-01-07T12:40:06Z</time>
      </trkpt>
      <trkpt lat="62.641633692977" lon="17.889950928871">
        <ele>41.6</ele>
        <time>2018-01-07T12:40:07Z</time>
      </trkpt>
      <trkpt lat="62.641638386841" lon="17.889983031548">
        <ele>41.8</ele>
        <time>2018-01-07T12:40:08Z</time>
      </trkpt>
      <trkpt lat="62.641642074877" lon="17.890019325175">
        <ele>41.8</ele>
        <time>2018-01-07T12:40:09Z</time>
      </trkpt>
      <trkpt lat="62.641646349646" lon="17.890052936594">
        <ele>42</ele>
        <time>2018-01-07T12:40:10Z</time>
      </trkpt>
      <trkpt lat="62.641650792053" lon="17.890095684284">
        <ele>42.2</ele>
        <time>2018-01-07T12:40:11Z</time>
      </trkpt>
      <trkpt lat="62.64165691084" lon="17.890128206056">
        <ele>42.4</ele>
        <time>2018-01-07T12:40:12Z</time>
      </trkpt>
      <trkpt lat="62.641664119274" lon="17.890154189946">
        <ele>42.4</ele>
        <time>2018-01-07T12:40:13Z</time>
      </trkpt>
      <trkpt lat="62.641676356848" lon="17.890191489401">
        <ele>42.6</ele>
        <time>2018-01-07T12:40:14Z</time>
      </trkpt>
      <trkpt lat="62.64168960025" lon="17.890243373362">
        <ele>42.8</ele>
        <time>2018-01-07T12:40:15Z</time>
      </trkpt>
      <trkpt lat="62.641709213896" lon="17.890273632021">
        <ele>43</ele>
        <time>2018-01-07T12:40:16Z</time>
      </trkpt>
      <trkpt lat="62.641732767035" lon="17.890319397195">
        <ele>43</ele>
        <time>2018-01-07T12:40:17Z</time>
      </trkpt>
      <trkpt lat="62.641768054834" lon="17.890375388287">
        <ele>42.8</ele>
        <time>2018-01-07T12:40:18Z</time>
      </trkpt>
      <trkpt lat="62.64180359409" lon="17.890424841497">
        <ele>42.6</ele>
        <time>2018-01-07T12:40:19Z</time>
      </trkpt>
      <trkpt lat="62.641850448911" lon="17.890463901151">
        <ele>42.4</ele>
        <time>2018-01-07T12:40:20Z</time>
      </trkpt>
      <trkpt lat="62.641904093071" lon="17.890500530054">
        <ele>41.8</ele>
        <time>2018-01-07T12:40:21Z</time>
      </trkpt>
      <trkpt lat="62.641961509086" lon="17.890537242776">
        <ele>41.2</ele>
        <time>2018-01-07T12:40:22Z</time>
      </trkpt>
      <trkpt lat="62.642022613137" lon="17.890578146448">
        <ele>40.6</ele>
        <time>2018-01-07T12:40:23Z</time>
      </trkpt>
      <trkpt lat="62.642113640571" lon="17.890640759241">
        <ele>39.6</ele>
        <time>2018-01-07T12:40:24Z</time>
      </trkpt>
      <trkpt lat="62.642196621381" lon="17.89069867817">
        <ele>38.4</ele>
        <time>2018-01-07T12:40:25Z</time>
      </trkpt>
      <trkpt lat="62.642278428725" lon="17.890758105841">
        <ele>37.2</ele>
        <time>2018-01-07T12:40:26Z</time>
      </trkpt>
      <trkpt lat="62.642350429246" lon="17.89081099563">
        <ele>36.2</ele>
        <time>2018-01-07T12:40:27Z</time>
      </trkpt>
      <trkpt lat="62.642406168881" lon="17.890854162415">
        <ele>35.2</ele>
        <time>2018-01-07T12:40:28Z</time>
      </trkpt>
      <trkpt lat="62.642444725621" lon="17.890912584258">
        <ele>33.6</ele>
        <time>2018-01-07T12:40:29Z</time>
      </trkpt>
      <trkpt lat="62.642480097239" lon="17.890969832635">
        <ele>32.8</ele>
        <time>2018-01-07T12:40:30Z</time>
      </trkpt>
      <trkpt lat="62.642502057817" lon="17.890997409086">
        <ele>32.6</ele>
        <time>2018-01-07T12:40:31Z</time>
      </trkpt>
      <trkpt lat="62.642515301219" lon="17.89102724865">
        <ele>32.8</ele>
        <time>2018-01-07T12:40:32Z</time>
      </trkpt>
      <trkpt lat="62.642528712259" lon="17.891071085987">
        <ele>33.2</ele>
        <time>2018-01-07T12:40:33Z</time>
      </trkpt>
      <trkpt lat="62.642534160494" lon="17.891119533369">
        <ele>34.2</ele>
        <time>2018-01-07T12:40:34Z</time>
      </trkpt>
      <trkpt lat="62.64254371586" lon="17.891166555828">
        <ele>35.4</ele>
        <time>2018-01-07T12:40:35Z</time>
      </trkpt>
      <trkpt lat="62.642548074448" lon="17.89121165045">
        <ele>36.2</ele>
        <time>2018-01-07T12:40:36Z</time>
      </trkpt>
      <trkpt lat="62.642552013941" lon="17.891243082575">
        <ele>36.4</ele>
        <time>2018-01-07T12:40:37Z</time>
      </trkpt>
      <trkpt lat="62.642547320077" lon="17.891309048128">
        <ele>36.6</ele>
        <time>2018-01-07T12:40:38Z</time>
      </trkpt>
      <trkpt lat="62.642548074448" lon="17.891358920433">
        <ele>36.6</ele>
        <time>2018-01-07T12:40:39Z</time>
      </trkpt>
      <trkpt lat="62.642533825218" lon="17.891423125787">
        <ele>36.8</ele>
        <time>2018-01-07T12:40:40Z</time>
      </trkpt>
      <trkpt lat="62.642519073074" lon="17.891477859594">
        <ele>36.8</ele>
        <time>2018-01-07T12:40:41Z</time>
      </trkpt>
      <trkpt lat="62.642493843555" lon="17.891525301148">
        <ele>36.8</ele>
        <time>2018-01-07T12:40:42Z</time>
      </trkpt>
      <trkpt lat="62.642462076154" lon="17.891578610032">
        <ele>36.8</ele>
        <time>2018-01-07T12:40:43Z</time>
      </trkpt>
      <trkpt lat="62.642430057296" lon="17.89162906907">
        <ele>36.4</ele>
        <time>2018-01-07T12:40:44Z</time>
      </trkpt>
      <trkpt lat="62.642392590203" lon="17.891685730714">
        <ele>36</ele>
        <time>2018-01-07T12:40:45Z</time>
      </trkpt>
      <trkpt lat="62.642357470042" lon="17.891733507544">
        <ele>35.6</ele>
        <time>2018-01-07T12:40:46Z</time>
      </trkpt>
      <trkpt lat="62.642326540831" lon="17.891774746492">
        <ele>35.2</ele>
        <time>2018-01-07T12:40:47Z</time>
      </trkpt>
      <trkpt lat="62.642294605792" lon="17.891816655992">
        <ele>35</ele>
        <time>2018-01-07T12:40:48Z</time>
      </trkpt>
      <trkpt lat="62.642270885015" lon="17.891846495556">
        <ele>34.8</ele>
        <time>2018-01-07T12:40:49Z</time>
      </trkpt>
      <trkpt lat="62.642253953577" lon="17.891864349003">
        <ele>34.8</ele>
        <time>2018-01-07T12:40:50Z</time>
      </trkpt>
      <trkpt lat="62.642241883641" lon="17.891873317636">
        <ele>35</ele>
        <time>2018-01-07T12:40:51Z</time>
      </trkpt>
      <trkpt lat="62.642228053506" lon="17.891877424767">
        <ele>35.2</ele>
        <time>2018-01-07T12:40:52Z</time>
      </trkpt>
      <trkpt lat="62.642213301362" lon="17.89188387883">
        <ele>35.4</ele>
        <time>2018-01-07T12:40:53Z</time>
      </trkpt>
      <trkpt lat="62.642201063788" lon="17.89188723159">
        <ele>35.6</ele>
        <time>2018-01-07T12:40:54Z</time>
      </trkpt>
      <trkpt lat="62.642186730739" lon="17.891886644857">
        <ele>36</ele>
        <time>2018-01-07T12:40:55Z</time>
      </trkpt>
      <trkpt lat="62.642171140405" lon="17.891898044241">
        <ele>36.4</ele>
        <time>2018-01-07T12:40:56Z</time>
      </trkpt>
      <trkpt lat="62.642158819012" lon="17.891897122232">
        <ele>36.6</ele>
        <time>2018-01-07T12:40:57Z</time>
      </trkpt>
      <trkpt lat="62.642144150687" lon="17.891900474992">
        <ele>36.8</ele>
        <time>2018-01-07T12:40:58Z</time>
      </trkpt>
      <trkpt lat="62.642126464878" lon="17.891903743933">
        <ele>37</ele>
        <time>2018-01-07T12:40:59Z</time>
      </trkpt>
      <trkpt lat="62.642113305295" lon="17.891904163028">
        <ele>37.4</ele>
        <time>2018-01-07T12:41:00Z</time>
      </trkpt>
      <trkpt lat="62.642099558979" lon="17.891907012874">
        <ele>37.6</ele>
        <time>2018-01-07T12:41:01Z</time>
      </trkpt>
      <trkpt lat="62.642085896482" lon="17.891912712566">
        <ele>37.8</ele>
        <time>2018-01-07T12:41:02Z</time>
      </trkpt>
      <trkpt lat="62.642071731071" lon="17.891917071154">
        <ele>38</ele>
        <time>2018-01-07T12:41:03Z</time>
      </trkpt>
      <trkpt lat="62.642059661135" lon="17.891922016475">
        <ele>38.2</ele>
        <time>2018-01-07T12:41:04Z</time>
      </trkpt>
      <trkpt lat="62.642047675018" lon="17.89192411195">
        <ele>38.4</ele>
        <time>2018-01-07T12:41:05Z</time>
      </trkpt>
      <trkpt lat="62.642027642277" lon="17.891926458882">
        <ele>38.6</ele>
        <time>2018-01-07T12:41:06Z</time>
      </trkpt>
      <trkpt lat="62.642013895961" lon="17.891933834954">
        <ele>38.8</ele>
        <time>2018-01-07T12:41:07Z</time>
      </trkpt>
      <trkpt lat="62.642000736378" lon="17.891937690628">
        <ele>39</ele>
        <time>2018-01-07T12:41:08Z</time>
      </trkpt>
      <trkpt lat="62.641986906243" lon="17.891945485795">
        <ele>39.2</ele>
        <time>2018-01-07T12:41:09Z</time>
      </trkpt>
      <trkpt lat="62.64197207028" lon="17.891950263478">
        <ele>39.4</ele>
        <time>2018-01-07T12:41:10Z</time>
      </trkpt>
      <trkpt lat="62.641960503258" lon="17.891957052817">
        <ele>39.6</ele>
        <time>2018-01-07T12:41:11Z</time>
      </trkpt>
      <trkpt lat="62.64194776277" lon="17.891974235712">
        <ele>39.8</ele>
        <time>2018-01-07T12:41:12Z</time>
      </trkpt>
      <trkpt lat="62.641930663694" lon="17.89200122543">
        <ele>40</ele>
        <time>2018-01-07T12:41:13Z</time>
      </trkpt>
      <trkpt lat="62.641918677577" lon="17.892018743601">
        <ele>40</ele>
        <time>2018-01-07T12:41:14Z</time>
      </trkpt>
      <trkpt lat="62.641905266537" lon="17.892045230405">
        <ele>40.2</ele>
        <time>2018-01-07T12:41:15Z</time>
      </trkpt>
      <trkpt lat="62.641895292076" lon="17.892062664757">
        <ele>40.4</ele>
        <time>2018-01-07T12:41:16Z</time>
      </trkpt>
      <trkpt lat="62.641887496909" lon="17.892081607851">
        <ele>40.8</ele>
        <time>2018-01-07T12:41:17Z</time>
      </trkpt>
      <trkpt lat="62.641880959027" lon="17.892112872338">
        <ele>41</ele>
        <time>2018-01-07T12:41:18Z</time>
      </trkpt>
      <trkpt lat="62.641874421145" lon="17.892141789893">
        <ele>41.4</ele>
        <time>2018-01-07T12:41:19Z</time>
      </trkpt>
      <trkpt lat="62.641870146376" lon="17.892169617801">
        <ele>41.6</ele>
        <time>2018-01-07T12:41:20Z</time>
      </trkpt>
      <trkpt lat="62.641867212711" lon="17.892198116261">
        <ele>41.6</ele>
        <time>2018-01-07T12:41:21Z</time>
      </trkpt>
      <trkpt lat="62.641865703969" lon="17.892230638033">
        <ele>42</ele>
        <time>2018-01-07T12:41:22Z</time>
      </trkpt>
      <trkpt lat="62.64186813472" lon="17.892260896692">
        <ele>42.4</ele>
        <time>2018-01-07T12:41:23Z</time>
      </trkpt>
      <trkpt lat="62.641870481652" lon="17.892292496455">
        <ele>42.6</ele>
        <time>2018-01-07T12:41:24Z</time>
      </trkpt>
      <trkpt lat="62.64187400205" lon="17.892321078734">
        <ele>42.8</ele>
        <time>2018-01-07T12:41:25Z</time>
      </trkpt>
      <trkpt lat="62.641873331498" lon="17.892372795057">
        <ele>43.2</ele>
        <time>2018-01-07T12:41:26Z</time>
      </trkpt>
      <trkpt lat="62.641877438629" lon="17.89241026215">
        <ele>43.2</ele>
        <time>2018-01-07T12:41:27Z</time>
      </trkpt>
      <trkpt lat="62.641880791389" lon="17.892453512754">
        <ele>43.4</ele>
        <time>2018-01-07T12:41:28Z</time>
      </trkpt>
      <trkpt lat="62.641886071986" lon="17.892501289584">
        <ele>43.2</ele>
        <time>2018-01-07T12:41:29Z</time>
      </trkpt>
      <trkpt lat="62.641886323443" lon="17.892540265419">
        <ele>43.4</ele>
        <time>2018-01-07T12:41:30Z</time>
      </trkpt>
      <trkpt lat="62.641887329271" lon="17.892581755824">
        <ele>43.4</ele>
        <time>2018-01-07T12:41:31Z</time>
      </trkpt>
      <trkpt lat="62.641885149977" lon="17.892606985343">
        <ele>43.2</ele>
        <time>2018-01-07T12:41:32Z</time>
      </trkpt>
      <trkpt lat="62.64188238395" lon="17.892641183495">
        <ele>43.4</ele>
        <time>2018-01-07T12:41:33Z</time>
      </trkpt>
      <trkpt lat="62.641881461941" lon="17.892671861249">
        <ele>43.4</ele>
        <time>2018-01-07T12:41:34Z</time>
      </trkpt>
      <trkpt lat="62.641880120837" lon="17.892707149048">
        <ele>43.4</ele>
        <time>2018-01-07T12:41:35Z</time>
      </trkpt>
      <trkpt lat="62.641876600439" lon="17.892734306404">
        <ele>43.8</ele>
        <time>2018-01-07T12:41:36Z</time>
      </trkpt>
      <trkpt lat="62.64187400205" lon="17.892756350801">
        <ele>44</ele>
        <time>2018-01-07T12:41:37Z</time>
      </trkpt>
      <trkpt lat="62.641872074213" lon="17.892780239216">
        <ele>44.2</ele>
        <time>2018-01-07T12:41:38Z</time>
      </trkpt>
      <trkpt lat="62.641869559643" lon="17.892802451251">
        <ele>44.6</ele>
        <time>2018-01-07T12:41:39Z</time>
      </trkpt>
      <trkpt lat="62.641867128892" lon="17.892821310526">
        <ele>44.8</ele>
        <time>2018-01-07T12:41:40Z</time>
      </trkpt>
      <trkpt lat="62.641865284874" lon="17.892846204769">
        <ele>45.2</ele>
        <time>2018-01-07T12:41:41Z</time>
      </trkpt>
      <trkpt lat="62.641865703969" lon="17.892873445944">
        <ele>45.4</ele>
        <time>2018-01-07T12:41:42Z</time>
      </trkpt>
      <trkpt lat="62.641863273218" lon="17.892897334359">
        <ele>45.6</ele>
        <time>2018-01-07T12:41:43Z</time>
      </trkpt>
      <trkpt lat="62.641863859951" lon="17.892912421779">
        <ele>45.8</ele>
        <time>2018-01-07T12:41:44Z</time>
      </trkpt>
      <trkpt lat="62.641865201055" lon="17.892946787569">
        <ele>46.2</ele>
        <time>2018-01-07T12:41:45Z</time>
      </trkpt>
      <trkpt lat="62.641856316241" lon="17.892976543314">
        <ele>46.4</ele>
        <time>2018-01-07T12:41:46Z</time>
      </trkpt>
      <trkpt lat="62.641854556042" lon="17.892994648218">
        <ele>46.8</ele>
        <time>2018-01-07T12:41:47Z</time>
      </trkpt>
      <trkpt lat="62.641854472223" lon="17.893003030118">
        <ele>47.2</ele>
        <time>2018-01-07T12:41:48Z</time>
      </trkpt>
      <trkpt lat="62.641852963481" lon="17.893020296832">
        <ele>47.4</ele>
        <time>2018-01-07T12:41:49Z</time>
      </trkpt>
      <trkpt lat="62.641852041472" lon="17.893041251582">
        <ele>47.6</ele>
        <time>2018-01-07T12:41:50Z</time>
      </trkpt>
      <trkpt lat="62.641849526902" lon="17.893066145825">
        <ele>47.8</ele>
        <time>2018-01-07T12:41:51Z</time>
      </trkpt>
      <trkpt lat="62.641849945997" lon="17.893085088919">
        <ele>48</ele>
        <time>2018-01-07T12:41:52Z</time>
      </trkpt>
      <trkpt lat="62.641850365092" lon="17.893103026185">
        <ele>48.2</ele>
        <time>2018-01-07T12:41:53Z</time>
      </trkpt>
      <trkpt lat="62.641847766703" lon="17.89311098899">
        <ele>48.2</ele>
        <time>2018-01-07T12:41:54Z</time>
      </trkpt>
      <trkpt lat="62.641843575753" lon="17.893131189369">
        <ele>48.4</ele>
        <time>2018-01-07T12:41:55Z</time>
      </trkpt>
      <trkpt lat="62.641842821382" lon="17.893155748336">
        <ele>48.8</ele>
        <time>2018-01-07T12:41:56Z</time>
      </trkpt>
      <trkpt lat="62.641842234649" lon="17.893167650634">
        <ele>49.2</ele>
        <time>2018-01-07T12:41:57Z</time>
      </trkpt>
      <trkpt lat="62.641838630432" lon="17.893190197945">
        <ele>49.4</ele>
        <time>2018-01-07T12:41:58Z</time>
      </trkpt>
      <trkpt lat="62.641836115862" lon="17.893217774396">
        <ele>49.8</ele>
        <time>2018-01-07T12:41:59Z</time>
      </trkpt>
      <trkpt lat="62.641832427826" lon="17.893245015571">
        <ele>50</ele>
        <time>2018-01-07T12:42:00Z</time>
      </trkpt>
      <trkpt lat="62.641827482505" lon="17.893269239262">
        <ele>50.4</ele>
        <time>2018-01-07T12:42:01Z</time>
      </trkpt>
      <trkpt lat="62.641825303211" lon="17.893298072998">
        <ele>50.6</ele>
        <time>2018-01-07T12:42:02Z</time>
      </trkpt>
      <trkpt lat="62.641819854976" lon="17.893332019693">
        <ele>50.8</ele>
        <time>2018-01-07T12:42:03Z</time>
      </trkpt>
      <trkpt lat="62.64181784332" lon="17.893364457646">
        <ele>51.2</ele>
        <time>2018-01-07T12:42:04Z</time>
      </trkpt>
      <trkpt lat="62.641813233275" lon="17.893411731562">
        <ele>51.4</ele>
        <time>2018-01-07T12:42:05Z</time>
      </trkpt>
      <trkpt lat="62.641808120316" lon="17.893448192827">
        <ele>51.6</ele>
        <time>2018-01-07T12:42:06Z</time>
      </trkpt>
      <trkpt lat="62.641797559122" lon="17.893487420119">
        <ele>51.8</ele>
        <time>2018-01-07T12:42:07Z</time>
      </trkpt>
      <trkpt lat="62.641784231901" lon="17.893526228316">
        <ele>51.8</ele>
        <time>2018-01-07T12:42:08Z</time>
      </trkpt>
      <trkpt lat="62.641777023467" lon="17.893555732604">
        <ele>52</ele>
        <time>2018-01-07T12:42:09Z</time>
      </trkpt>
      <trkpt lat="62.641768893024" lon="17.893592864421">
        <ele>52.2</ele>
        <time>2018-01-07T12:42:10Z</time>
      </trkpt>
      <trkpt lat="62.641760762581" lon="17.893633013722">
        <ele>52.2</ele>
        <time>2018-01-07T12:42:11Z</time>
      </trkpt>
      <trkpt lat="62.641758667106" lon="17.893671402824">
        <ele>52.4</ele>
        <time>2018-01-07T12:42:12Z</time>
      </trkpt>
      <trkpt lat="62.641755901079" lon="17.89371951493">
        <ele>52.6</ele>
        <time>2018-01-07T12:42:13Z</time>
      </trkpt>
      <trkpt lat="62.641753218871" lon="17.893765028647">
        <ele>52.6</ele>
        <time>2018-01-07T12:42:14Z</time>
      </trkpt>
      <trkpt lat="62.641758834744" lon="17.893805345586">
        <ele>53</ele>
        <time>2018-01-07T12:42:15Z</time>
      </trkpt>
      <trkpt lat="62.641761433133" lon="17.893870724406">
        <ele>53.2</ele>
        <time>2018-01-07T12:42:16Z</time>
      </trkpt>
      <trkpt lat="62.641775179449" lon="17.893921434901">
        <ele>53.4</ele>
        <time>2018-01-07T12:42:17Z</time>
      </trkpt>
      <trkpt lat="62.641796804751" lon="17.893967283894">
        <ele>53.6</ele>
        <time>2018-01-07T12:42:18Z</time>
      </trkpt>
      <trkpt lat="62.641829997075" lon="17.893998464562">
        <ele>53.8</ele>
        <time>2018-01-07T12:42:19Z</time>
      </trkpt>
      <trkpt lat="62.641873415317" lon="17.894001901141">
        <ele>54</ele>
        <time>2018-01-07T12:42:20Z</time>
      </trkpt>
      <trkpt lat="62.641921275966" lon="17.893994608888">
        <ele>54</ele>
        <time>2018-01-07T12:42:21Z</time>
      </trkpt>
      <trkpt lat="62.641964861846" lon="17.893978767097">
        <ele>53.8</ele>
        <time>2018-01-07T12:42:22Z</time>
      </trkpt>
      <trkpt lat="62.642016242893" lon="17.893963176763">
        <ele>53.2</ele>
        <time>2018-01-07T12:42:23Z</time>
      </trkpt>
      <trkpt lat="62.642059409678" lon="17.893955549234">
        <ele>52.6</ele>
        <time>2018-01-07T12:42:24Z</time>
      </trkpt>
      <trkpt lat="62.642109281983" lon="17.893961919478">
        <ele>51.8</ele>
        <time>2018-01-07T12:42:25Z</time>
      </trkpt>
      <trkpt lat="62.64215228113" lon="17.893993351603">
        <ele>51</ele>
        <time>2018-01-07T12:42:26Z</time>
      </trkpt>
      <trkpt lat="62.64218497054" lon="17.894050851437">
        <ele>50.4</ele>
        <time>2018-01-07T12:42:27Z</time>
      </trkpt>
      <trkpt lat="62.642209194231" lon="17.894127797279">
        <ele>49.8</ele>
        <time>2018-01-07T12:42:28Z</time>
      </trkpt>
      <trkpt lat="62.642222437633" lon="17.89421404703">
        <ele>49.4</ele>
        <time>2018-01-07T12:42:29Z</time>
      </trkpt>
      <trkpt lat="62.642232579732" lon="17.894297363116">
        <ele>49</ele>
        <time>2018-01-07T12:42:30Z</time>
      </trkpt>
      <trkpt lat="62.642238363243" lon="17.894385959799">
        <ele>48.6</ele>
        <time>2018-01-07T12:42:31Z</time>
      </trkpt>
      <trkpt lat="62.642236686863" lon="17.894479920898">
        <ele>48.2</ele>
        <time>2018-01-07T12:42:32Z</time>
      </trkpt>
      <trkpt lat="62.642226377126" lon="17.894593579462">
        <ele>47.8</ele>
        <time>2018-01-07T12:42:33Z</time>
      </trkpt>
      <trkpt lat="62.642208356041" lon="17.894707405664">
        <ele>47.4</ele>
        <time>2018-01-07T12:42:34Z</time>
      </trkpt>
      <trkpt lat="62.642183545617" lon="17.894831541603">
        <ele>46.6</ele>
        <time>2018-01-07T12:42:35Z</time>
      </trkpt>
      <trkpt lat="62.642158064641" lon="17.894947044185">
        <ele>45.6</ele>
        <time>2018-01-07T12:42:36Z</time>
      </trkpt>
      <trkpt lat="62.642140714108" lon="17.895054248686">
        <ele>45</ele>
        <time>2018-01-07T12:42:37Z</time>
      </trkpt>
      <trkpt lat="62.642130152914" lon="17.895177378797">
        <ele>44.6</ele>
        <time>2018-01-07T12:42:38Z</time>
      </trkpt>
      <trkpt lat="62.642131577837" lon="17.895306543876">
        <ele>43.8</ele>
        <time>2018-01-07T12:42:39Z</time>
      </trkpt>
      <trkpt lat="62.642136187882" lon="17.895472673134">
        <ele>43.8</ele>
        <time>2018-01-07T12:42:40Z</time>
      </trkpt>
      <trkpt lat="62.642134008588" lon="17.89565070469">
        <ele>43.2</ele>
        <time>2018-01-07T12:42:41Z</time>
      </trkpt>
      <trkpt lat="62.642124872317" lon="17.895803674365">
        <ele>42.6</ele>
        <time>2018-01-07T12:42:42Z</time>
      </trkpt>
      <trkpt lat="62.642106935051" lon="17.8959683787">
        <ele>41.8</ele>
        <time>2018-01-07T12:42:43Z</time>
      </trkpt>
      <trkpt lat="62.642083884826" lon="17.896107685878">
        <ele>40.4</ele>
        <time>2018-01-07T12:42:44Z</time>
      </trkpt>
      <trkpt lat="62.642055134909" lon="17.896236012767">
        <ele>38.8</ele>
        <time>2018-01-07T12:42:45Z</time>
      </trkpt>
      <trkpt lat="62.64202739082" lon="17.896356209213">
        <ele>37.4</ele>
        <time>2018-01-07T12:42:46Z</time>
      </trkpt>
      <trkpt lat="62.64201397978" lon="17.896449667398">
        <ele>36.4</ele>
        <time>2018-01-07T12:42:47Z</time>
      </trkpt>
      <trkpt lat="62.641990678098" lon="17.896580508857">
        <ele>36</ele>
        <time>2018-01-07T12:42:48Z</time>
      </trkpt>
      <trkpt lat="62.641970477719" lon="17.89668167839">
        <ele>36.2</ele>
        <time>2018-01-07T12:42:49Z</time>
      </trkpt>
      <trkpt lat="62.641956563765" lon="17.896780165715">
        <ele>36.4</ele>
        <time>2018-01-07T12:42:50Z</time>
      </trkpt>
      <trkpt lat="62.641948349503" lon="17.896899356333">
        <ele>36.4</ele>
        <time>2018-01-07T12:42:51Z</time>
      </trkpt>
      <trkpt lat="62.641945583476" lon="17.897013098716">
        <ele>36.6</ele>
        <time>2018-01-07T12:42:52Z</time>
      </trkpt>
      <trkpt lat="62.641937955947" lon="17.89715106479">
        <ele>36.6</ele>
        <time>2018-01-07T12:42:53Z</time>
      </trkpt>
      <trkpt lat="62.641930663694" lon="17.89727930786">
        <ele>36.6</ele>
        <time>2018-01-07T12:42:54Z</time>
      </trkpt>
      <trkpt lat="62.641919934862" lon="17.897428086585">
        <ele>36.6</ele>
        <time>2018-01-07T12:42:55Z</time>
      </trkpt>
      <trkpt lat="62.641910547134" lon="17.897563873365">
        <ele>36</ele>
        <time>2018-01-07T12:42:56Z</time>
      </trkpt>
      <trkpt lat="62.641897639008" lon="17.897692703168">
        <ele>35.8</ele>
        <time>2018-01-07T12:42:57Z</time>
      </trkpt>
      <trkpt lat="62.641900405035" lon="17.897802422239">
        <ele>35.2</ele>
        <time>2018-01-07T12:42:58Z</time>
      </trkpt>
      <trkpt lat="62.641891687859" lon="17.897908872369">
        <ele>35</ele>
        <time>2018-01-07T12:42:59Z</time>
      </trkpt>
      <trkpt lat="62.641881042846" lon="17.898017250336">
        <ele>34.2</ele>
        <time>2018-01-07T12:43:00Z</time>
      </trkpt>
      <trkpt lat="62.641877606267" lon="17.898106685209">
        <ele>33.6</ele>
        <time>2018-01-07T12:43:01Z</time>
      </trkpt>
      <trkpt lat="62.641870984566" lon="17.89818036211">
        <ele>33</ele>
        <time>2018-01-07T12:43:02Z</time>
      </trkpt>
      <trkpt lat="62.641851287101" lon="17.898263007644">
        <ele>33.2</ele>
        <time>2018-01-07T12:43:03Z</time>
      </trkpt>
      <trkpt lat="62.641841983192" lon="17.89832285441">
        <ele>33.2</ele>
        <time>2018-01-07T12:43:04Z</time>
      </trkpt>
      <trkpt lat="62.641840725907" lon="17.898379180778">
        <ele>33.6</ele>
        <time>2018-01-07T12:43:05Z</time>
      </trkpt>
      <trkpt lat="62.641833014559" lon="17.898433327852">
        <ele>33.6</ele>
        <time>2018-01-07T12:43:06Z</time>
      </trkpt>
      <trkpt lat="62.64182538703" lon="17.898495437731">
        <ele>34</ele>
        <time>2018-01-07T12:43:07Z</time>
      </trkpt>
      <trkpt lat="62.641817927139" lon="17.898572299754">
        <ele>34</ele>
        <time>2018-01-07T12:43:08Z</time>
      </trkpt>
      <trkpt lat="62.641811221619" lon="17.898632565615">
        <ele>34.2</ele>
        <time>2018-01-07T12:43:09Z</time>
      </trkpt>
      <trkpt lat="62.641807114488" lon="17.898687718517">
        <ele>34.4</ele>
        <time>2018-01-07T12:43:10Z</time>
      </trkpt>
      <trkpt lat="62.641801247158" lon="17.898750666586">
        <ele>34.4</ele>
        <time>2018-01-07T12:43:11Z</time>
      </trkpt>
      <trkpt lat="62.641795379828" lon="17.898809591343">
        <ele>34.6</ele>
        <time>2018-01-07T12:43:12Z</time>
      </trkpt>
      <trkpt lat="62.641788422851" lon="17.89887354524">
        <ele>34.8</ele>
        <time>2018-01-07T12:43:13Z</time>
      </trkpt>
      <trkpt lat="62.641782974616" lon="17.898923333726">
        <ele>34.6</ele>
        <time>2018-01-07T12:43:14Z</time>
      </trkpt>
      <trkpt lat="62.641773335431" lon="17.898974798592">
        <ele>34.8</ele>
        <time>2018-01-07T12:43:15Z</time>
      </trkpt>
      <trkpt lat="62.641761349314" lon="17.899028275114">
        <ele>34.8</ele>
        <time>2018-01-07T12:43:16Z</time>
      </trkpt>
      <trkpt lat="62.641751123396" lon="17.8990780636">
        <ele>35</ele>
        <time>2018-01-07T12:43:17Z</time>
      </trkpt>
      <trkpt lat="62.64174492079" lon="17.899105220956">
        <ele>35.2</ele>
        <time>2018-01-07T12:43:18Z</time>
      </trkpt>
    </trkseg>
  </trk>
</gpx>